<?xml version='1.0' encoding='UTF-8'?><gpx version="1.1" creator="JPX - https://github.com/jenetics/jpx" xmlns="http://www.topografix.com/GPX/1/1"><trk><trkseg><trkpt lat="42.05785834798882" lon="13.101615622368222"><ele>786.0</ele><time>2026-05-03T08:06:22.994Z</time></trkpt><trkpt lat="42.057787427929846" lon="13.101736194250904"><ele>786.0</ele><time>2026-05-03T08:08:13.994Z</time></trkpt><trkpt lat="42.05776623323311" lon="13.10181757113061"><ele>786.0</ele><time>2026-05-03T08:08:21.994Z</time></trkpt><trkpt lat="42.0577691845809" lon="13.10190294235652"><ele>786.0</ele><time>2026-05-03T08:08:28.994Z</time></trkpt><trkpt lat="42.05771284672162" lon="13.101977352835984"><ele>786.0</ele><time>2026-05-03T08:08:30.994Z</time></trkpt><trkpt lat="42.0576540073441" lon="13.102032622745975"><ele>786.0</ele><time>2026-05-03T08:08:32.994Z</time></trkpt><trkpt lat="42.05757802152677" lon="13.102107827502131"><ele>786.0</ele><time>2026-05-03T08:08:34.994Z</time></trkpt><trkpt lat="42.057501321141395" lon="13.102197754432202"><ele>786.0</ele><time>2026-05-03T08:08:36.994Z</time></trkpt><trkpt lat="42.0574140264616" lon="13.102294231441645"><ele>786.0</ele><time>2026-05-03T08:08:38.994Z</time></trkpt><trkpt lat="42.05733716270683" lon="13.102384516839908"><ele>786.0</ele><time>2026-05-03T08:08:40.994Z</time></trkpt><trkpt lat="42.05725644493748" lon="13.102471720466797"><ele>786.0</ele><time>2026-05-03T08:08:42.993Z</time></trkpt><trkpt lat="42.05719035606975" lon="13.10257750962815"><ele>784.8333333333334</ele><time>2026-05-03T08:08:44.994Z</time></trkpt><trkpt lat="42.057173176471004" lon="13.102667161478017"><ele>783.6666666666667</ele><time>2026-05-03T08:08:45.993Z</time></trkpt><trkpt lat="42.057135053620385" lon="13.102804388965156"><ele>782.5</ele><time>2026-05-03T08:08:47.994Z</time></trkpt><trkpt lat="42.0571063641273" lon="13.102891396865878"><ele>781.3333333333334</ele><time>2026-05-03T08:08:48.993Z</time></trkpt><trkpt lat="42.05707731105958" lon="13.102975882375809"><ele>780.1666666666667</ele><time>2026-05-03T08:08:49.993Z</time></trkpt><trkpt lat="42.05705557217175" lon="13.103059382852106"><ele>779.0</ele><time>2026-05-03T08:08:50.994Z</time></trkpt><trkpt lat="42.05702818099494" lon="13.103145356493693"><ele>779.0</ele><time>2026-05-03T08:08:51.993Z</time></trkpt><trkpt lat="42.05699544041009" lon="13.103218026542667"><ele>779.0</ele><time>2026-05-03T08:08:52.993Z</time></trkpt><trkpt lat="42.056956398240516" lon="13.103375977456128"><ele>779.0</ele><time>2026-05-03T08:08:54.994Z</time></trkpt><trkpt lat="42.05691278183221" lon="13.103447521963348"><ele>779.0</ele><time>2026-05-03T08:08:55.994Z</time></trkpt><trkpt lat="42.05688996384152" lon="13.103534552664991"><ele>779.0</ele><time>2026-05-03T08:08:56.994Z</time></trkpt><trkpt lat="42.056847694689964" lon="13.103695015045803"><ele>779.5000000000001</ele><time>2026-05-03T08:08:58.994Z</time></trkpt><trkpt lat="42.05682038086387" lon="13.103787848030128"><ele>780.0</ele><time>2026-05-03T08:08:59.994Z</time></trkpt><trkpt lat="42.05679276319166" lon="13.103869765413837"><ele>780.5</ele><time>2026-05-03T08:09:00.994Z</time></trkpt><trkpt lat="42.05675813136326" lon="13.103956007930872"><ele>781.0</ele><time>2026-05-03T08:09:01.994Z</time></trkpt><trkpt lat="42.056708626980885" lon="13.104108398526305"><ele>781.5000000000001</ele><time>2026-05-03T08:09:03.994Z</time></trkpt><trkpt lat="42.0566479393738" lon="13.10422681178569"><ele>782.0</ele><time>2026-05-03T08:09:05.994Z</time></trkpt><trkpt lat="42.056615693927554" lon="13.10430259813276"><ele>782.0000000000001</ele><time>2026-05-03T08:09:06.994Z</time></trkpt><trkpt lat="42.05654945892011" lon="13.104422569758361"><ele>782.0</ele><time>2026-05-03T08:09:08.994Z</time></trkpt><trkpt lat="42.05650423068686" lon="13.104490256573799"><ele>782.0</ele><time>2026-05-03T08:09:09.994Z</time></trkpt><trkpt lat="42.05646740481558" lon="13.10457243114831"><ele>782.0</ele><time>2026-05-03T08:09:10.994Z</time></trkpt><trkpt lat="42.056404981494374" lon="13.10470962242262"><ele>782.0000000000001</ele><time>2026-05-03T08:09:12.994Z</time></trkpt><trkpt lat="42.056376797269984" lon="13.104792660316804"><ele>782.0</ele><time>2026-05-03T08:09:13.994Z</time></trkpt><trkpt lat="42.056325590551936" lon="13.104942520906985"><ele>783.6666666666667</ele><time>2026-05-03T08:09:15.994Z</time></trkpt><trkpt lat="42.05628866748862" lon="13.105014661572236"><ele>785.3333333333334</ele><time>2026-05-03T08:09:16.994Z</time></trkpt><trkpt lat="42.056255896955285" lon="13.105099443828859"><ele>787.0</ele><time>2026-05-03T08:09:17.994Z</time></trkpt><trkpt lat="42.056198654630705" lon="13.105239699990136"><ele>788.6666666666667</ele><time>2026-05-03T08:09:19.994Z</time></trkpt><trkpt lat="42.05614983629803" lon="13.105306669008627"><ele>790.3333333333334</ele><time>2026-05-03T08:09:20.994Z</time></trkpt><trkpt lat="42.056114381270376" lon="13.105381076294364"><ele>792.0</ele><time>2026-05-03T08:09:21.994Z</time></trkpt><trkpt lat="42.056086579257155" lon="13.105466385471571"><ele>792.0</ele><time>2026-05-03T08:09:22.994Z</time></trkpt><trkpt lat="42.05601431212005" lon="13.10557534688151"><ele>792.0</ele><time>2026-05-03T08:09:24.994Z</time></trkpt><trkpt lat="42.05607493572672" lon="13.105782864090028"><ele>792.0</ele><time>2026-05-03T08:09:27.994Z</time></trkpt><trkpt lat="42.056124216090396" lon="13.105661064615699"><ele>792.0</ele><time>2026-05-03T08:09:28.994Z</time></trkpt><trkpt lat="42.05618766723035" lon="13.105533547578204"><ele>792.0</ele><time>2026-05-03T08:09:30.994Z</time></trkpt><trkpt lat="42.05623083672071" lon="13.105454895988453"><ele>792.0</ele><time>2026-05-03T08:09:31.994Z</time></trkpt><trkpt lat="42.056275366475774" lon="13.105373768812626"><ele>792.0</ele><time>2026-05-03T08:09:32.994Z</time></trkpt><trkpt lat="42.05633221988982" lon="13.105292252077394"><ele>792.0</ele><time>2026-05-03T08:09:33.994Z</time></trkpt><trkpt lat="42.05638497276224" lon="13.10522347331995"><ele>792.0</ele><time>2026-05-03T08:09:34.994Z</time></trkpt><trkpt lat="42.05644302783984" lon="13.105150272190633"><ele>792.0</ele><time>2026-05-03T08:09:35.994Z</time></trkpt><trkpt lat="42.056509822692156" lon="13.105075754942273"><ele>792.0</ele><time>2026-05-03T08:09:36.994Z</time></trkpt><trkpt lat="42.056574387516875" lon="13.104988569526794"><ele>792.0</ele><time>2026-05-03T08:09:37.994Z</time></trkpt><trkpt lat="42.056629343047064" lon="13.104911750005957"><ele>792.0</ele><time>2026-05-03T08:09:38.994Z</time></trkpt><trkpt lat="42.05668930246658" lon="13.104832016405796"><ele>792.0</ele><time>2026-05-03T08:09:39.994Z</time></trkpt><trkpt lat="42.05675493664107" lon="13.104754880970898"><ele>792.0</ele><time>2026-05-03T08:09:40.994Z</time></trkpt><trkpt lat="42.0568162160369" lon="13.10467721225345"><ele>792.0</ele><time>2026-05-03T08:09:41.994Z</time></trkpt><trkpt lat="42.05687403466615" lon="13.104602836659547"><ele>793.0</ele><time>2026-05-03T08:09:42.994Z</time></trkpt><trkpt lat="42.05693420459191" lon="13.104521627374089"><ele>794.0</ele><time>2026-05-03T08:09:43.994Z</time></trkpt><trkpt lat="42.0569956332064" lon="13.104457700314795"><ele>795.0</ele><time>2026-05-03T08:09:44.994Z</time></trkpt><trkpt lat="42.057054069295106" lon="13.104401842420558"><ele>796.0</ele><time>2026-05-03T08:09:45.994Z</time></trkpt><trkpt lat="42.057114180768856" lon="13.104370311441663"><ele>797.0</ele><time>2026-05-03T08:09:46.994Z</time></trkpt><trkpt lat="42.0572228126662" lon="13.104286217741047"><ele>798.0</ele><time>2026-05-03T08:09:48.994Z</time></trkpt><trkpt lat="42.057281308966424" lon="13.104244105062206"><ele>798.0</ele><time>2026-05-03T08:09:49.994Z</time></trkpt><trkpt lat="42.05733784382932" lon="13.104204046571356"><ele>798.0</ele><time>2026-05-03T08:09:50.994Z</time></trkpt><trkpt lat="42.05745357921781" lon="13.104145931620911"><ele>798.0</ele><time>2026-05-03T08:09:52.994Z</time></trkpt><trkpt lat="42.05751516514333" lon="13.104102022301738"><ele>798.0</ele><time>2026-05-03T08:09:53.994Z</time></trkpt><trkpt lat="42.05757496814183" lon="13.10405432151227"><ele>798.0</ele><time>2026-05-03T08:09:54.994Z</time></trkpt><trkpt lat="42.057636314377305" lon="13.10399637057582"><ele>798.0</ele><time>2026-05-03T08:09:55.994Z</time></trkpt><trkpt lat="42.05769972359419" lon="13.103950340130089"><ele>799.5</ele><time>2026-05-03T08:09:56.994Z</time></trkpt><trkpt lat="42.05776460241088" lon="13.103912652096836"><ele>801.0</ele><time>2026-05-03T08:09:57.994Z</time></trkpt><trkpt lat="42.05782645146086" lon="13.103860764342935"><ele>802.5</ele><time>2026-05-03T08:09:58.994Z</time></trkpt><trkpt lat="42.057889107391965" lon="13.103806076249644"><ele>804.0</ele><time>2026-05-03T08:09:59.994Z</time></trkpt><trkpt lat="42.0579414306969" lon="13.103748084722959"><ele>805.5</ele><time>2026-05-03T08:10:00.994Z</time></trkpt><trkpt lat="42.05802274795502" lon="13.10368340890903"><ele>807.0</ele><time>2026-05-03T08:10:02.994Z</time></trkpt><trkpt lat="42.058119479232616" lon="13.103748513837104"><ele>807.0</ele><time>2026-05-03T08:10:06.994Z</time></trkpt><trkpt lat="42.058097578448994" lon="13.103909494201663"><ele>807.0</ele><time>2026-05-03T08:10:08.994Z</time></trkpt><trkpt lat="42.05804781177038" lon="13.10399171100675"><ele>807.0</ele><time>2026-05-03T08:10:09.994Z</time></trkpt><trkpt lat="42.057976769441844" lon="13.104065084809248"><ele>807.0</ele><time>2026-05-03T08:10:10.994Z</time></trkpt><trkpt lat="42.057902097474184" lon="13.104155597034575"><ele>807.0</ele><time>2026-05-03T08:10:11.994Z</time></trkpt><trkpt lat="42.05782371901979" lon="13.104252351767613"><ele>805.2</ele><time>2026-05-03T08:10:12.994Z</time></trkpt><trkpt lat="42.05773976600606" lon="13.104361867991384"><ele>803.4000000000001</ele><time>2026-05-03T08:10:13.994Z</time></trkpt><trkpt lat="42.05765853358582" lon="13.104482773949824"><ele>801.5999999999999</ele><time>2026-05-03T08:10:14.994Z</time></trkpt><trkpt lat="42.057588000583436" lon="13.104594352092025"><ele>799.8</ele><time>2026-05-03T08:10:15.994Z</time></trkpt><trkpt lat="42.05751956160958" lon="13.104675786945101"><ele>798.0</ele><time>2026-05-03T08:10:16.994Z</time></trkpt><trkpt lat="42.05744418414979" lon="13.104753108691684"><ele>798.0</ele><time>2026-05-03T08:10:17.994Z</time></trkpt><trkpt lat="42.05735542409647" lon="13.104822225167492"><ele>798.0</ele><time>2026-05-03T08:10:18.994Z</time></trkpt><trkpt lat="42.057280489050456" lon="13.104888442436467"><ele>798.0</ele><time>2026-05-03T08:10:19.994Z</time></trkpt><trkpt lat="42.0572017576161" lon="13.104919139636666"><ele>798.0</ele><time>2026-05-03T08:10:20.994Z</time></trkpt><trkpt lat="42.05714067770643" lon="13.10498111237562"><ele>798.0</ele><time>2026-05-03T08:10:21.994Z</time></trkpt><trkpt lat="42.05707119455883" lon="13.105046025667454"><ele>798.0</ele><time>2026-05-03T08:10:22.994Z</time></trkpt><trkpt lat="42.0570047438988" lon="13.105133277906738"><ele>801.0</ele><time>2026-05-03T08:10:23.994Z</time></trkpt><trkpt lat="42.056959109415324" lon="13.105233105913959"><ele>804.0</ele><time>2026-05-03T08:10:24.994Z</time></trkpt><trkpt lat="42.05692563855435" lon="13.105339756366217"><ele>807.0</ele><time>2026-05-03T08:10:25.994Z</time></trkpt><trkpt lat="42.05689848788335" lon="13.105443786291696"><ele>810.0</ele><time>2026-05-03T08:10:26.994Z</time></trkpt><trkpt lat="42.05686584169391" lon="13.105526045696758"><ele>813.0</ele><time>2026-05-03T08:10:27.994Z</time></trkpt><trkpt lat="42.05681774492955" lon="13.105610855385876"><ele>816.0</ele><time>2026-05-03T08:10:28.994Z</time></trkpt><trkpt lat="42.05678670788391" lon="13.10569817889816"><ele>814.8333333333334</ele><time>2026-05-03T08:10:29.994Z</time></trkpt><trkpt lat="42.05675535537693" lon="13.105807679801853"><ele>813.6666666666667</ele><time>2026-05-03T08:10:31.994Z</time></trkpt><trkpt lat="42.056722543531414" lon="13.105881258857494"><ele>812.5</ele><time>2026-05-03T08:10:32.994Z</time></trkpt><trkpt lat="42.05668085088583" lon="13.105995429864231"><ele>811.3333333333334</ele><time>2026-05-03T08:10:34.994Z</time></trkpt><trkpt lat="42.056637457080726" lon="13.106144040267731"><ele>810.1666666666667</ele><time>2026-05-03T08:10:36.994Z</time></trkpt><trkpt lat="42.05661956433983" lon="13.106247808576713"><ele>809.0</ele><time>2026-05-03T08:10:37.994Z</time></trkpt><trkpt lat="42.05660175302232" lon="13.1064033916078"><ele>809.0</ele><time>2026-05-03T08:10:39.994Z</time></trkpt><trkpt lat="42.05658276672009" lon="13.10651305881404"><ele>809.0</ele><time>2026-05-03T08:10:40.994Z</time></trkpt><trkpt lat="42.056559745846364" lon="13.106639749398516"><ele>809.0</ele><time>2026-05-03T08:10:41.994Z</time></trkpt><trkpt lat="42.05654404182194" lon="13.106770692828256"><ele>809.0</ele><time>2026-05-03T08:10:42.994Z</time></trkpt><trkpt lat="42.05650874025139" lon="13.106903602049282"><ele>809.0</ele><time>2026-05-03T08:10:43.994Z</time></trkpt><trkpt lat="42.05644999070687" lon="13.107015609324815"><ele>812.2</ele><time>2026-05-03T08:10:44.994Z</time></trkpt><trkpt lat="42.05638892619549" lon="13.107112611235198"><ele>815.4000000000001</ele><time>2026-05-03T08:10:45.994Z</time></trkpt><trkpt lat="42.05634230180362" lon="13.107208196206011"><ele>818.6</ele><time>2026-05-03T08:10:46.994Z</time></trkpt><trkpt lat="42.05631707322273" lon="13.107310396224806"><ele>821.8</ele><time>2026-05-03T08:10:47.993Z</time></trkpt><trkpt lat="42.0562660210853" lon="13.107423951208858"><ele>825.0</ele><time>2026-05-03T08:10:48.992Z</time></trkpt><trkpt lat="42.056220413901045" lon="13.107538875180591"><ele>827.8</ele><time>2026-05-03T08:10:49.992Z</time></trkpt><trkpt lat="42.05620370574215" lon="13.107673004356196"><ele>830.6</ele><time>2026-05-03T08:10:50.992Z</time></trkpt><trkpt lat="42.05620615787188" lon="13.10780788241782"><ele>833.4000000000001</ele><time>2026-05-03T08:10:51.992Z</time></trkpt><trkpt lat="42.05621757614707" lon="13.107928708701834"><ele>836.2</ele><time>2026-05-03T08:10:52.992Z</time></trkpt><trkpt lat="42.05622583083683" lon="13.108041555373141"><ele>839.0</ele><time>2026-05-03T08:10:53.992Z</time></trkpt><trkpt lat="42.05622190641762" lon="13.108152266288142"><ele>842.1666666666667</ele><time>2026-05-03T08:10:54.992Z</time></trkpt><trkpt lat="42.056205826167414" lon="13.108253416428665"><ele>845.3333333333334</ele><time>2026-05-03T08:10:55.992Z</time></trkpt><trkpt lat="42.05615204721192" lon="13.108357852077617"><ele>848.5</ele><time>2026-05-03T08:10:56.992Z</time></trkpt><trkpt lat="42.05605594921377" lon="13.108398446179221"><ele>851.6666666666667</ele><time>2026-05-03T08:10:57.992Z</time></trkpt><trkpt lat="42.05597351336589" lon="13.10842029339051"><ele>854.8333333333334</ele><time>2026-05-03T08:10:58.992Z</time></trkpt><trkpt lat="42.05589007397374" lon="13.10845153337398"><ele>858.0</ele><time>2026-05-03T08:10:59.992Z</time></trkpt><trkpt lat="42.055819609782404" lon="13.108503028316118"><ele>858.6666666666666</ele><time>2026-05-03T08:11:00.993Z</time></trkpt><trkpt lat="42.05576226677394" lon="13.108565010967569"><ele>859.3333333333333</ele><time>2026-05-03T08:11:01.993Z</time></trkpt><trkpt lat="42.05571022739099" lon="13.108689709789585"><ele>860.0</ele><time>2026-05-03T08:11:02.993Z</time></trkpt><trkpt lat="42.05566962787221" lon="13.108789595206543"><ele>860.6666666666666</ele><time>2026-05-03T08:11:03.993Z</time></trkpt><trkpt lat="42.05561083212252" lon="13.108880409673121"><ele>861.3333333333333</ele><time>2026-05-03T08:11:04.993Z</time></trkpt><trkpt lat="42.055566023377395" lon="13.108972239827667"><ele>862.0</ele><time>2026-05-03T08:11:05.993Z</time></trkpt><trkpt lat="42.05553395146687" lon="13.10907458627353"><ele>862.6666666666666</ele><time>2026-05-03T08:11:06.993Z</time></trkpt><trkpt lat="42.055495974025156" lon="13.109153573520242"><ele>863.3333333333333</ele><time>2026-05-03T08:11:07.993Z</time></trkpt><trkpt lat="42.05545897924102" lon="13.109229269892515"><ele>864.0</ele><time>2026-05-03T08:11:08.993Z</time></trkpt><trkpt lat="42.05545176915067" lon="13.109321569128179"><ele>864.6666666666667</ele><time>2026-05-03T08:11:09.993Z</time></trkpt><trkpt lat="42.05551191530357" lon="13.109412510307441"><ele>865.3333333333334</ele><time>2026-05-03T08:11:10.993Z</time></trkpt><trkpt lat="42.055595495912655" lon="13.109413146508604"><ele>866.0</ele><time>2026-05-03T08:11:11.993Z</time></trkpt><trkpt lat="42.05564971884369" lon="13.109333727884152"><ele>865.9999999999999</ele><time>2026-05-03T08:11:12.993Z</time></trkpt><trkpt lat="42.05568830073124" lon="13.10926001351805"><ele>866.0</ele><time>2026-05-03T08:11:13.993Z</time></trkpt><trkpt lat="42.05573020899728" lon="13.109180468762132"><ele>866.0</ele><time>2026-05-03T08:11:14.993Z</time></trkpt><trkpt lat="42.0557865074259" lon="13.1090821816711"><ele>866.0</ele><time>2026-05-03T08:11:15.993Z</time></trkpt><trkpt lat="42.05583939191908" lon="13.109014805965286"><ele>866.0</ele><time>2026-05-03T08:11:16.993Z</time></trkpt><trkpt lat="42.055886152402834" lon="13.108938493470484"><ele>865.9999999999999</ele><time>2026-05-03T08:11:17.993Z</time></trkpt><trkpt lat="42.05595395143207" lon="13.108936791815845"><ele>866.0</ele><time>2026-05-03T08:11:18.993Z</time></trkpt><trkpt lat="42.05603560072833" lon="13.108969367767672"><ele>867.0000000000001</ele><time>2026-05-03T08:11:19.993Z</time></trkpt><trkpt lat="42.05610973242523" lon="13.10903499533379"><ele>868.0</ele><time>2026-05-03T08:11:20.993Z</time></trkpt><trkpt lat="42.05618395959096" lon="13.109113455626243"><ele>869.0</ele><time>2026-05-03T08:11:21.993Z</time></trkpt><trkpt lat="42.05626207409702" lon="13.109191533339953"><ele>870.0</ele><time>2026-05-03T08:11:22.993Z</time></trkpt><trkpt lat="42.056342227616824" lon="13.109254158326836"><ele>871.0000000000001</ele><time>2026-05-03T08:11:23.993Z</time></trkpt><trkpt lat="42.05641115256262" lon="13.10929491128263"><ele>872.0</ele><time>2026-05-03T08:11:24.993Z</time></trkpt><trkpt lat="42.05649031695156" lon="13.109320024454364"><ele>872.0</ele><time>2026-05-03T08:11:25.993Z</time></trkpt><trkpt lat="42.05656985099629" lon="13.10934620262653"><ele>872.0</ele><time>2026-05-03T08:11:26.993Z</time></trkpt><trkpt lat="42.05664766494602" lon="13.109282184536115"><ele>872.0</ele><time>2026-05-03T08:11:27.993Z</time></trkpt><trkpt lat="42.05675000199394" lon="13.109251021398647"><ele>872.0</ele><time>2026-05-03T08:11:28.993Z</time></trkpt><trkpt lat="42.056847372468546" lon="13.10921282562062"><ele>872.0</ele><time>2026-05-03T08:11:29.993Z</time></trkpt><trkpt lat="42.056936138204186" lon="13.109160127315382"><ele>871.4000000000001</ele><time>2026-05-03T08:11:30.993Z</time></trkpt><trkpt lat="42.05701391836798" lon="13.109067490766055"><ele>870.8000000000001</ele><time>2026-05-03T08:11:31.993Z</time></trkpt><trkpt lat="42.05708555481195" lon="13.108966863514352"><ele>870.2</ele><time>2026-05-03T08:11:32.993Z</time></trkpt><trkpt lat="42.05714096272208" lon="13.108849065020676"><ele>869.6</ele><time>2026-05-03T08:11:33.993Z</time></trkpt><trkpt lat="42.05719651889639" lon="13.108719917935252"><ele>869.0</ele><time>2026-05-03T08:11:34.993Z</time></trkpt><trkpt lat="42.05725295710168" lon="13.108599531722856"><ele>869.0</ele><time>2026-05-03T08:11:35.993Z</time></trkpt><trkpt lat="42.05730839318847" lon="13.108461853987881"><ele>869.0</ele><time>2026-05-03T08:11:36.993Z</time></trkpt><trkpt lat="42.05738675384956" lon="13.108342768020796"><ele>869.0</ele><time>2026-05-03T08:11:37.993Z</time></trkpt><trkpt lat="42.05745870819663" lon="13.108222685432736"><ele>869.0</ele><time>2026-05-03T08:11:38.993Z</time></trkpt><trkpt lat="42.05752970845632" lon="13.108102231976925"><ele>872.2</ele><time>2026-05-03T08:11:39.993Z</time></trkpt><trkpt lat="42.05759960442399" lon="13.10799362717917"><ele>875.4000000000001</ele><time>2026-05-03T08:11:40.993Z</time></trkpt><trkpt lat="42.05766989914494" lon="13.107882917648993"><ele>878.6</ele><time>2026-05-03T08:11:41.993Z</time></trkpt><trkpt lat="42.05773796001311" lon="13.107772322955604"><ele>881.8</ele><time>2026-05-03T08:11:42.993Z</time></trkpt><trkpt lat="42.05779899997583" lon="13.107656081256113"><ele>885.0</ele><time>2026-05-03T08:11:43.993Z</time></trkpt><trkpt lat="42.05784315309143" lon="13.107533320592964"><ele>885.0</ele><time>2026-05-03T08:11:44.993Z</time></trkpt><trkpt lat="42.05789473269215" lon="13.107427438643185"><ele>885.0</ele><time>2026-05-03T08:11:45.993Z</time></trkpt><trkpt lat="42.057936965795555" lon="13.107337438518387"><ele>885.0</ele><time>2026-05-03T08:11:46.993Z</time></trkpt><trkpt lat="42.05802699545481" lon="13.10730701941487"><ele>885.0</ele><time>2026-05-03T08:11:47.993Z</time></trkpt><trkpt lat="42.05808117149413" lon="13.10724517509676"><ele>885.0</ele><time>2026-05-03T08:11:48.993Z</time></trkpt><trkpt lat="42.05813361167626" lon="13.107175923811534"><ele>885.0</ele><time>2026-05-03T08:11:49.993Z</time></trkpt><trkpt lat="42.05818770495275" lon="13.107107407959333"><ele>884.0</ele><time>2026-05-03T08:11:50.993Z</time></trkpt><trkpt lat="42.05824651646789" lon="13.107035378136294"><ele>883.0</ele><time>2026-05-03T08:11:51.993Z</time></trkpt><trkpt lat="42.05830704631525" lon="13.10696874311219"><ele>882.0</ele><time>2026-05-03T08:11:52.993Z</time></trkpt><trkpt lat="42.05836555954619" lon="13.106894984240316"><ele>881.0</ele><time>2026-05-03T08:11:53.993Z</time></trkpt><trkpt lat="42.05842667755911" lon="13.106830065043896"><ele>880.0</ele><time>2026-05-03T08:11:54.993Z</time></trkpt><trkpt lat="42.058486293131686" lon="13.10676193278186"><ele>879.0</ele><time>2026-05-03T08:11:55.993Z</time></trkpt><trkpt lat="42.05853913659452" lon="13.106698250039473"><ele>880.0</ele><time>2026-05-03T08:11:56.993Z</time></trkpt><trkpt lat="42.0585947242707" lon="13.106623760160655"><ele>881.0</ele><time>2026-05-03T08:11:57.993Z</time></trkpt><trkpt lat="42.05865313818289" lon="13.106558338196109"><ele>882.0</ele><time>2026-05-03T08:11:58.993Z</time></trkpt><trkpt lat="42.058750749857936" lon="13.106475284496584"><ele>883.0</ele><time>2026-05-03T08:12:00.993Z</time></trkpt><trkpt lat="42.05883774385501" lon="13.106550806051144"><ele>884.0</ele><time>2026-05-03T08:12:02.993Z</time></trkpt><trkpt lat="42.0588176276858" lon="13.106634052017418"><ele>885.0</ele><time>2026-05-03T08:12:03.993Z</time></trkpt><trkpt lat="42.058713676351616" lon="13.106664783072159"><ele>887.0</ele><time>2026-05-03T08:12:05.993Z</time></trkpt><trkpt lat="42.05865901467612" lon="13.10671653450316"><ele>889.0</ele><time>2026-05-03T08:12:06.993Z</time></trkpt><trkpt lat="42.058614222832055" lon="13.106804332081122"><ele>891.0</ele><time>2026-05-03T08:12:07.993Z</time></trkpt><trkpt lat="42.05857362404252" lon="13.106913482818573"><ele>893.0</ele><time>2026-05-03T08:12:08.993Z</time></trkpt><trkpt lat="42.05854244759036" lon="13.107010737338925"><ele>895.0</ele><time>2026-05-03T08:12:09.993Z</time></trkpt><trkpt lat="42.05851150356726" lon="13.107112405242365"><ele>897.0</ele><time>2026-05-03T08:12:10.993Z</time></trkpt><trkpt lat="42.058476233857654" lon="13.107228285455252"><ele>897.0</ele><time>2026-05-03T08:12:11.993Z</time></trkpt><trkpt lat="42.05843589965932" lon="13.107348389695703"><ele>897.0</ele><time>2026-05-03T08:12:12.993Z</time></trkpt><trkpt lat="42.058395489214625" lon="13.10746321782044"><ele>897.0</ele><time>2026-05-03T08:12:13.993Z</time></trkpt><trkpt lat="42.058355913620325" lon="13.10758235229435"><ele>897.0</ele><time>2026-05-03T08:12:14.993Z</time></trkpt><trkpt lat="42.058321390201876" lon="13.107699788746933"><ele>897.0</ele><time>2026-05-03T08:12:15.993Z</time></trkpt><trkpt lat="42.05829062705099" lon="13.10781634796398"><ele>896.1666666666666</ele><time>2026-05-03T08:12:16.993Z</time></trkpt><trkpt lat="42.05826240970481" lon="13.10793151054354"><ele>895.3333333333333</ele><time>2026-05-03T08:12:17.993Z</time></trkpt><trkpt lat="42.05823359658448" lon="13.108050306410744"><ele>894.5</ele><time>2026-05-03T08:12:18.993Z</time></trkpt><trkpt lat="42.05820690457783" lon="13.108164247849285"><ele>893.6666666666666</ele><time>2026-05-03T08:12:19.993Z</time></trkpt><trkpt lat="42.05818063794779" lon="13.108278184068421"><ele>892.8333333333333</ele><time>2026-05-03T08:12:20.993Z</time></trkpt><trkpt lat="42.058170761188435" lon="13.10839582417716"><ele>892.0</ele><time>2026-05-03T08:12:21.993Z</time></trkpt><trkpt lat="42.058142270962975" lon="13.108503040277762"><ele>891.9999999999999</ele><time>2026-05-03T08:12:22.993Z</time></trkpt><trkpt lat="42.05811337358079" lon="13.108610625061134"><ele>892.0</ele><time>2026-05-03T08:12:23.993Z</time></trkpt><trkpt lat="42.05808882313262" lon="13.108723767836084"><ele>892.0</ele><time>2026-05-03T08:12:24.993Z</time></trkpt><trkpt lat="42.058070549881656" lon="13.108835611820616"><ele>892.0</ele><time>2026-05-03T08:12:25.993Z</time></trkpt><trkpt lat="42.05804877329283" lon="13.108955399890029"><ele>891.9999999999999</ele><time>2026-05-03T08:12:26.993Z</time></trkpt><trkpt lat="42.058025183439355" lon="13.109074291437748"><ele>892.0</ele><time>2026-05-03T08:12:27.993Z</time></trkpt><trkpt lat="42.058006429176885" lon="13.109179827083832"><ele>893.3333333333333</ele><time>2026-05-03T08:12:28.993Z</time></trkpt><trkpt lat="42.05798112711407" lon="13.109296322788778"><ele>894.6666666666666</ele><time>2026-05-03T08:12:29.993Z</time></trkpt><trkpt lat="42.05795353102588" lon="13.109399678886101"><ele>896.0</ele><time>2026-05-03T08:12:30.993Z</time></trkpt><trkpt lat="42.05793134605675" lon="13.109497238590036"><ele>897.3333333333333</ele><time>2026-05-03T08:12:31.993Z</time></trkpt><trkpt lat="42.057912253146675" lon="13.109580834355445"><ele>898.6666666666666</ele><time>2026-05-03T08:12:32.993Z</time></trkpt><trkpt lat="42.05789081266941" lon="13.109708530910341"><ele>900.0</ele><time>2026-05-03T08:12:34.993Z</time></trkpt><trkpt lat="42.05793631621888" lon="13.10985560138596"><ele>900.0</ele><time>2026-05-03T08:12:36.993Z</time></trkpt><trkpt lat="42.058011067752574" lon="13.109860969975674"><ele>900.0</ele><time>2026-05-03T08:12:37.993Z</time></trkpt><trkpt lat="42.05808628492985" lon="13.109766896969953"><ele>900.0</ele><time>2026-05-03T08:12:39.993Z</time></trkpt><trkpt lat="42.05809284927664" lon="13.109607794658483"><ele>900.0</ele><time>2026-05-03T08:12:41.993Z</time></trkpt><trkpt lat="42.05811641336085" lon="13.109522896758747"><ele>900.0</ele><time>2026-05-03T08:12:42.993Z</time></trkpt><trkpt lat="42.05815443708572" lon="13.109447835581355"><ele>900.0</ele><time>2026-05-03T08:12:43.993Z</time></trkpt><trkpt lat="42.05821498473071" lon="13.10937457063779"><ele>902.6</ele><time>2026-05-03T08:12:44.993Z</time></trkpt><trkpt lat="42.058284845968345" lon="13.109301211123237"><ele>905.2</ele><time>2026-05-03T08:12:45.993Z</time></trkpt><trkpt lat="42.05836361996743" lon="13.109216320402446"><ele>907.8</ele><time>2026-05-03T08:12:46.993Z</time></trkpt><trkpt lat="42.05842853827808" lon="13.109122497742348"><ele>910.4</ele><time>2026-05-03T08:12:47.993Z</time></trkpt><trkpt lat="42.058504284249544" lon="13.109036525570223"><ele>913.0</ele><time>2026-05-03T08:12:48.993Z</time></trkpt><trkpt lat="42.05857526672732" lon="13.108948842188234"><ele>912.9999999999999</ele><time>2026-05-03T08:12:49.993Z</time></trkpt><trkpt lat="42.05862927545972" lon="13.108851577527208"><ele>913.0</ele><time>2026-05-03T08:12:50.993Z</time></trkpt><trkpt lat="42.05867582130418" lon="13.108761146444499"><ele>913.0</ele><time>2026-05-03T08:12:51.993Z</time></trkpt><trkpt lat="42.05872670685209" lon="13.1087029783743"><ele>913.0</ele><time>2026-05-03T08:12:52.993Z</time></trkpt><trkpt lat="42.05882221934202" lon="13.108696734838983"><ele>912.9999999999999</ele><time>2026-05-03T08:12:54.991Z</time></trkpt><trkpt lat="42.058839353961325" lon="13.10878169087273"><ele>913.0</ele><time>2026-05-03T08:12:55.991Z</time></trkpt><trkpt lat="42.0587908707573" lon="13.10883794039704"><ele>912.9999999999999</ele><time>2026-05-03T08:12:56.991Z</time></trkpt><trkpt lat="42.05876075360484" lon="13.108924833617348"><ele>913.0</ele><time>2026-05-03T08:12:57.991Z</time></trkpt><trkpt lat="42.0587439558695" lon="13.109025852502658"><ele>913.0</ele><time>2026-05-03T08:12:58.991Z</time></trkpt><trkpt lat="42.05871320554037" lon="13.109127708239273"><ele>913.0</ele><time>2026-05-03T08:12:59.991Z</time></trkpt><trkpt lat="42.05868277646118" lon="13.109247804423813"><ele>912.9999999999999</ele><time>2026-05-03T08:13:00.991Z</time></trkpt><trkpt lat="42.05865418884374" lon="13.109364509525317"><ele>913.0</ele><time>2026-05-03T08:13:01.991Z</time></trkpt><trkpt lat="42.05863142774737" lon="13.10948595822852"><ele>914.8333333333333</ele><time>2026-05-03T08:13:02.991Z</time></trkpt><trkpt lat="42.05860818548998" lon="13.109601040627956"><ele>916.6666666666666</ele><time>2026-05-03T08:13:03.991Z</time></trkpt><trkpt lat="42.058588222771554" lon="13.10971663488716"><ele>918.5</ele><time>2026-05-03T08:13:04.991Z</time></trkpt><trkpt lat="42.05855838884119" lon="13.109820765361468"><ele>920.3333333333333</ele><time>2026-05-03T08:13:05.991Z</time></trkpt><trkpt lat="42.05852921968369" lon="13.109914921838186"><ele>922.1666666666666</ele><time>2026-05-03T08:13:06.991Z</time></trkpt><trkpt lat="42.058490787395286" lon="13.110001343031723"><ele>924.0</ele><time>2026-05-03T08:13:07.991Z</time></trkpt><trkpt lat="42.05845730301409" lon="13.110085672076028"><ele>922.8571428571429</ele><time>2026-05-03T08:13:08.991Z</time></trkpt><trkpt lat="42.05842222346683" lon="13.110175060524764"><ele>921.7142857142858</ele><time>2026-05-03T08:13:09.991Z</time></trkpt><trkpt lat="42.058387487844" lon="13.110251121743207"><ele>920.5714285714286</ele><time>2026-05-03T08:13:10.991Z</time></trkpt><trkpt lat="42.05834901210404" lon="13.110320647993795"><ele>919.4285714285714</ele><time>2026-05-03T08:13:11.991Z</time></trkpt><trkpt lat="42.0582975026101" lon="13.110399702531362"><ele>918.2857142857143</ele><time>2026-05-03T08:13:12.991Z</time></trkpt><trkpt lat="42.058240816099975" lon="13.110483195437551"><ele>917.1428571428571</ele><time>2026-05-03T08:13:13.991Z</time></trkpt><trkpt lat="42.05817925848715" lon="13.110552857964876"><ele>916.0</ele><time>2026-05-03T08:13:14.991Z</time></trkpt><trkpt lat="42.05811331268593" lon="13.11061915738417"><ele>915.9999999999999</ele><time>2026-05-03T08:13:15.991Z</time></trkpt><trkpt lat="42.058053654467656" lon="13.110693287758329"><ele>916.0</ele><time>2026-05-03T08:13:16.991Z</time></trkpt><trkpt lat="42.05799333320219" lon="13.110760403705457"><ele>916.0</ele><time>2026-05-03T08:13:17.991Z</time></trkpt><trkpt lat="42.05792572484785" lon="13.110820820988279"><ele>916.0</ele><time>2026-05-03T08:13:18.991Z</time></trkpt><trkpt lat="42.05786282856527" lon="13.110905826078234"><ele>915.9999999999999</ele><time>2026-05-03T08:13:19.991Z</time></trkpt><trkpt lat="42.057806522497046" lon="13.111000636238574"><ele>916.0</ele><time>2026-05-03T08:13:20.991Z</time></trkpt><trkpt lat="42.05776134095515" lon="13.111096528178471"><ele>919.5999999999999</ele><time>2026-05-03T08:13:21.991Z</time></trkpt><trkpt lat="42.05771540287415" lon="13.111202199514638"><ele>923.1999999999999</ele><time>2026-05-03T08:13:22.991Z</time></trkpt><trkpt lat="42.057667933042694" lon="13.111314069462802"><ele>926.8000000000001</ele><time>2026-05-03T08:13:23.991Z</time></trkpt><trkpt lat="42.05762404006504" lon="13.111423585941393"><ele>930.4000000000001</ele><time>2026-05-03T08:13:24.991Z</time></trkpt><trkpt lat="42.057576968328625" lon="13.11154103364649"><ele>934.0</ele><time>2026-05-03T08:13:25.991Z</time></trkpt><trkpt lat="42.057532048558265" lon="13.111680488563016"><ele>934.25</ele><time>2026-05-03T08:13:26.991Z</time></trkpt><trkpt lat="42.05746322849137" lon="13.111795819114082"><ele>934.5</ele><time>2026-05-03T08:13:27.991Z</time></trkpt><trkpt lat="42.05738846790015" lon="13.111923671143431"><ele>934.75</ele><time>2026-05-03T08:13:28.991Z</time></trkpt><trkpt lat="42.057317355535496" lon="13.112041713867447"><ele>935.0</ele><time>2026-05-03T08:13:29.991Z</time></trkpt><trkpt lat="42.057234774498895" lon="13.112153358919905"><ele>935.0</ele><time>2026-05-03T08:13:30.991Z</time></trkpt><trkpt lat="42.057165634106404" lon="13.112268893803307"><ele>935.0</ele><time>2026-05-03T08:13:31.991Z</time></trkpt><trkpt lat="42.057083661555176" lon="13.112370711424294"><ele>935.0</ele><time>2026-05-03T08:13:32.991Z</time></trkpt><trkpt lat="42.05702210735342" lon="13.112503013458172"><ele>935.0</ele><time>2026-05-03T08:13:33.991Z</time></trkpt><trkpt lat="42.05693902653206" lon="13.112613443879763"><ele>934.5</ele><time>2026-05-03T08:13:34.991Z</time></trkpt><trkpt lat="42.05685012681562" lon="13.112719032982184"><ele>934.0</ele><time>2026-05-03T08:13:35.991Z</time></trkpt><trkpt lat="42.05676456370983" lon="13.112822715284267"><ele>933.5</ele><time>2026-05-03T08:13:36.991Z</time></trkpt><trkpt lat="42.05667249156922" lon="13.112924883487967"><ele>933.0</ele><time>2026-05-03T08:13:37.991Z</time></trkpt><trkpt lat="42.05657914029661" lon="13.113021164918912"><ele>933.0</ele><time>2026-05-03T08:13:38.991Z</time></trkpt><trkpt lat="42.05648503701217" lon="13.113118390432973"><ele>933.0</ele><time>2026-05-03T08:13:39.991Z</time></trkpt><trkpt lat="42.05639188734951" lon="13.113220005616832"><ele>933.0</ele><time>2026-05-03T08:13:40.991Z</time></trkpt><trkpt lat="42.056303545377645" lon="13.113320216920648"><ele>933.0</ele><time>2026-05-03T08:13:41.991Z</time></trkpt><trkpt lat="42.056211915864615" lon="13.113398171296913"><ele>937.8</ele><time>2026-05-03T08:13:42.991Z</time></trkpt><trkpt lat="42.05612320705929" lon="13.113482632923809"><ele>942.5999999999999</ele><time>2026-05-03T08:13:43.991Z</time></trkpt><trkpt lat="42.05604630918722" lon="13.113585578732526"><ele>947.4000000000001</ele><time>2026-05-03T08:13:44.991Z</time></trkpt><trkpt lat="42.05596672019904" lon="13.113681727993507"><ele>952.2</ele><time>2026-05-03T08:13:45.991Z</time></trkpt><trkpt lat="42.05588490196686" lon="13.11375724202625"><ele>957.0</ele><time>2026-05-03T08:13:46.991Z</time></trkpt><trkpt lat="42.05581366164816" lon="13.113860285777362"><ele>956.0</ele><time>2026-05-03T08:13:47.991Z</time></trkpt><trkpt lat="42.055746635029294" lon="13.11398470817043"><ele>955.0</ele><time>2026-05-03T08:13:48.991Z</time></trkpt><trkpt lat="42.055682171121504" lon="13.114114040080617"><ele>954.0</ele><time>2026-05-03T08:13:49.991Z</time></trkpt><trkpt lat="42.05561932744508" lon="13.114237305730716"><ele>953.0</ele><time>2026-05-03T08:13:50.991Z</time></trkpt><trkpt lat="42.05556915775752" lon="13.114372688091963"><ele>953.0</ele><time>2026-05-03T08:13:51.991Z</time></trkpt><trkpt lat="42.05550411536618" lon="13.114497549288718"><ele>953.0</ele><time>2026-05-03T08:13:52.991Z</time></trkpt><trkpt lat="42.05544690800256" lon="13.11462267815387"><ele>953.0</ele><time>2026-05-03T08:13:53.991Z</time></trkpt><trkpt lat="42.05539618345323" lon="13.114747428135612"><ele>953.0</ele><time>2026-05-03T08:13:54.991Z</time></trkpt><trkpt lat="42.05534490307214" lon="13.114870243361956"><ele>953.0</ele><time>2026-05-03T08:13:55.991Z</time></trkpt><trkpt lat="42.055294892736576" lon="13.115002950766334"><ele>956.5999999999999</ele><time>2026-05-03T08:13:56.991Z</time></trkpt><trkpt lat="42.055245973952516" lon="13.115133245815501"><ele>960.1999999999999</ele><time>2026-05-03T08:13:57.991Z</time></trkpt><trkpt lat="42.05519231175308" lon="13.115253354480892"><ele>963.8</ele><time>2026-05-03T08:13:58.991Z</time></trkpt><trkpt lat="42.055135681251656" lon="13.115370116625037"><ele>967.4</ele><time>2026-05-03T08:13:59.991Z</time></trkpt><trkpt lat="42.05508535965262" lon="13.115486514804948"><ele>971.0</ele><time>2026-05-03T08:14:00.991Z</time></trkpt><trkpt lat="42.05503056072217" lon="13.115610708342"><ele>971.0</ele><time>2026-05-03T08:14:01.991Z</time></trkpt><trkpt lat="42.05498797922349" lon="13.11571815716551"><ele>970.9999999999999</ele><time>2026-05-03T08:14:02.991Z</time></trkpt><trkpt lat="42.0549451604331" lon="13.11582659129714"><ele>970.9999999999999</ele><time>2026-05-03T08:14:03.991Z</time></trkpt><trkpt lat="42.05490004849398" lon="13.115938214446413"><ele>971.0</ele><time>2026-05-03T08:14:04.991Z</time></trkpt><trkpt lat="42.05485968582408" lon="13.116045943617587"><ele>971.0</ele><time>2026-05-03T08:14:05.991Z</time></trkpt><trkpt lat="42.05480677248312" lon="13.116138952544246"><ele>972.8333333333334</ele><time>2026-05-03T08:14:06.991Z</time></trkpt><trkpt lat="42.05475409152907" lon="13.116233592697828"><ele>974.6666666666667</ele><time>2026-05-03T08:14:07.991Z</time></trkpt><trkpt lat="42.054689229546" lon="13.116303721597982"><ele>976.5</ele><time>2026-05-03T08:14:08.991Z</time></trkpt><trkpt lat="42.05460890905072" lon="13.116348840363386"><ele>978.3333333333333</ele><time>2026-05-03T08:14:09.991Z</time></trkpt><trkpt lat="42.05451853525786" lon="13.116368258656344"><ele>980.1666666666666</ele><time>2026-05-03T08:14:10.991Z</time></trkpt><trkpt lat="42.05443447835779" lon="13.116387313519414"><ele>982.0</ele><time>2026-05-03T08:14:11.991Z</time></trkpt><trkpt lat="42.054365167419355" lon="13.116418187654059"><ele>981.9999999999999</ele><time>2026-05-03T08:14:12.991Z</time></trkpt><trkpt lat="42.05431480057223" lon="13.116469842330247"><ele>982.0</ele><time>2026-05-03T08:14:13.991Z</time></trkpt><trkpt lat="42.05426331469395" lon="13.11659246455487"><ele>982.0</ele><time>2026-05-03T08:14:15.991Z</time></trkpt><trkpt lat="42.05432761037783" lon="13.116722822454607"><ele>982.0</ele><time>2026-05-03T08:14:17.991Z</time></trkpt><trkpt lat="42.05439917497336" lon="13.116736425528963"><ele>981.9999999999999</ele><time>2026-05-03T08:14:18.991Z</time></trkpt><trkpt lat="42.05446228314855" lon="13.116682794436644"><ele>982.0</ele><time>2026-05-03T08:14:19.991Z</time></trkpt><trkpt lat="42.054505343120866" lon="13.116617688111738"><ele>981.9999999999999</ele><time>2026-05-03T08:14:20.991Z</time></trkpt><trkpt lat="42.05457408548058" lon="13.116595285090252"><ele>982.0</ele><time>2026-05-03T08:14:21.991Z</time></trkpt><trkpt lat="42.05464982354385" lon="13.116572414494934"><ele>982.0</ele><time>2026-05-03T08:14:22.991Z</time></trkpt><trkpt lat="42.054734000773884" lon="13.116549516943266"><ele>982.0</ele><time>2026-05-03T08:14:23.991Z</time></trkpt><trkpt lat="42.054815696404624" lon="13.116515333737714"><ele>981.9999999999999</ele><time>2026-05-03T08:14:24.991Z</time></trkpt><trkpt lat="42.05489936378559" lon="13.116440868980396"><ele>982.0</ele><time>2026-05-03T08:14:25.991Z</time></trkpt><trkpt lat="42.054961679634594" lon="13.11633172810125"><ele>983.8</ele><time>2026-05-03T08:14:26.991Z</time></trkpt><trkpt lat="42.05502085798366" lon="13.11622552102671"><ele>985.6</ele><time>2026-05-03T08:14:27.991Z</time></trkpt><trkpt lat="42.0550870326512" lon="13.116119462051383"><ele>987.3999999999999</ele><time>2026-05-03T08:14:28.991Z</time></trkpt><trkpt lat="42.05515777034807" lon="13.116012167552562"><ele>989.1999999999999</ele><time>2026-05-03T08:14:29.991Z</time></trkpt><trkpt lat="42.055224971418646" lon="13.115896740631685"><ele>991.0</ele><time>2026-05-03T08:14:30.991Z</time></trkpt><trkpt lat="42.05531288598877" lon="13.115827180832389"><ele>990.9999999999999</ele><time>2026-05-03T08:14:31.991Z</time></trkpt><trkpt lat="42.055397046535916" lon="13.115776944975524"><ele>991.0</ele><time>2026-05-03T08:14:32.991Z</time></trkpt><trkpt lat="42.055479789691766" lon="13.11574609923995"><ele>991.0</ele><time>2026-05-03T08:14:33.991Z</time></trkpt><trkpt lat="42.05555847072088" lon="13.115727152518101"><ele>991.0</ele><time>2026-05-03T08:14:34.991Z</time></trkpt><trkpt lat="42.05563846910125" lon="13.115698657681094"><ele>990.9999999999999</ele><time>2026-05-03T08:14:35.991Z</time></trkpt><trkpt lat="42.05571177108307" lon="13.115656711186237"><ele>991.0</ele><time>2026-05-03T08:14:36.991Z</time></trkpt><trkpt lat="42.05577253173892" lon="13.115581188051173"><ele>992.1666666666666</ele><time>2026-05-03T08:14:37.991Z</time></trkpt><trkpt lat="42.05581903143472" lon="13.11549430661498"><ele>993.3333333333333</ele><time>2026-05-03T08:14:38.991Z</time></trkpt><trkpt lat="42.0558703523385" lon="13.1154004833423"><ele>994.5</ele><time>2026-05-03T08:14:39.991Z</time></trkpt><trkpt lat="42.05592190344791" lon="13.11530641599149"><ele>995.6666666666667</ele><time>2026-05-03T08:14:40.991Z</time></trkpt><trkpt lat="42.05597931591895" lon="13.115210620618965"><ele>996.8333333333334</ele><time>2026-05-03T08:14:41.991Z</time></trkpt><trkpt lat="42.056034866635926" lon="13.115106224572266"><ele>998.0</ele><time>2026-05-03T08:14:42.991Z</time></trkpt><trkpt lat="42.05609818657503" lon="13.115011199124707"><ele>998.0000000000001</ele><time>2026-05-03T08:14:43.991Z</time></trkpt><trkpt lat="42.056170608397636" lon="13.114928406680985"><ele>998.0</ele><time>2026-05-03T08:14:44.991Z</time></trkpt><trkpt lat="42.056243565748744" lon="13.114850427336036"><ele>998.0</ele><time>2026-05-03T08:14:45.991Z</time></trkpt><trkpt lat="42.056317239139965" lon="13.11478491252983"><ele>998.0</ele><time>2026-05-03T08:14:46.991Z</time></trkpt><trkpt lat="42.05638871870801" lon="13.114719464140565"><ele>998.0000000000001</ele><time>2026-05-03T08:14:47.991Z</time></trkpt><trkpt lat="42.05645960388746" lon="13.114673314782605"><ele>998.0</ele><time>2026-05-03T08:14:48.991Z</time></trkpt><trkpt lat="42.05653139470981" lon="13.114660327073967"><ele>998.0</ele><time>2026-05-03T08:14:49.991Z</time></trkpt><trkpt lat="42.05661817997419" lon="13.114750867516936"><ele>998.0</ele><time>2026-05-03T08:14:51.991Z</time></trkpt><trkpt lat="42.0565541667625" lon="13.114877997391014"><ele>998.0</ele><time>2026-05-03T08:14:53.991Z</time></trkpt><trkpt lat="42.056495370902184" lon="13.114943210264027"><ele>998.0</ele><time>2026-05-03T08:14:54.991Z</time></trkpt><trkpt lat="42.05642603457797" lon="13.115023229553643"><ele>998.0</ele><time>2026-05-03T08:14:55.991Z</time></trkpt><trkpt lat="42.05636555014666" lon="13.115100241342178"><ele>998.0000000000001</ele><time>2026-05-03T08:14:56.991Z</time></trkpt><trkpt lat="42.0563136081897" lon="13.115172273607552"><ele>998.0</ele><time>2026-05-03T08:14:57.991Z</time></trkpt><trkpt lat="42.05626576542396" lon="13.115252857291146"><ele>998.0</ele><time>2026-05-03T08:14:58.991Z</time></trkpt><trkpt lat="42.05623395921709" lon="13.115328471429674"><ele>998.0</ele><time>2026-05-03T08:14:59.99Z</time></trkpt><trkpt lat="42.05620131579051" lon="13.115432963927127"><ele>998.0000000000001</ele><time>2026-05-03T08:15:01.99Z</time></trkpt><trkpt lat="42.05616024397652" lon="13.11550624814933"><ele>998.0</ele><time>2026-05-03T08:15:04.989Z</time></trkpt><trkpt lat="42.05609679199216" lon="13.115598985034767"><ele>998.0000000000001</ele><time>2026-05-03T08:16:17.99Z</time></trkpt><trkpt lat="42.05604529931044" lon="13.115671165656945"><ele>998.0</ele><time>2026-05-03T08:16:19.99Z</time></trkpt><trkpt lat="42.05599656133915" lon="13.115741118208321"><ele>998.0</ele><time>2026-05-03T08:16:21.99Z</time></trkpt><trkpt lat="42.055948914725484" lon="13.115808774104213"><ele>998.0</ele><time>2026-05-03T08:16:23.99Z</time></trkpt><trkpt lat="42.055883691467635" lon="13.115879428066322"><ele>998.0000000000001</ele><time>2026-05-03T08:16:25.99Z</time></trkpt><trkpt lat="42.05580535023092" lon="13.115939366868863"><ele>998.0</ele><time>2026-05-03T08:16:27.99Z</time></trkpt><trkpt lat="42.05571948696095" lon="13.116012276892032"><ele>996.5999999999999</ele><time>2026-05-03T08:16:29.99Z</time></trkpt><trkpt lat="42.055652510850074" lon="13.116012853775684"><ele>995.1999999999999</ele><time>2026-05-03T08:16:30.99Z</time></trkpt><trkpt lat="42.05554674890325" lon="13.116063327703955"><ele>993.8</ele><time>2026-05-03T08:16:32.99Z</time></trkpt><trkpt lat="42.05545562082578" lon="13.116135192467953"><ele>992.4</ele><time>2026-05-03T08:16:34.99Z</time></trkpt><trkpt lat="42.055368113285226" lon="13.116236180490167"><ele>991.0</ele><time>2026-05-03T08:16:36.99Z</time></trkpt><trkpt lat="42.055300734457425" lon="13.116367950421292"><ele>991.0</ele><time>2026-05-03T08:16:38.99Z</time></trkpt><trkpt lat="42.05524696698856" lon="13.116500803417246"><ele>990.9999999999999</ele><time>2026-05-03T08:16:40.99Z</time></trkpt><trkpt lat="42.05518331820504" lon="13.11662860221792"><ele>990.9999999999999</ele><time>2026-05-03T08:16:42.99Z</time></trkpt><trkpt lat="42.05508479059127" lon="13.116750531811142"><ele>991.0</ele><time>2026-05-03T08:16:44.99Z</time></trkpt><trkpt lat="42.055015860105605" lon="13.116799707785786"><ele>991.0</ele><time>2026-05-03T08:16:45.99Z</time></trkpt><trkpt lat="42.05496167719701" lon="13.11688039518063"><ele>992.1666666666666</ele><time>2026-05-03T08:16:46.99Z</time></trkpt><trkpt lat="42.05492012330228" lon="13.116983357606781"><ele>993.3333333333333</ele><time>2026-05-03T08:16:47.99Z</time></trkpt><trkpt lat="42.05489032536181" lon="13.117081779183845"><ele>994.5</ele><time>2026-05-03T08:16:48.99Z</time></trkpt><trkpt lat="42.054858793065954" lon="13.117164258980125"><ele>995.6666666666667</ele><time>2026-05-03T08:16:49.99Z</time></trkpt><trkpt lat="42.05488649231173" lon="13.117279693506612"><ele>996.8333333333334</ele><time>2026-05-03T08:16:50.99Z</time></trkpt><trkpt lat="42.054797022319036" lon="13.117373516829698"><ele>998.0</ele><time>2026-05-03T08:16:52.99Z</time></trkpt><trkpt lat="42.054709881612034" lon="13.117460391241318"><ele>1003.75</ele><time>2026-05-03T08:16:54.99Z</time></trkpt><trkpt lat="42.054599167613894" lon="13.117522408811874"><ele>1009.5</ele><time>2026-05-03T08:16:56.99Z</time></trkpt><trkpt lat="42.054502476023266" lon="13.117608655522863"><ele>1015.25</ele><time>2026-05-03T08:16:58.99Z</time></trkpt><trkpt lat="42.05438696905346" lon="13.117715454914178"><ele>1021.0</ele><time>2026-05-03T08:17:00.99Z</time></trkpt><trkpt lat="42.054316172859096" lon="13.117746377867553"><ele>1021.0</ele><time>2026-05-03T08:17:01.99Z</time></trkpt><trkpt lat="42.05419499513652" lon="13.11781123815579"><ele>1020.9999999999999</ele><time>2026-05-03T08:17:03.99Z</time></trkpt><trkpt lat="42.05407641591285" lon="13.117880151131468"><ele>1020.9999999999999</ele><time>2026-05-03T08:17:05.989Z</time></trkpt><trkpt lat="42.05401443783731" lon="13.117917621275808"><ele>1021.0</ele><time>2026-05-03T08:17:06.989Z</time></trkpt><trkpt lat="42.0539598948378" lon="13.117961902519502"><ele>1021.0</ele><time>2026-05-03T08:17:07.989Z</time></trkpt><trkpt lat="42.053903587661345" lon="13.118011350872315"><ele>1020.5999999999999</ele><time>2026-05-03T08:17:08.989Z</time></trkpt><trkpt lat="42.053794267799915" lon="13.1180880173621"><ele>1020.1999999999999</ele><time>2026-05-03T08:17:10.989Z</time></trkpt><trkpt lat="42.053728932704495" lon="13.11817597000709"><ele>1019.8000000000001</ele><time>2026-05-03T08:17:12.988Z</time></trkpt><trkpt lat="42.053660753190385" lon="13.11830599350446"><ele>1019.4000000000001</ele><time>2026-05-03T08:17:14.988Z</time></trkpt><trkpt lat="42.05363407863062" lon="13.118392184416296"><ele>1019.0</ele><time>2026-05-03T08:17:15.988Z</time></trkpt><trkpt lat="42.05360811114544" lon="13.118477805945668"><ele>1021.3333333333334</ele><time>2026-05-03T08:17:16.989Z</time></trkpt><trkpt lat="42.05356935789207" lon="13.118552453895154"><ele>1023.6666666666667</ele><time>2026-05-03T08:17:17.989Z</time></trkpt><trkpt lat="42.053514175085915" lon="13.118665040098687"><ele>1026.0</ele><time>2026-05-03T08:17:19.989Z</time></trkpt><trkpt lat="42.053466719162564" lon="13.11872484355468"><ele>1028.3333333333333</ele><time>2026-05-03T08:17:21.989Z</time></trkpt><trkpt lat="42.053400712193884" lon="13.118740263679717"><ele>1030.6666666666665</ele><time>2026-05-03T08:17:22.989Z</time></trkpt><trkpt lat="42.05327582483485" lon="13.118737028580384"><ele>1033.0</ele><time>2026-05-03T08:17:24.989Z</time></trkpt><trkpt lat="42.05320004191715" lon="13.118707404856545"><ele>1033.6666666666665</ele><time>2026-05-03T08:17:25.989Z</time></trkpt><trkpt lat="42.05312619385188" lon="13.118705874675488"><ele>1034.3333333333333</ele><time>2026-05-03T08:17:26.989Z</time></trkpt><trkpt lat="42.0530484594586" lon="13.11871856266306"><ele>1035.0</ele><time>2026-05-03T08:17:27.989Z</time></trkpt><trkpt lat="42.052963511576834" lon="13.118710258985594"><ele>1035.6666666666667</ele><time>2026-05-03T08:17:28.989Z</time></trkpt><trkpt lat="42.052877563233714" lon="13.118699182953536"><ele>1036.3333333333335</ele><time>2026-05-03T08:17:29.989Z</time></trkpt><trkpt lat="42.05281585023509" lon="13.1187199827906"><ele>1037.0</ele><time>2026-05-03T08:17:30.989Z</time></trkpt><trkpt lat="42.052751210186635" lon="13.11873950073721"><ele>1037.0</ele><time>2026-05-03T08:17:31.989Z</time></trkpt><trkpt lat="42.052667721792524" lon="13.118750075327211"><ele>1037.0</ele><time>2026-05-03T08:17:32.989Z</time></trkpt><trkpt lat="42.05259526841837" lon="13.118739706194324"><ele>1037.0</ele><time>2026-05-03T08:17:33.989Z</time></trkpt><trkpt lat="42.0525011724859" lon="13.118739216844938"><ele>1037.0</ele><time>2026-05-03T08:17:34.989Z</time></trkpt><trkpt lat="42.05241772590471" lon="13.118750322451591"><ele>1037.0</ele><time>2026-05-03T08:17:35.989Z</time></trkpt><trkpt lat="42.05233777649079" lon="13.118756698083509"><ele>1037.0</ele><time>2026-05-03T08:17:36.989Z</time></trkpt><trkpt lat="42.05224253730863" lon="13.118765695041008"><ele>1038.0</ele><time>2026-05-03T08:17:37.989Z</time></trkpt><trkpt lat="42.0521476446097" lon="13.118771881905781"><ele>1039.0</ele><time>2026-05-03T08:17:38.989Z</time></trkpt><trkpt lat="42.05205590198433" lon="13.118754238339518"><ele>1040.0</ele><time>2026-05-03T08:17:39.989Z</time></trkpt><trkpt lat="42.05196202655629" lon="13.118738238322221"><ele>1041.0</ele><time>2026-05-03T08:17:40.989Z</time></trkpt><trkpt lat="42.051874366902624" lon="13.118748620321526"><ele>1042.0</ele><time>2026-05-03T08:17:41.989Z</time></trkpt><trkpt lat="42.05178014675841" lon="13.118723934417972"><ele>1042.0</ele><time>2026-05-03T08:17:42.989Z</time></trkpt><trkpt lat="42.05168674577338" lon="13.118716648954626"><ele>1042.0</ele><time>2026-05-03T08:17:43.989Z</time></trkpt><trkpt lat="42.05160323720112" lon="13.118715838364507"><ele>1042.0</ele><time>2026-05-03T08:17:44.989Z</time></trkpt><trkpt lat="42.051517867223566" lon="13.118686228867292"><ele>1042.0</ele><time>2026-05-03T08:17:45.989Z</time></trkpt><trkpt lat="42.05143165795626" lon="13.118652121709816"><ele>1042.0</ele><time>2026-05-03T08:17:46.989Z</time></trkpt><trkpt lat="42.05133684530354" lon="13.118601561435472"><ele>1042.8333333333333</ele><time>2026-05-03T08:17:47.989Z</time></trkpt><trkpt lat="42.051250097160654" lon="13.118537038283007"><ele>1043.6666666666665</ele><time>2026-05-03T08:17:48.989Z</time></trkpt><trkpt lat="42.05117055636945" lon="13.118471185669664"><ele>1044.5</ele><time>2026-05-03T08:17:49.989Z</time></trkpt><trkpt lat="42.05109806536399" lon="13.118411796762315"><ele>1045.3333333333333</ele><time>2026-05-03T08:17:50.989Z</time></trkpt><trkpt lat="42.05102800777433" lon="13.118356909812887"><ele>1046.1666666666667</ele><time>2026-05-03T08:17:51.989Z</time></trkpt><trkpt lat="42.05096188628742" lon="13.118309176972831"><ele>1047.0</ele><time>2026-05-03T08:17:52.989Z</time></trkpt><trkpt lat="42.05089745029423" lon="13.118262212908737"><ele>1044.4</ele><time>2026-05-03T08:17:53.989Z</time></trkpt><trkpt lat="42.05079551047343" lon="13.118207085073252"><ele>1041.8000000000002</ele><time>2026-05-03T08:17:55.989Z</time></trkpt><trkpt lat="42.0507099694436" lon="13.118201016484075"><ele>1039.2</ele><time>2026-05-03T08:17:57.989Z</time></trkpt><trkpt lat="42.050638662070156" lon="13.11827191087855"><ele>1036.6000000000001</ele><time>2026-05-03T08:17:59.989Z</time></trkpt><trkpt lat="42.05057689360146" lon="13.118352674640112"><ele>1034.0</ele><time>2026-05-03T08:18:01.989Z</time></trkpt><trkpt lat="42.0505288211349" lon="13.118475237338696"><ele>1034.0</ele><time>2026-05-03T08:18:03.989Z</time></trkpt><trkpt lat="42.05046030812398" lon="13.118588567391587"><ele>1034.0</ele><time>2026-05-03T08:18:05.989Z</time></trkpt><trkpt lat="42.05040677322782" lon="13.118644306177684"><ele>1034.0</ele><time>2026-05-03T08:18:06.989Z</time></trkpt><trkpt lat="42.05034236721716" lon="13.118743634262437"><ele>1034.0</ele><time>2026-05-03T08:18:08.989Z</time></trkpt><trkpt lat="42.050261361185434" lon="13.118860543268479"><ele>1034.0</ele><time>2026-05-03T08:18:10.989Z</time></trkpt><trkpt lat="42.050178272361606" lon="13.11898148070807"><ele>1034.0</ele><time>2026-05-03T08:18:12.989Z</time></trkpt><trkpt lat="42.0501337203671" lon="13.11904272931418"><ele>1034.0</ele><time>2026-05-03T08:18:13.989Z</time></trkpt><trkpt lat="42.0500730905113" lon="13.119179133431114"><ele>1034.0</ele><time>2026-05-03T08:18:15.989Z</time></trkpt><trkpt lat="42.05003620863491" lon="13.11933177967676"><ele>1034.0</ele><time>2026-05-03T08:18:17.989Z</time></trkpt><trkpt lat="42.05000142748328" lon="13.119407938512213"><ele>1034.0</ele><time>2026-05-03T08:18:18.989Z</time></trkpt><trkpt lat="42.049938910830896" lon="13.119531645560734"><ele>1033.5</ele><time>2026-05-03T08:18:20.989Z</time></trkpt><trkpt lat="42.04989023688571" lon="13.119602981025745"><ele>1033.0</ele><time>2026-05-03T08:18:21.989Z</time></trkpt><trkpt lat="42.04984420987351" lon="13.119682697844409"><ele>1032.5</ele><time>2026-05-03T08:18:22.989Z</time></trkpt><trkpt lat="42.049790235458914" lon="13.119741225045553"><ele>1032.0</ele><time>2026-05-03T08:18:23.989Z</time></trkpt><trkpt lat="42.049701985549966" lon="13.119836327698753"><ele>1031.5</ele><time>2026-05-03T08:18:25.989Z</time></trkpt><trkpt lat="42.04961014005486" lon="13.119931094801826"><ele>1031.0</ele><time>2026-05-03T08:18:27.989Z</time></trkpt><trkpt lat="42.04954993950867" lon="13.120044429486791"><ele>1034.8333333333335</ele><time>2026-05-03T08:18:29.989Z</time></trkpt><trkpt lat="42.04952246434137" lon="13.120131026061495"><ele>1038.6666666666667</ele><time>2026-05-03T08:18:30.989Z</time></trkpt><trkpt lat="42.04950686074821" lon="13.120215283751255"><ele>1042.5</ele><time>2026-05-03T08:18:31.989Z</time></trkpt><trkpt lat="42.04948513016012" lon="13.120298734692676"><ele>1046.3333333333333</ele><time>2026-05-03T08:18:32.989Z</time></trkpt><trkpt lat="42.049432931860615" lon="13.120447329939756"><ele>1050.1666666666665</ele><time>2026-05-03T08:18:34.989Z</time></trkpt><trkpt lat="42.04940848044165" lon="13.12053377844554"><ele>1054.0</ele><time>2026-05-03T08:18:35.989Z</time></trkpt><trkpt lat="42.049381100344206" lon="13.120623906242203"><ele>1054.0</ele><time>2026-05-03T08:18:36.989Z</time></trkpt><trkpt lat="42.04935513802919" lon="13.120702795351779"><ele>1054.0</ele><time>2026-05-03T08:18:37.989Z</time></trkpt><trkpt lat="42.04932574057617" lon="13.120796592767118"><ele>1054.0</ele><time>2026-05-03T08:18:38.989Z</time></trkpt><trkpt lat="42.04928615011828" lon="13.12088969649249"><ele>1054.0</ele><time>2026-05-03T08:18:39.989Z</time></trkpt><trkpt lat="42.04925523168007" lon="13.120964884339038"><ele>1054.0</ele><time>2026-05-03T08:18:40.989Z</time></trkpt><trkpt lat="42.04920574426562" lon="13.121110350870298"><ele>1054.0</ele><time>2026-05-03T08:18:42.989Z</time></trkpt><trkpt lat="42.049177638449" lon="13.121192446587548"><ele>1054.6000000000001</ele><time>2026-05-03T08:18:43.989Z</time></trkpt><trkpt lat="42.04914574729564" lon="13.121266875703597"><ele>1055.2</ele><time>2026-05-03T08:18:44.989Z</time></trkpt><trkpt lat="42.04911090575678" lon="13.121350211055068"><ele>1055.8000000000002</ele><time>2026-05-03T08:18:45.989Z</time></trkpt><trkpt lat="42.049031993054705" lon="13.121483932879782"><ele>1056.4</ele><time>2026-05-03T08:18:47.989Z</time></trkpt><trkpt lat="42.04898639486401" lon="13.121559312106465"><ele>1057.0</ele><time>2026-05-03T08:18:48.989Z</time></trkpt><trkpt lat="42.04893763278495" lon="13.121701609207026"><ele>1057.0</ele><time>2026-05-03T08:18:50.989Z</time></trkpt><trkpt lat="42.048896652349654" lon="13.12186057732776"><ele>1057.0</ele><time>2026-05-03T08:18:52.989Z</time></trkpt><trkpt lat="42.048877902513816" lon="13.121942209244443"><ele>1057.0</ele><time>2026-05-03T08:18:53.989Z</time></trkpt><trkpt lat="42.048827111434576" lon="13.122098355406303"><ele>1057.0</ele><time>2026-05-03T08:18:55.989Z</time></trkpt><trkpt lat="42.04876922300086" lon="13.122251725956708"><ele>1057.0</ele><time>2026-05-03T08:18:57.989Z</time></trkpt><trkpt lat="42.04874707745202" lon="13.122347588164263"><ele>1059.6666666666665</ele><time>2026-05-03T08:18:58.989Z</time></trkpt><trkpt lat="42.0487232636624" lon="13.122433721137938"><ele>1062.3333333333333</ele><time>2026-05-03T08:18:59.989Z</time></trkpt><trkpt lat="42.04871479852552" lon="13.122524197511096"><ele>1065.0</ele><time>2026-05-03T08:19:00.989Z</time></trkpt><trkpt lat="42.048677140836446" lon="13.122598732252406"><ele>1067.6666666666667</ele><time>2026-05-03T08:19:01.989Z</time></trkpt><trkpt lat="42.04864926272102" lon="13.122683996602968"><ele>1070.3333333333335</ele><time>2026-05-03T08:19:02.989Z</time></trkpt><trkpt lat="42.048613065352804" lon="13.12283189137975"><ele>1073.0</ele><time>2026-05-03T08:19:04.989Z</time></trkpt><trkpt lat="42.048572086002004" lon="13.122984540228872"><ele>1073.0</ele><time>2026-05-03T08:19:06.989Z</time></trkpt><trkpt lat="42.048535106962156" lon="13.123140592205194"><ele>1073.0</ele><time>2026-05-03T08:19:08.989Z</time></trkpt><trkpt lat="42.048506305753435" lon="13.123243655877186"><ele>1073.0</ele><time>2026-05-03T08:19:09.989Z</time></trkpt><trkpt lat="42.04848013474257" lon="13.123328480624377"><ele>1073.0</ele><time>2026-05-03T08:19:10.988Z</time></trkpt><trkpt lat="42.0484508488179" lon="13.123409722731024"><ele>1073.0</ele><time>2026-05-03T08:19:11.988Z</time></trkpt><trkpt lat="42.04841492299446" lon="13.123481406175603"><ele>1073.0</ele><time>2026-05-03T08:19:12.988Z</time></trkpt><trkpt lat="42.0483534957155" lon="13.123609422125392"><ele>1071.2</ele><time>2026-05-03T08:19:14.988Z</time></trkpt><trkpt lat="42.048296165275374" lon="13.123719746465662"><ele>1069.4</ele><time>2026-05-03T08:19:16.988Z</time></trkpt><trkpt lat="42.048268235282414" lon="13.123873364852612"><ele>1067.6000000000001</ele><time>2026-05-03T08:19:18.988Z</time></trkpt><trkpt lat="42.048182412326746" lon="13.123989810453757"><ele>1065.8</ele><time>2026-05-03T08:19:20.987Z</time></trkpt><trkpt lat="42.04812353915898" lon="13.124039677833823"><ele>1064.0</ele><time>2026-05-03T08:19:21.987Z</time></trkpt><trkpt lat="42.04807896914663" lon="13.12410352249615"><ele>1069.4</ele><time>2026-05-03T08:19:22.988Z</time></trkpt><trkpt lat="42.047998721937496" lon="13.12423222138837"><ele>1074.8000000000002</ele><time>2026-05-03T08:19:24.987Z</time></trkpt><trkpt lat="42.04794129272111" lon="13.124287667943133"><ele>1080.1999999999998</ele><time>2026-05-03T08:19:25.987Z</time></trkpt><trkpt lat="42.04784673123506" lon="13.124388002419034"><ele>1085.6</ele><time>2026-05-03T08:19:27.987Z</time></trkpt><trkpt lat="42.04779686057386" lon="13.124445108344078"><ele>1091.0</ele><time>2026-05-03T08:19:28.987Z</time></trkpt><trkpt lat="42.047736189394236" lon="13.124501029367044"><ele>1091.0</ele><time>2026-05-03T08:19:29.987Z</time></trkpt><trkpt lat="42.0476802926768" lon="13.124555478472882"><ele>1091.0</ele><time>2026-05-03T08:19:30.987Z</time></trkpt><trkpt lat="42.04758319167494" lon="13.124658722345792"><ele>1091.0</ele><time>2026-05-03T08:19:32.987Z</time></trkpt><trkpt lat="42.04747405583935" lon="13.124740711932203"><ele>1091.0</ele><time>2026-05-03T08:19:34.987Z</time></trkpt><trkpt lat="42.04736990820197" lon="13.124825866323595"><ele>1091.0</ele><time>2026-05-03T08:19:36.987Z</time></trkpt><trkpt lat="42.047307579149845" lon="13.124856531753865"><ele>1090.6</ele><time>2026-05-03T08:19:37.987Z</time></trkpt><trkpt lat="42.047221883298484" lon="13.124972963947737"><ele>1090.1999999999998</ele><time>2026-05-03T08:19:39.987Z</time></trkpt><trkpt lat="42.04713559090069" lon="13.125103979938059"><ele>1089.8000000000002</ele><time>2026-05-03T08:19:41.987Z</time></trkpt><trkpt lat="42.04710535357216" lon="13.125181741176515"><ele>1089.4</ele><time>2026-05-03T08:19:42.987Z</time></trkpt><trkpt lat="42.047097286897554" lon="13.125338162508282"><ele>1089.0</ele><time>2026-05-03T08:19:44.987Z</time></trkpt><trkpt lat="42.04715590520885" lon="13.125473391697088"><ele>1089.0</ele><time>2026-05-03T08:19:46.987Z</time></trkpt><trkpt lat="42.04724507668257" lon="13.125544557645252"><ele>1089.0</ele><time>2026-05-03T08:19:48.987Z</time></trkpt><trkpt lat="42.047332951456696" lon="13.125553121524009"><ele>1089.0</ele><time>2026-05-03T08:19:51.987Z</time></trkpt><trkpt lat="42.047372366669364" lon="13.125622184449568"><ele>1089.0</ele><time>2026-05-03T08:20:03.987Z</time></trkpt><trkpt lat="42.047373227254795" lon="13.125714464705043"><ele>1089.0</ele><time>2026-05-03T08:20:05.987Z</time></trkpt><trkpt lat="42.047364439087985" lon="13.125804280529865"><ele>1089.0</ele><time>2026-05-03T08:20:07.987Z</time></trkpt><trkpt lat="42.047343775816984" lon="13.125913261667938"><ele>1090.6000000000001</ele><time>2026-05-03T08:20:09.987Z</time></trkpt><trkpt lat="42.047339740411246" lon="13.126000879533747"><ele>1092.2</ele><time>2026-05-03T08:20:10.987Z</time></trkpt><trkpt lat="42.04735549703923" lon="13.126120410396881"><ele>1093.8000000000002</ele><time>2026-05-03T08:20:12.987Z</time></trkpt><trkpt lat="42.04740223658628" lon="13.126259230197954"><ele>1095.4</ele><time>2026-05-03T08:20:14.987Z</time></trkpt><trkpt lat="42.04748471001712" lon="13.126391939934765"><ele>1097.0</ele><time>2026-05-03T08:20:16.987Z</time></trkpt><trkpt lat="42.04753596587655" lon="13.126447165134238"><ele>1099.8333333333335</ele><time>2026-05-03T08:20:17.987Z</time></trkpt><trkpt lat="42.04759526436836" lon="13.126484683115349"><ele>1102.6666666666667</ele><time>2026-05-03T08:20:18.987Z</time></trkpt><trkpt lat="42.04766347013105" lon="13.126514548143549"><ele>1105.5</ele><time>2026-05-03T08:20:19.987Z</time></trkpt><trkpt lat="42.047735234164456" lon="13.126534261319748"><ele>1108.3333333333333</ele><time>2026-05-03T08:20:20.987Z</time></trkpt><trkpt lat="42.04781127330593" lon="13.126568554943775"><ele>1111.1666666666665</ele><time>2026-05-03T08:20:21.987Z</time></trkpt><trkpt lat="42.04788043859106" lon="13.12659229548935"><ele>1114.0</ele><time>2026-05-03T08:20:22.987Z</time></trkpt><trkpt lat="42.04800891733355" lon="13.126645349689378"><ele>1114.0</ele><time>2026-05-03T08:20:24.987Z</time></trkpt><trkpt lat="42.048068476217324" lon="13.126688191472082"><ele>1114.0</ele><time>2026-05-03T08:20:25.987Z</time></trkpt><trkpt lat="42.048152480129865" lon="13.126786164668541"><ele>1114.0</ele><time>2026-05-03T08:20:27.987Z</time></trkpt><trkpt lat="42.048172339548586" lon="13.126913057464863"><ele>1114.0</ele><time>2026-05-03T08:20:29.987Z</time></trkpt><trkpt lat="42.04814711787493" lon="13.127086402875753"><ele>1114.0</ele><time>2026-05-03T08:20:31.987Z</time></trkpt><trkpt lat="42.048108430815915" lon="13.127183205264316"><ele>1114.0</ele><time>2026-05-03T08:20:32.987Z</time></trkpt><trkpt lat="42.0480717675053" lon="13.127277818168801"><ele>1114.0</ele><time>2026-05-03T08:20:33.987Z</time></trkpt><trkpt lat="42.04804260025252" lon="13.127378287826426"><ele>1114.0</ele><time>2026-05-03T08:20:34.987Z</time></trkpt><trkpt lat="42.04801771520574" lon="13.127505568770575"><ele>1114.0</ele><time>2026-05-03T08:20:35.988Z</time></trkpt><trkpt lat="42.0480008482649" lon="13.127612464557895"><ele>1114.0</ele><time>2026-05-03T08:20:36.988Z</time></trkpt><trkpt lat="42.04798572969337" lon="13.127710712333068"><ele>1114.0</ele><time>2026-05-03T08:20:37.988Z</time></trkpt><trkpt lat="42.04797104502758" lon="13.127804901558966"><ele>1114.2</ele><time>2026-05-03T08:20:38.988Z</time></trkpt><trkpt lat="42.04786880008018" lon="13.127904127498525"><ele>1114.4</ele><time>2026-05-03T08:20:40.988Z</time></trkpt><trkpt lat="42.047794004899245" lon="13.127920055739182"><ele>1114.6</ele><time>2026-05-03T08:20:41.988Z</time></trkpt><trkpt lat="42.04772270907879" lon="13.12795208610129"><ele>1114.8</ele><time>2026-05-03T08:20:42.988Z</time></trkpt><trkpt lat="42.04762849500604" lon="13.128050260406779"><ele>1115.0</ele><time>2026-05-03T08:20:44.988Z</time></trkpt><trkpt lat="42.047570830423936" lon="13.128117232284888"><ele>1115.0</ele><time>2026-05-03T08:20:45.988Z</time></trkpt><trkpt lat="42.04754626816856" lon="13.128210630329582"><ele>1115.0</ele><time>2026-05-03T08:20:46.988Z</time></trkpt><trkpt lat="42.047562367681955" lon="13.128310318124196"><ele>1115.0</ele><time>2026-05-03T08:20:47.988Z</time></trkpt><trkpt lat="42.047567904594835" lon="13.1284108498261"><ele>1115.0</ele><time>2026-05-03T08:20:48.988Z</time></trkpt><trkpt lat="42.04756865578051" lon="13.128534692113565"><ele>1115.0</ele><time>2026-05-03T08:20:49.988Z</time></trkpt><trkpt lat="42.047570594043385" lon="13.128641423158248"><ele>1115.0</ele><time>2026-05-03T08:20:50.988Z</time></trkpt><trkpt lat="42.04757395103317" lon="13.128755214151365"><ele>1116.3333333333335</ele><time>2026-05-03T08:20:51.988Z</time></trkpt><trkpt lat="42.047570960115564" lon="13.128870514610307"><ele>1117.6666666666667</ele><time>2026-05-03T08:20:52.988Z</time></trkpt><trkpt lat="42.04756510771144" lon="13.12899234881678"><ele>1119.0</ele><time>2026-05-03T08:20:53.988Z</time></trkpt><trkpt lat="42.04756322331049" lon="13.129114331412811"><ele>1120.3333333333333</ele><time>2026-05-03T08:20:54.988Z</time></trkpt><trkpt lat="42.04757135884584" lon="13.12924219750708"><ele>1121.6666666666665</ele><time>2026-05-03T08:20:55.988Z</time></trkpt><trkpt lat="42.047579177219994" lon="13.129348247218156"><ele>1123.0</ele><time>2026-05-03T08:20:56.988Z</time></trkpt><trkpt lat="42.04759149930502" lon="13.129446829195107"><ele>1123.6666666666665</ele><time>2026-05-03T08:20:57.988Z</time></trkpt><trkpt lat="42.04759499873292" lon="13.129542969250664"><ele>1124.3333333333333</ele><time>2026-05-03T08:20:58.988Z</time></trkpt><trkpt lat="42.047565839079844" lon="13.129701305147215"><ele>1125.0</ele><time>2026-05-03T08:21:00.988Z</time></trkpt><trkpt lat="42.04752653298693" lon="13.129792101047725"><ele>1125.6666666666667</ele><time>2026-05-03T08:21:01.988Z</time></trkpt><trkpt lat="42.047459421179504" lon="13.129858363408953"><ele>1126.3333333333335</ele><time>2026-05-03T08:21:02.988Z</time></trkpt><trkpt lat="42.04740789682987" lon="13.129940904227098"><ele>1127.0</ele><time>2026-05-03T08:21:03.988Z</time></trkpt><trkpt lat="42.047360055033955" lon="13.13002186965988"><ele>1125.6666666666667</ele><time>2026-05-03T08:21:04.988Z</time></trkpt><trkpt lat="42.04730776381717" lon="13.130111971538332"><ele>1124.3333333333335</ele><time>2026-05-03T08:21:05.988Z</time></trkpt><trkpt lat="42.04726906433617" lon="13.130205577565258"><ele>1123.0</ele><time>2026-05-03T08:21:06.988Z</time></trkpt><trkpt lat="42.04721785564913" lon="13.13030286136004"><ele>1121.6666666666667</ele><time>2026-05-03T08:21:07.988Z</time></trkpt><trkpt lat="42.04717899977914" lon="13.130396472558134"><ele>1120.3333333333333</ele><time>2026-05-03T08:21:08.988Z</time></trkpt><trkpt lat="42.04713754897846" lon="13.13049413132919"><ele>1119.0</ele><time>2026-05-03T08:21:09.988Z</time></trkpt><trkpt lat="42.04708986845337" lon="13.130580479081637"><ele>1119.0</ele><time>2026-05-03T08:21:10.988Z</time></trkpt><trkpt lat="42.04704809075567" lon="13.130665135452531"><ele>1119.0</ele><time>2026-05-03T08:21:11.988Z</time></trkpt><trkpt lat="42.047003545641594" lon="13.130750164056277"><ele>1119.0</ele><time>2026-05-03T08:21:12.988Z</time></trkpt><trkpt lat="42.046955949619395" lon="13.130821573053279"><ele>1119.0</ele><time>2026-05-03T08:21:13.988Z</time></trkpt><trkpt lat="42.04689937447334" lon="13.130904180270521"><ele>1119.0</ele><time>2026-05-03T08:21:14.988Z</time></trkpt><trkpt lat="42.046840500950594" lon="13.130978762847525"><ele>1119.0</ele><time>2026-05-03T08:21:15.988Z</time></trkpt><trkpt lat="42.046779895577636" lon="13.131046241214882"><ele>1118.3333333333333</ele><time>2026-05-03T08:21:16.987Z</time></trkpt><trkpt lat="42.046745389488905" lon="13.131128752009346"><ele>1117.6666666666667</ele><time>2026-05-03T08:21:17.987Z</time></trkpt><trkpt lat="42.04672352092961" lon="13.131230575676184"><ele>1117.0</ele><time>2026-05-03T08:21:18.987Z</time></trkpt><trkpt lat="42.04670570050465" lon="13.131346954875571"><ele>1116.3333333333335</ele><time>2026-05-03T08:21:19.986Z</time></trkpt><trkpt lat="42.04667521715684" lon="13.131454888344015"><ele>1115.6666666666667</ele><time>2026-05-03T08:21:20.986Z</time></trkpt><trkpt lat="42.046648654084436" lon="13.131559115528335"><ele>1115.0</ele><time>2026-05-03T08:21:21.986Z</time></trkpt><trkpt lat="42.04661837675517" lon="13.131670463883015"><ele>1115.0</ele><time>2026-05-03T08:21:22.987Z</time></trkpt><trkpt lat="42.046595107372816" lon="13.131781384299629"><ele>1115.0</ele><time>2026-05-03T08:21:23.987Z</time></trkpt><trkpt lat="42.046589974320014" lon="13.13192154293738"><ele>1115.0</ele><time>2026-05-03T08:21:24.987Z</time></trkpt><trkpt lat="42.046585349140365" lon="13.132035802662822"><ele>1115.0</ele><time>2026-05-03T08:21:25.986Z</time></trkpt><trkpt lat="42.04659334449882" lon="13.132143285971456"><ele>1115.0</ele><time>2026-05-03T08:21:26.986Z</time></trkpt><trkpt lat="42.046587425942114" lon="13.132241654606728"><ele>1115.0</ele><time>2026-05-03T08:21:27.986Z</time></trkpt><trkpt lat="42.04656219907162" lon="13.13233990574767"><ele>1116.1666666666667</ele><time>2026-05-03T08:21:28.987Z</time></trkpt><trkpt lat="42.04650710969625" lon="13.132436601139684"><ele>1117.3333333333335</ele><time>2026-05-03T08:21:29.987Z</time></trkpt><trkpt lat="42.046452239056734" lon="13.132520160654035"><ele>1118.5</ele><time>2026-05-03T08:21:30.987Z</time></trkpt><trkpt lat="42.046401842470665" lon="13.132606705206639"><ele>1119.6666666666667</ele><time>2026-05-03T08:21:31.987Z</time></trkpt><trkpt lat="42.04635225787148" lon="13.132706022910789"><ele>1120.8333333333333</ele><time>2026-05-03T08:21:32.987Z</time></trkpt><trkpt lat="42.046328615123834" lon="13.132814197879462"><ele>1122.0</ele><time>2026-05-03T08:21:33.987Z</time></trkpt><trkpt lat="42.046310588797446" lon="13.1329323032502"><ele>1122.0</ele><time>2026-05-03T08:21:34.987Z</time></trkpt><trkpt lat="42.046297468329534" lon="13.13303435377009"><ele>1122.0</ele><time>2026-05-03T08:21:35.987Z</time></trkpt><trkpt lat="42.04628809597247" lon="13.133141362704086"><ele>1122.0</ele><time>2026-05-03T08:21:36.987Z</time></trkpt><trkpt lat="42.04628821683033" lon="13.133239969388647"><ele>1122.0</ele><time>2026-05-03T08:21:37.987Z</time></trkpt><trkpt lat="42.04629471025039" lon="13.13335845923435"><ele>1122.0</ele><time>2026-05-03T08:21:38.987Z</time></trkpt><trkpt lat="42.046290391050974" lon="13.13344678794198"><ele>1122.0</ele><time>2026-05-03T08:21:39.987Z</time></trkpt><trkpt lat="42.04627347822095" lon="13.133564146652864"><ele>1123.142857142857</ele><time>2026-05-03T08:21:40.987Z</time></trkpt><trkpt lat="42.046258734461254" lon="13.13367914637404"><ele>1124.2857142857142</ele><time>2026-05-03T08:21:41.987Z</time></trkpt><trkpt lat="42.0462609017748" lon="13.133782020216394"><ele>1125.4285714285713</ele><time>2026-05-03T08:21:42.987Z</time></trkpt><trkpt lat="42.04627148329922" lon="13.133873176580023"><ele>1126.5714285714284</ele><time>2026-05-03T08:21:43.987Z</time></trkpt><trkpt lat="42.04627965824227" lon="13.133962194749696"><ele>1127.7142857142858</ele><time>2026-05-03T08:21:44.987Z</time></trkpt><trkpt lat="42.046291956984064" lon="13.134045665048223"><ele>1128.8571428571427</ele><time>2026-05-03T08:21:45.987Z</time></trkpt><trkpt lat="42.04630696141207" lon="13.134130566465394"><ele>1130.0</ele><time>2026-05-03T08:21:46.987Z</time></trkpt><trkpt lat="42.04634045466797" lon="13.134304499544173"><ele>1130.1666666666667</ele><time>2026-05-03T08:21:48.987Z</time></trkpt><trkpt lat="42.04635504967754" lon="13.134399823860605"><ele>1130.3333333333335</ele><time>2026-05-03T08:21:49.987Z</time></trkpt><trkpt lat="42.0463688888197" lon="13.134501552359819"><ele>1130.5</ele><time>2026-05-03T08:21:50.987Z</time></trkpt><trkpt lat="42.046382221421695" lon="13.134592517676591"><ele>1130.6666666666667</ele><time>2026-05-03T08:21:51.987Z</time></trkpt><trkpt lat="42.046400512928926" lon="13.134679234338272"><ele>1130.8333333333333</ele><time>2026-05-03T08:21:52.987Z</time></trkpt><trkpt lat="42.04642108417741" lon="13.134777988174074"><ele>1131.0</ele><time>2026-05-03T08:21:54.987Z</time></trkpt><trkpt lat="42.046400214332394" lon="13.134907259670008"><ele>1131.5</ele><time>2026-05-03T08:21:56.987Z</time></trkpt><trkpt lat="42.04642284036829" lon="13.135010247076762"><ele>1132.0</ele><time>2026-05-03T08:21:58.987Z</time></trkpt><trkpt lat="42.04642058282991" lon="13.135101789003311"><ele>1132.5</ele><time>2026-05-03T08:21:59.987Z</time></trkpt><trkpt lat="42.04643820361554" lon="13.135246520815858"><ele>1133.0</ele><time>2026-05-03T08:22:01.987Z</time></trkpt><trkpt lat="42.04645409868501" lon="13.13541122352096"><ele>1133.5</ele><time>2026-05-03T08:22:03.987Z</time></trkpt><trkpt lat="42.04646725221826" lon="13.135497525746302"><ele>1134.0</ele><time>2026-05-03T08:22:04.987Z</time></trkpt><trkpt lat="42.0464802859023" lon="13.135601811707463"><ele>1134.0</ele><time>2026-05-03T08:22:05.987Z</time></trkpt><trkpt lat="42.0465011306414" lon="13.135687418100277"><ele>1134.0</ele><time>2026-05-03T08:22:06.987Z</time></trkpt><trkpt lat="42.04650768722849" lon="13.135785666877306"><ele>1134.0</ele><time>2026-05-03T08:22:07.987Z</time></trkpt><trkpt lat="42.046525519118006" lon="13.135889429955748"><ele>1134.0</ele><time>2026-05-03T08:22:08.987Z</time></trkpt><trkpt lat="42.04654745471947" lon="13.135993995327995"><ele>1134.0</ele><time>2026-05-03T08:22:09.987Z</time></trkpt><trkpt lat="42.04656071275959" lon="13.136083951182027"><ele>1134.0</ele><time>2026-05-03T08:22:10.987Z</time></trkpt><trkpt lat="42.04656713511129" lon="13.136170881504928"><ele>1134.0</ele><time>2026-05-03T08:22:11.987Z</time></trkpt><trkpt lat="42.04658311672805" lon="13.136273783615795"><ele>1135.1666666666667</ele><time>2026-05-03T08:22:12.987Z</time></trkpt><trkpt lat="42.04659402795416" lon="13.136379874222989"><ele>1136.3333333333333</ele><time>2026-05-03T08:22:13.987Z</time></trkpt><trkpt lat="42.046604858431785" lon="13.13648459741904"><ele>1137.5</ele><time>2026-05-03T08:22:14.987Z</time></trkpt><trkpt lat="42.04661264630468" lon="13.136579964416343"><ele>1138.6666666666665</ele><time>2026-05-03T08:22:15.987Z</time></trkpt><trkpt lat="42.046615499786746" lon="13.136675248515116"><ele>1139.8333333333333</ele><time>2026-05-03T08:22:16.987Z</time></trkpt><trkpt lat="42.04661070669485" lon="13.136778381540044"><ele>1141.0</ele><time>2026-05-03T08:22:17.987Z</time></trkpt><trkpt lat="42.0465885986166" lon="13.136885756573447"><ele>1142.5</ele><time>2026-05-03T08:22:18.987Z</time></trkpt><trkpt lat="42.046565017556496" lon="13.136980796596905"><ele>1144.0</ele><time>2026-05-03T08:22:19.987Z</time></trkpt><trkpt lat="42.046544748956485" lon="13.13708005026629"><ele>1145.5</ele><time>2026-05-03T08:22:20.987Z</time></trkpt><trkpt lat="42.04652236095425" lon="13.137160978060523"><ele>1147.0</ele><time>2026-05-03T08:22:21.987Z</time></trkpt><trkpt lat="42.04648127193351" lon="13.137327104060487"><ele>1148.5</ele><time>2026-05-03T08:22:23.987Z</time></trkpt><trkpt lat="42.046461619745926" lon="13.13740767802949"><ele>1150.0</ele><time>2026-05-03T08:22:24.987Z</time></trkpt><trkpt lat="42.04642022378084" lon="13.137530432360922"><ele>1151.3333333333333</ele><time>2026-05-03T08:26:35.984Z</time></trkpt><trkpt lat="42.04643659977786" lon="13.13763485895885"><ele>1152.6666666666665</ele><time>2026-05-03T08:27:07.984Z</time></trkpt><trkpt lat="42.04648849590752" lon="13.137708533980335"><ele>1154.0</ele><time>2026-05-03T08:27:10.984Z</time></trkpt><trkpt lat="42.04656818302283" lon="13.137678730347528"><ele>1155.3333333333333</ele><time>2026-05-03T08:27:13.984Z</time></trkpt><trkpt lat="42.046613085329454" lon="13.137579002084268"><ele>1156.6666666666667</ele><time>2026-05-03T08:27:15.984Z</time></trkpt><trkpt lat="42.04663351153372" lon="13.13746650449833"><ele>1158.0</ele><time>2026-05-03T08:27:17.984Z</time></trkpt><trkpt lat="42.0466670512195" lon="13.137376864441098"><ele>1161.2</ele><time>2026-05-03T08:27:19.984Z</time></trkpt><trkpt lat="42.046699670659606" lon="13.137226244117068"><ele>1164.4</ele><time>2026-05-03T08:27:21.984Z</time></trkpt><trkpt lat="42.046726263890854" lon="13.137139188983069"><ele>1167.6000000000001</ele><time>2026-05-03T08:27:22.984Z</time></trkpt><trkpt lat="42.0467908252181" lon="13.137005539833558"><ele>1170.8</ele><time>2026-05-03T08:27:24.984Z</time></trkpt><trkpt lat="42.046831706342566" lon="13.13693484610107"><ele>1174.0</ele><time>2026-05-03T08:27:25.984Z</time></trkpt><trkpt lat="42.04690367400828" lon="13.136824836306271"><ele>1174.0</ele><time>2026-05-03T08:27:27.984Z</time></trkpt><trkpt lat="42.046948448036865" lon="13.136715348586824"><ele>1174.0</ele><time>2026-05-03T08:27:29.984Z</time></trkpt><trkpt lat="42.04697011691518" lon="13.136614097509295"><ele>1174.0</ele><time>2026-05-03T08:27:31.984Z</time></trkpt><trkpt lat="42.04699334649905" lon="13.136488565222946"><ele>1174.0</ele><time>2026-05-03T08:27:33.984Z</time></trkpt><trkpt lat="42.046999341533215" lon="13.136351843978868"><ele>1174.0</ele><time>2026-05-03T08:27:35.983Z</time></trkpt><trkpt lat="42.04697620444889" lon="13.13619291507656"><ele>1174.0</ele><time>2026-05-03T08:27:37.983Z</time></trkpt><trkpt lat="42.04695587634147" lon="13.136029682540652"><ele>1174.0</ele><time>2026-05-03T08:27:39.983Z</time></trkpt><trkpt lat="42.046956929636536" lon="13.135896968998326"><ele>1174.0</ele><time>2026-05-03T08:27:41.983Z</time></trkpt><trkpt lat="42.046972785958495" lon="13.13575080851487"><ele>1174.0</ele><time>2026-05-03T08:27:43.983Z</time></trkpt><trkpt lat="42.0469852533769" lon="13.1356555059934"><ele>1174.0</ele><time>2026-05-03T08:27:44.983Z</time></trkpt><trkpt lat="42.04698433360429" lon="13.135511507194034"><ele>1174.4</ele><time>2026-05-03T08:27:46.983Z</time></trkpt><trkpt lat="42.04700645528314" lon="13.135372735696544"><ele>1174.8000000000002</ele><time>2026-05-03T08:27:48.982Z</time></trkpt><trkpt lat="42.046997553869524" lon="13.135221061623193"><ele>1175.1999999999998</ele><time>2026-05-03T08:27:50.982Z</time></trkpt><trkpt lat="42.04701279223369" lon="13.135119337225682"><ele>1175.6</ele><time>2026-05-03T08:27:51.982Z</time></trkpt><trkpt lat="42.04703744550136" lon="13.134969289326488"><ele>1176.0</ele><time>2026-05-03T08:27:53.982Z</time></trkpt><trkpt lat="42.047070538814246" lon="13.134813915562082"><ele>1175.3333333333333</ele><time>2026-05-03T08:27:55.982Z</time></trkpt><trkpt lat="42.04709220631669" lon="13.13473392601393"><ele>1174.6666666666667</ele><time>2026-05-03T08:27:56.982Z</time></trkpt><trkpt lat="42.0471128260158" lon="13.134645521413141"><ele>1174.0</ele><time>2026-05-03T08:27:57.982Z</time></trkpt><trkpt lat="42.047144102683994" lon="13.1345577346525"><ele>1173.3333333333335</ele><time>2026-05-03T08:27:58.982Z</time></trkpt><trkpt lat="42.04717567664558" lon="13.134482748982462"><ele>1172.6666666666667</ele><time>2026-05-03T08:27:59.982Z</time></trkpt><trkpt lat="42.047237661696336" lon="13.13433952630771"><ele>1172.0</ele><time>2026-05-03T08:28:01.982Z</time></trkpt><trkpt lat="42.0472581831447" lon="13.13425065362797"><ele>1172.0</ele><time>2026-05-03T08:28:02.982Z</time></trkpt><trkpt lat="42.047301290017764" lon="13.134088281613632"><ele>1172.0</ele><time>2026-05-03T08:28:04.982Z</time></trkpt><trkpt lat="42.04735204761185" lon="13.133988592479776"><ele>1172.0</ele><time>2026-05-03T08:28:05.982Z</time></trkpt><trkpt lat="42.04740141965489" lon="13.13390921262265"><ele>1172.0</ele><time>2026-05-03T08:28:06.982Z</time></trkpt><trkpt lat="42.04744615449083" lon="13.13382593811409"><ele>1172.0</ele><time>2026-05-03T08:28:07.982Z</time></trkpt><trkpt lat="42.04749911861927" lon="13.133755811730207"><ele>1172.0</ele><time>2026-05-03T08:28:08.982Z</time></trkpt><trkpt lat="42.04755953130093" lon="13.133702922355676"><ele>1175.5</ele><time>2026-05-03T08:28:09.982Z</time></trkpt><trkpt lat="42.04762943071161" lon="13.133656343033806"><ele>1179.0</ele><time>2026-05-03T08:28:10.982Z</time></trkpt><trkpt lat="42.04769581195658" lon="13.133614008711174"><ele>1182.5</ele><time>2026-05-03T08:28:11.982Z</time></trkpt><trkpt lat="42.04776332450605" lon="13.133572520223973"><ele>1186.0</ele><time>2026-05-03T08:28:12.982Z</time></trkpt><trkpt lat="42.04784153075202" lon="13.133530593038964"><ele>1189.5</ele><time>2026-05-03T08:28:13.982Z</time></trkpt><trkpt lat="42.04791478297446" lon="13.133490716194052"><ele>1193.0</ele><time>2026-05-03T08:28:14.982Z</time></trkpt><trkpt lat="42.04798686815406" lon="13.13343163892737"><ele>1193.0</ele><time>2026-05-03T08:28:15.982Z</time></trkpt><trkpt lat="42.04806458581609" lon="13.133381959827835"><ele>1193.0</ele><time>2026-05-03T08:28:16.982Z</time></trkpt><trkpt lat="42.048145930292826" lon="13.133318306901174"><ele>1193.0</ele><time>2026-05-03T08:28:17.982Z</time></trkpt><trkpt lat="42.04821591920989" lon="13.133251532707991"><ele>1193.0</ele><time>2026-05-03T08:28:18.982Z</time></trkpt><trkpt lat="42.04827934818785" lon="13.133169999443181"><ele>1193.0</ele><time>2026-05-03T08:28:19.982Z</time></trkpt><trkpt lat="42.048343687653485" lon="13.133071195737804"><ele>1193.8</ele><time>2026-05-03T08:28:20.982Z</time></trkpt><trkpt lat="42.04841637686183" lon="13.132979282436645"><ele>1194.6</ele><time>2026-05-03T08:28:21.982Z</time></trkpt><trkpt lat="42.0484882340388" lon="13.132886595827753"><ele>1195.4</ele><time>2026-05-03T08:28:22.982Z</time></trkpt><trkpt lat="42.048557485109846" lon="13.132813441485057"><ele>1196.2</ele><time>2026-05-03T08:28:23.982Z</time></trkpt><trkpt lat="42.04863355105333" lon="13.132720189655462"><ele>1197.0</ele><time>2026-05-03T08:28:24.982Z</time></trkpt><trkpt lat="42.048694589861" lon="13.132652768380684"><ele>1197.0</ele><time>2026-05-03T08:28:25.982Z</time></trkpt><trkpt lat="42.0487708226901" lon="13.132588333477502"><ele>1197.0</ele><time>2026-05-03T08:28:26.982Z</time></trkpt><trkpt lat="42.048840308389586" lon="13.132528725670708"><ele>1197.0</ele><time>2026-05-03T08:28:27.982Z</time></trkpt><trkpt lat="42.04889899165594" lon="13.13246496479275"><ele>1197.0</ele><time>2026-05-03T08:28:28.982Z</time></trkpt><trkpt lat="42.048968612941046" lon="13.132411464359876"><ele>1197.0</ele><time>2026-05-03T08:28:29.982Z</time></trkpt><trkpt lat="42.04902170219901" lon="13.132352245921851"><ele>1197.0</ele><time>2026-05-03T08:28:30.982Z</time></trkpt><trkpt lat="42.04909495569745" lon="13.132317151117576"><ele>1196.0</ele><time>2026-05-03T08:28:31.982Z</time></trkpt><trkpt lat="42.04915299949261" lon="13.132278178224528"><ele>1195.0</ele><time>2026-05-03T08:28:32.982Z</time></trkpt><trkpt lat="42.04925421542119" lon="13.132240948981314"><ele>1194.0</ele><time>2026-05-03T08:28:34.983Z</time></trkpt><trkpt lat="42.04935949211488" lon="13.13220202171912"><ele>1193.0</ele><time>2026-05-03T08:28:36.983Z</time></trkpt><trkpt lat="42.04947669238817" lon="13.132180739961333"><ele>1192.0</ele><time>2026-05-03T08:28:38.983Z</time></trkpt><trkpt lat="42.0495974189752" lon="13.132155797058196"><ele>1192.0</ele><time>2026-05-03T08:28:40.983Z</time></trkpt><trkpt lat="42.04966243288695" lon="13.132132450030753"><ele>1192.0</ele><time>2026-05-03T08:28:41.983Z</time></trkpt><trkpt lat="42.04973008875538" lon="13.132104113918276"><ele>1192.0</ele><time>2026-05-03T08:28:42.983Z</time></trkpt><trkpt lat="42.04979780427066" lon="13.132088480117858"><ele>1192.0</ele><time>2026-05-03T08:28:43.983Z</time></trkpt><trkpt lat="42.04986709699421" lon="13.132073770938115"><ele>1192.0</ele><time>2026-05-03T08:28:44.983Z</time></trkpt><trkpt lat="42.04993399041586" lon="13.132050232022161"><ele>1192.0</ele><time>2026-05-03T08:28:45.983Z</time></trkpt><trkpt lat="42.05005527460165" lon="13.132013469751433"><ele>1194.5</ele><time>2026-05-03T08:28:47.983Z</time></trkpt><trkpt lat="42.050192850818576" lon="13.131962483520159"><ele>1197.0</ele><time>2026-05-03T08:28:49.983Z</time></trkpt><trkpt lat="42.05026572676111" lon="13.13193282641928"><ele>1199.5</ele><time>2026-05-03T08:28:50.983Z</time></trkpt><trkpt lat="42.05033847877462" lon="13.131896842489374"><ele>1202.0</ele><time>2026-05-03T08:28:51.983Z</time></trkpt><trkpt lat="42.05040305222334" lon="13.131863607567587"><ele>1204.5</ele><time>2026-05-03T08:28:52.983Z</time></trkpt><trkpt lat="42.050460181769104" lon="13.131806203656902"><ele>1207.0</ele><time>2026-05-03T08:28:53.983Z</time></trkpt><trkpt lat="42.05050875783557" lon="13.131735978103118"><ele>1206.9999999999998</ele><time>2026-05-03T08:28:54.983Z</time></trkpt><trkpt lat="42.05055572887412" lon="13.131674847983218"><ele>1207.0</ele><time>2026-05-03T08:28:55.983Z</time></trkpt><trkpt lat="42.05059141120216" lon="13.131603172896925"><ele>1207.0</ele><time>2026-05-03T08:28:56.983Z</time></trkpt><trkpt lat="42.050624885213836" lon="13.131495897375741"><ele>1207.0</ele><time>2026-05-03T08:28:57.983Z</time></trkpt><trkpt lat="42.05065684385807" lon="13.131408610771986"><ele>1207.0</ele><time>2026-05-03T08:28:58.983Z</time></trkpt><trkpt lat="42.05071108439884" lon="13.131321626293298"><ele>1206.9999999999998</ele><time>2026-05-03T08:28:59.983Z</time></trkpt><trkpt lat="42.05076611898132" lon="13.1312600345535"><ele>1207.0</ele><time>2026-05-03T08:29:00.983Z</time></trkpt><trkpt lat="42.05082409175349" lon="13.13119806587205"><ele>1208.5</ele><time>2026-05-03T08:29:01.983Z</time></trkpt><trkpt lat="42.05089526607057" lon="13.131142934255546"><ele>1210.0</ele><time>2026-05-03T08:29:02.983Z</time></trkpt><trkpt lat="42.05096365239778" lon="13.131102131672709"><ele>1211.5</ele><time>2026-05-03T08:29:03.983Z</time></trkpt><trkpt lat="42.05102575457372" lon="13.131041201064074"><ele>1213.0</ele><time>2026-05-03T08:29:04.983Z</time></trkpt><trkpt lat="42.051089123729916" lon="13.130972831119502"><ele>1214.5</ele><time>2026-05-03T08:29:05.983Z</time></trkpt><trkpt lat="42.05115693080249" lon="13.13091791392678"><ele>1216.0</ele><time>2026-05-03T08:29:06.983Z</time></trkpt><trkpt lat="42.05122480947551" lon="13.130853671357139"><ele>1216.0</ele><time>2026-05-03T08:29:07.983Z</time></trkpt><trkpt lat="42.05127998749448" lon="13.130785183950145"><ele>1216.0</ele><time>2026-05-03T08:29:08.983Z</time></trkpt><trkpt lat="42.051332486835484" lon="13.13070591228222"><ele>1216.0</ele><time>2026-05-03T08:29:09.983Z</time></trkpt><trkpt lat="42.051392482771064" lon="13.130626328105414"><ele>1216.0</ele><time>2026-05-03T08:29:10.983Z</time></trkpt><trkpt lat="42.051450657008495" lon="13.130560192909723"><ele>1216.0</ele><time>2026-05-03T08:29:11.983Z</time></trkpt><trkpt lat="42.05151563373352" lon="13.130502811487199"><ele>1216.0</ele><time>2026-05-03T08:29:12.983Z</time></trkpt><trkpt lat="42.05157918362532" lon="13.130446471276816"><ele>1216.8333333333333</ele><time>2026-05-03T08:29:13.983Z</time></trkpt><trkpt lat="42.05164459217865" lon="13.130397870410336"><ele>1217.6666666666665</ele><time>2026-05-03T08:29:14.983Z</time></trkpt><trkpt lat="42.05171491032064" lon="13.130342962047292"><ele>1218.5</ele><time>2026-05-03T08:29:15.983Z</time></trkpt><trkpt lat="42.05177447075771" lon="13.13028316513198"><ele>1219.3333333333333</ele><time>2026-05-03T08:29:16.983Z</time></trkpt><trkpt lat="42.0518306374226" lon="13.130215085884263"><ele>1220.1666666666667</ele><time>2026-05-03T08:29:17.983Z</time></trkpt><trkpt lat="42.051882041779116" lon="13.130139993605528"><ele>1221.0</ele><time>2026-05-03T08:29:18.983Z</time></trkpt><trkpt lat="42.05192826807494" lon="13.130068944431688"><ele>1221.0</ele><time>2026-05-03T08:29:19.983Z</time></trkpt><trkpt lat="42.05197991572203" lon="13.129986139638591"><ele>1221.0</ele><time>2026-05-03T08:29:20.983Z</time></trkpt><trkpt lat="42.052026604829784" lon="13.129924759713289"><ele>1221.0</ele><time>2026-05-03T08:29:21.983Z</time></trkpt><trkpt lat="42.05207139471202" lon="13.129846112257393"><ele>1221.0</ele><time>2026-05-03T08:29:22.983Z</time></trkpt><trkpt lat="42.05211961702765" lon="13.129764363751134"><ele>1221.0</ele><time>2026-05-03T08:29:23.983Z</time></trkpt><trkpt lat="42.05216188534028" lon="13.129673401625212"><ele>1221.0</ele><time>2026-05-03T08:29:24.983Z</time></trkpt><trkpt lat="42.05219717710745" lon="13.129582497080033"><ele>1218.8</ele><time>2026-05-03T08:29:25.983Z</time></trkpt><trkpt lat="42.05221493299559" lon="13.129473104759114"><ele>1216.6</ele><time>2026-05-03T08:29:26.983Z</time></trkpt><trkpt lat="42.0522139485937" lon="13.1293636858906"><ele>1214.4</ele><time>2026-05-03T08:29:27.983Z</time></trkpt><trkpt lat="42.05221186844198" lon="13.129263757955291"><ele>1212.2</ele><time>2026-05-03T08:29:28.983Z</time></trkpt><trkpt lat="42.052214082317114" lon="13.129150131518873"><ele>1210.0</ele><time>2026-05-03T08:29:29.983Z</time></trkpt><trkpt lat="42.05223040756702" lon="13.128963075517788"><ele>1208.5714285714284</ele><time>2026-05-03T08:29:31.983Z</time></trkpt><trkpt lat="42.052251813730784" lon="13.128877801641083"><ele>1207.142857142857</ele><time>2026-05-03T08:29:32.983Z</time></trkpt><trkpt lat="42.05228706325314" lon="13.128786691746496"><ele>1205.7142857142858</ele><time>2026-05-03T08:29:33.983Z</time></trkpt><trkpt lat="42.052318770669046" lon="13.12869530955754"><ele>1204.2857142857142</ele><time>2026-05-03T08:29:34.983Z</time></trkpt><trkpt lat="42.05235119935254" lon="13.128614007473674"><ele>1202.857142857143</ele><time>2026-05-03T08:29:35.983Z</time></trkpt><trkpt lat="42.052378997604436" lon="13.12853732347663"><ele>1201.4285714285713</ele><time>2026-05-03T08:29:36.983Z</time></trkpt><trkpt lat="42.052447298742415" lon="13.128464021518992"><ele>1200.0</ele><time>2026-05-03T08:29:38.983Z</time></trkpt><trkpt lat="42.05253239365857" lon="13.128501262325234"><ele>1206.3333333333333</ele><time>2026-05-03T08:29:40.982Z</time></trkpt><trkpt lat="42.05257540904953" lon="13.128600241180221"><ele>1212.6666666666667</ele><time>2026-05-03T08:29:42.981Z</time></trkpt><trkpt lat="42.052579280890775" lon="13.128781370277581"><ele>1219.0</ele><time>2026-05-03T08:29:44.981Z</time></trkpt><trkpt lat="42.05260525103904" lon="13.12887008553241"><ele>1225.3333333333335</ele><time>2026-05-03T08:29:45.981Z</time></trkpt><trkpt lat="42.05263695821374" lon="13.128943572222747"><ele>1231.6666666666667</ele><time>2026-05-03T08:29:46.981Z</time></trkpt><trkpt lat="42.05267195982779" lon="13.129030204205378"><ele>1238.0</ele><time>2026-05-03T08:29:47.982Z</time></trkpt><trkpt lat="42.05272118749585" lon="13.12910447894113"><ele>1238.2857142857142</ele><time>2026-05-03T08:29:48.982Z</time></trkpt><trkpt lat="42.05278942628186" lon="13.129164849589094"><ele>1238.5714285714287</ele><time>2026-05-03T08:29:49.982Z</time></trkpt><trkpt lat="42.05284331829338" lon="13.129213476107504"><ele>1238.857142857143</ele><time>2026-05-03T08:29:50.981Z</time></trkpt><trkpt lat="42.05290495530316" lon="13.129263864840535"><ele>1239.142857142857</ele><time>2026-05-03T08:29:51.981Z</time></trkpt><trkpt lat="42.05297038888554" lon="13.129293326091164"><ele>1239.4285714285713</ele><time>2026-05-03T08:29:52.981Z</time></trkpt><trkpt lat="42.053040143175615" lon="13.129314932941359"><ele>1239.7142857142858</ele><time>2026-05-03T08:29:53.981Z</time></trkpt><trkpt lat="42.053115206847544" lon="13.129332600057179"><ele>1240.0</ele><time>2026-05-03T08:29:54.981Z</time></trkpt><trkpt lat="42.05318414915442" lon="13.129343172281484"><ele>1240.0</ele><time>2026-05-03T08:29:55.981Z</time></trkpt><trkpt lat="42.053258064460096" lon="13.129343416975589"><ele>1240.0</ele><time>2026-05-03T08:29:56.981Z</time></trkpt><trkpt lat="42.05332161731252" lon="13.129344634964637"><ele>1240.0</ele><time>2026-05-03T08:29:57.981Z</time></trkpt><trkpt lat="42.05338852909692" lon="13.129368007182585"><ele>1240.0</ele><time>2026-05-03T08:29:58.981Z</time></trkpt><trkpt lat="42.05344377609577" lon="13.129417450447212"><ele>1240.0</ele><time>2026-05-03T08:29:59.981Z</time></trkpt><trkpt lat="42.05349213133142" lon="13.129475225272062"><ele>1240.0</ele><time>2026-05-03T08:30:00.982Z</time></trkpt><trkpt lat="42.053558747408374" lon="13.129575361654704"><ele>1240.0</ele><time>2026-05-03T08:30:02.982Z</time></trkpt><trkpt lat="42.05361153235849" lon="13.129639400569932"><ele>1240.4</ele><time>2026-05-03T08:30:03.982Z</time></trkpt><trkpt lat="42.05365318910488" lon="13.129792204840626"><ele>1240.8</ele><time>2026-05-03T08:30:05.982Z</time></trkpt><trkpt lat="42.0537044022237" lon="13.129934758783788"><ele>1241.2</ele><time>2026-05-03T08:30:07.982Z</time></trkpt><trkpt lat="42.05372997756539" lon="13.130032528826577"><ele>1241.6</ele><time>2026-05-03T08:30:08.982Z</time></trkpt><trkpt lat="42.05376012880576" lon="13.130188869051048"><ele>1242.0</ele><time>2026-05-03T08:30:10.982Z</time></trkpt><trkpt lat="42.05377207437806" lon="13.130351750396882"><ele>1246.6666666666667</ele><time>2026-05-03T08:30:12.982Z</time></trkpt><trkpt lat="42.05377877437239" lon="13.130443587037062"><ele>1251.3333333333333</ele><time>2026-05-03T08:30:13.982Z</time></trkpt><trkpt lat="42.053796553181776" lon="13.130575291557182"><ele>1256.0</ele><time>2026-05-03T08:30:15.982Z</time></trkpt><trkpt lat="42.05381252622735" lon="13.130727995334151"><ele>1260.6666666666665</ele><time>2026-05-03T08:30:17.982Z</time></trkpt><trkpt lat="42.05381698960412" lon="13.130816464569886"><ele>1265.3333333333333</ele><time>2026-05-03T08:30:18.982Z</time></trkpt><trkpt lat="42.05382374622117" lon="13.130919066494219"><ele>1270.0</ele><time>2026-05-03T08:30:19.982Z</time></trkpt><trkpt lat="42.05381132153561" lon="13.131007513071268"><ele>1274.0</ele><time>2026-05-03T08:30:20.982Z</time></trkpt><trkpt lat="42.053802111294644" lon="13.131108034930499"><ele>1278.0</ele><time>2026-05-03T08:30:21.982Z</time></trkpt><trkpt lat="42.05381461059224" lon="13.131280605440278"><ele>1282.0</ele><time>2026-05-03T08:30:23.982Z</time></trkpt><trkpt lat="42.05383611045103" lon="13.131376896763575"><ele>1286.0</ele><time>2026-05-03T08:30:24.982Z</time></trkpt><trkpt lat="42.05390844937374" lon="13.131516853234714"><ele>1290.0</ele><time>2026-05-03T08:30:26.982Z</time></trkpt><trkpt lat="42.05398420203913" lon="13.131638158835576"><ele>1291.8</ele><time>2026-05-03T08:30:28.982Z</time></trkpt><trkpt lat="42.053994094931355" lon="13.131745523276031"><ele>1293.6</ele><time>2026-05-03T08:30:29.982Z</time></trkpt><trkpt lat="42.05397729113661" lon="13.131832758488528"><ele>1295.4</ele><time>2026-05-03T08:30:30.982Z</time></trkpt><trkpt lat="42.05395272462386" lon="13.132022982506928"><ele>1297.2</ele><time>2026-05-03T08:30:32.982Z</time></trkpt><trkpt lat="42.05394284" lon="13.132117331226992"><ele>1299.0</ele><time>2026-05-03T08:30:33.982Z</time></trkpt><trkpt lat="42.05393244394352" lon="13.132261855315114"><ele>1299.0</ele><time>2026-05-03T08:30:35.982Z</time></trkpt><trkpt lat="42.05396930031029" lon="13.132347355839288"><ele>1299.0</ele><time>2026-05-03T08:30:36.982Z</time></trkpt><trkpt lat="42.05400531062953" lon="13.1324465486179"><ele>1299.0</ele><time>2026-05-03T08:30:37.982Z</time></trkpt><trkpt lat="42.054045974949844" lon="13.132511660817626"><ele>1299.0</ele><time>2026-05-03T08:30:38.982Z</time></trkpt><trkpt lat="42.054098772065686" lon="13.132589783358869"><ele>1299.0</ele><time>2026-05-03T08:30:39.982Z</time></trkpt><trkpt lat="42.054145344165704" lon="13.132750359833597"><ele>1299.0</ele><time>2026-05-03T08:30:41.982Z</time></trkpt><trkpt lat="42.05413334713548" lon="13.132909137243772"><ele>1300.0</ele><time>2026-05-03T08:30:43.982Z</time></trkpt><trkpt lat="42.05409608602745" lon="13.13304988152422"><ele>1301.0</ele><time>2026-05-03T08:30:45.982Z</time></trkpt><trkpt lat="42.05406008799353" lon="13.133124677030015"><ele>1302.0</ele><time>2026-05-03T08:30:46.982Z</time></trkpt><trkpt lat="42.0539957892243" lon="13.133258789188288"><ele>1303.0</ele><time>2026-05-03T08:30:48.982Z</time></trkpt><trkpt lat="42.053972265498864" lon="13.133343202478533"><ele>1304.0</ele><time>2026-05-03T08:30:49.982Z</time></trkpt><trkpt lat="42.05394313322371" lon="13.133506953535218"><ele>1304.0</ele><time>2026-05-03T08:30:51.982Z</time></trkpt><trkpt lat="42.0539253331434" lon="13.133662675749486"><ele>1304.0</ele><time>2026-05-03T08:30:53.982Z</time></trkpt><trkpt lat="42.05391577578476" lon="13.13375005985518"><ele>1304.0</ele><time>2026-05-03T08:30:54.982Z</time></trkpt><trkpt lat="42.053915683002714" lon="13.133893755285584"><ele>1304.0</ele><time>2026-05-03T08:30:56.982Z</time></trkpt><trkpt lat="42.053916624458715" lon="13.133986840103233"><ele>1304.0</ele><time>2026-05-03T08:30:57.982Z</time></trkpt><trkpt lat="42.05391977802087" lon="13.134072882946528"><ele>1304.0</ele><time>2026-05-03T08:30:58.982Z</time></trkpt><trkpt lat="42.0539321539261" lon="13.134156895022434"><ele>1303.0</ele><time>2026-05-03T08:30:59.982Z</time></trkpt><trkpt lat="42.053943451172835" lon="13.134291524527317"><ele>1302.0</ele><time>2026-05-03T08:31:01.982Z</time></trkpt><trkpt lat="42.0539358964092" lon="13.134454617822422"><ele>1301.0</ele><time>2026-05-03T08:31:03.982Z</time></trkpt><trkpt lat="42.05389438166008" lon="13.134561700754187"><ele>1300.0</ele><time>2026-05-03T08:31:04.982Z</time></trkpt><trkpt lat="42.05384822528492" lon="13.134721700903292"><ele>1299.0</ele><time>2026-05-03T08:31:06.982Z</time></trkpt><trkpt lat="42.05381073574749" lon="13.134827848628412"><ele>1298.8333333333333</ele><time>2026-05-03T08:31:08.982Z</time></trkpt><trkpt lat="42.053807676406024" lon="13.134914680705444"><ele>1298.6666666666667</ele><time>2026-05-03T08:31:09.982Z</time></trkpt><trkpt lat="42.05379943287886" lon="13.13501893051979"><ele>1298.5</ele><time>2026-05-03T08:31:10.982Z</time></trkpt><trkpt lat="42.0537811052488" lon="13.135126859087402"><ele>1298.3333333333335</ele><time>2026-05-03T08:31:11.982Z</time></trkpt><trkpt lat="42.05377884036597" lon="13.1352395784181"><ele>1298.1666666666667</ele><time>2026-05-03T08:31:12.982Z</time></trkpt><trkpt lat="42.05376792615047" lon="13.135357253483452"><ele>1298.0</ele><time>2026-05-03T08:31:13.982Z</time></trkpt><trkpt lat="42.053741057603645" lon="13.13544431296313"><ele>1298.0</ele><time>2026-05-03T08:31:14.982Z</time></trkpt><trkpt lat="42.053708450535645" lon="13.13557202119665"><ele>1298.0</ele><time>2026-05-03T08:31:15.982Z</time></trkpt><trkpt lat="42.05368765524647" lon="13.135656483739297"><ele>1298.0</ele><time>2026-05-03T08:31:16.982Z</time></trkpt><trkpt lat="42.0536765352716" lon="13.135775948532842"><ele>1298.0</ele><time>2026-05-03T08:31:18.982Z</time></trkpt><trkpt lat="42.05371378543254" lon="13.135866129549674"><ele>1298.0</ele><time>2026-05-03T08:31:20.982Z</time></trkpt><trkpt lat="42.05383840071876" lon="13.13585331077736"><ele>1299.142857142857</ele><time>2026-05-03T08:31:24.982Z</time></trkpt><trkpt lat="42.05389647850657" lon="13.135799637331939"><ele>1300.2857142857142</ele><time>2026-05-03T08:31:25.982Z</time></trkpt><trkpt lat="42.053970373841516" lon="13.135772739448882"><ele>1301.4285714285716</ele><time>2026-05-03T08:31:26.982Z</time></trkpt><trkpt lat="42.0540433460617" lon="13.135734158232703"><ele>1302.5714285714284</ele><time>2026-05-03T08:31:27.982Z</time></trkpt><trkpt lat="42.05412672902781" lon="13.135710086531175"><ele>1303.7142857142858</ele><time>2026-05-03T08:31:28.982Z</time></trkpt><trkpt lat="42.054190867617756" lon="13.135678734937986"><ele>1304.857142857143</ele><time>2026-05-03T08:31:29.982Z</time></trkpt><trkpt lat="42.05424448496389" lon="13.135631577626036"><ele>1306.0</ele><time>2026-05-03T08:31:30.982Z</time></trkpt><trkpt lat="42.05432508597347" lon="13.135598412991989"><ele>1306.0</ele><time>2026-05-03T08:31:32.982Z</time></trkpt><trkpt lat="42.05439573362678" lon="13.135650520053664"><ele>1306.0</ele><time>2026-05-03T08:31:34.982Z</time></trkpt><trkpt lat="42.05442314383848" lon="13.135759102073173"><ele>1306.0</ele><time>2026-05-03T08:31:37.982Z</time></trkpt><trkpt lat="42.05437011167834" lon="13.135830973634057"><ele>1306.0</ele><time>2026-05-03T08:31:39.982Z</time></trkpt><trkpt lat="42.054301486912635" lon="13.135930258026999"><ele>1306.0</ele><time>2026-05-03T08:31:41.982Z</time></trkpt><trkpt lat="42.05420782720127" lon="13.135999067482572"><ele>1306.0</ele><time>2026-05-03T08:31:43.982Z</time></trkpt><trkpt lat="42.05411375680693" lon="13.13608806030319"><ele>1306.0</ele><time>2026-05-03T08:31:45.982Z</time></trkpt><trkpt lat="42.05403473204463" lon="13.136224629989034"><ele>1306.0</ele><time>2026-05-03T08:31:47.98Z</time></trkpt><trkpt lat="42.05399739042838" lon="13.136296400951815"><ele>1306.0</ele><time>2026-05-03T08:31:48.98Z</time></trkpt><trkpt lat="42.0539299779195" lon="13.136414121809517"><ele>1306.0</ele><time>2026-05-03T08:31:50.98Z</time></trkpt><trkpt lat="42.05389752425276" lon="13.136488824779393"><ele>1306.0</ele><time>2026-05-03T08:31:51.98Z</time></trkpt><trkpt lat="42.05386403926561" lon="13.13657501252261"><ele>1306.0</ele><time>2026-05-03T08:31:52.98Z</time></trkpt><trkpt lat="42.053794664281355" lon="13.136732385428544"><ele>1307.1666666666665</ele><time>2026-05-03T08:31:54.979Z</time></trkpt><trkpt lat="42.053764373616104" lon="13.136814567746319"><ele>1308.3333333333333</ele><time>2026-05-03T08:31:55.98Z</time></trkpt><trkpt lat="42.05372219270335" lon="13.13690135095314"><ele>1309.5</ele><time>2026-05-03T08:31:56.98Z</time></trkpt><trkpt lat="42.05367785040419" lon="13.136977626738792"><ele>1310.6666666666667</ele><time>2026-05-03T08:31:57.98Z</time></trkpt><trkpt lat="42.053626654357075" lon="13.137058523390753"><ele>1311.8333333333335</ele><time>2026-05-03T08:31:58.979Z</time></trkpt><trkpt lat="42.05357719439066" lon="13.13716424271925"><ele>1313.0</ele><time>2026-05-03T08:31:59.98Z</time></trkpt><trkpt lat="42.05353827520998" lon="13.137245436442319"><ele>1313.0</ele><time>2026-05-03T08:32:00.98Z</time></trkpt><trkpt lat="42.05349206701928" lon="13.137324143264012"><ele>1313.0</ele><time>2026-05-03T08:32:01.98Z</time></trkpt><trkpt lat="42.05343491047301" lon="13.137380182012453"><ele>1313.0</ele><time>2026-05-03T08:32:02.98Z</time></trkpt><trkpt lat="42.05337210994359" lon="13.137436241727261"><ele>1313.0</ele><time>2026-05-03T08:32:03.98Z</time></trkpt><trkpt lat="42.053306329054855" lon="13.137510414807334"><ele>1313.0</ele><time>2026-05-03T08:32:04.98Z</time></trkpt><trkpt lat="42.053250531906855" lon="13.137579779247066"><ele>1313.0</ele><time>2026-05-03T08:32:05.98Z</time></trkpt><trkpt lat="42.05320075173534" lon="13.137663025844295"><ele>1315.6666666666667</ele><time>2026-05-03T08:32:06.98Z</time></trkpt><trkpt lat="42.053150976579246" lon="13.137749791840953"><ele>1318.3333333333335</ele><time>2026-05-03T08:32:07.98Z</time></trkpt><trkpt lat="42.05310420795265" lon="13.137843167186896"><ele>1321.0</ele><time>2026-05-03T08:32:08.98Z</time></trkpt><trkpt lat="42.053078203634605" lon="13.137933353456713"><ele>1323.6666666666667</ele><time>2026-05-03T08:32:09.98Z</time></trkpt><trkpt lat="42.0530427540695" lon="13.138031636319967"><ele>1326.3333333333333</ele><time>2026-05-03T08:32:10.98Z</time></trkpt><trkpt lat="42.053009557164" lon="13.138131944114233"><ele>1329.0</ele><time>2026-05-03T08:32:11.98Z</time></trkpt><trkpt lat="42.05296301536067" lon="13.138213925040958"><ele>1329.3333333333333</ele><time>2026-05-03T08:32:12.98Z</time></trkpt><trkpt lat="42.052909064846034" lon="13.13828601142577"><ele>1329.6666666666667</ele><time>2026-05-03T08:32:13.98Z</time></trkpt><trkpt lat="42.05283623651061" lon="13.13833992932095"><ele>1330.0</ele><time>2026-05-03T08:32:14.98Z</time></trkpt><trkpt lat="42.05276374480771" lon="13.138389197270655"><ele>1330.3333333333335</ele><time>2026-05-03T08:32:15.98Z</time></trkpt><trkpt lat="42.052642898966155" lon="13.138491707040014"><ele>1330.6666666666667</ele><time>2026-05-03T08:32:17.98Z</time></trkpt><trkpt lat="42.05259271103623" lon="13.138549930413022"><ele>1331.0</ele><time>2026-05-03T08:32:18.98Z</time></trkpt><trkpt lat="42.05253945890054" lon="13.138610668238856"><ele>1331.0</ele><time>2026-05-03T08:32:19.98Z</time></trkpt><trkpt lat="42.052485738853946" lon="13.138678028972892"><ele>1331.0</ele><time>2026-05-03T08:32:20.98Z</time></trkpt><trkpt lat="42.05240588013069" lon="13.138814960112823"><ele>1331.0</ele><time>2026-05-03T08:32:22.98Z</time></trkpt><trkpt lat="42.05237078313444" lon="13.138885835170269"><ele>1331.0</ele><time>2026-05-03T08:32:23.98Z</time></trkpt><trkpt lat="42.0523430084051" lon="13.138996978360568"><ele>1331.0</ele><time>2026-05-03T08:32:24.98Z</time></trkpt><trkpt lat="42.05232997608071" lon="13.13912845619024"><ele>1336.4</ele><time>2026-05-03T08:32:25.98Z</time></trkpt><trkpt lat="42.052317314760984" lon="13.13924278524298"><ele>1341.8</ele><time>2026-05-03T08:32:26.98Z</time></trkpt><trkpt lat="42.05230677506465" lon="13.13935627377776"><ele>1347.2</ele><time>2026-05-03T08:32:27.98Z</time></trkpt><trkpt lat="42.052307670132734" lon="13.139481220013405"><ele>1352.6000000000001</ele><time>2026-05-03T08:32:28.98Z</time></trkpt><trkpt lat="42.05229169808417" lon="13.139616132157775"><ele>1358.0</ele><time>2026-05-03T08:32:29.98Z</time></trkpt><trkpt lat="42.05226598522861" lon="13.139750231388511"><ele>1357.8000000000002</ele><time>2026-05-03T08:32:30.98Z</time></trkpt><trkpt lat="42.05223861765304" lon="13.1398967275218"><ele>1357.6</ele><time>2026-05-03T08:32:31.98Z</time></trkpt><trkpt lat="42.05221328564022" lon="13.140029034541437"><ele>1357.4</ele><time>2026-05-03T08:32:32.98Z</time></trkpt><trkpt lat="42.05218362155644" lon="13.140160701759045"><ele>1357.1999999999998</ele><time>2026-05-03T08:32:33.98Z</time></trkpt><trkpt lat="42.052156298889436" lon="13.140285852577174"><ele>1357.0</ele><time>2026-05-03T08:32:34.98Z</time></trkpt><trkpt lat="42.05212446400537" lon="13.140393956821956"><ele>1357.0</ele><time>2026-05-03T08:32:35.98Z</time></trkpt><trkpt lat="42.052103749775384" lon="13.140505479146848"><ele>1357.0</ele><time>2026-05-03T08:32:36.98Z</time></trkpt><trkpt lat="42.052099919313925" lon="13.140623839154149"><ele>1357.0</ele><time>2026-05-03T08:32:37.98Z</time></trkpt><trkpt lat="42.052113055942165" lon="13.140739720359948"><ele>1357.0</ele><time>2026-05-03T08:32:38.98Z</time></trkpt><trkpt lat="42.05214195270462" lon="13.14087454967003"><ele>1357.0</ele><time>2026-05-03T08:32:39.98Z</time></trkpt><trkpt lat="42.052159831662706" lon="13.141019597621636"><ele>1357.25</ele><time>2026-05-03T08:32:40.98Z</time></trkpt><trkpt lat="42.05217551075221" lon="13.141163273029091"><ele>1357.5</ele><time>2026-05-03T08:32:41.98Z</time></trkpt><trkpt lat="42.052179001591774" lon="13.141322491488882"><ele>1357.75</ele><time>2026-05-03T08:32:42.98Z</time></trkpt><trkpt lat="42.05216534792656" lon="13.141476449779242"><ele>1358.0</ele><time>2026-05-03T08:32:43.98Z</time></trkpt><trkpt lat="42.052134632533246" lon="13.141633350486206"><ele>1356.5</ele><time>2026-05-03T08:32:44.98Z</time></trkpt><trkpt lat="42.05208300241483" lon="13.14180062187934"><ele>1355.0</ele><time>2026-05-03T08:32:45.98Z</time></trkpt><trkpt lat="42.052034487606186" lon="13.141946825425002"><ele>1353.5</ele><time>2026-05-03T08:32:46.98Z</time></trkpt><trkpt lat="42.05200330055591" lon="13.142107183354344"><ele>1352.0</ele><time>2026-05-03T08:32:47.98Z</time></trkpt><trkpt lat="42.05196508068016" lon="13.142265184922174"><ele>1350.75</ele><time>2026-05-03T08:32:48.98Z</time></trkpt><trkpt lat="42.05192187353634" lon="13.14241628380782"><ele>1349.5</ele><time>2026-05-03T08:32:49.98Z</time></trkpt><trkpt lat="42.05189158102884" lon="13.142560946834061"><ele>1348.25</ele><time>2026-05-03T08:32:50.98Z</time></trkpt><trkpt lat="42.051872749445785" lon="13.142707706059959"><ele>1347.0</ele><time>2026-05-03T08:32:51.98Z</time></trkpt><trkpt lat="42.0518592518043" lon="13.14285181739202"><ele>1347.0</ele><time>2026-05-03T08:32:52.98Z</time></trkpt><trkpt lat="42.05183881054928" lon="13.142982821231447"><ele>1347.0</ele><time>2026-05-03T08:32:53.98Z</time></trkpt><trkpt lat="42.05180779715578" lon="13.143105759838166"><ele>1347.0</ele><time>2026-05-03T08:32:54.98Z</time></trkpt><trkpt lat="42.051766874339364" lon="13.143231723106055"><ele>1347.0</ele><time>2026-05-03T08:32:55.98Z</time></trkpt><trkpt lat="42.05171964304044" lon="13.143357516620508"><ele>1347.0</ele><time>2026-05-03T08:32:56.98Z</time></trkpt><trkpt lat="42.051676884454075" lon="13.143483040742082"><ele>1346.3999999999999</ele><time>2026-05-03T08:32:57.98Z</time></trkpt><trkpt lat="42.05163801244106" lon="13.143602012968453"><ele>1345.8</ele><time>2026-05-03T08:32:58.98Z</time></trkpt><trkpt lat="42.05159462357885" lon="13.143707413374857"><ele>1345.2</ele><time>2026-05-03T08:32:59.98Z</time></trkpt><trkpt lat="42.05152665564891" lon="13.143798088331218"><ele>1344.6</ele><time>2026-05-03T08:33:00.98Z</time></trkpt><trkpt lat="42.05144129874806" lon="13.143871761170754"><ele>1344.0</ele><time>2026-05-03T08:33:01.98Z</time></trkpt><trkpt lat="42.05134655830236" lon="13.143918582409029"><ele>1345.0</ele><time>2026-05-03T08:33:02.98Z</time></trkpt><trkpt lat="42.05124782516891" lon="13.14396619841565"><ele>1346.0</ele><time>2026-05-03T08:33:03.98Z</time></trkpt><trkpt lat="42.05115811740904" lon="13.144018865231569"><ele>1347.0</ele><time>2026-05-03T08:33:04.98Z</time></trkpt><trkpt lat="42.051082946718886" lon="13.144102570681342"><ele>1348.0</ele><time>2026-05-03T08:33:05.98Z</time></trkpt><trkpt lat="42.05102906516582" lon="13.14420912785796"><ele>1349.0</ele><time>2026-05-03T08:33:06.98Z</time></trkpt><trkpt lat="42.050988680868954" lon="13.144329822849084"><ele>1349.0</ele><time>2026-05-03T08:33:07.98Z</time></trkpt><trkpt lat="42.050950606021914" lon="13.144452440301912"><ele>1349.0</ele><time>2026-05-03T08:33:08.98Z</time></trkpt><trkpt lat="42.05091695429456" lon="13.144577698356807"><ele>1349.0</ele><time>2026-05-03T08:33:09.98Z</time></trkpt><trkpt lat="42.050905301189886" lon="13.144705985988983"><ele>1349.0</ele><time>2026-05-03T08:33:10.98Z</time></trkpt><trkpt lat="42.050918573572446" lon="13.144845821472849"><ele>1349.0</ele><time>2026-05-03T08:33:11.98Z</time></trkpt><trkpt lat="42.05093181802108" lon="13.144970381745411"><ele>1347.6</ele><time>2026-05-03T08:33:12.98Z</time></trkpt><trkpt lat="42.050916997121845" lon="13.145084803002408"><ele>1346.2</ele><time>2026-05-03T08:33:13.98Z</time></trkpt><trkpt lat="42.05087478708373" lon="13.145208853190967"><ele>1344.8</ele><time>2026-05-03T08:33:14.98Z</time></trkpt><trkpt lat="42.05082120920672" lon="13.145319098057731"><ele>1343.3999999999999</ele><time>2026-05-03T08:33:15.98Z</time></trkpt><trkpt lat="42.050754283549416" lon="13.14540694977851"><ele>1342.0</ele><time>2026-05-03T08:33:16.98Z</time></trkpt><trkpt lat="42.050680148988526" lon="13.145502217365028"><ele>1346.6</ele><time>2026-05-03T08:33:17.98Z</time></trkpt><trkpt lat="42.05063429715737" lon="13.145605845413526"><ele>1351.1999999999998</ele><time>2026-05-03T08:33:18.98Z</time></trkpt><trkpt lat="42.05060075330302" lon="13.145734781874737"><ele>1355.8</ele><time>2026-05-03T08:33:19.98Z</time></trkpt><trkpt lat="42.05055711330245" lon="13.145861479809188"><ele>1360.4</ele><time>2026-05-03T08:33:20.98Z</time></trkpt><trkpt lat="42.05051368015019" lon="13.145990409672965"><ele>1365.0</ele><time>2026-05-03T08:33:21.98Z</time></trkpt><trkpt lat="42.05046873270993" lon="13.14612059122327"><ele>1365.0</ele><time>2026-05-03T08:33:22.98Z</time></trkpt><trkpt lat="42.05041508712244" lon="13.146243569626389"><ele>1365.0</ele><time>2026-05-03T08:33:23.98Z</time></trkpt><trkpt lat="42.050350678196295" lon="13.146358964057615"><ele>1365.0</ele><time>2026-05-03T08:33:24.98Z</time></trkpt><trkpt lat="42.05028022655869" lon="13.146465488207587"><ele>1365.0</ele><time>2026-05-03T08:33:25.98Z</time></trkpt><trkpt lat="42.05021361990818" lon="13.14658136043497"><ele>1365.0</ele><time>2026-05-03T08:33:26.98Z</time></trkpt><trkpt lat="42.05015544771658" lon="13.146694782930018"><ele>1362.4</ele><time>2026-05-03T08:33:27.98Z</time></trkpt><trkpt lat="42.050092805180846" lon="13.146802839167238"><ele>1359.8</ele><time>2026-05-03T08:33:28.98Z</time></trkpt><trkpt lat="42.05002106578406" lon="13.146903882242635"><ele>1357.1999999999998</ele><time>2026-05-03T08:33:29.98Z</time></trkpt><trkpt lat="42.049945985251455" lon="13.147002763131743"><ele>1354.6</ele><time>2026-05-03T08:33:30.98Z</time></trkpt><trkpt lat="42.04986606344144" lon="13.147099060903491"><ele>1352.0</ele><time>2026-05-03T08:33:31.98Z</time></trkpt><trkpt lat="42.049787916155275" lon="13.14719507849742"><ele>1354.3999999999999</ele><time>2026-05-03T08:33:32.98Z</time></trkpt><trkpt lat="42.04971782488069" lon="13.147299769400888"><ele>1356.8</ele><time>2026-05-03T08:33:33.98Z</time></trkpt><trkpt lat="42.04965211265985" lon="13.147416353435675"><ele>1359.2</ele><time>2026-05-03T08:33:34.98Z</time></trkpt><trkpt lat="42.04958367554621" lon="13.147518572778699"><ele>1361.6</ele><time>2026-05-03T08:33:35.98Z</time></trkpt><trkpt lat="42.0495054132171" lon="13.147610173808458"><ele>1364.0</ele><time>2026-05-03T08:33:36.98Z</time></trkpt><trkpt lat="42.04941391655287" lon="13.147678998309578"><ele>1364.0</ele><time>2026-05-03T08:33:37.98Z</time></trkpt><trkpt lat="42.04931345533375" lon="13.147726522961245"><ele>1364.0</ele><time>2026-05-03T08:33:38.98Z</time></trkpt><trkpt lat="42.04922158069757" lon="13.147779965446933"><ele>1364.0</ele><time>2026-05-03T08:33:39.98Z</time></trkpt><trkpt lat="42.049142996673105" lon="13.147868288905277"><ele>1364.0</ele><time>2026-05-03T08:33:40.98Z</time></trkpt><trkpt lat="42.049070975336996" lon="13.147974616023154"><ele>1364.0</ele><time>2026-05-03T08:33:41.98Z</time></trkpt><trkpt lat="42.04900038565821" lon="13.148078394957961"><ele>1365.0</ele><time>2026-05-03T08:33:42.98Z</time></trkpt><trkpt lat="42.048920671751475" lon="13.14815779549837"><ele>1366.0</ele><time>2026-05-03T08:33:43.98Z</time></trkpt><trkpt lat="42.048832528400276" lon="13.14821237110818"><ele>1367.0</ele><time>2026-05-03T08:33:44.98Z</time></trkpt><trkpt lat="42.048744328898124" lon="13.148258124807356"><ele>1368.0</ele><time>2026-05-03T08:33:45.98Z</time></trkpt><trkpt lat="42.04865997762925" lon="13.148311471326792"><ele>1369.0</ele><time>2026-05-03T08:33:46.98Z</time></trkpt><trkpt lat="42.048577920723005" lon="13.14837294444021"><ele>1369.0</ele><time>2026-05-03T08:33:47.98Z</time></trkpt><trkpt lat="42.04849752765695" lon="13.14842509710402"><ele>1369.0</ele><time>2026-05-03T08:33:48.98Z</time></trkpt><trkpt lat="42.048413466841374" lon="13.148464732748005"><ele>1369.0</ele><time>2026-05-03T08:33:49.98Z</time></trkpt><trkpt lat="42.048330168243915" lon="13.14850113107026"><ele>1369.0</ele><time>2026-05-03T08:33:50.98Z</time></trkpt><trkpt lat="42.04825506230574" lon="13.148535154543348"><ele>1369.0</ele><time>2026-05-03T08:33:51.98Z</time></trkpt><trkpt lat="42.04819032470635" lon="13.14857979694116"><ele>1369.0</ele><time>2026-05-03T08:33:52.978Z</time></trkpt><trkpt lat="42.04812059414773" lon="13.14861318994682"><ele>1372.8333333333333</ele><time>2026-05-03T08:33:53.978Z</time></trkpt><trkpt lat="42.04806412820203" lon="13.148681122094624"><ele>1376.6666666666665</ele><time>2026-05-03T08:33:54.978Z</time></trkpt><trkpt lat="42.0480196485114" lon="13.148748854468225"><ele>1380.5</ele><time>2026-05-03T08:33:55.978Z</time></trkpt><trkpt lat="42.04796196547756" lon="13.148869653211028"><ele>1384.3333333333333</ele><time>2026-05-03T08:33:57.978Z</time></trkpt><trkpt lat="42.04794063510716" lon="13.148953439371606"><ele>1388.1666666666667</ele><time>2026-05-03T08:34:05.978Z</time></trkpt><trkpt lat="42.04799075472479" lon="13.148857844030179"><ele>1392.0</ele><time>2026-05-03T08:35:26.978Z</time></trkpt><trkpt lat="42.04794454784628" lon="13.148796906390514"><ele>1392.0</ele><time>2026-05-03T08:35:32.978Z</time></trkpt><trkpt lat="42.04790076310086" lon="13.148720837136603"><ele>1392.0</ele><time>2026-05-03T08:35:38.978Z</time></trkpt><trkpt lat="42.04793398556391" lon="13.148640589539198"><ele>1392.0</ele><time>2026-05-03T08:35:45.978Z</time></trkpt><trkpt lat="42.04793177744989" lon="13.14851468908519"><ele>1392.0</ele><time>2026-05-03T08:36:30.977Z</time></trkpt><trkpt lat="42.047869977430516" lon="13.148491712634785"><ele>1392.0</ele><time>2026-05-03T08:36:34.977Z</time></trkpt><trkpt lat="42.0478509786951" lon="13.148573783738902"><ele>1392.0</ele><time>2026-05-03T08:36:42.977Z</time></trkpt><trkpt lat="42.04785042017604" lon="13.148660732434651"><ele>1392.0</ele><time>2026-05-03T08:36:48.977Z</time></trkpt><trkpt lat="42.04785905994289" lon="13.148759210865473"><ele>1392.0</ele><time>2026-05-03T08:36:53.977Z</time></trkpt><trkpt lat="42.047882164445035" lon="13.148839465363823"><ele>1392.0</ele><time>2026-05-03T08:36:58.977Z</time></trkpt><trkpt lat="42.047905383780545" lon="13.148929259376969"><ele>1392.0</ele><time>2026-05-03T08:37:04.977Z</time></trkpt></trkseg><trkseg><trkpt lat="42.04788115324369" lon="13.149065591850324"><ele>1384.0</ele><time>2026-05-03T08:47:31.171Z</time></trkpt><trkpt lat="42.04790379077606" lon="13.14895913589397"><ele>1384.0</ele><time>2026-05-03T08:47:32.171Z</time></trkpt><trkpt lat="42.04790752763952" lon="13.148866650067509"><ele>1384.0</ele><time>2026-05-03T08:47:44.974Z</time></trkpt><trkpt lat="42.047858426048094" lon="13.148801901740544"><ele>1384.0</ele><time>2026-05-03T08:47:51.974Z</time></trkpt><trkpt lat="42.04782831907915" lon="13.148883875763987"><ele>1384.0</ele><time>2026-05-03T08:49:27.974Z</time></trkpt><trkpt lat="42.047801112686294" lon="13.148982517327685"><ele>1384.0</ele><time>2026-05-03T08:49:30.974Z</time></trkpt><trkpt lat="42.047836378775074" lon="13.149053789666981"><ele>1384.0</ele><time>2026-05-03T08:49:32.974Z</time></trkpt><trkpt lat="42.04788972924325" lon="13.14898571200844"><ele>1385.3333333333333</ele><time>2026-05-03T08:49:38.974Z</time></trkpt><trkpt lat="42.04797458147071" lon="13.148982781606778"><ele>1386.6666666666665</ele><time>2026-05-03T08:49:51.974Z</time></trkpt><trkpt lat="42.047995017495104" lon="13.148888648636104"><ele>1388.0</ele><time>2026-05-03T08:54:18.974Z</time></trkpt><trkpt lat="42.0480152293123" lon="13.14880699463803"><ele>1389.3333333333333</ele><time>2026-05-03T08:54:22.974Z</time></trkpt><trkpt lat="42.048088062268135" lon="13.14885207928574"><ele>1390.6666666666667</ele><time>2026-05-03T08:56:28.974Z</time></trkpt><trkpt lat="42.048089182807175" lon="13.148721021445"><ele>1392.0</ele><time>2026-05-03T08:57:21.974Z</time></trkpt><trkpt lat="42.048134009230516" lon="13.148634735835088"><ele>1392.0</ele><time>2026-05-03T09:01:00.973Z</time></trkpt><trkpt lat="42.0481968408048" lon="13.148607481347984"><ele>1392.0</ele><time>2026-05-03T09:01:03.973Z</time></trkpt><trkpt lat="42.048186154106865" lon="13.148710476965508"><ele>1392.0</ele><time>2026-05-03T09:03:19.973Z</time></trkpt><trkpt lat="42.04812211241194" lon="13.14867594603992"><ele>1392.0</ele><time>2026-05-03T09:03:33.973Z</time></trkpt><trkpt lat="42.0480743624142" lon="13.148604448430246"><ele>1392.0</ele><time>2026-05-03T09:03:48.973Z</time></trkpt><trkpt lat="42.04803184504614" lon="13.148540382537158"><ele>1392.0</ele><time>2026-05-03T09:03:57.973Z</time></trkpt><trkpt lat="42.047999064250305" lon="13.148432380760323"><ele>1392.0</ele><time>2026-05-03T09:04:44.973Z</time></trkpt><trkpt lat="42.04788677367463" lon="13.148448852741454"><ele>1392.0</ele><time>2026-05-03T09:05:07.973Z</time></trkpt><trkpt lat="42.047972444775844" lon="13.148424879196007"><ele>1392.0</ele><time>2026-05-03T09:05:52.973Z</time></trkpt><trkpt lat="42.04790370239248" lon="13.148470555067172"><ele>1392.0</ele><time>2026-05-03T09:06:38.973Z</time></trkpt><trkpt lat="42.04804422152847" lon="13.148496383757749"><ele>1392.0</ele><time>2026-05-03T09:07:01.973Z</time></trkpt><trkpt lat="42.04811304490538" lon="13.148465866775023"><ele>1392.0</ele><time>2026-05-03T09:07:36.973Z</time></trkpt><trkpt lat="42.04814111799811" lon="13.14854827308896"><ele>1392.0</ele><time>2026-05-03T09:07:43.973Z</time></trkpt><trkpt lat="42.04818218293313" lon="13.14870143682982"><ele>1392.0</ele><time>2026-05-03T09:09:09.972Z</time></trkpt><trkpt lat="42.04826620303398" lon="13.148620880770046"><ele>1392.0</ele><time>2026-05-03T09:09:12.972Z</time></trkpt><trkpt lat="42.04836416842748" lon="13.1485512630693"><ele>1392.0</ele><time>2026-05-03T09:09:14.972Z</time></trkpt><trkpt lat="42.04845784094215" lon="13.148484963099547"><ele>1392.0</ele><time>2026-05-03T09:09:16.972Z</time></trkpt><trkpt lat="42.048538606902696" lon="13.148439846086026"><ele>1392.0</ele><time>2026-05-03T09:09:18.972Z</time></trkpt><trkpt lat="42.04860200711182" lon="13.14841048707087"><ele>1391.0</ele><time>2026-05-03T09:09:20.972Z</time></trkpt><trkpt lat="42.04867032483797" lon="13.148362202514395"><ele>1390.0</ele><time>2026-05-03T09:09:24.972Z</time></trkpt><trkpt lat="42.048750049188726" lon="13.148292273277274"><ele>1389.0</ele><time>2026-05-03T09:09:26.972Z</time></trkpt><trkpt lat="42.04884381345497" lon="13.148188913059718"><ele>1388.0</ele><time>2026-05-03T09:09:28.972Z</time></trkpt><trkpt lat="42.04890172489582" lon="13.148140256974726"><ele>1387.0</ele><time>2026-05-03T09:09:29.972Z</time></trkpt><trkpt lat="42.04896355559981" lon="13.148083507681664"><ele>1386.0</ele><time>2026-05-03T09:09:30.972Z</time></trkpt><trkpt lat="42.049025037230805" lon="13.148022143067049"><ele>1386.0</ele><time>2026-05-03T09:09:31.972Z</time></trkpt><trkpt lat="42.04908018970083" lon="13.14796333623949"><ele>1386.0</ele><time>2026-05-03T09:09:32.972Z</time></trkpt><trkpt lat="42.04912968828106" lon="13.147887630382682"><ele>1386.0</ele><time>2026-05-03T09:09:33.972Z</time></trkpt><trkpt lat="42.0491779802883" lon="13.147809444002117"><ele>1386.0</ele><time>2026-05-03T09:09:34.972Z</time></trkpt><trkpt lat="42.049242381827376" lon="13.147744938148252"><ele>1386.0</ele><time>2026-05-03T09:09:35.972Z</time></trkpt><trkpt lat="42.04931802423646" lon="13.147696566276096"><ele>1386.0</ele><time>2026-05-03T09:09:36.972Z</time></trkpt><trkpt lat="42.0493958103691" lon="13.147657928152219"><ele>1385.5</ele><time>2026-05-03T09:09:37.972Z</time></trkpt><trkpt lat="42.0494764572681" lon="13.147615427803007"><ele>1385.0</ele><time>2026-05-03T09:09:38.972Z</time></trkpt><trkpt lat="42.049547804069825" lon="13.147555929102584"><ele>1384.5</ele><time>2026-05-03T09:09:39.972Z</time></trkpt><trkpt lat="42.049606210837716" lon="13.147473030160569"><ele>1384.0</ele><time>2026-05-03T09:09:40.972Z</time></trkpt><trkpt lat="42.04966168634974" lon="13.147377654351875"><ele>1383.5</ele><time>2026-05-03T09:09:41.972Z</time></trkpt><trkpt lat="42.04971459098135" lon="13.147277769822013"><ele>1383.0</ele><time>2026-05-03T09:09:42.972Z</time></trkpt><trkpt lat="42.049776450548194" lon="13.147176557041174"><ele>1383.0</ele><time>2026-05-03T09:09:43.972Z</time></trkpt><trkpt lat="42.049850367491715" lon="13.147077558381804"><ele>1383.0</ele><time>2026-05-03T09:09:44.972Z</time></trkpt><trkpt lat="42.049926837816535" lon="13.146985539731384"><ele>1383.0</ele><time>2026-05-03T09:09:45.972Z</time></trkpt><trkpt lat="42.050007572989614" lon="13.146886998026648"><ele>1383.0</ele><time>2026-05-03T09:09:46.972Z</time></trkpt><trkpt lat="42.050085517482394" lon="13.14678183079277"><ele>1383.0</ele><time>2026-05-03T09:09:47.972Z</time></trkpt><trkpt lat="42.0501546354886" lon="13.146662703594783"><ele>1378.5</ele><time>2026-05-03T09:09:48.972Z</time></trkpt><trkpt lat="42.05022254924214" lon="13.14654070506111"><ele>1374.0</ele><time>2026-05-03T09:09:49.972Z</time></trkpt><trkpt lat="42.050287102194595" lon="13.146418939138721"><ele>1369.5</ele><time>2026-05-03T09:09:50.972Z</time></trkpt><trkpt lat="42.05035691058863" lon="13.146298658186277"><ele>1365.0</ele><time>2026-05-03T09:09:51.972Z</time></trkpt><trkpt lat="42.050426227131936" lon="13.146175574803173"><ele>1365.0</ele><time>2026-05-03T09:09:52.972Z</time></trkpt><trkpt lat="42.050483275415026" lon="13.146043213323445"><ele>1365.0</ele><time>2026-05-03T09:09:53.972Z</time></trkpt><trkpt lat="42.05052773593532" lon="13.145904052201336"><ele>1365.0</ele><time>2026-05-03T09:09:54.972Z</time></trkpt><trkpt lat="42.050566935940104" lon="13.145764752820476"><ele>1365.0</ele><time>2026-05-03T09:09:55.972Z</time></trkpt><trkpt lat="42.0506145857292" lon="13.14563046699243"><ele>1365.0</ele><time>2026-05-03T09:09:56.972Z</time></trkpt><trkpt lat="42.050671123075745" lon="13.145507234231031"><ele>1366.5</ele><time>2026-05-03T09:09:57.972Z</time></trkpt><trkpt lat="42.05073078868876" lon="13.145392122256784"><ele>1368.0</ele><time>2026-05-03T09:09:58.972Z</time></trkpt><trkpt lat="42.05078999580572" lon="13.145287637412556"><ele>1369.5</ele><time>2026-05-03T09:09:59.972Z</time></trkpt><trkpt lat="42.05084083530881" lon="13.145197596499054"><ele>1371.0</ele><time>2026-05-03T09:10:00.972Z</time></trkpt><trkpt lat="42.050878158629274" lon="13.145110266821153"><ele>1372.5</ele><time>2026-05-03T09:10:01.972Z</time></trkpt><trkpt lat="42.050905374500836" lon="13.145008148896911"><ele>1374.0</ele><time>2026-05-03T09:10:02.972Z</time></trkpt><trkpt lat="42.05091059896317" lon="13.144886959892704"><ele>1369.8333333333333</ele><time>2026-05-03T09:10:03.972Z</time></trkpt><trkpt lat="42.050909532405655" lon="13.144770363429087"><ele>1365.6666666666667</ele><time>2026-05-03T09:10:04.972Z</time></trkpt><trkpt lat="42.050903754375305" lon="13.144655740852091"><ele>1361.5</ele><time>2026-05-03T09:10:05.972Z</time></trkpt><trkpt lat="42.05090584741016" lon="13.144536697247762"><ele>1357.3333333333335</ele><time>2026-05-03T09:10:06.972Z</time></trkpt><trkpt lat="42.05093313478012" lon="13.14442712262092"><ele>1353.1666666666667</ele><time>2026-05-03T09:10:07.972Z</time></trkpt><trkpt lat="42.05097373424013" lon="13.144315141849788"><ele>1349.0</ele><time>2026-05-03T09:10:08.972Z</time></trkpt><trkpt lat="42.05102113431943" lon="13.144200550745486"><ele>1349.0</ele><time>2026-05-03T09:10:09.972Z</time></trkpt><trkpt lat="42.05106711661235" lon="13.144107053189567"><ele>1349.0</ele><time>2026-05-03T09:10:10.972Z</time></trkpt><trkpt lat="42.05112657398411" lon="13.144020764916174"><ele>1349.0</ele><time>2026-05-03T09:10:11.972Z</time></trkpt><trkpt lat="42.051197976517436" lon="13.143961401285653"><ele>1349.0</ele><time>2026-05-03T09:10:12.972Z</time></trkpt><trkpt lat="42.05128194209343" lon="13.143914930968338"><ele>1349.0</ele><time>2026-05-03T09:10:13.972Z</time></trkpt><trkpt lat="42.05136805195144" lon="13.143880159367018"><ele>1349.0</ele><time>2026-05-03T09:10:14.972Z</time></trkpt><trkpt lat="42.051446392454835" lon="13.14383898035359"><ele>1348.1666666666667</ele><time>2026-05-03T09:10:15.972Z</time></trkpt><trkpt lat="42.05151644715507" lon="13.143789194533044"><ele>1347.3333333333335</ele><time>2026-05-03T09:10:16.972Z</time></trkpt><trkpt lat="42.05157691658329" lon="13.143723819743986"><ele>1346.5</ele><time>2026-05-03T09:10:17.972Z</time></trkpt><trkpt lat="42.05162245629343" lon="13.143632490945546"><ele>1345.6666666666667</ele><time>2026-05-03T09:10:18.972Z</time></trkpt><trkpt lat="42.05166216025074" lon="13.143528957898512"><ele>1344.8333333333333</ele><time>2026-05-03T09:10:19.972Z</time></trkpt><trkpt lat="42.05169846899598" lon="13.143413690538143"><ele>1344.0</ele><time>2026-05-03T09:10:20.972Z</time></trkpt><trkpt lat="42.05173644465262" lon="13.14330247787425"><ele>1344.6</ele><time>2026-05-03T09:10:21.972Z</time></trkpt><trkpt lat="42.05177805220835" lon="13.143195277793213"><ele>1345.2</ele><time>2026-05-03T09:10:22.972Z</time></trkpt><trkpt lat="42.0518171461749" lon="13.143075941368414"><ele>1345.8</ele><time>2026-05-03T09:10:23.972Z</time></trkpt><trkpt lat="42.05184936531973" lon="13.142956242268902"><ele>1346.3999999999999</ele><time>2026-05-03T09:10:24.972Z</time></trkpt><trkpt lat="42.05186836251075" lon="13.142830914072995"><ele>1347.0</ele><time>2026-05-03T09:10:25.972Z</time></trkpt><trkpt lat="42.05188612258869" lon="13.142700601726235"><ele>1347.0</ele><time>2026-05-03T09:10:26.972Z</time></trkpt><trkpt lat="42.0519012064243" lon="13.142573819301802"><ele>1347.0</ele><time>2026-05-03T09:10:27.972Z</time></trkpt><trkpt lat="42.05191383367859" lon="13.142448389254398"><ele>1347.0</ele><time>2026-05-03T09:10:28.972Z</time></trkpt><trkpt lat="42.05193790910324" lon="13.142332553934372"><ele>1347.0</ele><time>2026-05-03T09:10:29.972Z</time></trkpt><trkpt lat="42.05197493912899" lon="13.1422149995887"><ele>1347.0</ele><time>2026-05-03T09:10:30.972Z</time></trkpt><trkpt lat="42.05200318379965" lon="13.142096258125274"><ele>1348.0</ele><time>2026-05-03T09:10:31.972Z</time></trkpt><trkpt lat="42.05203697758534" lon="13.141978003050957"><ele>1349.0</ele><time>2026-05-03T09:10:32.972Z</time></trkpt><trkpt lat="42.05206957029083" lon="13.141862349785297"><ele>1350.0</ele><time>2026-05-03T09:10:33.972Z</time></trkpt><trkpt lat="42.0520951412081" lon="13.14174167230978"><ele>1351.0</ele><time>2026-05-03T09:10:34.972Z</time></trkpt><trkpt lat="42.05212538076093" lon="13.141620836920977"><ele>1352.0</ele><time>2026-05-03T09:10:35.972Z</time></trkpt><trkpt lat="42.05215860040326" lon="13.141505132302168"><ele>1353.0</ele><time>2026-05-03T09:10:36.972Z</time></trkpt><trkpt lat="42.052181414723975" lon="13.141395593976595"><ele>1354.0</ele><time>2026-05-03T09:10:37.972Z</time></trkpt><trkpt lat="42.05218672352226" lon="13.141280680285336"><ele>1355.0</ele><time>2026-05-03T09:10:38.972Z</time></trkpt><trkpt lat="42.05217534483465" lon="13.141174464078883"><ele>1356.0</ele><time>2026-05-03T09:10:39.972Z</time></trkpt><trkpt lat="42.05215357686874" lon="13.141072619537368"><ele>1357.0</ele><time>2026-05-03T09:10:40.971Z</time></trkpt><trkpt lat="42.05212352331173" lon="13.140967975286765"><ele>1358.0</ele><time>2026-05-03T09:10:41.971Z</time></trkpt><trkpt lat="42.052114395312636" lon="13.140862415630563"><ele>1358.0</ele><time>2026-05-03T09:10:42.972Z</time></trkpt><trkpt lat="42.05210292596388" lon="13.140748534790578"><ele>1358.0</ele><time>2026-05-03T09:10:43.972Z</time></trkpt><trkpt lat="42.05210259138322" lon="13.140638245927084"><ele>1358.0</ele><time>2026-05-03T09:10:44.972Z</time></trkpt><trkpt lat="42.05211063099266" lon="13.140531583307151"><ele>1358.0</ele><time>2026-05-03T09:10:45.972Z</time></trkpt><trkpt lat="42.052124728159946" lon="13.140425708446074"><ele>1358.0</ele><time>2026-05-03T09:10:46.972Z</time></trkpt><trkpt lat="42.05213328456016" lon="13.140316318262256"><ele>1358.0</ele><time>2026-05-03T09:10:47.973Z</time></trkpt><trkpt lat="42.05216058053038" lon="13.140194932501078"><ele>1358.0</ele><time>2026-05-03T09:10:48.972Z</time></trkpt><trkpt lat="42.05217591915632" lon="13.140068341728227"><ele>1358.0</ele><time>2026-05-03T09:10:49.972Z</time></trkpt><trkpt lat="42.05217621816009" lon="13.139950007205494"><ele>1358.0</ele><time>2026-05-03T09:10:50.973Z</time></trkpt><trkpt lat="42.05221204684735" lon="13.139801091955913"><ele>1358.0</ele><time>2026-05-03T09:10:51.973Z</time></trkpt><trkpt lat="42.0522299425373" lon="13.139652489387768"><ele>1358.0</ele><time>2026-05-03T09:10:52.973Z</time></trkpt><trkpt lat="42.05226226450494" lon="13.139507340970383"><ele>1358.0</ele><time>2026-05-03T09:10:53.973Z</time></trkpt><trkpt lat="42.05226318029857" lon="13.139377964534113"><ele>1358.0</ele><time>2026-05-03T09:10:54.973Z</time></trkpt><trkpt lat="42.05226925110553" lon="13.13925779502231"><ele>1358.0</ele><time>2026-05-03T09:10:55.973Z</time></trkpt><trkpt lat="42.0522761793907" lon="13.139137046895147"><ele>1358.0</ele><time>2026-05-03T09:10:56.973Z</time></trkpt><trkpt lat="42.05229803641879" lon="13.13902786062735"><ele>1358.0</ele><time>2026-05-03T09:10:57.974Z</time></trkpt><trkpt lat="42.05232451017582" lon="13.138922417305137"><ele>1358.0</ele><time>2026-05-03T09:10:58.974Z</time></trkpt><trkpt lat="42.0523535341121" lon="13.13884016999392"><ele>1358.0</ele><time>2026-05-03T09:10:59.974Z</time></trkpt><trkpt lat="42.05240622876388" lon="13.138715116269978"><ele>1358.0</ele><time>2026-05-03T09:11:01.974Z</time></trkpt><trkpt lat="42.05247807772665" lon="13.138598914462579"><ele>1358.0</ele><time>2026-05-03T09:11:03.974Z</time></trkpt><trkpt lat="42.05254466890342" lon="13.138543974102797"><ele>1358.0</ele><time>2026-05-03T09:11:04.974Z</time></trkpt><trkpt lat="42.052612150630736" lon="13.138494184922624"><ele>1358.0</ele><time>2026-05-03T09:11:05.974Z</time></trkpt><trkpt lat="42.05267864295126" lon="13.138436840992831"><ele>1353.5</ele><time>2026-05-03T09:11:06.974Z</time></trkpt><trkpt lat="42.052730442200485" lon="13.13837318047892"><ele>1349.0</ele><time>2026-05-03T09:11:07.974Z</time></trkpt><trkpt lat="42.052781702253796" lon="13.138312459073049"><ele>1344.5</ele><time>2026-05-03T09:11:08.974Z</time></trkpt><trkpt lat="42.05283126039823" lon="13.1382357985144"><ele>1340.0</ele><time>2026-05-03T09:11:09.974Z</time></trkpt><trkpt lat="42.0528976288658" lon="13.138171644737472"><ele>1335.5</ele><time>2026-05-03T09:11:10.974Z</time></trkpt><trkpt lat="42.05294548652504" lon="13.138100024894797"><ele>1331.0</ele><time>2026-05-03T09:11:11.975Z</time></trkpt><trkpt lat="42.05299866360716" lon="13.138007612128916"><ele>1330.6666666666667</ele><time>2026-05-03T09:11:12.975Z</time></trkpt><trkpt lat="42.053022190586375" lon="13.137914638560705"><ele>1330.3333333333335</ele><time>2026-05-03T09:11:13.975Z</time></trkpt><trkpt lat="42.053048378916756" lon="13.137821488403956"><ele>1330.0</ele><time>2026-05-03T09:11:14.975Z</time></trkpt><trkpt lat="42.05309889851228" lon="13.137726332485427"><ele>1329.6666666666667</ele><time>2026-05-03T09:11:15.975Z</time></trkpt><trkpt lat="42.053161475476976" lon="13.137639300058094"><ele>1329.3333333333333</ele><time>2026-05-03T09:11:16.975Z</time></trkpt><trkpt lat="42.05321352696395" lon="13.137566961513025"><ele>1329.0</ele><time>2026-05-03T09:11:17.975Z</time></trkpt><trkpt lat="42.053281079001614" lon="13.137493234146332"><ele>1327.5</ele><time>2026-05-03T09:11:18.975Z</time></trkpt><trkpt lat="42.053347599806806" lon="13.137418012144"><ele>1326.0</ele><time>2026-05-03T09:11:19.975Z</time></trkpt><trkpt lat="42.05341166794234" lon="13.137335905527033"><ele>1324.5</ele><time>2026-05-03T09:11:20.975Z</time></trkpt><trkpt lat="42.053464605501304" lon="13.13725420382159"><ele>1323.0</ele><time>2026-05-03T09:11:21.975Z</time></trkpt><trkpt lat="42.053508728547435" lon="13.137179347004803"><ele>1321.5</ele><time>2026-05-03T09:11:22.975Z</time></trkpt><trkpt lat="42.05359849707288" lon="13.137101439793126"><ele>1320.0</ele><time>2026-05-03T09:11:23.975Z</time></trkpt><trkpt lat="42.05365652650552" lon="13.136997683674775"><ele>1318.8333333333333</ele><time>2026-05-03T09:11:24.975Z</time></trkpt><trkpt lat="42.05370869429825" lon="13.13690608931289"><ele>1317.6666666666667</ele><time>2026-05-03T09:11:25.975Z</time></trkpt><trkpt lat="42.05374920365639" lon="13.136807442060512"><ele>1316.5</ele><time>2026-05-03T09:11:26.975Z</time></trkpt><trkpt lat="42.053787342106865" lon="13.136704100351807"><ele>1315.3333333333335</ele><time>2026-05-03T09:11:27.975Z</time></trkpt><trkpt lat="42.05382651366215" lon="13.136609183289972"><ele>1314.1666666666667</ele><time>2026-05-03T09:11:28.975Z</time></trkpt><trkpt lat="42.05386624615362" lon="13.136466780362793"><ele>1313.0</ele><time>2026-05-03T09:11:30.975Z</time></trkpt><trkpt lat="42.0539085973598" lon="13.1364012149255"><ele>1311.8333333333335</ele><time>2026-05-03T09:11:31.975Z</time></trkpt><trkpt lat="42.053950700091185" lon="13.136317912052606"><ele>1310.6666666666667</ele><time>2026-05-03T09:11:32.975Z</time></trkpt><trkpt lat="42.05399720050114" lon="13.136237000989617"><ele>1309.5</ele><time>2026-05-03T09:11:33.975Z</time></trkpt><trkpt lat="42.05405701437303" lon="13.136162092745721"><ele>1308.3333333333333</ele><time>2026-05-03T09:11:34.975Z</time></trkpt><trkpt lat="42.05412851100334" lon="13.136108924796497"><ele>1307.1666666666665</ele><time>2026-05-03T09:11:35.975Z</time></trkpt><trkpt lat="42.054210230794105" lon="13.136071777911726"><ele>1306.0</ele><time>2026-05-03T09:11:36.975Z</time></trkpt><trkpt lat="42.05428217788959" lon="13.136034490031593"><ele>1304.5</ele><time>2026-05-03T09:11:37.975Z</time></trkpt><trkpt lat="42.054380231770864" lon="13.135982509582181"><ele>1303.0</ele><time>2026-05-03T09:11:39.975Z</time></trkpt><trkpt lat="42.05444622941897" lon="13.135900546330307"><ele>1301.5</ele><time>2026-05-03T09:11:41.975Z</time></trkpt><trkpt lat="42.05440867649843" lon="13.135794830173108"><ele>1300.0</ele><time>2026-05-03T09:11:43.975Z</time></trkpt><trkpt lat="42.05434540611865" lon="13.13575182151798"><ele>1298.5</ele><time>2026-05-03T09:11:45.975Z</time></trkpt><trkpt lat="42.054273251213424" lon="13.135788884835842"><ele>1297.0</ele><time>2026-05-03T09:11:47.975Z</time></trkpt><trkpt lat="42.054171746125206" lon="13.135879611737408"><ele>1298.5</ele><time>2026-05-03T09:11:49.975Z</time></trkpt><trkpt lat="42.05411571975852" lon="13.135919171774134"><ele>1300.0</ele><time>2026-05-03T09:11:50.975Z</time></trkpt><trkpt lat="42.054026909680466" lon="13.135944344491334"><ele>1301.5</ele><time>2026-05-03T09:11:51.975Z</time></trkpt><trkpt lat="42.0539300297881" lon="13.135992435833206"><ele>1303.0</ele><time>2026-05-03T09:11:52.975Z</time></trkpt><trkpt lat="42.05386100350139" lon="13.136041589089285"><ele>1304.5</ele><time>2026-05-03T09:11:53.975Z</time></trkpt><trkpt lat="42.0538042489117" lon="13.136085191304357"><ele>1306.0</ele><time>2026-05-03T09:11:55.975Z</time></trkpt><trkpt lat="42.05374123872332" lon="13.13597022721073"><ele>1306.0</ele><time>2026-05-03T09:11:57.975Z</time></trkpt><trkpt lat="42.053742676162905" lon="13.135873420186048"><ele>1306.0</ele><time>2026-05-03T09:11:58.975Z</time></trkpt><trkpt lat="42.053744563000045" lon="13.135786508231874"><ele>1306.0</ele><time>2026-05-03T09:11:59.975Z</time></trkpt><trkpt lat="42.05379378665009" lon="13.135619776165207"><ele>1306.0</ele><time>2026-05-03T09:12:01.975Z</time></trkpt><trkpt lat="42.05381447000654" lon="13.135498498836316"><ele>1306.0</ele><time>2026-05-03T09:12:02.975Z</time></trkpt><trkpt lat="42.05381911469251" lon="13.135362313142831"><ele>1304.8333333333333</ele><time>2026-05-03T09:12:03.975Z</time></trkpt><trkpt lat="42.05381625334098" lon="13.135232237499352"><ele>1303.6666666666665</ele><time>2026-05-03T09:12:04.975Z</time></trkpt><trkpt lat="42.05381192731071" lon="13.135130793236682"><ele>1302.5</ele><time>2026-05-03T09:12:05.975Z</time></trkpt><trkpt lat="42.053827011305486" lon="13.135020560985689"><ele>1301.3333333333333</ele><time>2026-05-03T09:12:06.975Z</time></trkpt><trkpt lat="42.05382913398369" lon="13.134923188526908"><ele>1300.1666666666667</ele><time>2026-05-03T09:12:07.975Z</time></trkpt><trkpt lat="42.053843806359446" lon="13.134834315960552"><ele>1299.0</ele><time>2026-05-03T09:12:08.975Z</time></trkpt><trkpt lat="42.05386570314705" lon="13.13473901319856"><ele>1299.0</ele><time>2026-05-03T09:12:09.975Z</time></trkpt><trkpt lat="42.05388047934839" lon="13.134634689458098"><ele>1299.0</ele><time>2026-05-03T09:12:10.975Z</time></trkpt><trkpt lat="42.053896962602074" lon="13.134505065075118"><ele>1299.0</ele><time>2026-05-03T09:12:11.975Z</time></trkpt><trkpt lat="42.05389825305766" lon="13.1343911237677"><ele>1299.0</ele><time>2026-05-03T09:12:12.975Z</time></trkpt><trkpt lat="42.05388210387929" lon="13.134281010231238"><ele>1299.0</ele><time>2026-05-03T09:12:13.975Z</time></trkpt><trkpt lat="42.05386120324845" lon="13.134134433345105"><ele>1299.8333333333333</ele><time>2026-05-03T09:12:15.975Z</time></trkpt><trkpt lat="42.053869437776584" lon="13.134012666008573"><ele>1300.6666666666667</ele><time>2026-05-03T09:12:16.975Z</time></trkpt><trkpt lat="42.053874822580966" lon="13.133892901172073"><ele>1301.5</ele><time>2026-05-03T09:12:17.975Z</time></trkpt><trkpt lat="42.05389259618605" lon="13.133782414416919"><ele>1302.3333333333335</ele><time>2026-05-03T09:12:18.975Z</time></trkpt><trkpt lat="42.05390958319875" lon="13.133679632302425"><ele>1303.1666666666667</ele><time>2026-05-03T09:12:19.975Z</time></trkpt><trkpt lat="42.053920369431665" lon="13.133577973105373"><ele>1304.0</ele><time>2026-05-03T09:12:20.975Z</time></trkpt><trkpt lat="42.05393610921558" lon="13.133473956002085"><ele>1304.0</ele><time>2026-05-03T09:12:21.975Z</time></trkpt><trkpt lat="42.05396810329479" lon="13.133373728989902"><ele>1304.0</ele><time>2026-05-03T09:12:22.975Z</time></trkpt><trkpt lat="42.0539871394153" lon="13.133288508931857"><ele>1304.0</ele><time>2026-05-03T09:12:23.975Z</time></trkpt><trkpt lat="42.054019650104536" lon="13.133212181997573"><ele>1304.0</ele><time>2026-05-03T09:12:24.975Z</time></trkpt><trkpt lat="42.054052926104234" lon="13.133130984500664"><ele>1304.0</ele><time>2026-05-03T09:12:25.975Z</time></trkpt><trkpt lat="42.05409003692944" lon="13.133017312545896"><ele>1304.0</ele><time>2026-05-03T09:12:26.975Z</time></trkpt><trkpt lat="42.05411471298502" lon="13.132923809841593"><ele>1304.0</ele><time>2026-05-03T09:12:27.975Z</time></trkpt><trkpt lat="42.054137297865324" lon="13.132811922125635"><ele>1304.6</ele><time>2026-05-03T09:12:28.975Z</time></trkpt><trkpt lat="42.054119269056685" lon="13.132714154314574"><ele>1305.2</ele><time>2026-05-03T09:12:29.975Z</time></trkpt><trkpt lat="42.054069602334785" lon="13.132565161362132"><ele>1305.8</ele><time>2026-05-03T09:12:31.975Z</time></trkpt><trkpt lat="42.05401355246331" lon="13.132463873201594"><ele>1306.3999999999999</ele><time>2026-05-03T09:12:33.975Z</time></trkpt><trkpt lat="42.05399221915932" lon="13.13234067218833"><ele>1307.0</ele><time>2026-05-03T09:12:35.975Z</time></trkpt><trkpt lat="42.053995252649685" lon="13.132243658400977"><ele>1305.3999999999999</ele><time>2026-05-03T09:12:36.975Z</time></trkpt><trkpt lat="42.0539986097186" lon="13.132090985689477"><ele>1303.8</ele><time>2026-05-03T09:12:38.975Z</time></trkpt><trkpt lat="42.05399702996839" lon="13.131921223516997"><ele>1302.2</ele><time>2026-05-03T09:12:40.975Z</time></trkpt><trkpt lat="42.0540009994018" lon="13.131806353946923"><ele>1300.6</ele><time>2026-05-03T09:12:41.975Z</time></trkpt><trkpt lat="42.05397820296755" lon="13.13171949226433"><ele>1299.0</ele><time>2026-05-03T09:12:42.974Z</time></trkpt><trkpt lat="42.05397299710689" lon="13.131619586308046"><ele>1297.5</ele><time>2026-05-03T09:12:43.974Z</time></trkpt><trkpt lat="42.05393025600469" lon="13.131544665712086"><ele>1296.0</ele><time>2026-05-03T09:12:44.974Z</time></trkpt><trkpt lat="42.05387075993477" lon="13.131436183673399"><ele>1294.5</ele><time>2026-05-03T09:12:46.974Z</time></trkpt><trkpt lat="42.05386318886342" lon="13.131330623013223"><ele>1293.0</ele><time>2026-05-03T09:12:47.974Z</time></trkpt><trkpt lat="42.0538540983101" lon="13.131223312224666"><ele>1291.5</ele><time>2026-05-03T09:12:48.975Z</time></trkpt><trkpt lat="42.053868705054605" lon="13.131121016919376"><ele>1290.0</ele><time>2026-05-03T09:12:49.975Z</time></trkpt><trkpt lat="42.053893651842586" lon="13.131010560488493"><ele>1290.0</ele><time>2026-05-03T09:12:50.975Z</time></trkpt><trkpt lat="42.05390948035924" lon="13.130898540569646"><ele>1290.0</ele><time>2026-05-03T09:12:51.974Z</time></trkpt><trkpt lat="42.05390685496341" lon="13.13080469047106"><ele>1290.0</ele><time>2026-05-03T09:12:52.975Z</time></trkpt><trkpt lat="42.05389356214823" lon="13.130711884169093"><ele>1290.0</ele><time>2026-05-03T09:12:53.975Z</time></trkpt><trkpt lat="42.05388336709469" lon="13.130617387489357"><ele>1290.0</ele><time>2026-05-03T09:12:54.974Z</time></trkpt><trkpt lat="42.053862023123166" lon="13.13051810410813"><ele>1290.0</ele><time>2026-05-03T09:12:55.975Z</time></trkpt><trkpt lat="42.05384474716754" lon="13.130416798031334"><ele>1290.0</ele><time>2026-05-03T09:12:56.975Z</time></trkpt><trkpt lat="42.05381760974083" lon="13.130329601741131"><ele>1286.6666666666667</ele><time>2026-05-03T09:12:57.975Z</time></trkpt><trkpt lat="42.0537891164776" lon="13.130226601040748"><ele>1283.3333333333333</ele><time>2026-05-03T09:12:58.975Z</time></trkpt><trkpt lat="42.05376211962783" lon="13.130135229374769"><ele>1280.0</ele><time>2026-05-03T09:12:59.975Z</time></trkpt><trkpt lat="42.053727899797586" lon="13.12995641423457"><ele>1276.6666666666665</ele><time>2026-05-03T09:13:01.975Z</time></trkpt><trkpt lat="42.053692375523376" lon="13.129869154610592"><ele>1273.3333333333333</ele><time>2026-05-03T09:13:02.975Z</time></trkpt><trkpt lat="42.05364694168667" lon="13.12978871163435"><ele>1270.0</ele><time>2026-05-03T09:13:03.975Z</time></trkpt><trkpt lat="42.05358577177304" lon="13.129700970189486"><ele>1265.3333333333333</ele><time>2026-05-03T09:13:04.975Z</time></trkpt><trkpt lat="42.05353634617104" lon="13.129629532108437"><ele>1260.6666666666665</ele><time>2026-05-03T09:13:05.975Z</time></trkpt><trkpt lat="42.053478986994946" lon="13.129553099656432"><ele>1256.0</ele><time>2026-05-03T09:13:06.975Z</time></trkpt><trkpt lat="42.053418520558445" lon="13.129489157730925"><ele>1251.3333333333333</ele><time>2026-05-03T09:13:07.975Z</time></trkpt><trkpt lat="42.05334549204944" lon="13.129431841049524"><ele>1246.6666666666667</ele><time>2026-05-03T09:13:08.975Z</time></trkpt><trkpt lat="42.053275079845804" lon="13.129415002458169"><ele>1242.0</ele><time>2026-05-03T09:13:09.975Z</time></trkpt><trkpt lat="42.053193873488205" lon="13.129407417385288"><ele>1241.6666666666667</ele><time>2026-05-03T09:13:10.975Z</time></trkpt><trkpt lat="42.05311408071499" lon="13.129402043938574"><ele>1241.3333333333333</ele><time>2026-05-03T09:13:11.975Z</time></trkpt><trkpt lat="42.053038580932636" lon="13.129387329481586"><ele>1241.0</ele><time>2026-05-03T09:13:12.975Z</time></trkpt><trkpt lat="42.05296177191434" lon="13.12934815027249"><ele>1240.6666666666665</ele><time>2026-05-03T09:13:13.975Z</time></trkpt><trkpt lat="42.05288675792769" lon="13.129301345130026"><ele>1240.3333333333333</ele><time>2026-05-03T09:13:14.975Z</time></trkpt><trkpt lat="42.052810923283594" lon="13.129235686410501"><ele>1240.0</ele><time>2026-05-03T09:13:15.975Z</time></trkpt><trkpt lat="42.05274489842346" lon="13.129155918880782"><ele>1240.0</ele><time>2026-05-03T09:13:16.975Z</time></trkpt><trkpt lat="42.052685669673" lon="13.129066077027803"><ele>1240.0</ele><time>2026-05-03T09:13:17.975Z</time></trkpt><trkpt lat="42.052644765126" lon="13.128966051860974"><ele>1240.0</ele><time>2026-05-03T09:13:18.975Z</time></trkpt><trkpt lat="42.052622869208975" lon="13.128861441175498"><ele>1240.0</ele><time>2026-05-03T09:13:19.975Z</time></trkpt><trkpt lat="42.052611918444256" lon="13.128760803814895"><ele>1240.0</ele><time>2026-05-03T09:13:20.975Z</time></trkpt><trkpt lat="42.05258473185279" lon="13.128662878946665"><ele>1240.0</ele><time>2026-05-03T09:13:21.975Z</time></trkpt><trkpt lat="42.05257814606743" lon="13.128501498644766"><ele>1239.6666666666665</ele><time>2026-05-03T09:13:23.975Z</time></trkpt><trkpt lat="42.05250603373959" lon="13.1284362704462"><ele>1239.3333333333333</ele><time>2026-05-03T09:13:25.975Z</time></trkpt><trkpt lat="42.052407949277516" lon="13.128481689561227"><ele>1239.0</ele><time>2026-05-03T09:13:27.975Z</time></trkpt><trkpt lat="42.05236667529982" lon="13.128560882948744"><ele>1238.6666666666667</ele><time>2026-05-03T09:13:28.975Z</time></trkpt><trkpt lat="42.05232832759031" lon="13.128647482459506"><ele>1238.3333333333335</ele><time>2026-05-03T09:13:29.975Z</time></trkpt><trkpt lat="42.05230271883316" lon="13.128734873563662"><ele>1238.0</ele><time>2026-05-03T09:13:30.975Z</time></trkpt><trkpt lat="42.05227738065061" lon="13.128842066729579"><ele>1233.3333333333335</ele><time>2026-05-03T09:13:31.975Z</time></trkpt><trkpt lat="42.05225691642873" lon="13.12894260958594"><ele>1228.6666666666667</ele><time>2026-05-03T09:13:32.975Z</time></trkpt><trkpt lat="42.05223557817434" lon="13.129050296130242"><ele>1224.0</ele><time>2026-05-03T09:13:33.975Z</time></trkpt><trkpt lat="42.052224532901874" lon="13.129163128817156"><ele>1219.3333333333333</ele><time>2026-05-03T09:13:34.975Z</time></trkpt><trkpt lat="42.052225024707504" lon="13.129270315032734"><ele>1214.6666666666665</ele><time>2026-05-03T09:13:35.975Z</time></trkpt><trkpt lat="42.052225648429925" lon="13.129366452824549"><ele>1210.0</ele><time>2026-05-03T09:13:36.975Z</time></trkpt><trkpt lat="42.052224662320754" lon="13.129455027496636"><ele>1210.0</ele><time>2026-05-03T09:13:37.975Z</time></trkpt><trkpt lat="42.05221095698542" lon="13.129557318614998"><ele>1210.0</ele><time>2026-05-03T09:13:38.975Z</time></trkpt><trkpt lat="42.052172264393135" lon="13.129654481685478"><ele>1210.0</ele><time>2026-05-03T09:13:39.975Z</time></trkpt><trkpt lat="42.05213260538369" lon="13.12974888827403"><ele>1210.0</ele><time>2026-05-03T09:13:40.975Z</time></trkpt><trkpt lat="42.05209054048" lon="13.129833635650407"><ele>1210.0</ele><time>2026-05-03T09:13:41.975Z</time></trkpt><trkpt lat="42.05204124231857" lon="13.129917835248786"><ele>1210.0</ele><time>2026-05-03T09:13:42.975Z</time></trkpt><trkpt lat="42.05198899228705" lon="13.129997703582918"><ele>1208.3333333333333</ele><time>2026-05-03T09:13:43.975Z</time></trkpt><trkpt lat="42.05192360140852" lon="13.130078639246557"><ele>1206.6666666666665</ele><time>2026-05-03T09:13:44.975Z</time></trkpt><trkpt lat="42.051873771623306" lon="13.130162624972733"><ele>1205.0</ele><time>2026-05-03T09:13:45.975Z</time></trkpt><trkpt lat="42.051820942456374" lon="13.130246860448533"><ele>1203.3333333333333</ele><time>2026-05-03T09:13:46.975Z</time></trkpt><trkpt lat="42.05175881671598" lon="13.130322112925262"><ele>1201.6666666666667</ele><time>2026-05-03T09:13:47.975Z</time></trkpt><trkpt lat="42.05168557909433" lon="13.13038616497671"><ele>1200.0</ele><time>2026-05-03T09:13:48.975Z</time></trkpt><trkpt lat="42.05161831655088" lon="13.130444669206343"><ele>1200.0</ele><time>2026-05-03T09:13:49.975Z</time></trkpt><trkpt lat="42.05154508216249" lon="13.130502962307887"><ele>1200.0</ele><time>2026-05-03T09:13:50.975Z</time></trkpt><trkpt lat="42.051483285660936" lon="13.130569406929812"><ele>1200.0</ele><time>2026-05-03T09:13:51.975Z</time></trkpt><trkpt lat="42.051418768523604" lon="13.130633113479556"><ele>1200.0</ele><time>2026-05-03T09:13:52.975Z</time></trkpt><trkpt lat="42.051346736627075" lon="13.130704994524201"><ele>1200.0</ele><time>2026-05-03T09:13:53.975Z</time></trkpt><trkpt lat="42.05128788639367" lon="13.130782238727456"><ele>1200.0</ele><time>2026-05-03T09:13:54.975Z</time></trkpt><trkpt lat="42.05122498036852" lon="13.130867431192646"><ele>1202.6666666666667</ele><time>2026-05-03T09:13:55.975Z</time></trkpt><trkpt lat="42.05116935763208" lon="13.130940179776303"><ele>1205.3333333333333</ele><time>2026-05-03T09:13:56.975Z</time></trkpt><trkpt lat="42.051088188354385" lon="13.131006379631447"><ele>1208.0</ele><time>2026-05-03T09:13:57.975Z</time></trkpt><trkpt lat="42.05101258479751" lon="13.13107717111653"><ele>1210.6666666666665</ele><time>2026-05-03T09:13:58.975Z</time></trkpt><trkpt lat="42.050933188455254" lon="13.13113104371286"><ele>1213.3333333333333</ele><time>2026-05-03T09:13:59.975Z</time></trkpt><trkpt lat="42.05087235111669" lon="13.131208584203172"><ele>1216.0</ele><time>2026-05-03T09:14:00.975Z</time></trkpt><trkpt lat="42.05080557423734" lon="13.131268183809192"><ele>1214.5</ele><time>2026-05-03T09:14:01.975Z</time></trkpt><trkpt lat="42.05074838045728" lon="13.131329602265652"><ele>1213.0</ele><time>2026-05-03T09:14:02.975Z</time></trkpt><trkpt lat="42.050703353991956" lon="13.1314238899491"><ele>1211.5</ele><time>2026-05-03T09:14:03.975Z</time></trkpt><trkpt lat="42.05064910879" lon="13.13152014824245"><ele>1210.0</ele><time>2026-05-03T09:14:04.975Z</time></trkpt><trkpt lat="42.05061418478286" lon="13.131609364336809"><ele>1208.5</ele><time>2026-05-03T09:14:05.975Z</time></trkpt><trkpt lat="42.050566566077464" lon="13.131705222662271"><ele>1207.0</ele><time>2026-05-03T09:14:06.975Z</time></trkpt><trkpt lat="42.0505066260228" lon="13.131782324677545"><ele>1207.0</ele><time>2026-05-03T09:14:07.975Z</time></trkpt><trkpt lat="42.05044584813179" lon="13.131843703361683"><ele>1207.0</ele><time>2026-05-03T09:14:08.975Z</time></trkpt><trkpt lat="42.050362815939714" lon="13.131903844225535"><ele>1207.0</ele><time>2026-05-03T09:14:09.975Z</time></trkpt><trkpt lat="42.05028242796824" lon="13.131946212935624"><ele>1207.0</ele><time>2026-05-03T09:14:10.975Z</time></trkpt><trkpt lat="42.050193720035416" lon="13.131976365319272"><ele>1207.0</ele><time>2026-05-03T09:14:11.975Z</time></trkpt><trkpt lat="42.05010045987446" lon="13.132003467618654"><ele>1207.0</ele><time>2026-05-03T09:14:12.975Z</time></trkpt><trkpt lat="42.05001262948397" lon="13.132031470415237"><ele>1204.5</ele><time>2026-05-03T09:14:13.975Z</time></trkpt><trkpt lat="42.04993631370543" lon="13.132056340924972"><ele>1202.0</ele><time>2026-05-03T09:14:14.975Z</time></trkpt><trkpt lat="42.04985609592548" lon="13.132089349019736"><ele>1199.5</ele><time>2026-05-03T09:14:15.975Z</time></trkpt><trkpt lat="42.04976267169883" lon="13.132102884220277"><ele>1197.0</ele><time>2026-05-03T09:14:16.975Z</time></trkpt><trkpt lat="42.049670452941804" lon="13.132122357152722"><ele>1194.5</ele><time>2026-05-03T09:14:17.975Z</time></trkpt><trkpt lat="42.04958859795603" lon="13.132136321568797"><ele>1192.0</ele><time>2026-05-03T09:14:18.975Z</time></trkpt><trkpt lat="42.04951107452178" lon="13.132156777075258"><ele>1192.0</ele><time>2026-05-03T09:14:19.975Z</time></trkpt><trkpt lat="42.049434012754396" lon="13.132170798083006"><ele>1192.0</ele><time>2026-05-03T09:14:20.975Z</time></trkpt><trkpt lat="42.0493617629633" lon="13.132196700931116"><ele>1192.0</ele><time>2026-05-03T09:14:21.975Z</time></trkpt><trkpt lat="42.049284626659684" lon="13.132219959747541"><ele>1192.0</ele><time>2026-05-03T09:14:22.975Z</time></trkpt><trkpt lat="42.0492006991367" lon="13.132244696887629"><ele>1192.0</ele><time>2026-05-03T09:14:23.975Z</time></trkpt><trkpt lat="42.04911913095114" lon="13.132275953796546"><ele>1192.0</ele><time>2026-05-03T09:14:24.975Z</time></trkpt><trkpt lat="42.04905411278219" lon="13.132334023200254"><ele>1192.8333333333333</ele><time>2026-05-03T09:14:25.975Z</time></trkpt><trkpt lat="42.04897710638781" lon="13.132375480134435"><ele>1193.6666666666665</ele><time>2026-05-03T09:14:26.975Z</time></trkpt><trkpt lat="42.048918958253815" lon="13.132429385542796"><ele>1194.5</ele><time>2026-05-03T09:14:27.975Z</time></trkpt><trkpt lat="42.04885611079934" lon="13.13249499326183"><ele>1195.3333333333333</ele><time>2026-05-03T09:14:28.975Z</time></trkpt><trkpt lat="42.04879097686077" lon="13.132562183992553"><ele>1196.1666666666667</ele><time>2026-05-03T09:14:29.975Z</time></trkpt><trkpt lat="42.04873849271096" lon="13.132619995430385"><ele>1197.0</ele><time>2026-05-03T09:14:30.975Z</time></trkpt><trkpt lat="42.0486722519034" lon="13.132689017631897"><ele>1197.0</ele><time>2026-05-03T09:14:31.975Z</time></trkpt><trkpt lat="42.04861760383367" lon="13.132756983810976"><ele>1197.0</ele><time>2026-05-03T09:14:32.975Z</time></trkpt><trkpt lat="42.04853532440475" lon="13.132814797070107"><ele>1197.0</ele><time>2026-05-03T09:14:33.975Z</time></trkpt><trkpt lat="42.04847813432327" lon="13.132902773319918"><ele>1197.0</ele><time>2026-05-03T09:14:34.975Z</time></trkpt><trkpt lat="42.0484131529412" lon="13.132978027244382"><ele>1197.0</ele><time>2026-05-03T09:14:35.975Z</time></trkpt><trkpt lat="42.048334845273864" lon="13.133057044662829"><ele>1197.0</ele><time>2026-05-03T09:14:36.975Z</time></trkpt><trkpt lat="42.048265608348146" lon="13.133131854939933"><ele>1196.3333333333333</ele><time>2026-05-03T09:14:37.975Z</time></trkpt><trkpt lat="42.04819576085108" lon="13.133208026354868"><ele>1195.6666666666667</ele><time>2026-05-03T09:14:38.975Z</time></trkpt><trkpt lat="42.04813769657169" lon="13.133280369517802"><ele>1195.0</ele><time>2026-05-03T09:14:39.975Z</time></trkpt><trkpt lat="42.04806470698027" lon="13.133353487028371"><ele>1194.3333333333335</ele><time>2026-05-03T09:14:40.975Z</time></trkpt><trkpt lat="42.04799050424754" lon="13.13340845648465"><ele>1193.6666666666667</ele><time>2026-05-03T09:14:41.975Z</time></trkpt><trkpt lat="42.04792220619124" lon="13.133446633011886"><ele>1193.0</ele><time>2026-05-03T09:14:42.975Z</time></trkpt><trkpt lat="42.0478464032848" lon="13.133496559170025"><ele>1193.0</ele><time>2026-05-03T09:14:43.975Z</time></trkpt><trkpt lat="42.047783291228626" lon="13.133540263216195"><ele>1193.0</ele><time>2026-05-03T09:14:44.975Z</time></trkpt><trkpt lat="42.0476988424931" lon="13.133594845722556"><ele>1193.0</ele><time>2026-05-03T09:14:45.975Z</time></trkpt><trkpt lat="42.047629581394425" lon="13.133646253267816"><ele>1193.0</ele><time>2026-05-03T09:14:46.975Z</time></trkpt><trkpt lat="42.04753791032006" lon="13.133701576865631"><ele>1193.0</ele><time>2026-05-03T09:14:47.975Z</time></trkpt><trkpt lat="42.047469736110926" lon="13.13377484086626"><ele>1193.0</ele><time>2026-05-03T09:14:48.974Z</time></trkpt><trkpt lat="42.04739788683747" lon="13.133857312650983"><ele>1189.5</ele><time>2026-05-03T09:14:49.973Z</time></trkpt><trkpt lat="42.04734497059666" lon="13.133949266457241"><ele>1186.0</ele><time>2026-05-03T09:14:50.973Z</time></trkpt><trkpt lat="42.047303724189725" lon="13.134044662570586"><ele>1182.5</ele><time>2026-05-03T09:14:51.974Z</time></trkpt><trkpt lat="42.04727697191044" lon="13.134155432760513"><ele>1179.0</ele><time>2026-05-03T09:14:52.973Z</time></trkpt><trkpt lat="42.047242087138784" lon="13.134256078622268"><ele>1175.5</ele><time>2026-05-03T09:14:53.973Z</time></trkpt><trkpt lat="42.04722755388656" lon="13.134340452333026"><ele>1172.0</ele><time>2026-05-03T09:14:54.973Z</time></trkpt><trkpt lat="42.04717490953671" lon="13.13441769463555"><ele>1171.9999999999998</ele><time>2026-05-03T09:14:55.974Z</time></trkpt><trkpt lat="42.04714331426599" lon="13.134531807327368"><ele>1172.0</ele><time>2026-05-03T09:14:56.974Z</time></trkpt><trkpt lat="42.047110841784246" lon="13.134623524729427"><ele>1172.0</ele><time>2026-05-03T09:14:57.974Z</time></trkpt><trkpt lat="42.04708851775705" lon="13.13471665272472"><ele>1172.0</ele><time>2026-05-03T09:14:58.973Z</time></trkpt><trkpt lat="42.04707253033884" lon="13.134817753245484"><ele>1172.0</ele><time>2026-05-03T09:14:59.973Z</time></trkpt><trkpt lat="42.04705113360484" lon="13.134904481195814"><ele>1171.9999999999998</ele><time>2026-05-03T09:15:00.973Z</time></trkpt><trkpt lat="42.047047352093294" lon="13.134993335164248"><ele>1172.0</ele><time>2026-05-03T09:15:01.973Z</time></trkpt><trkpt lat="42.04704736131675" lon="13.135095009998683"><ele>1172.8</ele><time>2026-05-03T09:15:02.973Z</time></trkpt><trkpt lat="42.04705879182449" lon="13.13518593519039"><ele>1173.6</ele><time>2026-05-03T09:15:03.973Z</time></trkpt><trkpt lat="42.0470611595064" lon="13.135298228309443"><ele>1174.3999999999999</ele><time>2026-05-03T09:15:04.973Z</time></trkpt><trkpt lat="42.04707397080728" lon="13.135381376491527"><ele>1175.2</ele><time>2026-05-03T09:15:05.973Z</time></trkpt><trkpt lat="42.04709325010812" lon="13.135521576966944"><ele>1176.0</ele><time>2026-05-03T09:15:07.973Z</time></trkpt><trkpt lat="42.04710869230076" lon="13.135709503871517"><ele>1175.6666666666667</ele><time>2026-05-03T09:15:09.973Z</time></trkpt><trkpt lat="42.047126360691735" lon="13.135792158058916"><ele>1175.3333333333333</ele><time>2026-05-03T09:15:10.973Z</time></trkpt><trkpt lat="42.04711467259615" lon="13.13591462408727"><ele>1175.0</ele><time>2026-05-03T09:15:11.973Z</time></trkpt><trkpt lat="42.04712676684285" lon="13.136014279618616"><ele>1174.6666666666665</ele><time>2026-05-03T09:15:12.973Z</time></trkpt><trkpt lat="42.04712858621729" lon="13.136126608227585"><ele>1174.3333333333333</ele><time>2026-05-03T09:15:13.973Z</time></trkpt><trkpt lat="42.04710640073561" lon="13.136296745209421"><ele>1174.0</ele><time>2026-05-03T09:15:15.973Z</time></trkpt><trkpt lat="42.047083425802626" lon="13.136399124000215"><ele>1174.0</ele><time>2026-05-03T09:15:16.973Z</time></trkpt><trkpt lat="42.04704894795922" lon="13.136504427947465"><ele>1174.0</ele><time>2026-05-03T09:15:17.973Z</time></trkpt><trkpt lat="42.04702422068286" lon="13.136606874440552"><ele>1174.0</ele><time>2026-05-03T09:15:18.973Z</time></trkpt><trkpt lat="42.046988446893586" lon="13.136718131838496"><ele>1174.0</ele><time>2026-05-03T09:15:19.973Z</time></trkpt><trkpt lat="42.04691545732323" lon="13.136838543925428"><ele>1174.0</ele><time>2026-05-03T09:15:20.973Z</time></trkpt><trkpt lat="42.046853259288554" lon="13.13696030402135"><ele>1174.0</ele><time>2026-05-03T09:15:21.973Z</time></trkpt><trkpt lat="42.04679347739284" lon="13.137051402967499"><ele>1174.0</ele><time>2026-05-03T09:15:22.973Z</time></trkpt><trkpt lat="42.04675595116049" lon="13.137152682086288"><ele>1174.0</ele><time>2026-05-03T09:15:23.973Z</time></trkpt><trkpt lat="42.04672863853328" lon="13.137261475420363"><ele>1174.0</ele><time>2026-05-03T09:15:24.973Z</time></trkpt><trkpt lat="42.046702157409044" lon="13.137360611862139"><ele>1174.0</ele><time>2026-05-03T09:15:25.973Z</time></trkpt><trkpt lat="42.0466735434343" lon="13.137524127360983"><ele>1174.8333333333333</ele><time>2026-05-03T09:15:27.973Z</time></trkpt><trkpt lat="42.04665317058167" lon="13.137610882800098"><ele>1175.6666666666665</ele><time>2026-05-03T09:15:28.973Z</time></trkpt><trkpt lat="42.046612113112744" lon="13.137696298142677"><ele>1176.5</ele><time>2026-05-03T09:15:30.973Z</time></trkpt><trkpt lat="42.04657588409813" lon="13.13778360582087"><ele>1177.3333333333333</ele><time>2026-05-03T09:15:37.973Z</time></trkpt><trkpt lat="42.04658014713187" lon="13.137912764458104"><ele>1178.1666666666667</ele><time>2026-05-03T09:16:59.973Z</time></trkpt><trkpt lat="42.046617803015266" lon="13.13801906524451"><ele>1179.0</ele><time>2026-05-03T09:17:02.973Z</time></trkpt><trkpt lat="42.04664792873319" lon="13.138098228996727"><ele>1179.0</ele><time>2026-05-03T09:17:04.973Z</time></trkpt><trkpt lat="42.0467256621576" lon="13.138203220207549"><ele>1179.0</ele><time>2026-05-03T09:17:07.973Z</time></trkpt><trkpt lat="42.04672354326071" lon="13.138315335043487"><ele>1179.0</ele><time>2026-05-03T09:17:09.973Z</time></trkpt><trkpt lat="42.046713618664526" lon="13.138404628532212"><ele>1179.0</ele><time>2026-05-03T09:17:10.973Z</time></trkpt><trkpt lat="42.04668218494598" lon="13.138478506908827"><ele>1179.0</ele><time>2026-05-03T09:17:11.973Z</time></trkpt><trkpt lat="42.04662787818582" lon="13.138543267870952"><ele>1179.0</ele><time>2026-05-03T09:17:12.973Z</time></trkpt><trkpt lat="42.04656428480362" lon="13.138610831717978"><ele>1177.1666666666667</ele><time>2026-05-03T09:17:13.973Z</time></trkpt><trkpt lat="42.04651533251973" lon="13.138677993936668"><ele>1175.3333333333333</ele><time>2026-05-03T09:17:14.973Z</time></trkpt><trkpt lat="42.046471050203486" lon="13.138772905212907"><ele>1173.5</ele><time>2026-05-03T09:17:15.973Z</time></trkpt><trkpt lat="42.046448681038115" lon="13.138890684686709"><ele>1171.6666666666665</ele><time>2026-05-03T09:17:16.973Z</time></trkpt><trkpt lat="42.04644324135216" lon="13.138996217915503"><ele>1169.8333333333333</ele><time>2026-05-03T09:17:17.973Z</time></trkpt><trkpt lat="42.046436756783216" lon="13.139097056694649"><ele>1168.0</ele><time>2026-05-03T09:17:18.973Z</time></trkpt><trkpt lat="42.04643615554881" lon="13.139198261357414"><ele>1168.0</ele><time>2026-05-03T09:17:19.973Z</time></trkpt><trkpt lat="42.04644114716839" lon="13.139303182406396"><ele>1168.0</ele><time>2026-05-03T09:17:20.973Z</time></trkpt><trkpt lat="42.04642763762126" lon="13.139421987690987"><ele>1168.0</ele><time>2026-05-03T09:17:21.973Z</time></trkpt><trkpt lat="42.04643127664773" lon="13.139548065396045"><ele>1168.0</ele><time>2026-05-03T09:17:22.973Z</time></trkpt><trkpt lat="42.0464273543045" lon="13.139647522822996"><ele>1168.0</ele><time>2026-05-03T09:17:23.973Z</time></trkpt><trkpt lat="42.04641762840972" lon="13.139734675580035"><ele>1168.0</ele><time>2026-05-03T09:17:24.973Z</time></trkpt><trkpt lat="42.046379730609395" lon="13.139848604255445"><ele>1170.8</ele><time>2026-05-03T09:17:25.973Z</time></trkpt><trkpt lat="42.046332830809064" lon="13.139943529339039"><ele>1173.6</ele><time>2026-05-03T09:17:26.973Z</time></trkpt><trkpt lat="42.046281215358796" lon="13.140053631952732"><ele>1176.4</ele><time>2026-05-03T09:17:27.973Z</time></trkpt><trkpt lat="42.04622342492984" lon="13.140173203662743"><ele>1179.2</ele><time>2026-05-03T09:17:28.973Z</time></trkpt><trkpt lat="42.04616831481435" lon="13.140290149001448"><ele>1182.0</ele><time>2026-05-03T09:17:29.973Z</time></trkpt><trkpt lat="42.04612755257902" lon="13.140401860600104"><ele>1182.0</ele><time>2026-05-03T09:17:30.973Z</time></trkpt><trkpt lat="42.04609264137441" lon="13.140517331410704"><ele>1182.0</ele><time>2026-05-03T09:17:31.973Z</time></trkpt><trkpt lat="42.04605688456688" lon="13.140616822221467"><ele>1182.0</ele><time>2026-05-03T09:17:32.973Z</time></trkpt><trkpt lat="42.04602332450443" lon="13.140708757775542"><ele>1182.0</ele><time>2026-05-03T09:17:33.973Z</time></trkpt><trkpt lat="42.045994024272005" lon="13.140873009161107"><ele>1182.0</ele><time>2026-05-03T09:17:35.973Z</time></trkpt><trkpt lat="42.0459280559167" lon="13.140943607649401"><ele>1180.0</ele><time>2026-05-03T09:17:36.973Z</time></trkpt><trkpt lat="42.04584586472427" lon="13.140996244447862"><ele>1178.0</ele><time>2026-05-03T09:17:37.973Z</time></trkpt><trkpt lat="42.04577022107686" lon="13.141043522276991"><ele>1176.0</ele><time>2026-05-03T09:17:38.973Z</time></trkpt><trkpt lat="42.045694197464414" lon="13.141131746979239"><ele>1174.0</ele><time>2026-05-03T09:17:40.973Z</time></trkpt><trkpt lat="42.04566866251561" lon="13.141253587267384"><ele>1172.0</ele><time>2026-05-03T09:17:42.973Z</time></trkpt><trkpt lat="42.04563725688427" lon="13.141409533617765"><ele>1172.0</ele><time>2026-05-03T09:17:44.973Z</time></trkpt><trkpt lat="42.04563013066788" lon="13.141500774834926"><ele>1172.0</ele><time>2026-05-03T09:17:45.973Z</time></trkpt><trkpt lat="42.04560360216798" lon="13.14162025065679"><ele>1172.0</ele><time>2026-05-03T09:17:46.973Z</time></trkpt><trkpt lat="42.045588874834735" lon="13.141731530507977"><ele>1172.0</ele><time>2026-05-03T09:17:47.973Z</time></trkpt><trkpt lat="42.045581707648154" lon="13.14185032017473"><ele>1172.0</ele><time>2026-05-03T09:17:48.973Z</time></trkpt><trkpt lat="42.04556502181257" lon="13.14198188737031"><ele>1172.0</ele><time>2026-05-03T09:17:49.973Z</time></trkpt><trkpt lat="42.04554469501261" lon="13.14210871651089"><ele>1173.5</ele><time>2026-05-03T09:17:50.973Z</time></trkpt><trkpt lat="42.045534521760594" lon="13.14224168009103"><ele>1175.0</ele><time>2026-05-03T09:17:51.973Z</time></trkpt><trkpt lat="42.04550920904252" lon="13.142360386193602"><ele>1176.5</ele><time>2026-05-03T09:17:52.973Z</time></trkpt><trkpt lat="42.045466798829445" lon="13.1424562358386"><ele>1178.0</ele><time>2026-05-03T09:17:53.973Z</time></trkpt><trkpt lat="42.045414156893756" lon="13.142553100949684"><ele>1179.5</ele><time>2026-05-03T09:17:54.973Z</time></trkpt><trkpt lat="42.04538225688802" lon="13.142656278128719"><ele>1181.0</ele><time>2026-05-03T09:17:55.973Z</time></trkpt><trkpt lat="42.04532903248202" lon="13.142780472433909"><ele>1183.0</ele><time>2026-05-03T09:17:56.973Z</time></trkpt><trkpt lat="42.04527745904965" lon="13.14288801292227"><ele>1185.0</ele><time>2026-05-03T09:17:57.973Z</time></trkpt><trkpt lat="42.045225834004704" lon="13.142991225304083"><ele>1187.0</ele><time>2026-05-03T09:17:58.973Z</time></trkpt><trkpt lat="42.04517798322286" lon="13.143086324456572"><ele>1189.0</ele><time>2026-05-03T09:17:59.973Z</time></trkpt><trkpt lat="42.04513206057026" lon="13.143189468193047"><ele>1191.0</ele><time>2026-05-03T09:18:00.973Z</time></trkpt><trkpt lat="42.04509339468867" lon="13.143289206175563"><ele>1193.0</ele><time>2026-05-03T09:18:01.973Z</time></trkpt><trkpt lat="42.04505565823956" lon="13.14339365511014"><ele>1192.0</ele><time>2026-05-03T09:18:02.973Z</time></trkpt><trkpt lat="42.04500398941774" lon="13.143501929757191"><ele>1191.0</ele><time>2026-05-03T09:18:03.973Z</time></trkpt><trkpt lat="42.04496065013253" lon="13.143590279234724"><ele>1190.0</ele><time>2026-05-03T09:18:04.973Z</time></trkpt><trkpt lat="42.04489616886673" lon="13.14368563487179"><ele>1189.0</ele><time>2026-05-03T09:18:05.973Z</time></trkpt><trkpt lat="42.044837081999184" lon="13.143793210477071"><ele>1188.0</ele><time>2026-05-03T09:18:06.973Z</time></trkpt><trkpt lat="42.04479154293437" lon="13.143880379323083"><ele>1187.0</ele><time>2026-05-03T09:18:07.973Z</time></trkpt><trkpt lat="42.04471687187494" lon="13.143971525152907"><ele>1189.8333333333335</ele><time>2026-05-03T09:18:08.973Z</time></trkpt><trkpt lat="42.044655603613954" lon="13.144046876089307"><ele>1192.6666666666667</ele><time>2026-05-03T09:18:09.973Z</time></trkpt><trkpt lat="42.044611568877315" lon="13.14414457459949"><ele>1195.5</ele><time>2026-05-03T09:18:10.973Z</time></trkpt><trkpt lat="42.044580642771756" lon="13.144240632228156"><ele>1198.3333333333333</ele><time>2026-05-03T09:18:11.973Z</time></trkpt><trkpt lat="42.044554046732664" lon="13.144340312315409"><ele>1201.1666666666665</ele><time>2026-05-03T09:18:12.973Z</time></trkpt><trkpt lat="42.044515063261166" lon="13.144454552252302"><ele>1204.0</ele><time>2026-05-03T09:18:13.973Z</time></trkpt><trkpt lat="42.04447401342433" lon="13.144532513892615"><ele>1204.0</ele><time>2026-05-03T09:18:14.973Z</time></trkpt><trkpt lat="42.04441513184273" lon="13.144629771443212"><ele>1204.0</ele><time>2026-05-03T09:18:15.973Z</time></trkpt><trkpt lat="42.04433023786534" lon="13.144750517852561"><ele>1204.0</ele><time>2026-05-03T09:18:16.973Z</time></trkpt><trkpt lat="42.04428046146639" lon="13.144827312289692"><ele>1204.0</ele><time>2026-05-03T09:18:17.973Z</time></trkpt><trkpt lat="42.04422296309112" lon="13.144894875584693"><ele>1204.0</ele><time>2026-05-03T09:18:18.973Z</time></trkpt><trkpt lat="42.04412720315163" lon="13.144946169339429"><ele>1204.2</ele><time>2026-05-03T09:18:19.973Z</time></trkpt><trkpt lat="42.04403238256477" lon="13.145001328332459"><ele>1204.4</ele><time>2026-05-03T09:18:20.973Z</time></trkpt><trkpt lat="42.04395169658994" lon="13.145078993960052"><ele>1204.6</ele><time>2026-05-03T09:18:21.973Z</time></trkpt><trkpt lat="42.043881298845655" lon="13.145168426729866"><ele>1204.8</ele><time>2026-05-03T09:18:22.973Z</time></trkpt><trkpt lat="42.04382849285861" lon="13.145281975717774"><ele>1205.0</ele><time>2026-05-03T09:18:23.973Z</time></trkpt><trkpt lat="42.043786900081486" lon="13.14539167778282"><ele>1205.0</ele><time>2026-05-03T09:18:24.973Z</time></trkpt><trkpt lat="42.04373216607356" lon="13.145487974117746"><ele>1205.0</ele><time>2026-05-03T09:18:25.973Z</time></trkpt><trkpt lat="42.04367847511239" lon="13.14557463365472"><ele>1205.0</ele><time>2026-05-03T09:18:26.973Z</time></trkpt><trkpt lat="42.04361840306471" lon="13.145634248946696"><ele>1205.0</ele><time>2026-05-03T09:18:27.973Z</time></trkpt><trkpt lat="42.04354102913678" lon="13.145684487759153"><ele>1205.0</ele><time>2026-05-03T09:18:28.973Z</time></trkpt><trkpt lat="42.043470362383864" lon="13.145754523658344"><ele>1205.0</ele><time>2026-05-03T09:18:29.973Z</time></trkpt><trkpt lat="42.04340859797417" lon="13.145804900319574"><ele>1207.2</ele><time>2026-05-03T09:18:30.973Z</time></trkpt><trkpt lat="42.043360306188774" lon="13.14592877166258"><ele>1209.4</ele><time>2026-05-03T09:18:31.973Z</time></trkpt><trkpt lat="42.0433251054834" lon="13.146059063431405"><ele>1211.6</ele><time>2026-05-03T09:18:32.973Z</time></trkpt><trkpt lat="42.04327413668073" lon="13.146190897566257"><ele>1213.8</ele><time>2026-05-03T09:18:33.973Z</time></trkpt><trkpt lat="42.04323621590965" lon="13.146287004486425"><ele>1216.0</ele><time>2026-05-03T09:18:34.973Z</time></trkpt><trkpt lat="42.04316822671241" lon="13.146404086139945"><ele>1214.0</ele><time>2026-05-03T09:18:35.973Z</time></trkpt><trkpt lat="42.043111200629916" lon="13.146521835954994"><ele>1212.0</ele><time>2026-05-03T09:18:36.973Z</time></trkpt><trkpt lat="42.0430741579157" lon="13.146664501152323"><ele>1210.0</ele><time>2026-05-03T09:18:37.973Z</time></trkpt><trkpt lat="42.04302452743722" lon="13.146755654066638"><ele>1208.0</ele><time>2026-05-03T09:18:38.973Z</time></trkpt><trkpt lat="42.04296329043958" lon="13.14685629989969"><ele>1206.0</ele><time>2026-05-03T09:18:39.973Z</time></trkpt><trkpt lat="42.04290389614728" lon="13.146972512643053"><ele>1206.0</ele><time>2026-05-03T09:18:40.973Z</time></trkpt><trkpt lat="42.042811757053315" lon="13.1470710520981"><ele>1206.0</ele><time>2026-05-03T09:18:41.973Z</time></trkpt><trkpt lat="42.04273678080359" lon="13.14717127842317"><ele>1206.0</ele><time>2026-05-03T09:18:42.973Z</time></trkpt><trkpt lat="42.04264214156695" lon="13.147256191394282"><ele>1206.0</ele><time>2026-05-03T09:18:43.973Z</time></trkpt><trkpt lat="42.04256765825631" lon="13.147350297237562"><ele>1206.0</ele><time>2026-05-03T09:18:44.973Z</time></trkpt><trkpt lat="42.042492187303736" lon="13.147430708800696"><ele>1204.8</ele><time>2026-05-03T09:18:45.973Z</time></trkpt><trkpt lat="42.04243001915677" lon="13.14750663781329"><ele>1203.6</ele><time>2026-05-03T09:18:46.973Z</time></trkpt><trkpt lat="42.04235517758651" lon="13.14758571044419"><ele>1202.4</ele><time>2026-05-03T09:18:47.973Z</time></trkpt><trkpt lat="42.042251487688304" lon="13.147638543910402"><ele>1201.2</ele><time>2026-05-03T09:18:48.973Z</time></trkpt><trkpt lat="42.04216931629313" lon="13.147687976971088"><ele>1200.0</ele><time>2026-05-03T09:18:49.973Z</time></trkpt><trkpt lat="42.042079403879235" lon="13.147741178450763"><ele>1200.0</ele><time>2026-05-03T09:18:50.973Z</time></trkpt><trkpt lat="42.04201939594546" lon="13.147811565027933"><ele>1200.0</ele><time>2026-05-03T09:18:51.973Z</time></trkpt><trkpt lat="42.041959269009446" lon="13.147903367501804"><ele>1200.0</ele><time>2026-05-03T09:18:52.973Z</time></trkpt><trkpt lat="42.04189661817711" lon="13.148018913908738"><ele>1200.0</ele><time>2026-05-03T09:18:53.973Z</time></trkpt><trkpt lat="42.04182564929278" lon="13.148135364471617"><ele>1200.0</ele><time>2026-05-03T09:18:54.973Z</time></trkpt><trkpt lat="42.041735975177886" lon="13.148243195413592"><ele>1198.8</ele><time>2026-05-03T09:18:55.973Z</time></trkpt><trkpt lat="42.04165753239231" lon="13.148338831313911"><ele>1197.6</ele><time>2026-05-03T09:18:56.973Z</time></trkpt><trkpt lat="42.04158229499244" lon="13.148426671878937"><ele>1196.4</ele><time>2026-05-03T09:18:57.973Z</time></trkpt><trkpt lat="42.041506180537084" lon="13.148528696370803"><ele>1195.2</ele><time>2026-05-03T09:18:58.973Z</time></trkpt><trkpt lat="42.041445886816476" lon="13.14864111223839"><ele>1194.0</ele><time>2026-05-03T09:18:59.972Z</time></trkpt><trkpt lat="42.04136077478766" lon="13.14873993452094"><ele>1194.0</ele><time>2026-05-03T09:19:00.971Z</time></trkpt><trkpt lat="42.041272151200594" lon="13.148842238070829"><ele>1194.0</ele><time>2026-05-03T09:19:01.971Z</time></trkpt><trkpt lat="42.04119654926337" lon="13.148968501206737"><ele>1194.0</ele><time>2026-05-03T09:19:02.972Z</time></trkpt><trkpt lat="42.041133143936236" lon="13.149091397986453"><ele>1194.0</ele><time>2026-05-03T09:19:03.972Z</time></trkpt><trkpt lat="42.04106773435207" lon="13.149211767694688"><ele>1197.0</ele><time>2026-05-03T09:19:04.972Z</time></trkpt><trkpt lat="42.041022627646996" lon="13.149329105888299"><ele>1200.0</ele><time>2026-05-03T09:19:05.972Z</time></trkpt><trkpt lat="42.04099778884133" lon="13.14943302858803"><ele>1203.0</ele><time>2026-05-03T09:19:06.972Z</time></trkpt><trkpt lat="42.04100482732687" lon="13.149540285746227"><ele>1206.0</ele><time>2026-05-03T09:19:07.972Z</time></trkpt><trkpt lat="42.04100871000375" lon="13.149639002249895"><ele>1209.0</ele><time>2026-05-03T09:19:08.972Z</time></trkpt><trkpt lat="42.04101765028998" lon="13.149731793636873"><ele>1212.0</ele><time>2026-05-03T09:19:09.972Z</time></trkpt><trkpt lat="42.040990126693984" lon="13.14988965248054"><ele>1210.2</ele><time>2026-05-03T09:19:11.972Z</time></trkpt><trkpt lat="42.04091020667102" lon="13.149995513082292"><ele>1208.4</ele><time>2026-05-03T09:19:13.972Z</time></trkpt><trkpt lat="42.04083352632998" lon="13.150103104494692"><ele>1206.6</ele><time>2026-05-03T09:19:14.972Z</time></trkpt><trkpt lat="42.04076449595923" lon="13.150198361828654"><ele>1204.8</ele><time>2026-05-03T09:19:15.972Z</time></trkpt><trkpt lat="42.04070097457322" lon="13.1502925015348"><ele>1203.0</ele><time>2026-05-03T09:19:16.972Z</time></trkpt><trkpt lat="42.04064255911559" lon="13.150390379388845"><ele>1203.0</ele><time>2026-05-03T09:19:17.972Z</time></trkpt><trkpt lat="42.04058604444687" lon="13.150479540712123"><ele>1203.0</ele><time>2026-05-03T09:19:18.972Z</time></trkpt><trkpt lat="42.04053479433407" lon="13.150563116673133"><ele>1203.0</ele><time>2026-05-03T09:19:19.972Z</time></trkpt><trkpt lat="42.04047061368281" lon="13.150670987882874"><ele>1203.0</ele><time>2026-05-03T09:19:20.972Z</time></trkpt><trkpt lat="42.04038245046608" lon="13.150756787775794"><ele>1203.0</ele><time>2026-05-03T09:19:21.972Z</time></trkpt><trkpt lat="42.04032035927864" lon="13.150877931664871"><ele>1201.6</ele><time>2026-05-03T09:19:22.972Z</time></trkpt><trkpt lat="42.040242682321036" lon="13.150986191427531"><ele>1200.1999999999998</ele><time>2026-05-03T09:19:23.972Z</time></trkpt><trkpt lat="42.04015313622947" lon="13.151078817435346"><ele>1198.8</ele><time>2026-05-03T09:19:24.972Z</time></trkpt><trkpt lat="42.04009148218029" lon="13.151177375135148"><ele>1197.3999999999999</ele><time>2026-05-03T09:19:25.972Z</time></trkpt><trkpt lat="42.04001571874879" lon="13.15127412932814"><ele>1196.0</ele><time>2026-05-03T09:19:26.972Z</time></trkpt><trkpt lat="42.03994536626735" lon="13.151386964002967"><ele>1196.0</ele><time>2026-05-03T09:19:27.972Z</time></trkpt><trkpt lat="42.039892394595284" lon="13.151463569094714"><ele>1196.0</ele><time>2026-05-03T09:19:28.972Z</time></trkpt><trkpt lat="42.039823916719506" lon="13.15151844178938"><ele>1196.0</ele><time>2026-05-03T09:19:29.972Z</time></trkpt><trkpt lat="42.03972469635791" lon="13.151563908533594"><ele>1196.0</ele><time>2026-05-03T09:19:30.972Z</time></trkpt><trkpt lat="42.03963760722698" lon="13.151581233040822"><ele>1196.0</ele><time>2026-05-03T09:19:31.972Z</time></trkpt><trkpt lat="42.03955138772309" lon="13.151605736846092"><ele>1196.0</ele><time>2026-05-03T09:19:32.972Z</time></trkpt><trkpt lat="42.03945926909123" lon="13.151652399111937"><ele>1199.0</ele><time>2026-05-03T09:19:33.972Z</time></trkpt><trkpt lat="42.03939347056199" lon="13.151723337718375"><ele>1202.0</ele><time>2026-05-03T09:19:34.972Z</time></trkpt><trkpt lat="42.03931795443984" lon="13.151808671338866"><ele>1205.0</ele><time>2026-05-03T09:19:35.972Z</time></trkpt><trkpt lat="42.03924878638966" lon="13.151906997773656"><ele>1208.0</ele><time>2026-05-03T09:19:36.972Z</time></trkpt><trkpt lat="42.039173100141795" lon="13.151992337860236"><ele>1211.0</ele><time>2026-05-03T09:19:37.972Z</time></trkpt><trkpt lat="42.03908652641863" lon="13.152070879574719"><ele>1211.0</ele><time>2026-05-03T09:19:38.972Z</time></trkpt><trkpt lat="42.039003867838055" lon="13.152149980788792"><ele>1211.0</ele><time>2026-05-03T09:19:39.972Z</time></trkpt><trkpt lat="42.038917720151886" lon="13.152217262953181"><ele>1211.0</ele><time>2026-05-03T09:19:40.972Z</time></trkpt><trkpt lat="42.03882968744459" lon="13.152283280097839"><ele>1211.0</ele><time>2026-05-03T09:19:41.972Z</time></trkpt><trkpt lat="42.038736021650365" lon="13.152349041265788"><ele>1211.0</ele><time>2026-05-03T09:19:42.972Z</time></trkpt><trkpt lat="42.03864442118233" lon="13.152420848315703"><ele>1214.0</ele><time>2026-05-03T09:19:43.972Z</time></trkpt><trkpt lat="42.03855560449865" lon="13.152487259131874"><ele>1217.0</ele><time>2026-05-03T09:19:44.972Z</time></trkpt><trkpt lat="42.03845990333676" lon="13.152545982881556"><ele>1220.0</ele><time>2026-05-03T09:19:45.972Z</time></trkpt><trkpt lat="42.038367059347" lon="13.152600233058534"><ele>1223.0</ele><time>2026-05-03T09:19:46.972Z</time></trkpt><trkpt lat="42.038266871923966" lon="13.152652849834956"><ele>1226.0</ele><time>2026-05-03T09:19:47.972Z</time></trkpt><trkpt lat="42.038171098859216" lon="13.152707891482367"><ele>1226.0</ele><time>2026-05-03T09:19:48.972Z</time></trkpt><trkpt lat="42.03807415103813" lon="13.15276482557107"><ele>1226.0</ele><time>2026-05-03T09:19:49.972Z</time></trkpt><trkpt lat="42.037978994584485" lon="13.152828906473669"><ele>1226.0</ele><time>2026-05-03T09:19:50.972Z</time></trkpt><trkpt lat="42.03787919930218" lon="13.152882161557821"><ele>1226.0</ele><time>2026-05-03T09:19:51.972Z</time></trkpt><trkpt lat="42.03778876482388" lon="13.152948027568305"><ele>1226.0</ele><time>2026-05-03T09:19:52.972Z</time></trkpt><trkpt lat="42.03769995479209" lon="13.152992412460435"><ele>1226.0</ele><time>2026-05-03T09:19:53.972Z</time></trkpt><trkpt lat="42.03761767927385" lon="13.15304588615228"><ele>1226.0</ele><time>2026-05-03T09:19:54.972Z</time></trkpt><trkpt lat="42.03754036400025" lon="13.153061013572552"><ele>1226.0</ele><time>2026-05-03T09:19:55.972Z</time></trkpt><trkpt lat="42.037471214545356" lon="13.153063910620864"><ele>1226.0</ele><time>2026-05-03T09:19:56.972Z</time></trkpt><trkpt lat="42.037399096297264" lon="13.15302742305491"><ele>1226.0</ele><time>2026-05-03T09:19:57.972Z</time></trkpt><trkpt lat="42.03730436095742" lon="13.15296598271301"><ele>1226.0</ele><time>2026-05-03T09:19:59.972Z</time></trkpt><trkpt lat="42.03727278936931" lon="13.152866764442168"><ele>1225.0</ele><time>2026-05-03T09:20:00.972Z</time></trkpt><trkpt lat="42.037241246107584" lon="13.152783888778126"><ele>1224.0</ele><time>2026-05-03T09:20:01.972Z</time></trkpt><trkpt lat="42.037149132574235" lon="13.152719618021424"><ele>1223.0</ele><time>2026-05-03T09:20:03.972Z</time></trkpt><trkpt lat="42.037037898340095" lon="13.152767955618218"><ele>1222.0</ele><time>2026-05-03T09:20:05.972Z</time></trkpt><trkpt lat="42.03691821060652" lon="13.152856599312237"><ele>1221.0</ele><time>2026-05-03T09:20:07.972Z</time></trkpt><trkpt lat="42.03684026263337" lon="13.152992566327173"><ele>1221.0</ele><time>2026-05-03T09:20:09.972Z</time></trkpt><trkpt lat="42.036829481907255" lon="13.15309642034853"><ele>1221.0</ele><time>2026-05-03T09:20:10.972Z</time></trkpt><trkpt lat="42.03682757145096" lon="13.153198515295784"><ele>1221.0</ele><time>2026-05-03T09:20:11.972Z</time></trkpt><trkpt lat="42.03682270430293" lon="13.153289823191498"><ele>1221.0</ele><time>2026-05-03T09:20:12.972Z</time></trkpt><trkpt lat="42.03681190404302" lon="13.1533872310514"><ele>1221.0</ele><time>2026-05-03T09:20:13.972Z</time></trkpt><trkpt lat="42.03674235096359" lon="13.153539474226893"><ele>1221.0</ele><time>2026-05-03T09:20:15.972Z</time></trkpt><trkpt lat="42.036704887609176" lon="13.153622051837297"><ele>1222.6666666666667</ele><time>2026-05-03T09:20:16.972Z</time></trkpt><trkpt lat="42.03666010279217" lon="13.153710140922781"><ele>1224.3333333333333</ele><time>2026-05-03T09:20:17.972Z</time></trkpt><trkpt lat="42.03661687683201" lon="13.15379130905462"><ele>1226.0</ele><time>2026-05-03T09:20:18.972Z</time></trkpt><trkpt lat="42.03658194457184" lon="13.153888422776475"><ele>1227.6666666666665</ele><time>2026-05-03T09:20:19.972Z</time></trkpt><trkpt lat="42.03654450460358" lon="13.153983340144693"><ele>1229.3333333333333</ele><time>2026-05-03T09:20:20.972Z</time></trkpt><trkpt lat="42.03650753500172" lon="13.154068065334101"><ele>1231.0</ele><time>2026-05-03T09:20:21.972Z</time></trkpt><trkpt lat="42.03640119324489" lon="13.154157847416883"><ele>1232.6666666666665</ele><time>2026-05-03T09:20:23.972Z</time></trkpt><trkpt lat="42.03633574651968" lon="13.15418344623586"><ele>1234.3333333333333</ele><time>2026-05-03T09:20:24.972Z</time></trkpt><trkpt lat="42.03625596571016" lon="13.154176739443415"><ele>1236.0</ele><time>2026-05-03T09:20:25.972Z</time></trkpt><trkpt lat="42.036173921021074" lon="13.15417706711529"><ele>1237.6666666666667</ele><time>2026-05-03T09:20:26.972Z</time></trkpt><trkpt lat="42.0361053782247" lon="13.154219785020576"><ele>1239.3333333333335</ele><time>2026-05-03T09:20:27.972Z</time></trkpt><trkpt lat="42.03603033632548" lon="13.154296203814615"><ele>1241.0</ele><time>2026-05-03T09:20:28.972Z</time></trkpt><trkpt lat="42.03595972276111" lon="13.154387918484957"><ele>1241.0</ele><time>2026-05-03T09:20:29.972Z</time></trkpt><trkpt lat="42.03587512286634" lon="13.154469140899202"><ele>1241.0</ele><time>2026-05-03T09:20:30.972Z</time></trkpt><trkpt lat="42.03578478543892" lon="13.154544260919588"><ele>1241.0</ele><time>2026-05-03T09:20:31.972Z</time></trkpt><trkpt lat="42.0357042689744" lon="13.15462085056944"><ele>1241.0</ele><time>2026-05-03T09:20:32.972Z</time></trkpt><trkpt lat="42.03561528970762" lon="13.15467185004508"><ele>1241.0</ele><time>2026-05-03T09:20:33.972Z</time></trkpt><trkpt lat="42.035529223622206" lon="13.154731780429405"><ele>1239.8</ele><time>2026-05-03T09:20:34.972Z</time></trkpt><trkpt lat="42.035449552060584" lon="13.154814628821883"><ele>1238.6</ele><time>2026-05-03T09:20:35.972Z</time></trkpt><trkpt lat="42.03537042489312" lon="13.154886083852034"><ele>1237.4</ele><time>2026-05-03T09:20:36.972Z</time></trkpt><trkpt lat="42.03530471129045" lon="13.154973400059838"><ele>1236.2</ele><time>2026-05-03T09:20:37.972Z</time></trkpt><trkpt lat="42.03525254343731" lon="13.155076600102722"><ele>1235.0</ele><time>2026-05-03T09:20:38.972Z</time></trkpt><trkpt lat="42.03522177047491" lon="13.155188659023109"><ele>1235.0</ele><time>2026-05-03T09:20:39.972Z</time></trkpt><trkpt lat="42.03519227540327" lon="13.155300395893905"><ele>1235.0</ele><time>2026-05-03T09:20:40.972Z</time></trkpt><trkpt lat="42.03515110389779" lon="13.155406368381739"><ele>1235.0</ele><time>2026-05-03T09:20:41.972Z</time></trkpt><trkpt lat="42.03512902529028" lon="13.155513252235222"><ele>1235.0</ele><time>2026-05-03T09:20:42.972Z</time></trkpt><trkpt lat="42.035127795911315" lon="13.155620148184294"><ele>1235.0</ele><time>2026-05-03T09:20:43.972Z</time></trkpt><trkpt lat="42.035132316328436" lon="13.155705877677903"><ele>1235.0</ele><time>2026-05-03T09:20:44.972Z</time></trkpt><trkpt lat="42.0350946199486" lon="13.155866414360679"><ele>1236.5</ele><time>2026-05-03T09:20:46.972Z</time></trkpt><trkpt lat="42.035041338689645" lon="13.155924279566692"><ele>1238.0</ele><time>2026-05-03T09:20:47.972Z</time></trkpt><trkpt lat="42.03498648936634" lon="13.155974735816143"><ele>1239.5</ele><time>2026-05-03T09:20:48.972Z</time></trkpt><trkpt lat="42.034918360617205" lon="13.156030141148339"><ele>1241.0</ele><time>2026-05-03T09:20:49.972Z</time></trkpt><trkpt lat="42.03487021066747" lon="13.1561270209005"><ele>1242.5</ele><time>2026-05-03T09:20:50.972Z</time></trkpt><trkpt lat="42.03482784490038" lon="13.156237466107088"><ele>1244.0</ele><time>2026-05-03T09:20:51.972Z</time></trkpt><trkpt lat="42.03478856521404" lon="13.15635547898638"><ele>1244.0</ele><time>2026-05-03T09:20:52.972Z</time></trkpt><trkpt lat="42.0347540857095" lon="13.156476442677041"><ele>1244.0</ele><time>2026-05-03T09:20:53.972Z</time></trkpt><trkpt lat="42.034734499912155" lon="13.156604479339787"><ele>1244.0</ele><time>2026-05-03T09:20:54.972Z</time></trkpt><trkpt lat="42.034709292999885" lon="13.156708786827043"><ele>1244.0</ele><time>2026-05-03T09:20:55.972Z</time></trkpt><trkpt lat="42.03466966237066" lon="13.156810272882726"><ele>1244.0</ele><time>2026-05-03T09:20:56.972Z</time></trkpt><trkpt lat="42.03461558120565" lon="13.15692202002932"><ele>1244.75</ele><time>2026-05-03T09:20:57.972Z</time></trkpt><trkpt lat="42.034546291520435" lon="13.157030773220617"><ele>1245.5</ele><time>2026-05-03T09:20:58.972Z</time></trkpt><trkpt lat="42.03445922517447" lon="13.157136177312585"><ele>1246.25</ele><time>2026-05-03T09:20:59.972Z</time></trkpt><trkpt lat="42.034388867741015" lon="13.157247309494092"><ele>1247.0</ele><time>2026-05-03T09:21:00.972Z</time></trkpt><trkpt lat="42.03430631403528" lon="13.157360195906932"><ele>1248.2</ele><time>2026-05-03T09:21:01.972Z</time></trkpt><trkpt lat="42.03423490762079" lon="13.157475167696036"><ele>1249.4</ele><time>2026-05-03T09:21:02.972Z</time></trkpt><trkpt lat="42.03415986563741" lon="13.157597456772598"><ele>1250.6</ele><time>2026-05-03T09:21:03.972Z</time></trkpt><trkpt lat="42.03408066567942" lon="13.157697166569385"><ele>1251.8</ele><time>2026-05-03T09:21:04.972Z</time></trkpt><trkpt lat="42.03400302645679" lon="13.157787886411782"><ele>1253.0</ele><time>2026-05-03T09:21:05.971Z</time></trkpt><trkpt lat="42.03394565420193" lon="13.15789741568689"><ele>1252.8</ele><time>2026-05-03T09:21:06.971Z</time></trkpt><trkpt lat="42.033894062085736" lon="13.158010635086063"><ele>1252.6</ele><time>2026-05-03T09:21:07.971Z</time></trkpt><trkpt lat="42.03385637401515" lon="13.158132410690435"><ele>1252.4</ele><time>2026-05-03T09:21:08.971Z</time></trkpt><trkpt lat="42.033833294825016" lon="13.158244036039859"><ele>1252.2</ele><time>2026-05-03T09:21:09.971Z</time></trkpt><trkpt lat="42.033832571036136" lon="13.158371552660977"><ele>1252.0</ele><time>2026-05-03T09:21:10.971Z</time></trkpt><trkpt lat="42.03383468188882" lon="13.15851505614735"><ele>1252.0</ele><time>2026-05-03T09:21:11.971Z</time></trkpt><trkpt lat="42.03382613559213" lon="13.158663939564706"><ele>1252.0</ele><time>2026-05-03T09:21:12.971Z</time></trkpt><trkpt lat="42.03381182732843" lon="13.158799365650646"><ele>1252.0</ele><time>2026-05-03T09:21:13.971Z</time></trkpt><trkpt lat="42.033766770505494" lon="13.158927419058768"><ele>1252.0</ele><time>2026-05-03T09:21:14.971Z</time></trkpt><trkpt lat="42.03372776340035" lon="13.159049386343332"><ele>1252.0</ele><time>2026-05-03T09:21:15.971Z</time></trkpt><trkpt lat="42.03367040317093" lon="13.159176108299768"><ele>1252.0</ele><time>2026-05-03T09:21:16.971Z</time></trkpt><trkpt lat="42.03360191863152" lon="13.159295824900433"><ele>1252.0</ele><time>2026-05-03T09:21:17.971Z</time></trkpt><trkpt lat="42.033536872594965" lon="13.159404643697295"><ele>1252.0</ele><time>2026-05-03T09:21:18.971Z</time></trkpt><trkpt lat="42.03347382823869" lon="13.159515230146294"><ele>1252.0</ele><time>2026-05-03T09:21:19.971Z</time></trkpt><trkpt lat="42.033415265673966" lon="13.159617590807459"><ele>1252.0</ele><time>2026-05-03T09:21:20.971Z</time></trkpt><trkpt lat="42.03334923628856" lon="13.159724935320023"><ele>1254.4</ele><time>2026-05-03T09:21:21.971Z</time></trkpt><trkpt lat="42.03327821567911" lon="13.159807068107172"><ele>1256.8000000000002</ele><time>2026-05-03T09:21:22.971Z</time></trkpt><trkpt lat="42.03318562014018" lon="13.159879694551224"><ele>1259.2</ele><time>2026-05-03T09:21:23.971Z</time></trkpt><trkpt lat="42.03308354657415" lon="13.15992447013252"><ele>1261.6000000000001</ele><time>2026-05-03T09:21:24.971Z</time></trkpt><trkpt lat="42.0329744018363" lon="13.159952785226093"><ele>1264.0</ele><time>2026-05-03T09:21:25.971Z</time></trkpt><trkpt lat="42.03286689074689" lon="13.159982593857698"><ele>1264.0</ele><time>2026-05-03T09:21:26.971Z</time></trkpt><trkpt lat="42.03277793788354" lon="13.160043359079978"><ele>1264.0</ele><time>2026-05-03T09:21:27.971Z</time></trkpt><trkpt lat="42.03270332344604" lon="13.16011859836302"><ele>1264.0</ele><time>2026-05-03T09:21:28.971Z</time></trkpt><trkpt lat="42.03264734130807" lon="13.16018487374252"><ele>1264.0</ele><time>2026-05-03T09:21:29.971Z</time></trkpt><trkpt lat="42.03259560286597" lon="13.160247214029912"><ele>1264.0</ele><time>2026-05-03T09:21:30.971Z</time></trkpt><trkpt lat="42.03253945525832" lon="13.160339889282703"><ele>1264.0</ele><time>2026-05-03T09:21:32.971Z</time></trkpt><trkpt lat="42.03250982296971" lon="13.160432568333503"><ele>1266.3333333333333</ele><time>2026-05-03T09:22:44.971Z</time></trkpt><trkpt lat="42.032440357126845" lon="13.160503408644445"><ele>1268.6666666666665</ele><time>2026-05-03T09:23:26.97Z</time></trkpt><trkpt lat="42.0323801424507" lon="13.160585405847554"><ele>1271.0</ele><time>2026-05-03T09:23:28.97Z</time></trkpt><trkpt lat="42.032307806277686" lon="13.160707749311944"><ele>1273.3333333333333</ele><time>2026-05-03T09:23:30.97Z</time></trkpt><trkpt lat="42.032263105787116" lon="13.16078410616388"><ele>1275.6666666666667</ele><time>2026-05-03T09:23:31.97Z</time></trkpt><trkpt lat="42.03221866669358" lon="13.16085387122011"><ele>1278.0</ele><time>2026-05-03T09:23:32.97Z</time></trkpt><trkpt lat="42.03216433883666" lon="13.160924937240479"><ele>1278.0</ele><time>2026-05-03T09:23:33.97Z</time></trkpt><trkpt lat="42.03209453494" lon="13.161007690744157"><ele>1278.0</ele><time>2026-05-03T09:23:34.97Z</time></trkpt><trkpt lat="42.032015850052716" lon="13.161091773182424"><ele>1278.0</ele><time>2026-05-03T09:23:35.97Z</time></trkpt><trkpt lat="42.03193771779393" lon="13.161163992193474"><ele>1278.0</ele><time>2026-05-03T09:23:36.97Z</time></trkpt><trkpt lat="42.031855150480915" lon="13.161232095888034"><ele>1278.0</ele><time>2026-05-03T09:23:37.97Z</time></trkpt><trkpt lat="42.03178350657973" lon="13.161297775150352"><ele>1278.0</ele><time>2026-05-03T09:23:38.97Z</time></trkpt><trkpt lat="42.03172222323107" lon="13.161373914028289"><ele>1278.0</ele><time>2026-05-03T09:23:39.97Z</time></trkpt><trkpt lat="42.031665861470294" lon="13.161453781436022"><ele>1278.0</ele><time>2026-05-03T09:23:40.97Z</time></trkpt><trkpt lat="42.03161708255745" lon="13.1615382875614"><ele>1278.0</ele><time>2026-05-03T09:23:41.97Z</time></trkpt><trkpt lat="42.03157011396299" lon="13.161631104051224"><ele>1278.0</ele><time>2026-05-03T09:23:42.97Z</time></trkpt><trkpt lat="42.03153210615359" lon="13.161729961213878"><ele>1278.0</ele><time>2026-05-03T09:23:43.97Z</time></trkpt><trkpt lat="42.03150465056831" lon="13.161834986119167"><ele>1281.2</ele><time>2026-05-03T09:23:44.97Z</time></trkpt><trkpt lat="42.03147502746331" lon="13.161936330772653"><ele>1284.4</ele><time>2026-05-03T09:23:45.97Z</time></trkpt><trkpt lat="42.031426579694454" lon="13.162047050832003"><ele>1287.6000000000001</ele><time>2026-05-03T09:23:46.97Z</time></trkpt><trkpt lat="42.03137054080568" lon="13.162137561453546"><ele>1290.8</ele><time>2026-05-03T09:23:47.97Z</time></trkpt><trkpt lat="42.03129465677473" lon="13.162234496067688"><ele>1294.0</ele><time>2026-05-03T09:23:48.97Z</time></trkpt><trkpt lat="42.03121508452275" lon="13.16231168594676"><ele>1295.6</ele><time>2026-05-03T09:23:49.97Z</time></trkpt><trkpt lat="42.031139419964354" lon="13.16239557090702"><ele>1297.2</ele><time>2026-05-03T09:23:50.97Z</time></trkpt><trkpt lat="42.031057729935796" lon="13.16247171325644"><ele>1298.8</ele><time>2026-05-03T09:23:51.97Z</time></trkpt><trkpt lat="42.03096964016348" lon="13.162545660580081"><ele>1300.3999999999999</ele><time>2026-05-03T09:23:52.97Z</time></trkpt><trkpt lat="42.03087772294422" lon="13.162614578400746"><ele>1302.0</ele><time>2026-05-03T09:23:53.97Z</time></trkpt><trkpt lat="42.03079200339036" lon="13.162687658479793"><ele>1302.0</ele><time>2026-05-03T09:23:54.97Z</time></trkpt><trkpt lat="42.030713634900124" lon="13.162783056503766"><ele>1302.0</ele><time>2026-05-03T09:23:55.97Z</time></trkpt><trkpt lat="42.0306576492608" lon="13.16289955975299"><ele>1302.0</ele><time>2026-05-03T09:23:56.97Z</time></trkpt><trkpt lat="42.03061134574079" lon="13.163019264196281"><ele>1302.0</ele><time>2026-05-03T09:23:57.97Z</time></trkpt><trkpt lat="42.03056047351552" lon="13.163148415877307"><ele>1302.0</ele><time>2026-05-03T09:23:58.97Z</time></trkpt><trkpt lat="42.03050961742824" lon="13.16324950349342"><ele>1299.0</ele><time>2026-05-03T09:23:59.97Z</time></trkpt><trkpt lat="42.030434339390695" lon="13.16334255809447"><ele>1296.0</ele><time>2026-05-03T09:24:00.97Z</time></trkpt><trkpt lat="42.03035994508054" lon="13.163447196597229"><ele>1293.0</ele><time>2026-05-03T09:24:01.97Z</time></trkpt><trkpt lat="42.03028966638645" lon="13.163554687801858"><ele>1290.0</ele><time>2026-05-03T09:24:02.97Z</time></trkpt><trkpt lat="42.030217161949814" lon="13.16365625677711"><ele>1287.0</ele><time>2026-05-03T09:24:03.97Z</time></trkpt><trkpt lat="42.03014487773582" lon="13.163743878749774"><ele>1287.0</ele><time>2026-05-03T09:24:04.97Z</time></trkpt><trkpt lat="42.03006543790451" lon="13.163816670791332"><ele>1287.0</ele><time>2026-05-03T09:24:05.97Z</time></trkpt><trkpt lat="42.02999519393751" lon="13.163909846050052"><ele>1287.0</ele><time>2026-05-03T09:24:06.97Z</time></trkpt><trkpt lat="42.0299377679869" lon="13.164018504562323"><ele>1287.0</ele><time>2026-05-03T09:24:07.97Z</time></trkpt><trkpt lat="42.02987429247808" lon="13.164129436586762"><ele>1287.0</ele><time>2026-05-03T09:24:08.97Z</time></trkpt><trkpt lat="42.02982137528409" lon="13.164248297009381"><ele>1288.8</ele><time>2026-05-03T09:24:09.97Z</time></trkpt><trkpt lat="42.029768154005055" lon="13.164362055996552"><ele>1290.6</ele><time>2026-05-03T09:24:10.97Z</time></trkpt><trkpt lat="42.02971442051332" lon="13.164465673368875"><ele>1292.3999999999999</ele><time>2026-05-03T09:24:11.97Z</time></trkpt><trkpt lat="42.029646160904136" lon="13.164558492066579"><ele>1294.1999999999998</ele><time>2026-05-03T09:24:12.97Z</time></trkpt><trkpt lat="42.0295667898513" lon="13.16464315169434"><ele>1296.0</ele><time>2026-05-03T09:24:13.97Z</time></trkpt><trkpt lat="42.02949102833041" lon="13.164727211915602"><ele>1296.0</ele><time>2026-05-03T09:24:14.97Z</time></trkpt><trkpt lat="42.02941570770546" lon="13.164821361523803"><ele>1296.0</ele><time>2026-05-03T09:24:15.97Z</time></trkpt><trkpt lat="42.02933911756939" lon="13.164920449686868"><ele>1296.0</ele><time>2026-05-03T09:24:16.97Z</time></trkpt><trkpt lat="42.029263870897815" lon="13.165018102812791"><ele>1296.0</ele><time>2026-05-03T09:24:17.97Z</time></trkpt><trkpt lat="42.02918939589123" lon="13.165124561494954"><ele>1296.0</ele><time>2026-05-03T09:24:18.97Z</time></trkpt><trkpt lat="42.0291185657161" lon="13.165227766134446"><ele>1296.8333333333333</ele><time>2026-05-03T09:24:19.97Z</time></trkpt><trkpt lat="42.02906029921912" lon="13.165318035121798"><ele>1297.6666666666667</ele><time>2026-05-03T09:24:20.97Z</time></trkpt><trkpt lat="42.02900882584826" lon="13.165411281806097"><ele>1298.5</ele><time>2026-05-03T09:24:21.97Z</time></trkpt><trkpt lat="42.02897175257751" lon="13.165508691494978"><ele>1299.3333333333335</ele><time>2026-05-03T09:24:22.97Z</time></trkpt><trkpt lat="42.02895961254588" lon="13.16561551736154"><ele>1300.1666666666667</ele><time>2026-05-03T09:24:23.97Z</time></trkpt><trkpt lat="42.028962718625635" lon="13.165723242118961"><ele>1301.0</ele><time>2026-05-03T09:24:24.97Z</time></trkpt><trkpt lat="42.028972953052" lon="13.165829598572785"><ele>1301.0</ele><time>2026-05-03T09:24:25.97Z</time></trkpt><trkpt lat="42.028962113426914" lon="13.16593679479043"><ele>1301.0</ele><time>2026-05-03T09:24:26.97Z</time></trkpt><trkpt lat="42.02892691923974" lon="13.166047751123912"><ele>1301.0</ele><time>2026-05-03T09:24:27.97Z</time></trkpt><trkpt lat="42.02890037619204" lon="13.166156098977453"><ele>1301.0</ele><time>2026-05-03T09:24:28.97Z</time></trkpt><trkpt lat="42.02886356058879" lon="13.166271557490578"><ele>1301.0</ele><time>2026-05-03T09:24:29.97Z</time></trkpt><trkpt lat="42.028820536690404" lon="13.16639414316384"><ele>1301.0</ele><time>2026-05-03T09:24:30.97Z</time></trkpt><trkpt lat="42.028779157030826" lon="13.1665025910923"><ele>1300.8333333333335</ele><time>2026-05-03T09:24:31.97Z</time></trkpt><trkpt lat="42.02874515333078" lon="13.166622801222038"><ele>1300.6666666666667</ele><time>2026-05-03T09:24:32.97Z</time></trkpt><trkpt lat="42.02870716471381" lon="13.166747784901945"><ele>1300.5</ele><time>2026-05-03T09:24:33.97Z</time></trkpt><trkpt lat="42.02868466576094" lon="13.166850244023378"><ele>1300.3333333333333</ele><time>2026-05-03T09:24:34.97Z</time></trkpt><trkpt lat="42.028640028191326" lon="13.1669186029866"><ele>1300.1666666666665</ele><time>2026-05-03T09:24:35.97Z</time></trkpt><trkpt lat="42.02858642633762" lon="13.167034479103249"><ele>1300.0</ele><time>2026-05-03T09:24:36.97Z</time></trkpt><trkpt lat="42.028534549879886" lon="13.167172220458195"><ele>1300.0</ele><time>2026-05-03T09:24:37.97Z</time></trkpt><trkpt lat="42.02848093001916" lon="13.167282017330407"><ele>1300.0</ele><time>2026-05-03T09:24:38.97Z</time></trkpt><trkpt lat="42.028414950062526" lon="13.167369070167318"><ele>1300.0</ele><time>2026-05-03T09:24:39.97Z</time></trkpt><trkpt lat="42.02835810599838" lon="13.1674806901472"><ele>1300.0</ele><time>2026-05-03T09:24:40.97Z</time></trkpt><trkpt lat="42.02829644417365" lon="13.167591199851959"><ele>1300.0</ele><time>2026-05-03T09:24:41.97Z</time></trkpt><trkpt lat="42.0282348789212" lon="13.167695612194668"><ele>1300.4</ele><time>2026-05-03T09:24:42.97Z</time></trkpt><trkpt lat="42.028171641597034" lon="13.167781530271565"><ele>1300.8</ele><time>2026-05-03T09:24:43.97Z</time></trkpt><trkpt lat="42.0281064012249" lon="13.167882055482654"><ele>1301.1999999999998</ele><time>2026-05-03T09:24:44.97Z</time></trkpt><trkpt lat="42.02804350415872" lon="13.168033313857666"><ele>1301.6</ele><time>2026-05-03T09:24:45.97Z</time></trkpt><trkpt lat="42.02797445565679" lon="13.168163753428063"><ele>1302.0</ele><time>2026-05-03T09:24:46.97Z</time></trkpt><trkpt lat="42.027910986028985" lon="13.168281496662123"><ele>1302.0</ele><time>2026-05-03T09:24:47.97Z</time></trkpt><trkpt lat="42.02785287993032" lon="13.168375219355752"><ele>1302.0</ele><time>2026-05-03T09:24:48.97Z</time></trkpt><trkpt lat="42.027804357772254" lon="13.16849892502865"><ele>1302.0</ele><time>2026-05-03T09:24:49.97Z</time></trkpt><trkpt lat="42.02775913436419" lon="13.16860348902647"><ele>1302.0</ele><time>2026-05-03T09:24:50.97Z</time></trkpt><trkpt lat="42.02769325899364" lon="13.168713068013414"><ele>1302.0</ele><time>2026-05-03T09:24:51.97Z</time></trkpt><trkpt lat="42.027646856138446" lon="13.168831373338557"><ele>1302.0</ele><time>2026-05-03T09:24:52.97Z</time></trkpt><trkpt lat="42.02758428762721" lon="13.168932371468477"><ele>1302.0</ele><time>2026-05-03T09:24:53.97Z</time></trkpt><trkpt lat="42.02751427608794" lon="13.169021405819688"><ele>1302.0</ele><time>2026-05-03T09:24:54.97Z</time></trkpt><trkpt lat="42.027439627122455" lon="13.169115167295201"><ele>1302.0</ele><time>2026-05-03T09:24:55.97Z</time></trkpt><trkpt lat="42.027370224274726" lon="13.169222870008753"><ele>1302.0</ele><time>2026-05-03T09:24:56.97Z</time></trkpt><trkpt lat="42.02728886392738" lon="13.169307864250957"><ele>1303.1999999999998</ele><time>2026-05-03T09:24:57.97Z</time></trkpt><trkpt lat="42.027219390808334" lon="13.169408064379494"><ele>1304.4</ele><time>2026-05-03T09:24:58.97Z</time></trkpt><trkpt lat="42.02714803127931" lon="13.169523598687368"><ele>1305.6</ele><time>2026-05-03T09:24:59.97Z</time></trkpt><trkpt lat="42.02707968622037" lon="13.169615809318087"><ele>1306.8000000000002</ele><time>2026-05-03T09:25:00.97Z</time></trkpt><trkpt lat="42.0270129990533" lon="13.169714045581944"><ele>1308.0</ele><time>2026-05-03T09:25:01.97Z</time></trkpt><trkpt lat="42.02694567809731" lon="13.169814300219842"><ele>1308.0</ele><time>2026-05-03T09:25:02.97Z</time></trkpt><trkpt lat="42.02687855046486" lon="13.169916827925109"><ele>1308.0</ele><time>2026-05-03T09:25:03.97Z</time></trkpt><trkpt lat="42.02682522214165" lon="13.170022375903924"><ele>1308.0</ele><time>2026-05-03T09:25:04.97Z</time></trkpt><trkpt lat="42.02675758692763" lon="13.170125504903138"><ele>1308.0</ele><time>2026-05-03T09:25:05.97Z</time></trkpt><trkpt lat="42.026698972367555" lon="13.17022471267144"><ele>1308.0</ele><time>2026-05-03T09:25:06.97Z</time></trkpt><trkpt lat="42.0266326254099" lon="13.170316528474034"><ele>1307.8000000000002</ele><time>2026-05-03T09:25:07.97Z</time></trkpt><trkpt lat="42.02655509040991" lon="13.170414240022149"><ele>1307.6</ele><time>2026-05-03T09:25:08.97Z</time></trkpt><trkpt lat="42.026466930635436" lon="13.170544144840468"><ele>1307.4</ele><time>2026-05-03T09:25:09.97Z</time></trkpt><trkpt lat="42.02640647871329" lon="13.170658868328882"><ele>1307.1999999999998</ele><time>2026-05-03T09:25:10.97Z</time></trkpt><trkpt lat="42.02635922139967" lon="13.170789555072409"><ele>1307.0</ele><time>2026-05-03T09:25:11.97Z</time></trkpt><trkpt lat="42.02631037709261" lon="13.170905267768577"><ele>1307.0</ele><time>2026-05-03T09:25:12.97Z</time></trkpt><trkpt lat="42.02625366753783" lon="13.17102219087973"><ele>1307.0</ele><time>2026-05-03T09:25:13.97Z</time></trkpt><trkpt lat="42.02619078612383" lon="13.171122924501152"><ele>1307.0</ele><time>2026-05-03T09:25:14.97Z</time></trkpt><trkpt lat="42.026139982587424" lon="13.171241962939497"><ele>1307.0</ele><time>2026-05-03T09:25:15.97Z</time></trkpt><trkpt lat="42.026083319405096" lon="13.171386157279434"><ele>1307.0</ele><time>2026-05-03T09:25:16.97Z</time></trkpt><trkpt lat="42.02604972628489" lon="13.171517778985837"><ele>1307.6</ele><time>2026-05-03T09:25:17.97Z</time></trkpt><trkpt lat="42.026017394463146" lon="13.171636012961804"><ele>1308.1999999999998</ele><time>2026-05-03T09:25:18.969Z</time></trkpt><trkpt lat="42.02599181440905" lon="13.171783464931954"><ele>1308.8</ele><time>2026-05-03T09:25:19.969Z</time></trkpt><trkpt lat="42.025966695524126" lon="13.171931950177632"><ele>1309.4</ele><time>2026-05-03T09:25:20.97Z</time></trkpt><trkpt lat="42.025926736671" lon="13.172064805733788"><ele>1310.0</ele><time>2026-05-03T09:25:21.969Z</time></trkpt><trkpt lat="42.025869097597834" lon="13.172208558221158"><ele>1312.2</ele><time>2026-05-03T09:25:22.969Z</time></trkpt><trkpt lat="42.02580698178919" lon="13.172332734363836"><ele>1314.4</ele><time>2026-05-03T09:25:23.97Z</time></trkpt><trkpt lat="42.02575235739402" lon="13.172463929573114"><ele>1316.6</ele><time>2026-05-03T09:25:24.969Z</time></trkpt><trkpt lat="42.025711857641134" lon="13.172583663326424"><ele>1318.8</ele><time>2026-05-03T09:25:25.969Z</time></trkpt><trkpt lat="42.02567288815972" lon="13.172698424073142"><ele>1321.0</ele><time>2026-05-03T09:25:26.97Z</time></trkpt><trkpt lat="42.02563828953409" lon="13.172813760874321"><ele>1321.6666666666665</ele><time>2026-05-03T09:25:27.969Z</time></trkpt><trkpt lat="42.02560660937233" lon="13.172914735614057"><ele>1322.3333333333333</ele><time>2026-05-03T09:25:28.969Z</time></trkpt><trkpt lat="42.02559974031817" lon="13.17299912021843"><ele>1323.0</ele><time>2026-05-03T09:25:29.969Z</time></trkpt><trkpt lat="42.02558910455608" lon="13.173109304799032"><ele>1323.6666666666667</ele><time>2026-05-03T09:25:30.97Z</time></trkpt><trkpt lat="42.02556598369993" lon="13.17321723093391"><ele>1324.3333333333335</ele><time>2026-05-03T09:25:31.97Z</time></trkpt><trkpt lat="42.02553568144091" lon="13.17332684329569"><ele>1325.0</ele><time>2026-05-03T09:25:32.97Z</time></trkpt><trkpt lat="42.02547622629611" lon="13.173386850863665"><ele>1325.0</ele><time>2026-05-03T09:25:33.97Z</time></trkpt><trkpt lat="42.02540294081814" lon="13.17344267881689"><ele>1325.0</ele><time>2026-05-03T09:25:34.97Z</time></trkpt><trkpt lat="42.02535132537085" lon="13.17352791927497"><ele>1325.0</ele><time>2026-05-03T09:25:35.97Z</time></trkpt><trkpt lat="42.02531776602823" lon="13.173637729291256"><ele>1325.0</ele><time>2026-05-03T09:25:36.97Z</time></trkpt><trkpt lat="42.025243652080135" lon="13.17371462292397"><ele>1325.0</ele><time>2026-05-03T09:25:37.97Z</time></trkpt><trkpt lat="42.02517544094326" lon="13.17377960368043"><ele>1325.0</ele><time>2026-05-03T09:25:38.97Z</time></trkpt><trkpt lat="42.02511547167869" lon="13.173853144161109"><ele>1325.0</ele><time>2026-05-03T09:25:39.97Z</time></trkpt><trkpt lat="42.02507026094962" lon="13.17396551122899"><ele>1325.0</ele><time>2026-05-03T09:25:40.97Z</time></trkpt><trkpt lat="42.02502162862506" lon="13.17406636224063"><ele>1325.0</ele><time>2026-05-03T09:25:41.97Z</time></trkpt><trkpt lat="42.02494032263935" lon="13.174143183040067"><ele>1325.0</ele><time>2026-05-03T09:25:42.97Z</time></trkpt><trkpt lat="42.02488305874955" lon="13.174211589426328"><ele>1325.0</ele><time>2026-05-03T09:25:43.97Z</time></trkpt><trkpt lat="42.02481689428564" lon="13.174275930305985"><ele>1325.0</ele><time>2026-05-03T09:25:44.97Z</time></trkpt><trkpt lat="42.024771421895885" lon="13.174354497399532"><ele>1326.8333333333335</ele><time>2026-05-03T09:25:45.97Z</time></trkpt><trkpt lat="42.02473485781283" lon="13.174454930591423"><ele>1328.6666666666667</ele><time>2026-05-03T09:25:46.97Z</time></trkpt><trkpt lat="42.0246911067832" lon="13.174543862621404"><ele>1330.5</ele><time>2026-05-03T09:25:47.97Z</time></trkpt><trkpt lat="42.024647512987784" lon="13.174632593064402"><ele>1332.3333333333333</ele><time>2026-05-03T09:25:48.97Z</time></trkpt><trkpt lat="42.02459917914322" lon="13.174689424120455"><ele>1334.1666666666665</ele><time>2026-05-03T09:25:49.97Z</time></trkpt><trkpt lat="42.02451990675436" lon="13.174744327009117"><ele>1336.0</ele><time>2026-05-03T09:25:50.97Z</time></trkpt><trkpt lat="42.024460147778875" lon="13.174820849243908"><ele>1336.0</ele><time>2026-05-03T09:25:51.97Z</time></trkpt><trkpt lat="42.02442823385836" lon="13.174921534777704"><ele>1336.0</ele><time>2026-05-03T09:25:52.97Z</time></trkpt><trkpt lat="42.02438240019542" lon="13.175019898751156"><ele>1336.0</ele><time>2026-05-03T09:25:53.97Z</time></trkpt><trkpt lat="42.024321318918766" lon="13.175144090942467"><ele>1336.0</ele><time>2026-05-03T09:25:54.97Z</time></trkpt><trkpt lat="42.02427956186397" lon="13.175282876492544"><ele>1336.0</ele><time>2026-05-03T09:25:55.97Z</time></trkpt><trkpt lat="42.02422805101567" lon="13.175398362265886"><ele>1336.0</ele><time>2026-05-03T09:25:56.97Z</time></trkpt><trkpt lat="42.02415803443621" lon="13.175476175398716"><ele>1336.0</ele><time>2026-05-03T09:25:57.97Z</time></trkpt><trkpt lat="42.02408313005928" lon="13.175541726203816"><ele>1336.0</ele><time>2026-05-03T09:25:58.97Z</time></trkpt><trkpt lat="42.024009491363834" lon="13.17557874146919"><ele>1336.0</ele><time>2026-05-03T09:25:59.97Z</time></trkpt><trkpt lat="42.02391377483379" lon="13.175643256879592"><ele>1336.0</ele><time>2026-05-03T09:26:00.97Z</time></trkpt><trkpt lat="42.02381298947696" lon="13.175737582142778"><ele>1336.8</ele><time>2026-05-03T09:26:01.97Z</time></trkpt><trkpt lat="42.02373641258909" lon="13.175834760530124"><ele>1337.6</ele><time>2026-05-03T09:26:02.97Z</time></trkpt><trkpt lat="42.02367301775348" lon="13.175935458711036"><ele>1338.4</ele><time>2026-05-03T09:26:03.97Z</time></trkpt><trkpt lat="42.023598509072265" lon="13.176022329102477"><ele>1339.2</ele><time>2026-05-03T09:26:04.97Z</time></trkpt><trkpt lat="42.023526968887666" lon="13.17612510105243"><ele>1340.0</ele><time>2026-05-03T09:26:05.97Z</time></trkpt><trkpt lat="42.02345774573346" lon="13.176215842647506"><ele>1340.0</ele><time>2026-05-03T09:26:06.97Z</time></trkpt><trkpt lat="42.023388162661995" lon="13.176312593431025"><ele>1340.0</ele><time>2026-05-03T09:26:07.97Z</time></trkpt><trkpt lat="42.02331888240106" lon="13.176401537821388"><ele>1340.0</ele><time>2026-05-03T09:26:08.97Z</time></trkpt><trkpt lat="42.0232543988767" lon="13.176488872657496"><ele>1340.0</ele><time>2026-05-03T09:26:09.97Z</time></trkpt><trkpt lat="42.0231953400764" lon="13.176575056186868"><ele>1340.0</ele><time>2026-05-03T09:26:10.97Z</time></trkpt><trkpt lat="42.02313533062101" lon="13.176664196466666"><ele>1343.6</ele><time>2026-05-03T09:26:11.97Z</time></trkpt><trkpt lat="42.023079006457024" lon="13.176767864478647"><ele>1347.2</ele><time>2026-05-03T09:26:12.97Z</time></trkpt><trkpt lat="42.02303149009404" lon="13.176890587760377"><ele>1350.8000000000002</ele><time>2026-05-03T09:26:13.97Z</time></trkpt><trkpt lat="42.02298447871638" lon="13.177019471255313"><ele>1354.4</ele><time>2026-05-03T09:26:14.97Z</time></trkpt><trkpt lat="42.022947476779564" lon="13.177135377032938"><ele>1358.0</ele><time>2026-05-03T09:26:15.97Z</time></trkpt><trkpt lat="42.02290977572264" lon="13.177250030790917"><ele>1357.2</ele><time>2026-05-03T09:26:16.97Z</time></trkpt><trkpt lat="42.02286703848032" lon="13.177371112650226"><ele>1356.4</ele><time>2026-05-03T09:26:17.97Z</time></trkpt><trkpt lat="42.0228255810182" lon="13.177481719984842"><ele>1355.6000000000001</ele><time>2026-05-03T09:26:18.97Z</time></trkpt><trkpt lat="42.022778021674306" lon="13.17760619300018"><ele>1354.8000000000002</ele><time>2026-05-03T09:26:19.97Z</time></trkpt><trkpt lat="42.02272843121259" lon="13.177725037218426"><ele>1354.0</ele><time>2026-05-03T09:26:20.97Z</time></trkpt><trkpt lat="42.02268568691883" lon="13.177841672216978"><ele>1354.0</ele><time>2026-05-03T09:26:21.97Z</time></trkpt><trkpt lat="42.02262480580306" lon="13.177948710231178"><ele>1354.0</ele><time>2026-05-03T09:26:22.97Z</time></trkpt><trkpt lat="42.02256319395404" lon="13.178048791774344"><ele>1354.0</ele><time>2026-05-03T09:26:23.97Z</time></trkpt><trkpt lat="42.02249863479276" lon="13.178143301821606"><ele>1354.0</ele><time>2026-05-03T09:26:24.97Z</time></trkpt><trkpt lat="42.02243373206176" lon="13.178240911585227"><ele>1354.0</ele><time>2026-05-03T09:26:25.97Z</time></trkpt><trkpt lat="42.02237039918003" lon="13.178327169271139"><ele>1353.8000000000002</ele><time>2026-05-03T09:26:26.97Z</time></trkpt><trkpt lat="42.022304187441854" lon="13.178416012299678"><ele>1353.6000000000001</ele><time>2026-05-03T09:26:27.97Z</time></trkpt><trkpt lat="42.0222404486091" lon="13.178504675927202"><ele>1353.4</ele><time>2026-05-03T09:26:28.97Z</time></trkpt><trkpt lat="42.02217418580955" lon="13.178596259638717"><ele>1353.2</ele><time>2026-05-03T09:26:29.97Z</time></trkpt><trkpt lat="42.022117176233465" lon="13.178699703061927"><ele>1353.0</ele><time>2026-05-03T09:26:30.97Z</time></trkpt><trkpt lat="42.02205672036694" lon="13.17879994471794"><ele>1353.0</ele><time>2026-05-03T09:26:31.97Z</time></trkpt><trkpt lat="42.02199492552426" lon="13.178896310364436"><ele>1353.0</ele><time>2026-05-03T09:26:32.97Z</time></trkpt><trkpt lat="42.02193710874246" lon="13.17900326468993"><ele>1353.0</ele><time>2026-05-03T09:26:33.97Z</time></trkpt><trkpt lat="42.02187783567355" lon="13.179113058698873"><ele>1353.0</ele><time>2026-05-03T09:26:34.97Z</time></trkpt><trkpt lat="42.02183421814346" lon="13.179200648131541"><ele>1353.0</ele><time>2026-05-03T09:26:35.97Z</time></trkpt><trkpt lat="42.02178638519334" lon="13.179306951623314"><ele>1351.5</ele><time>2026-05-03T09:26:36.97Z</time></trkpt><trkpt lat="42.02174509521818" lon="13.179394272264402"><ele>1350.0</ele><time>2026-05-03T09:26:37.97Z</time></trkpt><trkpt lat="42.02170067022105" lon="13.179484536721082"><ele>1348.5</ele><time>2026-05-03T09:26:38.97Z</time></trkpt><trkpt lat="42.021656359921" lon="13.179569523217033"><ele>1347.0</ele><time>2026-05-03T09:26:39.97Z</time></trkpt><trkpt lat="42.021607653662976" lon="13.179664260320397"><ele>1345.5</ele><time>2026-05-03T09:26:40.97Z</time></trkpt><trkpt lat="42.0215583142215" lon="13.179777326643531"><ele>1344.0</ele><time>2026-05-03T09:26:41.97Z</time></trkpt><trkpt lat="42.02151778832872" lon="13.179881698294615"><ele>1348.4</ele><time>2026-05-03T09:26:42.97Z</time></trkpt><trkpt lat="42.02149767537788" lon="13.179987994070787"><ele>1352.8000000000002</ele><time>2026-05-03T09:26:43.97Z</time></trkpt><trkpt lat="42.02147910236974" lon="13.180113001358805"><ele>1357.1999999999998</ele><time>2026-05-03T09:26:44.97Z</time></trkpt><trkpt lat="42.02145781409316" lon="13.18021716651741"><ele>1361.6</ele><time>2026-05-03T09:26:45.97Z</time></trkpt><trkpt lat="42.02143452574588" lon="13.18034551407846"><ele>1366.0</ele><time>2026-05-03T09:26:46.97Z</time></trkpt><trkpt lat="42.02140377223804" lon="13.180475432978907"><ele>1366.0</ele><time>2026-05-03T09:26:47.97Z</time></trkpt><trkpt lat="42.02137363464116" lon="13.18060355167058"><ele>1366.0</ele><time>2026-05-03T09:26:48.97Z</time></trkpt><trkpt lat="42.02134813091503" lon="13.180721538639881"><ele>1366.0</ele><time>2026-05-03T09:26:49.97Z</time></trkpt><trkpt lat="42.02132684519728" lon="13.180851709402255"><ele>1366.0</ele><time>2026-05-03T09:26:50.97Z</time></trkpt><trkpt lat="42.021308454456396" lon="13.18099522445536"><ele>1366.0</ele><time>2026-05-03T09:26:51.97Z</time></trkpt><trkpt lat="42.02128458731497" lon="13.18112582341264"><ele>1364.1999999999998</ele><time>2026-05-03T09:26:52.97Z</time></trkpt><trkpt lat="42.021257377806684" lon="13.181269019643269"><ele>1362.3999999999999</ele><time>2026-05-03T09:26:53.97Z</time></trkpt><trkpt lat="42.021220030188665" lon="13.181391258951992"><ele>1360.6</ele><time>2026-05-03T09:26:54.97Z</time></trkpt><trkpt lat="42.02118421580474" lon="13.181510511261552"><ele>1358.8</ele><time>2026-05-03T09:26:55.97Z</time></trkpt><trkpt lat="42.02115289946852" lon="13.181644664117778"><ele>1357.0</ele><time>2026-05-03T09:26:56.97Z</time></trkpt><trkpt lat="42.02111451887268" lon="13.1817599563236"><ele>1356.3999999999999</ele><time>2026-05-03T09:26:57.97Z</time></trkpt><trkpt lat="42.02108660717756" lon="13.181882311010542"><ele>1355.8</ele><time>2026-05-03T09:26:58.97Z</time></trkpt><trkpt lat="42.02103747710092" lon="13.18200208951933"><ele>1355.2</ele><time>2026-05-03T09:26:59.97Z</time></trkpt><trkpt lat="42.02100084542931" lon="13.182127893511097"><ele>1354.6</ele><time>2026-05-03T09:27:00.97Z</time></trkpt><trkpt lat="42.02094649904714" lon="13.182242040485821"><ele>1354.0</ele><time>2026-05-03T09:27:01.97Z</time></trkpt><trkpt lat="42.02089531729101" lon="13.18236512400506"><ele>1354.8333333333333</ele><time>2026-05-03T09:27:02.97Z</time></trkpt><trkpt lat="42.02087317567413" lon="13.182482072393427"><ele>1355.6666666666665</ele><time>2026-05-03T09:27:03.97Z</time></trkpt><trkpt lat="42.020841072907174" lon="13.182593203429501"><ele>1356.5</ele><time>2026-05-03T09:27:04.97Z</time></trkpt><trkpt lat="42.0208063109531" lon="13.18269634757189"><ele>1357.3333333333333</ele><time>2026-05-03T09:27:05.97Z</time></trkpt><trkpt lat="42.02077576520829" lon="13.182810817210777"><ele>1358.1666666666667</ele><time>2026-05-03T09:27:06.97Z</time></trkpt><trkpt lat="42.02073991665286" lon="13.182922509537235"><ele>1359.0</ele><time>2026-05-03T09:27:07.97Z</time></trkpt><trkpt lat="42.02070485485528" lon="13.183030905823847"><ele>1359.0</ele><time>2026-05-03T09:27:08.97Z</time></trkpt><trkpt lat="42.02067334461136" lon="13.183136700747445"><ele>1359.0</ele><time>2026-05-03T09:27:09.97Z</time></trkpt><trkpt lat="42.02064675960616" lon="13.18324927946663"><ele>1359.0</ele><time>2026-05-03T09:27:10.97Z</time></trkpt><trkpt lat="42.020619611477095" lon="13.183363124904462"><ele>1359.0</ele><time>2026-05-03T09:27:11.97Z</time></trkpt><trkpt lat="42.020588846392954" lon="13.183471457168423"><ele>1359.0</ele><time>2026-05-03T09:27:12.97Z</time></trkpt><trkpt lat="42.02055825081446" lon="13.18356804832731"><ele>1359.0</ele><time>2026-05-03T09:27:13.97Z</time></trkpt><trkpt lat="42.02052138378799" lon="13.18366630504883"><ele>1357.6666666666667</ele><time>2026-05-03T09:27:14.97Z</time></trkpt><trkpt lat="42.02047558784166" lon="13.183746832259759"><ele>1356.3333333333333</ele><time>2026-05-03T09:27:15.97Z</time></trkpt><trkpt lat="42.02042257268392" lon="13.183833930707655"><ele>1355.0</ele><time>2026-05-03T09:27:16.97Z</time></trkpt><trkpt lat="42.02036679750762" lon="13.183939896714627"><ele>1353.6666666666665</ele><time>2026-05-03T09:27:17.97Z</time></trkpt><trkpt lat="42.02032094969018" lon="13.184045887610885"><ele>1352.3333333333333</ele><time>2026-05-03T09:27:18.97Z</time></trkpt><trkpt lat="42.02028067451772" lon="13.18415669971186"><ele>1351.0</ele><time>2026-05-03T09:27:19.97Z</time></trkpt><trkpt lat="42.02024934658387" lon="13.18427344201481"><ele>1348.4</ele><time>2026-05-03T09:27:20.97Z</time></trkpt><trkpt lat="42.02021273828279" lon="13.184399087609956"><ele>1345.8</ele><time>2026-05-03T09:27:21.97Z</time></trkpt><trkpt lat="42.0201755507519" lon="13.184522475845448"><ele>1343.2</ele><time>2026-05-03T09:27:22.97Z</time></trkpt><trkpt lat="42.02012944130671" lon="13.184649435657388"><ele>1340.6000000000001</ele><time>2026-05-03T09:27:23.969Z</time></trkpt><trkpt lat="42.020079135801915" lon="13.18477118054681"><ele>1338.0</ele><time>2026-05-03T09:27:24.969Z</time></trkpt><trkpt lat="42.02003264159025" lon="13.18488890656376"><ele>1340.6000000000001</ele><time>2026-05-03T09:27:25.969Z</time></trkpt><trkpt lat="42.01997372226333" lon="13.18500524268475"><ele>1343.2</ele><time>2026-05-03T09:27:26.969Z</time></trkpt><trkpt lat="42.01993383202241" lon="13.185120215451388"><ele>1345.8</ele><time>2026-05-03T09:27:27.969Z</time></trkpt><trkpt lat="42.01989216079692" lon="13.185243757884026"><ele>1348.4</ele><time>2026-05-03T09:27:28.969Z</time></trkpt><trkpt lat="42.01985739778202" lon="13.185369646088041"><ele>1351.0</ele><time>2026-05-03T09:27:29.969Z</time></trkpt><trkpt lat="42.01982348541128" lon="13.185498717311528"><ele>1351.0</ele><time>2026-05-03T09:27:30.969Z</time></trkpt><trkpt lat="42.01979757404478" lon="13.18562839290059"><ele>1351.0</ele><time>2026-05-03T09:27:31.969Z</time></trkpt><trkpt lat="42.01976864721495" lon="13.185753387346317"><ele>1351.0</ele><time>2026-05-03T09:27:32.969Z</time></trkpt><trkpt lat="42.0197321050089" lon="13.185878572710484"><ele>1351.0</ele><time>2026-05-03T09:27:33.969Z</time></trkpt><trkpt lat="42.01969243459483" lon="13.185991962899367"><ele>1351.0</ele><time>2026-05-03T09:27:34.969Z</time></trkpt><trkpt lat="42.01965430906705" lon="13.186101832087656"><ele>1347.0</ele><time>2026-05-03T09:27:35.969Z</time></trkpt><trkpt lat="42.01961572838237" lon="13.186211588077931"><ele>1343.0</ele><time>2026-05-03T09:27:36.968Z</time></trkpt><trkpt lat="42.019571324000964" lon="13.18632359115328"><ele>1339.0</ele><time>2026-05-03T09:27:37.968Z</time></trkpt><trkpt lat="42.01952309092864" lon="13.186430735698146"><ele>1335.0</ele><time>2026-05-03T09:27:38.968Z</time></trkpt><trkpt lat="42.01946574502742" lon="13.186535341957594"><ele>1331.0</ele><time>2026-05-03T09:27:39.968Z</time></trkpt><trkpt lat="42.01941590332003" lon="13.186640399398696"><ele>1329.8</ele><time>2026-05-03T09:27:40.968Z</time></trkpt><trkpt lat="42.01936129180753" lon="13.186742767458302"><ele>1328.6</ele><time>2026-05-03T09:27:41.968Z</time></trkpt><trkpt lat="42.01930044497868" lon="13.186833408553552"><ele>1327.4</ele><time>2026-05-03T09:27:42.968Z</time></trkpt><trkpt lat="42.0192285626907" lon="13.18692585929141"><ele>1326.2</ele><time>2026-05-03T09:27:43.968Z</time></trkpt><trkpt lat="42.01916252784553" lon="13.187008454314887"><ele>1325.0</ele><time>2026-05-03T09:27:44.968Z</time></trkpt><trkpt lat="42.019096168400345" lon="13.18709275303338"><ele>1326.0</ele><time>2026-05-03T09:27:45.968Z</time></trkpt><trkpt lat="42.019026996161784" lon="13.187180926842995"><ele>1327.0</ele><time>2026-05-03T09:27:46.968Z</time></trkpt><trkpt lat="42.0189789574786" lon="13.187292520340462"><ele>1328.0</ele><time>2026-05-03T09:27:47.968Z</time></trkpt><trkpt lat="42.0189412257287" lon="13.187404833953083"><ele>1329.0</ele><time>2026-05-03T09:27:48.968Z</time></trkpt><trkpt lat="42.018909316753884" lon="13.187527514809661"><ele>1330.0</ele><time>2026-05-03T09:27:49.968Z</time></trkpt><trkpt lat="42.01887782045229" lon="13.18764138943168"><ele>1330.0</ele><time>2026-05-03T09:27:50.968Z</time></trkpt><trkpt lat="42.018835451986746" lon="13.187751379670926"><ele>1330.0</ele><time>2026-05-03T09:27:51.968Z</time></trkpt><trkpt lat="42.01878325092957" lon="13.187851403342219"><ele>1330.0</ele><time>2026-05-03T09:27:52.968Z</time></trkpt><trkpt lat="42.01872375320765" lon="13.187957289970178"><ele>1330.0</ele><time>2026-05-03T09:27:53.968Z</time></trkpt><trkpt lat="42.01866696677175" lon="13.188061800869422"><ele>1330.0</ele><time>2026-05-03T09:27:54.968Z</time></trkpt><trkpt lat="42.018600317150586" lon="13.188154115121488"><ele>1329.2</ele><time>2026-05-03T09:27:55.968Z</time></trkpt><trkpt lat="42.01853382663256" lon="13.1882387151541"><ele>1328.4</ele><time>2026-05-03T09:27:56.968Z</time></trkpt><trkpt lat="42.018473813053156" lon="13.188335993525243"><ele>1327.6</ele><time>2026-05-03T09:27:57.968Z</time></trkpt><trkpt lat="42.01843223996692" lon="13.188438560149995"><ele>1326.8</ele><time>2026-05-03T09:27:58.968Z</time></trkpt><trkpt lat="42.01840110942771" lon="13.188553562684568"><ele>1326.0</ele><time>2026-05-03T09:27:59.968Z</time></trkpt><trkpt lat="42.018374218743126" lon="13.188667890555156"><ele>1326.0</ele><time>2026-05-03T09:28:00.968Z</time></trkpt><trkpt lat="42.01834127830091" lon="13.188780700526829"><ele>1326.0</ele><time>2026-05-03T09:28:01.968Z</time></trkpt><trkpt lat="42.01831281357516" lon="13.188897760487192"><ele>1326.0</ele><time>2026-05-03T09:28:02.968Z</time></trkpt><trkpt lat="42.0182963870567" lon="13.189019357259305"><ele>1326.0</ele><time>2026-05-03T09:28:03.968Z</time></trkpt><trkpt lat="42.0182847308993" lon="13.189146222379586"><ele>1326.0</ele><time>2026-05-03T09:28:04.968Z</time></trkpt><trkpt lat="42.01827231000081" lon="13.189258774693286"><ele>1327.5</ele><time>2026-05-03T09:28:05.968Z</time></trkpt><trkpt lat="42.01824954525407" lon="13.189360112103305"><ele>1329.0</ele><time>2026-05-03T09:28:06.968Z</time></trkpt><trkpt lat="42.0182231377435" lon="13.18946995794386"><ele>1330.5</ele><time>2026-05-03T09:28:07.968Z</time></trkpt><trkpt lat="42.01820405401246" lon="13.18956538815063"><ele>1332.0</ele><time>2026-05-03T09:28:08.968Z</time></trkpt><trkpt lat="42.01818941946077" lon="13.189657683853179"><ele>1333.5</ele><time>2026-05-03T09:28:09.968Z</time></trkpt><trkpt lat="42.01816757795154" lon="13.189745786259506"><ele>1335.0</ele><time>2026-05-03T09:28:10.968Z</time></trkpt><trkpt lat="42.01813387314037" lon="13.189832809748896"><ele>1333.6666666666667</ele><time>2026-05-03T09:28:11.968Z</time></trkpt><trkpt lat="42.01809404459839" lon="13.189922929621618"><ele>1332.3333333333333</ele><time>2026-05-03T09:28:12.968Z</time></trkpt><trkpt lat="42.018055402165054" lon="13.190021283143762"><ele>1331.0</ele><time>2026-05-03T09:28:13.968Z</time></trkpt><trkpt lat="42.018012150563706" lon="13.190129888006688"><ele>1329.6666666666665</ele><time>2026-05-03T09:28:14.968Z</time></trkpt><trkpt lat="42.017969118917364" lon="13.190239441659582"><ele>1328.3333333333333</ele><time>2026-05-03T09:28:15.968Z</time></trkpt><trkpt lat="42.01792774984549" lon="13.190349011747482"><ele>1327.0</ele><time>2026-05-03T09:28:16.968Z</time></trkpt><trkpt lat="42.017888470260765" lon="13.190454895912772"><ele>1327.0</ele><time>2026-05-03T09:28:17.968Z</time></trkpt><trkpt lat="42.01785018194919" lon="13.19056812339077"><ele>1327.0</ele><time>2026-05-03T09:28:18.968Z</time></trkpt><trkpt lat="42.017811382746686" lon="13.190681745095729"><ele>1327.0</ele><time>2026-05-03T09:28:19.968Z</time></trkpt><trkpt lat="42.01777029108491" lon="13.190794703815156"><ele>1327.0</ele><time>2026-05-03T09:28:20.968Z</time></trkpt><trkpt lat="42.017725149567944" lon="13.190904908197044"><ele>1327.0</ele><time>2026-05-03T09:28:21.968Z</time></trkpt><trkpt lat="42.017669303904796" lon="13.191008360075802"><ele>1327.1999999999998</ele><time>2026-05-03T09:28:22.968Z</time></trkpt><trkpt lat="42.017610490546545" lon="13.19110518303495"><ele>1327.4</ele><time>2026-05-03T09:28:23.968Z</time></trkpt><trkpt lat="42.017568553122494" lon="13.191212585136862"><ele>1327.6</ele><time>2026-05-03T09:28:24.968Z</time></trkpt><trkpt lat="42.01753079997535" lon="13.191335111712824"><ele>1327.8000000000002</ele><time>2026-05-03T09:28:25.968Z</time></trkpt><trkpt lat="42.0175004088687" lon="13.191457276864519"><ele>1328.0</ele><time>2026-05-03T09:28:26.968Z</time></trkpt><trkpt lat="42.01748141186335" lon="13.191576012730735"><ele>1328.0</ele><time>2026-05-03T09:28:27.968Z</time></trkpt><trkpt lat="42.017465046242435" lon="13.191698864649764"><ele>1328.0</ele><time>2026-05-03T09:28:28.968Z</time></trkpt><trkpt lat="42.01744312686751" lon="13.1918244369548"><ele>1328.0</ele><time>2026-05-03T09:28:29.968Z</time></trkpt><trkpt lat="42.0174255518761" lon="13.191944282716895"><ele>1328.0</ele><time>2026-05-03T09:28:30.968Z</time></trkpt><trkpt lat="42.017395996906174" lon="13.192060616297555"><ele>1328.0</ele><time>2026-05-03T09:28:31.968Z</time></trkpt><trkpt lat="42.01735513804419" lon="13.192169956163962"><ele>1328.0</ele><time>2026-05-03T09:28:32.968Z</time></trkpt><trkpt lat="42.017305149194286" lon="13.19226611103476"><ele>1328.0</ele><time>2026-05-03T09:28:33.968Z</time></trkpt><trkpt lat="42.01724082985086" lon="13.192357213374578"><ele>1328.0</ele><time>2026-05-03T09:28:34.968Z</time></trkpt><trkpt lat="42.01717514886575" lon="13.192444112466518"><ele>1328.0</ele><time>2026-05-03T09:28:35.968Z</time></trkpt><trkpt lat="42.01710090476816" lon="13.192525275706153"><ele>1328.0</ele><time>2026-05-03T09:28:36.968Z</time></trkpt><trkpt lat="42.01703026483345" lon="13.192590176589555"><ele>1325.8000000000002</ele><time>2026-05-03T09:28:37.968Z</time></trkpt><trkpt lat="42.016954533459" lon="13.19265802410393"><ele>1323.6</ele><time>2026-05-03T09:28:38.968Z</time></trkpt><trkpt lat="42.01687593218329" lon="13.192722532335129"><ele>1321.4</ele><time>2026-05-03T09:28:39.968Z</time></trkpt><trkpt lat="42.016797023967165" lon="13.192765463026712"><ele>1319.1999999999998</ele><time>2026-05-03T09:28:40.968Z</time></trkpt><trkpt lat="42.01671017144038" lon="13.192807787705453"><ele>1317.0</ele><time>2026-05-03T09:28:41.968Z</time></trkpt><trkpt lat="42.016618805427356" lon="13.192840322971657"><ele>1319.6666666666667</ele><time>2026-05-03T09:28:42.968Z</time></trkpt><trkpt lat="42.01653001180694" lon="13.19287245395857"><ele>1322.3333333333333</ele><time>2026-05-03T09:28:43.968Z</time></trkpt><trkpt lat="42.01645105416314" lon="13.192920707597075"><ele>1325.0</ele><time>2026-05-03T09:28:44.968Z</time></trkpt><trkpt lat="42.01637353103597" lon="13.192970879165914"><ele>1327.6666666666665</ele><time>2026-05-03T09:28:45.968Z</time></trkpt><trkpt lat="42.01630783634114" lon="13.19304302516073"><ele>1330.3333333333333</ele><time>2026-05-03T09:28:46.968Z</time></trkpt><trkpt lat="42.0162542790462" lon="13.193145500140886"><ele>1333.0</ele><time>2026-05-03T09:28:47.968Z</time></trkpt><trkpt lat="42.016222028943005" lon="13.193253744208109"><ele>1333.0</ele><time>2026-05-03T09:28:48.968Z</time></trkpt><trkpt lat="42.0161871454573" lon="13.193358598054056"><ele>1333.0</ele><time>2026-05-03T09:28:49.968Z</time></trkpt><trkpt lat="42.01615032150819" lon="13.193461005604858"><ele>1333.0</ele><time>2026-05-03T09:28:50.968Z</time></trkpt><trkpt lat="42.016109541620686" lon="13.193568340836485"><ele>1333.0</ele><time>2026-05-03T09:28:51.968Z</time></trkpt><trkpt lat="42.01606783480954" lon="13.193672033343155"><ele>1333.0</ele><time>2026-05-03T09:28:52.968Z</time></trkpt><trkpt lat="42.01602281701659" lon="13.193771484240099"><ele>1333.0</ele><time>2026-05-03T09:28:53.968Z</time></trkpt><trkpt lat="42.0159670240037" lon="13.19385646289325"><ele>1333.0</ele><time>2026-05-03T09:28:54.968Z</time></trkpt><trkpt lat="42.015900768062814" lon="13.193932532452543"><ele>1333.0</ele><time>2026-05-03T09:28:55.968Z</time></trkpt><trkpt lat="42.015845646653354" lon="13.194016432192175"><ele>1333.0</ele><time>2026-05-03T09:28:56.968Z</time></trkpt><trkpt lat="42.01581975582579" lon="13.194118785847957"><ele>1333.0</ele><time>2026-05-03T09:28:57.968Z</time></trkpt><trkpt lat="42.01581000107389" lon="13.194211876570293"><ele>1333.0</ele><time>2026-05-03T09:28:58.968Z</time></trkpt><trkpt lat="42.01579536202131" lon="13.194295297999728"><ele>1333.0</ele><time>2026-05-03T09:28:59.968Z</time></trkpt><trkpt lat="42.01574806450826" lon="13.19446925153279"><ele>1333.6666666666665</ele><time>2026-05-03T09:29:01.968Z</time></trkpt><trkpt lat="42.01571494002021" lon="13.194570671611359"><ele>1334.3333333333333</ele><time>2026-05-03T09:29:02.968Z</time></trkpt><trkpt lat="42.01567886764451" lon="13.194674395884704"><ele>1335.0</ele><time>2026-05-03T09:29:03.968Z</time></trkpt><trkpt lat="42.01564712242596" lon="13.194790712761263"><ele>1335.6666666666667</ele><time>2026-05-03T09:29:04.968Z</time></trkpt><trkpt lat="42.015608818455476" lon="13.194890962488813"><ele>1336.3333333333335</ele><time>2026-05-03T09:29:05.968Z</time></trkpt><trkpt lat="42.01555682759488" lon="13.194990419593296"><ele>1337.0</ele><time>2026-05-03T09:29:06.968Z</time></trkpt><trkpt lat="42.015501345091806" lon="13.195081997312208"><ele>1337.0</ele><time>2026-05-03T09:29:07.968Z</time></trkpt><trkpt lat="42.01543880597623" lon="13.195185990538256"><ele>1337.0</ele><time>2026-05-03T09:29:08.968Z</time></trkpt><trkpt lat="42.0153696028285" lon="13.195286447546396"><ele>1337.0</ele><time>2026-05-03T09:29:09.968Z</time></trkpt><trkpt lat="42.01529841075094" lon="13.19539182246797"><ele>1337.0</ele><time>2026-05-03T09:29:10.968Z</time></trkpt><trkpt lat="42.015223863115665" lon="13.195495030583846"><ele>1337.0</ele><time>2026-05-03T09:29:11.968Z</time></trkpt><trkpt lat="42.01515359035579" lon="13.195588469068452"><ele>1334.1999999999998</ele><time>2026-05-03T09:29:12.968Z</time></trkpt><trkpt lat="42.01507838199879" lon="13.195683718362995"><ele>1331.4</ele><time>2026-05-03T09:29:13.968Z</time></trkpt><trkpt lat="42.015010388395794" lon="13.195786919866913"><ele>1328.6</ele><time>2026-05-03T09:29:14.968Z</time></trkpt><trkpt lat="42.014936667974226" lon="13.195879498665883"><ele>1325.8000000000002</ele><time>2026-05-03T09:29:15.968Z</time></trkpt><trkpt lat="42.01485731425442" lon="13.195962414905786"><ele>1323.0</ele><time>2026-05-03T09:29:16.968Z</time></trkpt><trkpt lat="42.01477346296596" lon="13.196033672761004"><ele>1327.1666666666667</ele><time>2026-05-03T09:29:17.968Z</time></trkpt><trkpt lat="42.01471047216643" lon="13.196112166489291"><ele>1331.3333333333333</ele><time>2026-05-03T09:29:18.968Z</time></trkpt><trkpt lat="42.01464996561827" lon="13.196186559740402"><ele>1335.5</ele><time>2026-05-03T09:29:19.968Z</time></trkpt><trkpt lat="42.014594393913555" lon="13.196262000265074"><ele>1339.6666666666665</ele><time>2026-05-03T09:29:20.968Z</time></trkpt><trkpt lat="42.014543838230274" lon="13.196340915991135"><ele>1343.8333333333333</ele><time>2026-05-03T09:29:21.968Z</time></trkpt><trkpt lat="42.014506441166255" lon="13.196418515553221"><ele>1348.0</ele><time>2026-05-03T09:29:22.968Z</time></trkpt><trkpt lat="42.0144723332113" lon="13.196503900945222"><ele>1348.0</ele><time>2026-05-03T09:29:23.968Z</time></trkpt><trkpt lat="42.01443775951055" lon="13.196590297696975"><ele>1348.0</ele><time>2026-05-03T09:29:24.968Z</time></trkpt><trkpt lat="42.01440768285224" lon="13.196687819576761"><ele>1348.0</ele><time>2026-05-03T09:29:25.968Z</time></trkpt><trkpt lat="42.014374112051456" lon="13.196770905328465"><ele>1348.0</ele><time>2026-05-03T09:29:26.968Z</time></trkpt><trkpt lat="42.014339538167" lon="13.196861375357427"><ele>1348.0</ele><time>2026-05-03T09:29:27.968Z</time></trkpt><trkpt lat="42.01430402492857" lon="13.19696034706413"><ele>1348.0</ele><time>2026-05-03T09:29:28.968Z</time></trkpt><trkpt lat="42.01426630144425" lon="13.197060693032396"><ele>1348.0</ele><time>2026-05-03T09:29:29.968Z</time></trkpt><trkpt lat="42.01422632924765" lon="13.197169324926222"><ele>1348.0</ele><time>2026-05-03T09:29:30.968Z</time></trkpt><trkpt lat="42.014190028673376" lon="13.197280495560527"><ele>1348.0</ele><time>2026-05-03T09:29:31.968Z</time></trkpt><trkpt lat="42.01415347055801" lon="13.197387742645763"><ele>1348.0</ele><time>2026-05-03T09:29:32.968Z</time></trkpt><trkpt lat="42.01411974110059" lon="13.197495649791348"><ele>1348.0</ele><time>2026-05-03T09:29:33.968Z</time></trkpt><trkpt lat="42.014088013547244" lon="13.197614214649958"><ele>1348.0</ele><time>2026-05-03T09:29:34.968Z</time></trkpt><trkpt lat="42.01405599433691" lon="13.197730112901594"><ele>1349.4</ele><time>2026-05-03T09:29:35.968Z</time></trkpt><trkpt lat="42.01402156697531" lon="13.197847427050144"><ele>1350.8000000000002</ele><time>2026-05-03T09:29:36.968Z</time></trkpt><trkpt lat="42.01398273988399" lon="13.19795382155194"><ele>1352.2</ele><time>2026-05-03T09:29:37.968Z</time></trkpt><trkpt lat="42.013944129421255" lon="13.198066254794837"><ele>1353.6</ele><time>2026-05-03T09:29:38.968Z</time></trkpt><trkpt lat="42.013902111350625" lon="13.198191419858706"><ele>1355.0</ele><time>2026-05-03T09:29:39.968Z</time></trkpt><trkpt lat="42.0138632112644" lon="13.198323071271089"><ele>1355.0</ele><time>2026-05-03T09:29:40.968Z</time></trkpt><trkpt lat="42.01382360362545" lon="13.198454063729034"><ele>1355.0</ele><time>2026-05-03T09:29:41.968Z</time></trkpt><trkpt lat="42.01377847058185" lon="13.198575426643735"><ele>1355.0</ele><time>2026-05-03T09:29:42.968Z</time></trkpt><trkpt lat="42.01372912556146" lon="13.198703921281677"><ele>1355.0</ele><time>2026-05-03T09:29:43.968Z</time></trkpt><trkpt lat="42.013672335350854" lon="13.198806500298414"><ele>1355.0</ele><time>2026-05-03T09:29:44.968Z</time></trkpt><trkpt lat="42.013608367354685" lon="13.198912728384052"><ele>1353.0</ele><time>2026-05-03T09:29:45.968Z</time></trkpt><trkpt lat="42.0135473087017" lon="13.199019576639827"><ele>1351.0</ele><time>2026-05-03T09:29:46.968Z</time></trkpt><trkpt lat="42.013496821549396" lon="13.199133099575757"><ele>1349.0</ele><time>2026-05-03T09:29:47.968Z</time></trkpt><trkpt lat="42.01345092250832" lon="13.19924468497186"><ele>1347.0</ele><time>2026-05-03T09:29:48.968Z</time></trkpt><trkpt lat="42.01340748517603" lon="13.19935045449864"><ele>1345.0</ele><time>2026-05-03T09:29:49.968Z</time></trkpt><trkpt lat="42.01337158717317" lon="13.199454517941051"><ele>1345.0</ele><time>2026-05-03T09:29:50.968Z</time></trkpt><trkpt lat="42.013336533202576" lon="13.199557665686699"><ele>1345.0</ele><time>2026-05-03T09:29:51.968Z</time></trkpt><trkpt lat="42.01329410051212" lon="13.199653651968678"><ele>1345.0</ele><time>2026-05-03T09:29:52.968Z</time></trkpt><trkpt lat="42.01324898134687" lon="13.199724827870714"><ele>1345.0</ele><time>2026-05-03T09:29:53.968Z</time></trkpt><trkpt lat="42.013208459187275" lon="13.199798753827457"><ele>1345.0</ele><time>2026-05-03T09:29:54.968Z</time></trkpt><trkpt lat="42.01317597049954" lon="13.199879581746723"><ele>1345.0</ele><time>2026-05-03T09:29:55.968Z</time></trkpt><trkpt lat="42.01313815489614" lon="13.1999721338327"><ele>1351.0</ele><time>2026-05-03T09:29:56.968Z</time></trkpt><trkpt lat="42.01310801699628" lon="13.200078785892774"><ele>1357.0</ele><time>2026-05-03T09:29:57.968Z</time></trkpt><trkpt lat="42.013092138133466" lon="13.200191262929376"><ele>1363.0</ele><time>2026-05-03T09:29:58.968Z</time></trkpt><trkpt lat="42.01306202708782" lon="13.200302358705276"><ele>1369.0</ele><time>2026-05-03T09:29:59.968Z</time></trkpt><trkpt lat="42.01304212166315" lon="13.200416582627327"><ele>1375.0</ele><time>2026-05-03T09:30:00.968Z</time></trkpt><trkpt lat="42.01302423163806" lon="13.200524512518301"><ele>1381.0</ele><time>2026-05-03T09:30:01.968Z</time></trkpt><trkpt lat="42.01299316702625" lon="13.20063265251997"><ele>1380.4</ele><time>2026-05-03T09:30:02.968Z</time></trkpt><trkpt lat="42.01296329092764" lon="13.200742945297039"><ele>1379.8</ele><time>2026-05-03T09:30:03.968Z</time></trkpt><trkpt lat="42.0129280182351" lon="13.200855309821026"><ele>1379.2</ele><time>2026-05-03T09:30:04.968Z</time></trkpt><trkpt lat="42.0128970971494" lon="13.200981053166721"><ele>1378.6000000000001</ele><time>2026-05-03T09:30:05.968Z</time></trkpt><trkpt lat="42.01286648907169" lon="13.201107179933853"><ele>1378.0</ele><time>2026-05-03T09:30:06.968Z</time></trkpt><trkpt lat="42.01283726783279" lon="13.20123460892405"><ele>1378.0</ele><time>2026-05-03T09:30:07.968Z</time></trkpt><trkpt lat="42.012803945723036" lon="13.201354913326096"><ele>1378.0</ele><time>2026-05-03T09:30:08.968Z</time></trkpt><trkpt lat="42.01276597149405" lon="13.201463896737955"><ele>1378.0</ele><time>2026-05-03T09:30:09.968Z</time></trkpt><trkpt lat="42.01271768383627" lon="13.201578903836287"><ele>1378.0</ele><time>2026-05-03T09:30:10.968Z</time></trkpt><trkpt lat="42.01266435381332" lon="13.20169613459833"><ele>1378.0</ele><time>2026-05-03T09:30:11.968Z</time></trkpt><trkpt lat="42.012632626401945" lon="13.201812214975568"><ele>1376.0</ele><time>2026-05-03T09:30:12.968Z</time></trkpt><trkpt lat="42.01260908118277" lon="13.201935382906049"><ele>1374.0</ele><time>2026-05-03T09:30:13.968Z</time></trkpt><trkpt lat="42.012585204602416" lon="13.202048396442144"><ele>1372.0</ele><time>2026-05-03T09:30:14.968Z</time></trkpt><trkpt lat="42.01255064553643" lon="13.202163517543376"><ele>1370.0</ele><time>2026-05-03T09:30:15.968Z</time></trkpt><trkpt lat="42.012518420398166" lon="13.202283974838728"><ele>1368.0</ele><time>2026-05-03T09:30:16.968Z</time></trkpt><trkpt lat="42.01247137561641" lon="13.202404729336024"><ele>1372.0</ele><time>2026-05-03T09:30:17.968Z</time></trkpt><trkpt lat="42.01244015485664" lon="13.202517099077697"><ele>1376.0</ele><time>2026-05-03T09:30:18.968Z</time></trkpt><trkpt lat="42.012401282213304" lon="13.202629323524121"><ele>1380.0</ele><time>2026-05-03T09:30:19.968Z</time></trkpt><trkpt lat="42.01236007008537" lon="13.202736887468609"><ele>1384.0</ele><time>2026-05-03T09:30:20.968Z</time></trkpt><trkpt lat="42.01232118737639" lon="13.202844285207389"><ele>1388.0</ele><time>2026-05-03T09:30:21.968Z</time></trkpt><trkpt lat="42.01227658879578" lon="13.202947431504871"><ele>1392.0</ele><time>2026-05-03T09:30:22.968Z</time></trkpt><trkpt lat="42.012245860723496" lon="13.203059230500928"><ele>1392.0</ele><time>2026-05-03T09:30:23.968Z</time></trkpt><trkpt lat="42.012200384921734" lon="13.20314838246839"><ele>1392.0</ele><time>2026-05-03T09:30:24.968Z</time></trkpt><trkpt lat="42.01216414955933" lon="13.203250476924643"><ele>1392.0</ele><time>2026-05-03T09:30:25.968Z</time></trkpt><trkpt lat="42.01213741626382" lon="13.203341780387067"><ele>1392.0</ele><time>2026-05-03T09:30:26.968Z</time></trkpt><trkpt lat="42.01209435246082" lon="13.203490530788136"><ele>1392.0</ele><time>2026-05-03T09:30:28.968Z</time></trkpt><trkpt lat="42.01205427156927" lon="13.203604955423856"><ele>1389.5</ele><time>2026-05-03T09:30:30.968Z</time></trkpt><trkpt lat="42.01201963534493" lon="13.203694831313136"><ele>1387.0</ele><time>2026-05-03T09:30:32.968Z</time></trkpt><trkpt lat="42.01185783823391" lon="13.203820488564105"><ele>1384.5</ele><time>2026-05-03T09:32:01.967Z</time></trkpt><trkpt lat="42.01174901366584" lon="13.203894629102354"><ele>1382.0</ele><time>2026-05-03T09:32:03.967Z</time></trkpt><trkpt lat="42.011685957638896" lon="13.203940573655364"><ele>1382.0</ele><time>2026-05-03T09:32:04.967Z</time></trkpt><trkpt lat="42.0116206449599" lon="13.20400543089304"><ele>1382.0</ele><time>2026-05-03T09:32:05.967Z</time></trkpt><trkpt lat="42.01155372538207" lon="13.20406831874574"><ele>1382.0</ele><time>2026-05-03T09:32:06.967Z</time></trkpt><trkpt lat="42.01147981813915" lon="13.204134948341391"><ele>1382.0</ele><time>2026-05-03T09:32:07.967Z</time></trkpt><trkpt lat="42.01140867308398" lon="13.204204322518171"><ele>1382.0</ele><time>2026-05-03T09:32:08.967Z</time></trkpt><trkpt lat="42.0113358037136" lon="13.20426505434836"><ele>1382.0</ele><time>2026-05-03T09:32:09.967Z</time></trkpt><trkpt lat="42.01127311475706" lon="13.204328488884292"><ele>1382.0</ele><time>2026-05-03T09:32:10.967Z</time></trkpt><trkpt lat="42.01122412114125" lon="13.204401441515374"><ele>1382.0</ele><time>2026-05-03T09:32:11.967Z</time></trkpt><trkpt lat="42.011164896573646" lon="13.204496821591082"><ele>1382.0</ele><time>2026-05-03T09:32:12.967Z</time></trkpt><trkpt lat="42.01111829592403" lon="13.204595715746326"><ele>1382.0</ele><time>2026-05-03T09:32:13.967Z</time></trkpt><trkpt lat="42.01108715472538" lon="13.20469738208599"><ele>1382.0</ele><time>2026-05-03T09:32:14.967Z</time></trkpt><trkpt lat="42.011036483881014" lon="13.204798341667958"><ele>1382.0</ele><time>2026-05-03T09:32:15.967Z</time></trkpt><trkpt lat="42.01099945773414" lon="13.204914121261663"><ele>1380.3333333333335</ele><time>2026-05-03T09:32:16.967Z</time></trkpt><trkpt lat="42.010964234137404" lon="13.205010611754389"><ele>1378.6666666666667</ele><time>2026-05-03T09:32:17.967Z</time></trkpt><trkpt lat="42.01092546964914" lon="13.205098653791135"><ele>1377.0</ele><time>2026-05-03T09:32:18.967Z</time></trkpt><trkpt lat="42.01088090150288" lon="13.20518111951038"><ele>1375.3333333333333</ele><time>2026-05-03T09:32:19.967Z</time></trkpt><trkpt lat="42.010832407692334" lon="13.20529416303361"><ele>1373.6666666666665</ele><time>2026-05-03T09:32:20.967Z</time></trkpt><trkpt lat="42.010784720934765" lon="13.205405215951645"><ele>1372.0</ele><time>2026-05-03T09:32:21.967Z</time></trkpt><trkpt lat="42.01073484349676" lon="13.205502814879054"><ele>1374.0</ele><time>2026-05-03T09:32:22.967Z</time></trkpt><trkpt lat="42.010677732150484" lon="13.205593664453243"><ele>1376.0</ele><time>2026-05-03T09:32:23.967Z</time></trkpt><trkpt lat="42.01059590757191" lon="13.205685671570647"><ele>1378.0</ele><time>2026-05-03T09:32:24.967Z</time></trkpt><trkpt lat="42.0105297567659" lon="13.205773966792005"><ele>1380.0</ele><time>2026-05-03T09:32:25.967Z</time></trkpt><trkpt lat="42.01046130952257" lon="13.205857125633642"><ele>1382.0</ele><time>2026-05-03T09:32:26.967Z</time></trkpt><trkpt lat="42.01039770757042" lon="13.205934504207441"><ele>1382.0</ele><time>2026-05-03T09:32:27.967Z</time></trkpt><trkpt lat="42.01033152557625" lon="13.206005023718621"><ele>1382.0</ele><time>2026-05-03T09:32:28.967Z</time></trkpt><trkpt lat="42.01026952863421" lon="13.206067269108116"><ele>1382.0</ele><time>2026-05-03T09:32:29.967Z</time></trkpt><trkpt lat="42.01020554741988" lon="13.206097319265007"><ele>1382.0</ele><time>2026-05-03T09:32:30.967Z</time></trkpt><trkpt lat="42.01009530514571" lon="13.206108671468897"><ele>1382.0</ele><time>2026-05-03T09:32:32.967Z</time></trkpt><trkpt lat="42.010044908489185" lon="13.206193870021025"><ele>1382.0</ele><time>2026-05-03T09:32:34.967Z</time></trkpt><trkpt lat="42.01004495076474" lon="13.206282047709788"><ele>1382.0</ele><time>2026-05-03T09:32:36.967Z</time></trkpt><trkpt lat="42.01008408086274" lon="13.206390787707436"><ele>1382.0</ele><time>2026-05-03T09:32:38.967Z</time></trkpt><trkpt lat="42.010169817770574" lon="13.206457389029241"><ele>1382.0</ele><time>2026-05-03T09:32:40.967Z</time></trkpt><trkpt lat="42.010226933256746" lon="13.206495971128884"><ele>1382.0</ele><time>2026-05-03T09:32:41.967Z</time></trkpt><trkpt lat="42.01030039284172" lon="13.206537649777793"><ele>1382.0</ele><time>2026-05-03T09:32:42.967Z</time></trkpt><trkpt lat="42.010361276578244" lon="13.206572560977397"><ele>1382.0</ele><time>2026-05-03T09:32:43.967Z</time></trkpt><trkpt lat="42.01042305973985" lon="13.20661411377792"><ele>1382.6666666666667</ele><time>2026-05-03T09:32:44.967Z</time></trkpt><trkpt lat="42.01048152861731" lon="13.206666501554508"><ele>1383.3333333333335</ele><time>2026-05-03T09:32:45.967Z</time></trkpt><trkpt lat="42.0105603580411" lon="13.206745090393323"><ele>1384.0</ele><time>2026-05-03T09:32:46.967Z</time></trkpt><trkpt lat="42.01063397683769" lon="13.20682207318062"><ele>1384.6666666666667</ele><time>2026-05-03T09:32:47.967Z</time></trkpt><trkpt lat="42.01067628206634" lon="13.20689498367625"><ele>1385.3333333333333</ele><time>2026-05-03T09:32:48.967Z</time></trkpt><trkpt lat="42.01071683319063" lon="13.206970590625843"><ele>1386.0</ele><time>2026-05-03T09:32:49.967Z</time></trkpt><trkpt lat="42.0107683935544" lon="13.207048418828277"><ele>1386.0</ele><time>2026-05-03T09:32:50.967Z</time></trkpt><trkpt lat="42.010810872262745" lon="13.207117490756461"><ele>1386.0</ele><time>2026-05-03T09:32:51.967Z</time></trkpt><trkpt lat="42.01086222182322" lon="13.207173958713964"><ele>1386.0</ele><time>2026-05-03T09:32:52.967Z</time></trkpt><trkpt lat="42.01094883013021" lon="13.207205644214692"><ele>1386.0</ele><time>2026-05-03T09:32:54.967Z</time></trkpt><trkpt lat="42.0110660342897" lon="13.207172254689532"><ele>1386.0</ele><time>2026-05-03T09:32:56.967Z</time></trkpt><trkpt lat="42.011164896257476" lon="13.207144160792465"><ele>1386.0</ele><time>2026-05-03T09:32:58.967Z</time></trkpt><trkpt lat="42.011279622887926" lon="13.207125843216964"><ele>1386.4</ele><time>2026-05-03T09:33:00.967Z</time></trkpt><trkpt lat="42.01138956863708" lon="13.2071455131616"><ele>1386.8</ele><time>2026-05-03T09:33:02.967Z</time></trkpt><trkpt lat="42.01144175195167" lon="13.207218308161224"><ele>1387.2</ele><time>2026-05-03T09:33:04.967Z</time></trkpt><trkpt lat="42.011421631149084" lon="13.207316311538698"><ele>1387.6000000000001</ele><time>2026-05-03T09:33:06.967Z</time></trkpt><trkpt lat="42.01134731015745" lon="13.207417101261548"><ele>1388.0</ele><time>2026-05-03T09:33:08.967Z</time></trkpt><trkpt lat="42.011247392075866" lon="13.207500074090232"><ele>1388.0</ele><time>2026-05-03T09:33:10.967Z</time></trkpt><trkpt lat="42.01119622801805" lon="13.207549787470425"><ele>1388.0</ele><time>2026-05-03T09:33:11.967Z</time></trkpt><trkpt lat="42.01109251550313" lon="13.207637837230543"><ele>1388.0</ele><time>2026-05-03T09:33:13.967Z</time></trkpt><trkpt lat="42.01099137141272" lon="13.207726293028253"><ele>1388.0</ele><time>2026-05-03T09:33:15.967Z</time></trkpt><trkpt lat="42.0109222011831" lon="13.20778316305692"><ele>1388.0</ele><time>2026-05-03T09:33:16.967Z</time></trkpt><trkpt lat="42.010819455831125" lon="13.207877125239985"><ele>1390.5</ele><time>2026-05-03T09:33:18.967Z</time></trkpt><trkpt lat="42.010769012645966" lon="13.207951626575737"><ele>1393.0</ele><time>2026-05-03T09:33:19.967Z</time></trkpt><trkpt lat="42.0107079165143" lon="13.208030878538215"><ele>1395.5</ele><time>2026-05-03T09:33:20.967Z</time></trkpt><trkpt lat="42.01063385021756" lon="13.208177662648938"><ele>1398.0</ele><time>2026-05-03T09:33:22.967Z</time></trkpt><trkpt lat="42.01059547152695" lon="13.208250142167115"><ele>1400.5</ele><time>2026-05-03T09:33:23.967Z</time></trkpt><trkpt lat="42.01054025406822" lon="13.208331993612655"><ele>1403.0</ele><time>2026-05-03T09:33:24.967Z</time></trkpt><trkpt lat="42.01047941854186" lon="13.208414506594512"><ele>1405.6000000000001</ele><time>2026-05-03T09:33:25.967Z</time></trkpt><trkpt lat="42.010407287327276" lon="13.208488186170108"><ele>1408.2</ele><time>2026-05-03T09:33:26.967Z</time></trkpt><trkpt lat="42.01033645894762" lon="13.208555094836086"><ele>1410.8</ele><time>2026-05-03T09:33:27.967Z</time></trkpt><trkpt lat="42.01025739047605" lon="13.208616077304006"><ele>1413.4</ele><time>2026-05-03T09:33:28.967Z</time></trkpt><trkpt lat="42.01017293382072" lon="13.20867541599048"><ele>1416.0</ele><time>2026-05-03T09:33:29.967Z</time></trkpt><trkpt lat="42.010090543394334" lon="13.208739211056535"><ele>1416.0</ele><time>2026-05-03T09:33:30.967Z</time></trkpt><trkpt lat="42.01001827260772" lon="13.208803319170219"><ele>1416.0</ele><time>2026-05-03T09:33:31.967Z</time></trkpt><trkpt lat="42.00994674553528" lon="13.208874046989239"><ele>1416.0</ele><time>2026-05-03T09:33:32.967Z</time></trkpt><trkpt lat="42.00987574468762" lon="13.208943747921966"><ele>1416.0</ele><time>2026-05-03T09:33:33.967Z</time></trkpt><trkpt lat="42.009802249945615" lon="13.20901459459462"><ele>1416.0</ele><time>2026-05-03T09:33:34.967Z</time></trkpt><trkpt lat="42.00973969180505" lon="13.209090987109574"><ele>1416.0</ele><time>2026-05-03T09:33:35.967Z</time></trkpt><trkpt lat="42.00967814873747" lon="13.209170525575587"><ele>1417.3333333333333</ele><time>2026-05-03T09:33:36.967Z</time></trkpt><trkpt lat="42.00962423019216" lon="13.20925061896711"><ele>1418.6666666666667</ele><time>2026-05-03T09:33:37.967Z</time></trkpt><trkpt lat="42.00957076706613" lon="13.2093327857556"><ele>1420.0</ele><time>2026-05-03T09:33:38.967Z</time></trkpt><trkpt lat="42.00950812670833" lon="13.209394252488378"><ele>1421.3333333333335</ele><time>2026-05-03T09:33:39.967Z</time></trkpt><trkpt lat="42.00943150205583" lon="13.209445215508737"><ele>1422.6666666666667</ele><time>2026-05-03T09:33:40.967Z</time></trkpt><trkpt lat="42.00933852300248" lon="13.209475593988296"><ele>1424.0</ele><time>2026-05-03T09:33:41.967Z</time></trkpt><trkpt lat="42.00924904513147" lon="13.209474934729013"><ele>1424.0</ele><time>2026-05-03T09:33:42.966Z</time></trkpt><trkpt lat="42.009159190203725" lon="13.209448993938961"><ele>1424.0</ele><time>2026-05-03T09:33:43.966Z</time></trkpt><trkpt lat="42.009066541479804" lon="13.209416599861981"><ele>1424.0</ele><time>2026-05-03T09:33:44.967Z</time></trkpt><trkpt lat="42.008977222678965" lon="13.209391115308163"><ele>1424.0</ele><time>2026-05-03T09:33:45.967Z</time></trkpt><trkpt lat="42.00888862890156" lon="13.209368865192088"><ele>1424.0</ele><time>2026-05-03T09:33:46.967Z</time></trkpt><trkpt lat="42.0087989545601" lon="13.209360500680136"><ele>1423.8333333333335</ele><time>2026-05-03T09:33:47.967Z</time></trkpt><trkpt lat="42.0087092287017" lon="13.209336084069717"><ele>1423.6666666666667</ele><time>2026-05-03T09:33:48.967Z</time></trkpt><trkpt lat="42.00861802565671" lon="13.209304323005986"><ele>1423.5</ele><time>2026-05-03T09:33:49.967Z</time></trkpt><trkpt lat="42.00853039261977" lon="13.209273980525934"><ele>1423.3333333333333</ele><time>2026-05-03T09:33:50.967Z</time></trkpt><trkpt lat="42.00844990624417" lon="13.20924271420423"><ele>1423.1666666666665</ele><time>2026-05-03T09:33:51.967Z</time></trkpt><trkpt lat="42.00837052047723" lon="13.20921962373405"><ele>1423.0</ele><time>2026-05-03T09:33:52.967Z</time></trkpt><trkpt lat="42.00828915658229" lon="13.209231578667042"><ele>1423.8333333333333</ele><time>2026-05-03T09:33:53.967Z</time></trkpt><trkpt lat="42.00820805900242" lon="13.209257322179607"><ele>1424.6666666666665</ele><time>2026-05-03T09:33:54.966Z</time></trkpt><trkpt lat="42.00813113792979" lon="13.209308228046487"><ele>1425.5</ele><time>2026-05-03T09:33:55.966Z</time></trkpt><trkpt lat="42.008047301556665" lon="13.209379660328056"><ele>1426.3333333333333</ele><time>2026-05-03T09:33:56.966Z</time></trkpt><trkpt lat="42.00796675059546" lon="13.209429601699641"><ele>1427.1666666666667</ele><time>2026-05-03T09:33:57.966Z</time></trkpt><trkpt lat="42.007891473470195" lon="13.209482779704691"><ele>1428.0</ele><time>2026-05-03T09:33:58.966Z</time></trkpt><trkpt lat="42.00782332459892" lon="13.209532195050524"><ele>1428.0</ele><time>2026-05-03T09:33:59.966Z</time></trkpt><trkpt lat="42.00775216108434" lon="13.209579761431211"><ele>1428.0</ele><time>2026-05-03T09:34:00.966Z</time></trkpt><trkpt lat="42.00768231649629" lon="13.209646656018071"><ele>1428.0</ele><time>2026-05-03T09:34:01.966Z</time></trkpt><trkpt lat="42.00761432182751" lon="13.209708054244539"><ele>1428.0</ele><time>2026-05-03T09:34:02.966Z</time></trkpt><trkpt lat="42.007542639334034" lon="13.20975743495081"><ele>1428.0</ele><time>2026-05-03T09:34:03.966Z</time></trkpt><trkpt lat="42.00747092562249" lon="13.209828868352222"><ele>1428.0</ele><time>2026-05-03T09:34:04.966Z</time></trkpt><trkpt lat="42.007396868291" lon="13.209881642637876"><ele>1431.0</ele><time>2026-05-03T09:34:05.966Z</time></trkpt><trkpt lat="42.007319029015335" lon="13.209901981149924"><ele>1434.0</ele><time>2026-05-03T09:34:06.966Z</time></trkpt><trkpt lat="42.00723059147862" lon="13.20988229679604"><ele>1437.0</ele><time>2026-05-03T09:34:07.966Z</time></trkpt><trkpt lat="42.00709467769114" lon="13.209878467101023"><ele>1440.0</ele><time>2026-05-03T09:34:09.966Z</time></trkpt><trkpt lat="42.00702164624309" lon="13.209875974523232"><ele>1443.0</ele><time>2026-05-03T09:34:10.966Z</time></trkpt><trkpt lat="42.00694846989657" lon="13.209892551123582"><ele>1443.0</ele><time>2026-05-03T09:34:11.966Z</time></trkpt><trkpt lat="42.006873907988535" lon="13.20993006137441"><ele>1443.0</ele><time>2026-05-03T09:34:12.966Z</time></trkpt><trkpt lat="42.00678820608311" lon="13.209997857253622"><ele>1443.0</ele><time>2026-05-03T09:34:13.966Z</time></trkpt><trkpt lat="42.00666328380321" lon="13.210065384912264"><ele>1443.0</ele><time>2026-05-03T09:34:14.966Z</time></trkpt><trkpt lat="42.00655483733994" lon="13.210119551502968"><ele>1443.0</ele><time>2026-05-03T09:34:15.966Z</time></trkpt><trkpt lat="42.00644963079929" lon="13.210181420345766"><ele>1442.6000000000001</ele><time>2026-05-03T09:34:16.966Z</time></trkpt><trkpt lat="42.00635074932374" lon="13.210237872843805"><ele>1442.2</ele><time>2026-05-03T09:34:17.966Z</time></trkpt><trkpt lat="42.00626417283263" lon="13.210298502184788"><ele>1441.8</ele><time>2026-05-03T09:34:18.966Z</time></trkpt><trkpt lat="42.00617604444804" lon="13.210374049527797"><ele>1441.4</ele><time>2026-05-03T09:34:19.966Z</time></trkpt><trkpt lat="42.006064046287" lon="13.210422144133844"><ele>1441.0</ele><time>2026-05-03T09:34:20.966Z</time></trkpt><trkpt lat="42.00596548946517" lon="13.21046839188164"><ele>1441.0</ele><time>2026-05-03T09:34:21.966Z</time></trkpt><trkpt lat="42.00587051816868" lon="13.210499257304457"><ele>1441.0</ele><time>2026-05-03T09:34:22.966Z</time></trkpt><trkpt lat="42.00577721669511" lon="13.210530062759759"><ele>1441.0</ele><time>2026-05-03T09:34:23.966Z</time></trkpt><trkpt lat="42.00568125537575" lon="13.210553145305283"><ele>1441.0</ele><time>2026-05-03T09:34:24.966Z</time></trkpt><trkpt lat="42.00559132173359" lon="13.210555826176115"><ele>1441.0</ele><time>2026-05-03T09:34:25.966Z</time></trkpt><trkpt lat="42.00549416648408" lon="13.210576736853115"><ele>1446.8</ele><time>2026-05-03T09:34:26.966Z</time></trkpt><trkpt lat="42.005379266566024" lon="13.210583644228652"><ele>1452.6</ele><time>2026-05-03T09:34:27.966Z</time></trkpt><trkpt lat="42.00529670181749" lon="13.210583568396203"><ele>1458.4</ele><time>2026-05-03T09:34:28.966Z</time></trkpt><trkpt lat="42.00520961197125" lon="13.210618337296543"><ele>1464.2</ele><time>2026-05-03T09:34:29.966Z</time></trkpt><trkpt lat="42.0051075488859" lon="13.210667691995843"><ele>1470.0</ele><time>2026-05-03T09:34:30.966Z</time></trkpt><trkpt lat="42.005012593038174" lon="13.210711776631502"><ele>1471.0</ele><time>2026-05-03T09:34:31.966Z</time></trkpt><trkpt lat="42.004932953908266" lon="13.210781363359404"><ele>1472.0</ele><time>2026-05-03T09:34:32.966Z</time></trkpt><trkpt lat="42.004864799765514" lon="13.210851962545922"><ele>1473.0</ele><time>2026-05-03T09:34:33.966Z</time></trkpt><trkpt lat="42.00478851548709" lon="13.210921630272985"><ele>1474.0</ele><time>2026-05-03T09:34:34.966Z</time></trkpt><trkpt lat="42.00469953826568" lon="13.210997983038911"><ele>1475.0</ele><time>2026-05-03T09:34:35.966Z</time></trkpt><trkpt lat="42.00462400115081" lon="13.211088559329376"><ele>1475.0</ele><time>2026-05-03T09:34:36.966Z</time></trkpt><trkpt lat="42.00453979285875" lon="13.211184902877948"><ele>1475.0</ele><time>2026-05-03T09:34:37.966Z</time></trkpt><trkpt lat="42.00445751002629" lon="13.211264242711389"><ele>1475.0</ele><time>2026-05-03T09:34:38.966Z</time></trkpt><trkpt lat="42.00437574366188" lon="13.211350674358485"><ele>1475.0</ele><time>2026-05-03T09:34:39.966Z</time></trkpt><trkpt lat="42.00429441968201" lon="13.211441916046711"><ele>1475.0</ele><time>2026-05-03T09:34:40.966Z</time></trkpt><trkpt lat="42.00421399442348" lon="13.211549959307982"><ele>1474.8</ele><time>2026-05-03T09:34:41.966Z</time></trkpt><trkpt lat="42.004138583310855" lon="13.211644779918991"><ele>1474.6</ele><time>2026-05-03T09:34:42.966Z</time></trkpt><trkpt lat="42.004070948001825" lon="13.211743421168844"><ele>1474.4</ele><time>2026-05-03T09:34:43.966Z</time></trkpt><trkpt lat="42.00399631687063" lon="13.211840830412381"><ele>1474.2</ele><time>2026-05-03T09:34:44.966Z</time></trkpt><trkpt lat="42.00392815850646" lon="13.211943911078214"><ele>1474.0</ele><time>2026-05-03T09:34:45.966Z</time></trkpt><trkpt lat="42.003856118167114" lon="13.212045558887217"><ele>1474.0</ele><time>2026-05-03T09:34:46.966Z</time></trkpt><trkpt lat="42.003793697155814" lon="13.212143593366209"><ele>1474.0</ele><time>2026-05-03T09:34:47.966Z</time></trkpt><trkpt lat="42.00372912237454" lon="13.212240234561264"><ele>1474.0</ele><time>2026-05-03T09:34:48.966Z</time></trkpt><trkpt lat="42.003670697409994" lon="13.212335501717229"><ele>1474.0</ele><time>2026-05-03T09:34:49.966Z</time></trkpt><trkpt lat="42.00361159324482" lon="13.212437412178517"><ele>1474.0</ele><time>2026-05-03T09:34:50.966Z</time></trkpt><trkpt lat="42.00355074717968" lon="13.212540969775606"><ele>1472.2</ele><time>2026-05-03T09:34:51.966Z</time></trkpt><trkpt lat="42.003484883158826" lon="13.212645118694454"><ele>1470.4</ele><time>2026-05-03T09:34:52.966Z</time></trkpt><trkpt lat="42.00342122916887" lon="13.212748904915063"><ele>1468.6</ele><time>2026-05-03T09:34:53.966Z</time></trkpt><trkpt lat="42.003356742107705" lon="13.212855112149425"><ele>1466.8</ele><time>2026-05-03T09:34:54.966Z</time></trkpt><trkpt lat="42.00329244266992" lon="13.212964113798556"><ele>1465.0</ele><time>2026-05-03T09:34:55.966Z</time></trkpt><trkpt lat="42.00322713008376" lon="13.2130621208654"><ele>1465.4</ele><time>2026-05-03T09:34:56.966Z</time></trkpt><trkpt lat="42.003160897962914" lon="13.21317081276831"><ele>1465.8</ele><time>2026-05-03T09:34:57.966Z</time></trkpt><trkpt lat="42.00309701302301" lon="13.21327825782847"><ele>1466.1999999999998</ele><time>2026-05-03T09:34:58.966Z</time></trkpt><trkpt lat="42.00303207722673" lon="13.213377063943566"><ele>1466.6</ele><time>2026-05-03T09:34:59.966Z</time></trkpt><trkpt lat="42.00296536350771" lon="13.21348027830583"><ele>1467.0</ele><time>2026-05-03T09:35:00.966Z</time></trkpt><trkpt lat="42.002899605940556" lon="13.213585024622063"><ele>1467.0</ele><time>2026-05-03T09:35:01.966Z</time></trkpt><trkpt lat="42.002830307966946" lon="13.213683421470925"><ele>1467.0</ele><time>2026-05-03T09:35:02.966Z</time></trkpt><trkpt lat="42.00275788519793" lon="13.213778240692633"><ele>1467.0</ele><time>2026-05-03T09:35:03.966Z</time></trkpt><trkpt lat="42.00269081754158" lon="13.2138724121074"><ele>1467.0</ele><time>2026-05-03T09:35:04.966Z</time></trkpt><trkpt lat="42.00263177265958" lon="13.213980049688116"><ele>1467.0</ele><time>2026-05-03T09:35:05.966Z</time></trkpt><trkpt lat="42.002576298718814" lon="13.214087080245095"><ele>1468.0</ele><time>2026-05-03T09:35:06.966Z</time></trkpt><trkpt lat="42.00251111482829" lon="13.214185240826092"><ele>1469.0</ele><time>2026-05-03T09:35:07.966Z</time></trkpt><trkpt lat="42.00243827415804" lon="13.214296708807655"><ele>1470.0</ele><time>2026-05-03T09:35:08.966Z</time></trkpt><trkpt lat="42.00237039311106" lon="13.214400799583125"><ele>1471.0</ele><time>2026-05-03T09:35:09.966Z</time></trkpt><trkpt lat="42.002309506516745" lon="13.21451208607679"><ele>1472.0</ele><time>2026-05-03T09:35:10.966Z</time></trkpt><trkpt lat="42.00225526218465" lon="13.214635616926593"><ele>1472.0</ele><time>2026-05-03T09:35:11.966Z</time></trkpt><trkpt lat="42.00221273558937" lon="13.214757602087717"><ele>1472.0</ele><time>2026-05-03T09:35:12.966Z</time></trkpt><trkpt lat="42.0021633743167" lon="13.21488624405817"><ele>1472.0</ele><time>2026-05-03T09:35:13.966Z</time></trkpt><trkpt lat="42.00211370070942" lon="13.215003689160397"><ele>1472.0</ele><time>2026-05-03T09:35:14.966Z</time></trkpt><trkpt lat="42.00206885080485" lon="13.215122305197271"><ele>1472.0</ele><time>2026-05-03T09:35:15.966Z</time></trkpt><trkpt lat="42.002012127975924" lon="13.215231849146502"><ele>1472.8</ele><time>2026-05-03T09:35:16.966Z</time></trkpt><trkpt lat="42.001958761680896" lon="13.215333707973265"><ele>1473.6</ele><time>2026-05-03T09:35:17.966Z</time></trkpt><trkpt lat="42.00189723077973" lon="13.21542096972956"><ele>1474.3999999999999</ele><time>2026-05-03T09:35:18.966Z</time></trkpt><trkpt lat="42.00184829822515" lon="13.215508021045215"><ele>1475.1999999999998</ele><time>2026-05-03T09:35:19.966Z</time></trkpt><trkpt lat="42.001790661587776" lon="13.215621822273217"><ele>1476.0</ele><time>2026-05-03T09:35:21.966Z</time></trkpt><trkpt lat="42.001728078310656" lon="13.215709913008443"><ele>1477.6666666666667</ele><time>2026-05-03T09:36:25.966Z</time></trkpt><trkpt lat="42.00169113276096" lon="13.215784236759935"><ele>1479.3333333333333</ele><time>2026-05-03T09:36:32.966Z</time></trkpt><trkpt lat="42.001658232171955" lon="13.215891035068651"><ele>1481.0</ele><time>2026-05-03T09:36:34.966Z</time></trkpt><trkpt lat="42.00158600023095" lon="13.216032365572252"><ele>1482.6666666666665</ele><time>2026-05-03T09:36:36.966Z</time></trkpt><trkpt lat="42.00154950494432" lon="13.216116371433426"><ele>1484.3333333333333</ele><time>2026-05-03T09:36:37.966Z</time></trkpt><trkpt lat="42.00152145922523" lon="13.216206683642431"><ele>1486.0</ele><time>2026-05-03T09:36:38.966Z</time></trkpt><trkpt lat="42.00148300688758" lon="13.216310847370087"><ele>1486.0</ele><time>2026-05-03T09:36:39.966Z</time></trkpt><trkpt lat="42.001453867930636" lon="13.216399036847259"><ele>1486.0</ele><time>2026-05-03T09:36:40.966Z</time></trkpt><trkpt lat="42.00142629657429" lon="13.216488455286003"><ele>1486.0</ele><time>2026-05-03T09:36:41.966Z</time></trkpt><trkpt lat="42.00140315009849" lon="13.216570754814533"><ele>1486.0</ele><time>2026-05-03T09:36:42.966Z</time></trkpt><trkpt lat="42.00138096424494" lon="13.216653292236044"><ele>1486.0</ele><time>2026-05-03T09:36:43.966Z</time></trkpt><trkpt lat="42.001365644738435" lon="13.216793249971929"><ele>1486.0</ele><time>2026-05-03T09:36:45.966Z</time></trkpt><trkpt lat="42.001386976675555" lon="13.21694423905774"><ele>1485.8333333333333</ele><time>2026-05-03T09:36:47.966Z</time></trkpt><trkpt lat="42.00141360997633" lon="13.217029040042975"><ele>1485.6666666666665</ele><time>2026-05-03T09:36:48.966Z</time></trkpt><trkpt lat="42.0014340293402" lon="13.217110675841576"><ele>1485.5</ele><time>2026-05-03T09:36:49.966Z</time></trkpt><trkpt lat="42.00146812276198" lon="13.217202621455352"><ele>1485.3333333333333</ele><time>2026-05-03T09:36:50.966Z</time></trkpt><trkpt lat="42.001502545771075" lon="13.217291514352006"><ele>1485.1666666666667</ele><time>2026-05-03T09:36:51.966Z</time></trkpt><trkpt lat="42.00156119220498" lon="13.217378920872484"><ele>1485.0</ele><time>2026-05-03T09:36:52.966Z</time></trkpt><trkpt lat="42.00162126847683" lon="13.21745898671257"><ele>1486.0</ele><time>2026-05-03T09:36:53.966Z</time></trkpt><trkpt lat="42.00168560921645" lon="13.217535744441202"><ele>1487.0</ele><time>2026-05-03T09:36:54.966Z</time></trkpt><trkpt lat="42.001754962259774" lon="13.217619015988376"><ele>1488.0</ele><time>2026-05-03T09:36:55.966Z</time></trkpt><trkpt lat="42.00182587212226" lon="13.217698241867552"><ele>1489.0</ele><time>2026-05-03T09:36:56.966Z</time></trkpt><trkpt lat="42.00189202236069" lon="13.217781878982315"><ele>1490.0</ele><time>2026-05-03T09:36:57.966Z</time></trkpt><trkpt lat="42.001939734870206" lon="13.217891263295622"><ele>1490.0</ele><time>2026-05-03T09:36:58.966Z</time></trkpt><trkpt lat="42.00197693594784" lon="13.2179985600809"><ele>1490.0</ele><time>2026-05-03T09:36:59.966Z</time></trkpt><trkpt lat="42.002004692938804" lon="13.21811707973342"><ele>1490.0</ele><time>2026-05-03T09:37:00.966Z</time></trkpt><trkpt lat="42.002018328922595" lon="13.218235029432519"><ele>1490.0</ele><time>2026-05-03T09:37:01.966Z</time></trkpt><trkpt lat="42.0020424592031" lon="13.218357802000876"><ele>1490.0</ele><time>2026-05-03T09:37:02.966Z</time></trkpt><trkpt lat="42.00206585221852" lon="13.218488810708573"><ele>1488.2</ele><time>2026-05-03T09:37:03.966Z</time></trkpt><trkpt lat="42.00207919143137" lon="13.218621235431213"><ele>1486.4</ele><time>2026-05-03T09:37:04.966Z</time></trkpt><trkpt lat="42.00207472012761" lon="13.21875244156767"><ele>1484.6</ele><time>2026-05-03T09:37:05.966Z</time></trkpt><trkpt lat="42.00206129455713" lon="13.218895742205799"><ele>1482.8</ele><time>2026-05-03T09:37:06.966Z</time></trkpt><trkpt lat="42.002051354581624" lon="13.219045936574632"><ele>1481.0</ele><time>2026-05-03T09:37:07.966Z</time></trkpt><trkpt lat="42.00202697411352" lon="13.219190479239158"><ele>1480.8</ele><time>2026-05-03T09:37:08.966Z</time></trkpt><trkpt lat="42.00200657923051" lon="13.219323914483226"><ele>1480.6</ele><time>2026-05-03T09:37:09.966Z</time></trkpt><trkpt lat="42.001989310400425" lon="13.219456136974276"><ele>1480.4</ele><time>2026-05-03T09:37:10.966Z</time></trkpt><trkpt lat="42.00197151840597" lon="13.219583425456168"><ele>1480.2</ele><time>2026-05-03T09:37:11.966Z</time></trkpt><trkpt lat="42.00194788824498" lon="13.219694715797493"><ele>1480.0</ele><time>2026-05-03T09:37:12.966Z</time></trkpt><trkpt lat="42.00192796656107" lon="13.219831810874606"><ele>1480.6666666666665</ele><time>2026-05-03T09:37:13.966Z</time></trkpt><trkpt lat="42.00192668730989" lon="13.21993776671047"><ele>1481.3333333333333</ele><time>2026-05-03T09:37:14.966Z</time></trkpt><trkpt lat="42.00192634843073" lon="13.22002466524035"><ele>1482.0</ele><time>2026-05-03T09:37:15.966Z</time></trkpt><trkpt lat="42.00194808011352" lon="13.220115782887133"><ele>1482.6666666666667</ele><time>2026-05-03T09:37:16.966Z</time></trkpt><trkpt lat="42.00194955978682" lon="13.220217768746021"><ele>1483.3333333333335</ele><time>2026-05-03T09:37:17.966Z</time></trkpt><trkpt lat="42.00196594942618" lon="13.220300755903471"><ele>1484.0</ele><time>2026-05-03T09:37:18.966Z</time></trkpt><trkpt lat="42.00200313996692" lon="13.220467608134689"><ele>1484.0</ele><time>2026-05-03T09:37:20.966Z</time></trkpt><trkpt lat="42.00200102483924" lon="13.220566045505542"><ele>1484.0</ele><time>2026-05-03T09:37:21.966Z</time></trkpt><trkpt lat="42.00197613614835" lon="13.220671279572343"><ele>1484.0</ele><time>2026-05-03T09:37:22.966Z</time></trkpt><trkpt lat="42.001952708262905" lon="13.220798485270508"><ele>1484.0</ele><time>2026-05-03T09:37:23.966Z</time></trkpt><trkpt lat="42.0019326333015" lon="13.220923131770231"><ele>1484.0</ele><time>2026-05-03T09:37:24.966Z</time></trkpt><trkpt lat="42.001917184042085" lon="13.22104608517801"><ele>1484.0</ele><time>2026-05-03T09:37:25.966Z</time></trkpt><trkpt lat="42.0019098660894" lon="13.221171860259489"><ele>1484.4</ele><time>2026-05-03T09:37:26.966Z</time></trkpt><trkpt lat="42.001896607342864" lon="13.22126515716233"><ele>1484.8000000000002</ele><time>2026-05-03T09:37:27.966Z</time></trkpt><trkpt lat="42.00188201807963" lon="13.221405012265178"><ele>1485.1999999999998</ele><time>2026-05-03T09:37:28.966Z</time></trkpt><trkpt lat="42.00186787957338" lon="13.221563381209533"><ele>1485.6</ele><time>2026-05-03T09:37:29.966Z</time></trkpt><trkpt lat="42.001865059392614" lon="13.221705421567089"><ele>1486.0</ele><time>2026-05-03T09:37:30.966Z</time></trkpt><trkpt lat="42.00186372465331" lon="13.221852166065856"><ele>1484.6</ele><time>2026-05-03T09:37:31.966Z</time></trkpt><trkpt lat="42.001866538132" lon="13.221992361730756"><ele>1483.1999999999998</ele><time>2026-05-03T09:37:32.966Z</time></trkpt><trkpt lat="42.001871531061916" lon="13.222133849704212"><ele>1481.8000000000002</ele><time>2026-05-03T09:37:33.966Z</time></trkpt><trkpt lat="42.00187143743425" lon="13.222268473005366"><ele>1480.4</ele><time>2026-05-03T09:37:34.966Z</time></trkpt><trkpt lat="42.00187335708587" lon="13.222389676336096"><ele>1479.0</ele><time>2026-05-03T09:37:35.966Z</time></trkpt><trkpt lat="42.001880373120045" lon="13.22250527913789"><ele>1478.1666666666667</ele><time>2026-05-03T09:37:36.966Z</time></trkpt><trkpt lat="42.00188355573043" lon="13.222629385076662"><ele>1477.3333333333333</ele><time>2026-05-03T09:37:37.966Z</time></trkpt><trkpt lat="42.00188705590024" lon="13.222743220086267"><ele>1476.5</ele><time>2026-05-03T09:37:38.966Z</time></trkpt><trkpt lat="42.001880138119425" lon="13.222862708771254"><ele>1475.6666666666665</ele><time>2026-05-03T09:37:39.966Z</time></trkpt><trkpt lat="42.0018853647662" lon="13.222969379963407"><ele>1474.8333333333333</ele><time>2026-05-03T09:37:40.966Z</time></trkpt><trkpt lat="42.00190898341531" lon="13.223076653814195"><ele>1474.0</ele><time>2026-05-03T09:37:41.966Z</time></trkpt><trkpt lat="42.001940068432816" lon="13.223165057976093"><ele>1472.2</ele><time>2026-05-03T09:37:42.966Z</time></trkpt><trkpt lat="42.001992848851074" lon="13.223241790296592"><ele>1470.4</ele><time>2026-05-03T09:37:43.966Z</time></trkpt><trkpt lat="42.00204232876621" lon="13.22332010883371"><ele>1468.6</ele><time>2026-05-03T09:37:44.966Z</time></trkpt><trkpt lat="42.002130598708796" lon="13.223402495946283"><ele>1466.8</ele><time>2026-05-03T09:37:46.966Z</time></trkpt><trkpt lat="42.002197146274185" lon="13.223531295269748"><ele>1465.0</ele><time>2026-05-03T09:37:48.966Z</time></trkpt><trkpt lat="42.00224500534981" lon="13.223669323395299"><ele>1465.0</ele><time>2026-05-03T09:37:50.966Z</time></trkpt><trkpt lat="42.002276560775535" lon="13.223815009062607"><ele>1465.0</ele><time>2026-05-03T09:37:52.966Z</time></trkpt><trkpt lat="42.002295250812296" lon="13.223897084853089"><ele>1465.0</ele><time>2026-05-03T09:37:53.965Z</time></trkpt><trkpt lat="42.0023247871185" lon="13.223976846812468"><ele>1465.0</ele><time>2026-05-03T09:37:54.965Z</time></trkpt><trkpt lat="42.002355467876754" lon="13.224056926851196"><ele>1465.0</ele><time>2026-05-03T09:37:55.965Z</time></trkpt><trkpt lat="42.002387362862976" lon="13.224147042274925"><ele>1465.0</ele><time>2026-05-03T09:37:56.965Z</time></trkpt><trkpt lat="42.002427707117846" lon="13.224225292552266"><ele>1467.3333333333333</ele><time>2026-05-03T09:37:57.964Z</time></trkpt><trkpt lat="42.0024767281414" lon="13.224306167971159"><ele>1469.6666666666665</ele><time>2026-05-03T09:37:58.964Z</time></trkpt><trkpt lat="42.00251902294219" lon="13.224388665502104"><ele>1472.0</ele><time>2026-05-03T09:37:59.965Z</time></trkpt><trkpt lat="42.00256989725165" lon="13.224493915866999"><ele>1474.3333333333333</ele><time>2026-05-03T09:38:00.965Z</time></trkpt><trkpt lat="42.002630326927395" lon="13.224581259621392"><ele>1476.6666666666667</ele><time>2026-05-03T09:38:01.965Z</time></trkpt><trkpt lat="42.002680587872014" lon="13.224672052591718"><ele>1479.0</ele><time>2026-05-03T09:38:02.964Z</time></trkpt><trkpt lat="42.002748145828114" lon="13.22475397625294"><ele>1479.0</ele><time>2026-05-03T09:38:03.964Z</time></trkpt><trkpt lat="42.00281641883246" lon="13.224793852623327"><ele>1479.0</ele><time>2026-05-03T09:38:04.964Z</time></trkpt><trkpt lat="42.002868570675176" lon="13.22484540271049"><ele>1479.0</ele><time>2026-05-03T09:38:05.965Z</time></trkpt><trkpt lat="42.00292377086708" lon="13.224887052036864"><ele>1479.0</ele><time>2026-05-03T09:38:06.964Z</time></trkpt><trkpt lat="42.00297949744049" lon="13.224933933050227"><ele>1479.0</ele><time>2026-05-03T09:38:07.964Z</time></trkpt><trkpt lat="42.00302618162201" lon="13.224996933520762"><ele>1479.0</ele><time>2026-05-03T09:38:08.964Z</time></trkpt><trkpt lat="42.003129922763804" lon="13.225025389934425"><ele>1479.0</ele><time>2026-05-03T09:38:10.964Z</time></trkpt><trkpt lat="42.003195507510235" lon="13.225031875798809"><ele>1477.6666666666667</ele><time>2026-05-03T09:38:11.964Z</time></trkpt><trkpt lat="42.003266077312624" lon="13.225069572277377"><ele>1476.3333333333335</ele><time>2026-05-03T09:38:12.964Z</time></trkpt><trkpt lat="42.00353586746516" lon="13.22506167207995"><ele>1475.0</ele><time>2026-05-03T09:38:17.964Z</time></trkpt><trkpt lat="42.003641854971896" lon="13.225038679370005"><ele>1475.0</ele><time>2026-05-03T09:38:20.964Z</time></trkpt><trkpt lat="42.0037228053483" lon="13.224992884747426"><ele>1475.0</ele><time>2026-05-03T09:38:22.964Z</time></trkpt><trkpt lat="42.003788981197474" lon="13.224945132010328"><ele>1475.0</ele><time>2026-05-03T09:38:24.964Z</time></trkpt><trkpt lat="42.00386172901294" lon="13.224932658395915"><ele>1475.0</ele><time>2026-05-03T09:38:25.964Z</time></trkpt><trkpt lat="42.0039482661117" lon="13.224860514619168"><ele>1475.0</ele><time>2026-05-03T09:38:27.964Z</time></trkpt><trkpt lat="42.00402211570681" lon="13.224840001382194"><ele>1475.0</ele><time>2026-05-03T09:38:28.964Z</time></trkpt><trkpt lat="42.00408608656654" lon="13.224821703432694"><ele>1477.8333333333335</ele><time>2026-05-03T09:38:29.964Z</time></trkpt><trkpt lat="42.00414835663123" lon="13.224806606399568"><ele>1480.6666666666667</ele><time>2026-05-03T09:38:30.964Z</time></trkpt><trkpt lat="42.00423475275167" lon="13.22477778143955"><ele>1483.5</ele><time>2026-05-03T09:38:31.964Z</time></trkpt><trkpt lat="42.00430492778241" lon="13.22475419960647"><ele>1486.3333333333333</ele><time>2026-05-03T09:38:32.964Z</time></trkpt><trkpt lat="42.0043635580116" lon="13.224692419676785"><ele>1489.1666666666665</ele><time>2026-05-03T09:38:34.964Z</time></trkpt><trkpt lat="42.00445800927445" lon="13.224625715214883"><ele>1492.0</ele><time>2026-05-03T09:38:36.964Z</time></trkpt><trkpt lat="42.00456501426339" lon="13.224540177677468"><ele>1492.0</ele><time>2026-05-03T09:38:38.964Z</time></trkpt><trkpt lat="42.004628009842" lon="13.224501758645523"><ele>1492.0</ele><time>2026-05-03T09:38:39.964Z</time></trkpt><trkpt lat="42.0047408441944" lon="13.224457126573576"><ele>1492.0</ele><time>2026-05-03T09:38:41.964Z</time></trkpt><trkpt lat="42.0048186932098" lon="13.224393761177192"><ele>1492.0</ele><time>2026-05-03T09:38:43.964Z</time></trkpt><trkpt lat="42.004860241153416" lon="13.224291614560853"><ele>1492.0</ele><time>2026-05-03T09:38:45.964Z</time></trkpt><trkpt lat="42.00493274701804" lon="13.224209463517854"><ele>1485.3999999999999</ele><time>2026-05-03T09:38:47.964Z</time></trkpt><trkpt lat="42.00500508471318" lon="13.224179326434191"><ele>1478.8</ele><time>2026-05-03T09:38:48.964Z</time></trkpt><trkpt lat="42.00507431023653" lon="13.224145357729173"><ele>1472.2</ele><time>2026-05-03T09:38:49.964Z</time></trkpt><trkpt lat="42.00514267458007" lon="13.224097711471956"><ele>1465.6</ele><time>2026-05-03T09:38:50.964Z</time></trkpt><trkpt lat="42.005242493309" lon="13.224024951078212"><ele>1459.0</ele><time>2026-05-03T09:38:52.964Z</time></trkpt><trkpt lat="42.005351500926466" lon="13.224006383749964"><ele>1459.0</ele><time>2026-05-03T09:38:54.964Z</time></trkpt><trkpt lat="42.00542535753096" lon="13.224017422536344"><ele>1459.0</ele><time>2026-05-03T09:38:55.964Z</time></trkpt><trkpt lat="42.00551523299158" lon="13.22408438951992"><ele>1459.0</ele><time>2026-05-03T09:38:57.964Z</time></trkpt><trkpt lat="42.00557065000529" lon="13.224183681526732"><ele>1459.0</ele><time>2026-05-03T09:38:59.964Z</time></trkpt><trkpt lat="42.00555148876516" lon="13.224353974023488"><ele>1459.0</ele><time>2026-05-03T09:39:02.964Z</time></trkpt><trkpt lat="42.00550376759538" lon="13.224458931998523"><ele>1459.0</ele><time>2026-05-03T09:39:03.964Z</time></trkpt><trkpt lat="42.00544764722152" lon="13.224566116025605"><ele>1459.0</ele><time>2026-05-03T09:39:04.964Z</time></trkpt><trkpt lat="42.00538706515605" lon="13.224708172740396"><ele>1459.0</ele><time>2026-05-03T09:39:05.964Z</time></trkpt><trkpt lat="42.00536400176021" lon="13.224827369866828"><ele>1459.0</ele><time>2026-05-03T09:39:06.964Z</time></trkpt><trkpt lat="42.00533036903197" lon="13.224955334724774"><ele>1459.0</ele><time>2026-05-03T09:39:07.964Z</time></trkpt><trkpt lat="42.00529280024531" lon="13.225058686526934"><ele>1456.1666666666665</ele><time>2026-05-03T09:39:08.964Z</time></trkpt><trkpt lat="42.00525541321316" lon="13.225131543278332"><ele>1453.3333333333333</ele><time>2026-05-03T09:39:09.964Z</time></trkpt><trkpt lat="42.00520380650279" lon="13.22521738272039"><ele>1450.5</ele><time>2026-05-03T09:39:10.964Z</time></trkpt><trkpt lat="42.00516554571421" lon="13.225316975862496"><ele>1447.6666666666667</ele><time>2026-05-03T09:39:11.964Z</time></trkpt><trkpt lat="42.00515458479618" lon="13.22540960858752"><ele>1444.8333333333335</ele><time>2026-05-03T09:39:12.964Z</time></trkpt><trkpt lat="42.00515434332396" lon="13.225574868926538"><ele>1442.0</ele><time>2026-05-03T09:39:14.964Z</time></trkpt><trkpt lat="42.005141477354925" lon="13.225676034970746"><ele>1439.8333333333335</ele><time>2026-05-03T09:39:15.964Z</time></trkpt><trkpt lat="42.00512271734306" lon="13.225807169524654"><ele>1437.6666666666667</ele><time>2026-05-03T09:39:16.964Z</time></trkpt><trkpt lat="42.00512322562253" lon="13.225894848679246"><ele>1435.5</ele><time>2026-05-03T09:39:17.965Z</time></trkpt><trkpt lat="42.0051314831855" lon="13.226002227994853"><ele>1433.3333333333333</ele><time>2026-05-03T09:39:18.965Z</time></trkpt><trkpt lat="42.0051609754803" lon="13.226130776195454"><ele>1431.1666666666665</ele><time>2026-05-03T09:39:19.965Z</time></trkpt><trkpt lat="42.005165980838655" lon="13.226250016428708"><ele>1429.0</ele><time>2026-05-03T09:39:20.965Z</time></trkpt><trkpt lat="42.00516561966011" lon="13.226346356580901"><ele>1426.4</ele><time>2026-05-03T09:39:21.965Z</time></trkpt><trkpt lat="42.00517078211518" lon="13.226490995418965"><ele>1423.8000000000002</ele><time>2026-05-03T09:39:22.965Z</time></trkpt><trkpt lat="42.00518088428741" lon="13.226604676717326"><ele>1421.1999999999998</ele><time>2026-05-03T09:39:23.965Z</time></trkpt><trkpt lat="42.00519784841419" lon="13.226704803591527"><ele>1418.6</ele><time>2026-05-03T09:39:24.965Z</time></trkpt><trkpt lat="42.00520051624332" lon="13.226843235124987"><ele>1416.0</ele><time>2026-05-03T09:39:25.965Z</time></trkpt><trkpt lat="42.00519845636883" lon="13.226967738775436"><ele>1416.0</ele><time>2026-05-03T09:39:26.965Z</time></trkpt><trkpt lat="42.00520347621786" lon="13.227078792240313"><ele>1416.0</ele><time>2026-05-03T09:39:27.965Z</time></trkpt><trkpt lat="42.0051976766213" lon="13.22720273935088"><ele>1416.0</ele><time>2026-05-03T09:39:28.965Z</time></trkpt><trkpt lat="42.005189114214964" lon="13.227341759737824"><ele>1416.0</ele><time>2026-05-03T09:39:29.965Z</time></trkpt><trkpt lat="42.00522107296523" lon="13.22743851325018"><ele>1416.0</ele><time>2026-05-03T09:39:30.965Z</time></trkpt><trkpt lat="42.005242705220205" lon="13.227551828442044"><ele>1416.0</ele><time>2026-05-03T09:39:31.965Z</time></trkpt><trkpt lat="42.00525507947109" lon="13.22766819284122"><ele>1413.1999999999998</ele><time>2026-05-03T09:39:32.965Z</time></trkpt><trkpt lat="42.0052719449478" lon="13.227756345168206"><ele>1410.3999999999999</ele><time>2026-05-03T09:39:33.965Z</time></trkpt><trkpt lat="42.00525988960111" lon="13.227879415025551"><ele>1407.6</ele><time>2026-05-03T09:39:34.965Z</time></trkpt><trkpt lat="42.005257191789774" lon="13.228007746042463"><ele>1404.8</ele><time>2026-05-03T09:39:35.965Z</time></trkpt><trkpt lat="42.00526518130028" lon="13.228142570631404"><ele>1402.0</ele><time>2026-05-03T09:39:36.965Z</time></trkpt><trkpt lat="42.00529338705718" lon="13.228291911706155"><ele>1399.3999999999999</ele><time>2026-05-03T09:39:37.965Z</time></trkpt><trkpt lat="42.005327944484776" lon="13.22841249668014"><ele>1396.8</ele><time>2026-05-03T09:39:38.965Z</time></trkpt><trkpt lat="42.00532775011723" lon="13.22854390101059"><ele>1394.2</ele><time>2026-05-03T09:39:39.965Z</time></trkpt><trkpt lat="42.005327410961975" lon="13.228672293206023"><ele>1391.6</ele><time>2026-05-03T09:39:40.965Z</time></trkpt><trkpt lat="42.005332959837965" lon="13.228822135302627"><ele>1389.0</ele><time>2026-05-03T09:39:41.965Z</time></trkpt><trkpt lat="42.005328810541236" lon="13.228959144975429"><ele>1388.8333333333333</ele><time>2026-05-03T09:39:42.965Z</time></trkpt><trkpt lat="42.0053129721456" lon="13.229069858766096"><ele>1388.6666666666667</ele><time>2026-05-03T09:39:43.965Z</time></trkpt><trkpt lat="42.00527696197311" lon="13.229179661611308"><ele>1388.5</ele><time>2026-05-03T09:39:44.965Z</time></trkpt><trkpt lat="42.00523581661446" lon="13.22927427815542"><ele>1388.3333333333335</ele><time>2026-05-03T09:39:45.965Z</time></trkpt><trkpt lat="42.00519877210429" lon="13.229356059497935"><ele>1388.1666666666667</ele><time>2026-05-03T09:39:46.965Z</time></trkpt><trkpt lat="42.005170334443996" lon="13.229441467005906"><ele>1388.0</ele><time>2026-05-03T09:39:48.965Z</time></trkpt><trkpt lat="42.00506942754532" lon="13.229446202692907"><ele>1388.0</ele><time>2026-05-03T09:39:52.965Z</time></trkpt><trkpt lat="42.0050487042788" lon="13.229362746091764"><ele>1388.0</ele><time>2026-05-03T09:39:54.965Z</time></trkpt><trkpt lat="42.0050326886391" lon="13.229276759411045"><ele>1388.0</ele><time>2026-05-03T09:39:58.965Z</time></trkpt><trkpt lat="42.004899941061886" lon="13.229137902089413"><ele>1388.0</ele><time>2026-05-03T09:40:48.963Z</time></trkpt><trkpt lat="42.00487967179256" lon="13.229048735173002"><ele>1388.0</ele><time>2026-05-03T09:40:49.963Z</time></trkpt><trkpt lat="42.00484760553481" lon="13.228964418558192"><ele>1388.0</ele><time>2026-05-03T09:40:50.963Z</time></trkpt><trkpt lat="42.00482165416177" lon="13.22887778195004"><ele>1385.857142857143</ele><time>2026-05-03T09:40:51.963Z</time></trkpt><trkpt lat="42.00479205175612" lon="13.228796764681217"><ele>1383.7142857142856</ele><time>2026-05-03T09:40:52.963Z</time></trkpt><trkpt lat="42.00475269747973" lon="13.228719643165034"><ele>1381.5714285714284</ele><time>2026-05-03T09:40:53.963Z</time></trkpt><trkpt lat="42.00470697205232" lon="13.22863525100992"><ele>1379.4285714285716</ele><time>2026-05-03T09:40:54.963Z</time></trkpt><trkpt lat="42.00466573159396" lon="13.228560397943085"><ele>1377.2857142857142</ele><time>2026-05-03T09:40:55.963Z</time></trkpt><trkpt lat="42.004620352315676" lon="13.228488335279788"><ele>1375.142857142857</ele><time>2026-05-03T09:40:56.963Z</time></trkpt><trkpt lat="42.00458012228776" lon="13.22840073529948"><ele>1373.0</ele><time>2026-05-03T09:40:57.963Z</time></trkpt><trkpt lat="42.0045511875726" lon="13.228316012068138"><ele>1373.0</ele><time>2026-05-03T09:40:58.963Z</time></trkpt><trkpt lat="42.0045165965253" lon="13.228190355132282"><ele>1373.0</ele><time>2026-05-03T09:41:00.963Z</time></trkpt><trkpt lat="42.00448484082346" lon="13.228081873866751"><ele>1373.0</ele><time>2026-05-03T09:41:03.963Z</time></trkpt><trkpt lat="42.00442625251702" lon="13.228036398966621"><ele>1373.0</ele><time>2026-05-03T09:41:07.963Z</time></trkpt><trkpt lat="42.00435855407826" lon="13.228048336716748"><ele>1373.0</ele><time>2026-05-03T09:41:13.964Z</time></trkpt><trkpt lat="42.00429420283179" lon="13.22807821009981"><ele>1373.0</ele><time>2026-05-03T09:42:39.962Z</time></trkpt><trkpt lat="42.004224345388764" lon="13.228103156317585"><ele>1371.8333333333335</ele><time>2026-05-03T09:42:43.962Z</time></trkpt><trkpt lat="42.00415787284301" lon="13.228127753751062"><ele>1370.6666666666667</ele><time>2026-05-03T09:42:51.962Z</time></trkpt><trkpt lat="42.0040505752056" lon="13.22816691662036"><ele>1369.5</ele><time>2026-05-03T09:42:53.962Z</time></trkpt><trkpt lat="42.00397961060949" lon="13.22818300165054"><ele>1368.3333333333333</ele><time>2026-05-03T09:42:54.962Z</time></trkpt><trkpt lat="42.00390655243327" lon="13.228210642263052"><ele>1367.1666666666665</ele><time>2026-05-03T09:42:55.962Z</time></trkpt><trkpt lat="42.003829918101026" lon="13.228239651095535"><ele>1366.0</ele><time>2026-05-03T09:42:56.962Z</time></trkpt><trkpt lat="42.00375764824425" lon="13.228267929830087"><ele>1366.0</ele><time>2026-05-03T09:42:57.962Z</time></trkpt><trkpt lat="42.003679072346166" lon="13.228301886537185"><ele>1366.0</ele><time>2026-05-03T09:42:58.962Z</time></trkpt><trkpt lat="42.0036016962615" lon="13.228347176959485"><ele>1366.0</ele><time>2026-05-03T09:42:59.962Z</time></trkpt><trkpt lat="42.00351389288156" lon="13.228385116516378"><ele>1366.0</ele><time>2026-05-03T09:43:00.962Z</time></trkpt><trkpt lat="42.003415021923175" lon="13.22841318764399"><ele>1366.0</ele><time>2026-05-03T09:43:01.962Z</time></trkpt><trkpt lat="42.00332037541097" lon="13.228439818138895"><ele>1365.6</ele><time>2026-05-03T09:43:02.962Z</time></trkpt><trkpt lat="42.00322191722933" lon="13.228463321790965"><ele>1365.1999999999998</ele><time>2026-05-03T09:43:03.962Z</time></trkpt><trkpt lat="42.00311187691656" lon="13.228489401802067"><ele>1364.8000000000002</ele><time>2026-05-03T09:43:04.962Z</time></trkpt><trkpt lat="42.00301402304176" lon="13.228521896179124"><ele>1364.4</ele><time>2026-05-03T09:43:05.962Z</time></trkpt><trkpt lat="42.00290984973265" lon="13.228548831963456"><ele>1364.0</ele><time>2026-05-03T09:43:06.962Z</time></trkpt><trkpt lat="42.002810939910106" lon="13.228572186036972"><ele>1364.0</ele><time>2026-05-03T09:43:07.962Z</time></trkpt><trkpt lat="42.00270519007165" lon="13.228598757154222"><ele>1364.0</ele><time>2026-05-03T09:43:08.962Z</time></trkpt><trkpt lat="42.002601287682516" lon="13.228622115536576"><ele>1364.0</ele><time>2026-05-03T09:43:09.962Z</time></trkpt><trkpt lat="42.00250150316221" lon="13.228642195303882"><ele>1364.0</ele><time>2026-05-03T09:43:10.962Z</time></trkpt><trkpt lat="42.002401544088194" lon="13.22867180302646"><ele>1364.0</ele><time>2026-05-03T09:43:11.962Z</time></trkpt><trkpt lat="42.00230134341744" lon="13.228711678563368"><ele>1364.6</ele><time>2026-05-03T09:43:12.962Z</time></trkpt><trkpt lat="42.00221568753719" lon="13.22877647762743"><ele>1365.2</ele><time>2026-05-03T09:43:13.962Z</time></trkpt><trkpt lat="42.00213864550319" lon="13.228856044498364"><ele>1365.8</ele><time>2026-05-03T09:43:14.962Z</time></trkpt><trkpt lat="42.00207460578629" lon="13.228961778821288"><ele>1366.3999999999999</ele><time>2026-05-03T09:43:15.962Z</time></trkpt><trkpt lat="42.00201276119241" lon="13.229056001527246"><ele>1367.0</ele><time>2026-05-03T09:43:16.962Z</time></trkpt><trkpt lat="42.00193416600612" lon="13.229121287291008"><ele>1367.0</ele><time>2026-05-03T09:43:17.962Z</time></trkpt><trkpt lat="42.00184940903272" lon="13.229198326718794"><ele>1367.0</ele><time>2026-05-03T09:43:18.962Z</time></trkpt><trkpt lat="42.00176457918917" lon="13.229274506844334"><ele>1367.0</ele><time>2026-05-03T09:43:19.962Z</time></trkpt><trkpt lat="42.00167838558925" lon="13.229341088849345"><ele>1367.0</ele><time>2026-05-03T09:43:20.962Z</time></trkpt><trkpt lat="42.001593860661515" lon="13.229409013040504"><ele>1367.0</ele><time>2026-05-03T09:43:21.962Z</time></trkpt><trkpt lat="42.001510201401295" lon="13.229486393857172"><ele>1368.8</ele><time>2026-05-03T09:43:22.962Z</time></trkpt><trkpt lat="42.001425121930104" lon="13.229565382866694"><ele>1370.6</ele><time>2026-05-03T09:43:23.962Z</time></trkpt><trkpt lat="42.0013467110535" lon="13.229660493260244"><ele>1372.3999999999999</ele><time>2026-05-03T09:43:24.962Z</time></trkpt><trkpt lat="42.00126365931943" lon="13.22975803140281"><ele>1374.1999999999998</ele><time>2026-05-03T09:43:25.962Z</time></trkpt><trkpt lat="42.00118630424762" lon="13.229859247518982"><ele>1376.0</ele><time>2026-05-03T09:43:26.962Z</time></trkpt><trkpt lat="42.00111357588678" lon="13.229963937924751"><ele>1373.0</ele><time>2026-05-03T09:43:27.962Z</time></trkpt><trkpt lat="42.00103722656697" lon="13.230062106999217"><ele>1370.0</ele><time>2026-05-03T09:43:28.962Z</time></trkpt><trkpt lat="42.00095725410738" lon="13.230159400881485"><ele>1367.0</ele><time>2026-05-03T09:43:29.962Z</time></trkpt><trkpt lat="42.000873263923154" lon="13.230240352962245"><ele>1364.0</ele><time>2026-05-03T09:43:30.962Z</time></trkpt><trkpt lat="42.00078367678124" lon="13.230312472568365"><ele>1361.0</ele><time>2026-05-03T09:43:31.962Z</time></trkpt><trkpt lat="42.00069595092628" lon="13.230382693134544"><ele>1361.0</ele><time>2026-05-03T09:43:32.962Z</time></trkpt><trkpt lat="42.00061444929035" lon="13.23044209533862"><ele>1361.0</ele><time>2026-05-03T09:43:33.962Z</time></trkpt><trkpt lat="42.00053003772063" lon="13.23048717128195"><ele>1361.0</ele><time>2026-05-03T09:43:34.962Z</time></trkpt><trkpt lat="42.00044409657822" lon="13.230528112199213"><ele>1361.0</ele><time>2026-05-03T09:43:35.962Z</time></trkpt><trkpt lat="42.00035820480962" lon="13.230570418904044"><ele>1361.0</ele><time>2026-05-03T09:43:36.962Z</time></trkpt><trkpt lat="42.000276469788766" lon="13.23060834381567"><ele>1360.6666666666667</ele><time>2026-05-03T09:43:37.962Z</time></trkpt><trkpt lat="42.00019954399895" lon="13.23065166903254"><ele>1360.3333333333335</ele><time>2026-05-03T09:43:38.962Z</time></trkpt><trkpt lat="42.00013424221905" lon="13.230695739084528"><ele>1360.0</ele><time>2026-05-03T09:43:39.962Z</time></trkpt><trkpt lat="42.000067606997" lon="13.230740498936497"><ele>1359.6666666666667</ele><time>2026-05-03T09:43:40.962Z</time></trkpt><trkpt lat="41.999992926417015" lon="13.230788641642532"><ele>1359.3333333333333</ele><time>2026-05-03T09:43:41.962Z</time></trkpt><trkpt lat="41.999908783900715" lon="13.230840672139026"><ele>1359.0</ele><time>2026-05-03T09:43:42.962Z</time></trkpt><trkpt lat="41.999826058428724" lon="13.230896909183079"><ele>1359.0</ele><time>2026-05-03T09:43:43.962Z</time></trkpt><trkpt lat="41.99974049907072" lon="13.230950104694305"><ele>1359.0</ele><time>2026-05-03T09:43:44.962Z</time></trkpt><trkpt lat="41.99965365060486" lon="13.231003473237706"><ele>1359.0</ele><time>2026-05-03T09:43:45.962Z</time></trkpt><trkpt lat="41.9995615125879" lon="13.231063711749831"><ele>1359.0</ele><time>2026-05-03T09:43:46.962Z</time></trkpt><trkpt lat="41.99947533389053" lon="13.231134393911557"><ele>1359.0</ele><time>2026-05-03T09:43:47.962Z</time></trkpt><trkpt lat="41.999379814603294" lon="13.23117773937117"><ele>1359.0</ele><time>2026-05-03T09:43:48.962Z</time></trkpt><trkpt lat="41.99928124940739" lon="13.231209670192317"><ele>1359.0</ele><time>2026-05-03T09:43:49.962Z</time></trkpt><trkpt lat="41.99918987077554" lon="13.231239123256676"><ele>1359.0</ele><time>2026-05-03T09:43:50.962Z</time></trkpt><trkpt lat="41.99908907406713" lon="13.231285178525052"><ele>1359.0</ele><time>2026-05-03T09:43:51.962Z</time></trkpt><trkpt lat="41.9989923873958" lon="13.23132622024359"><ele>1359.0</ele><time>2026-05-03T09:43:52.962Z</time></trkpt><trkpt lat="41.99890440441396" lon="13.231385382084419"><ele>1358.6666666666667</ele><time>2026-05-03T09:43:53.962Z</time></trkpt><trkpt lat="41.99882291725559" lon="13.231444288926538"><ele>1358.3333333333333</ele><time>2026-05-03T09:43:54.962Z</time></trkpt><trkpt lat="41.998749661614134" lon="13.231500865710291"><ele>1358.0</ele><time>2026-05-03T09:43:55.962Z</time></trkpt><trkpt lat="41.99868628296416" lon="13.231559343460294"><ele>1357.6666666666665</ele><time>2026-05-03T09:43:56.962Z</time></trkpt><trkpt lat="41.998630468930074" lon="13.231610439375428"><ele>1357.3333333333333</ele><time>2026-05-03T09:43:57.962Z</time></trkpt><trkpt lat="41.99854199221825" lon="13.231669180414057"><ele>1357.0</ele><time>2026-05-03T09:43:59.962Z</time></trkpt><trkpt lat="41.998472262412925" lon="13.231696339509638"><ele>1356.857142857143</ele><time>2026-05-03T09:44:01.962Z</time></trkpt><trkpt lat="41.99840649872582" lon="13.231705782789376"><ele>1356.7142857142858</ele><time>2026-05-03T09:44:04.962Z</time></trkpt><trkpt lat="41.9983229893308" lon="13.231658972073385"><ele>1356.5714285714284</ele><time>2026-05-03T09:44:43.962Z</time></trkpt><trkpt lat="41.99824790727385" lon="13.231634694175995"><ele>1356.4285714285716</ele><time>2026-05-03T09:44:45.962Z</time></trkpt><trkpt lat="41.99818151612944" lon="13.231597854030188"><ele>1356.2857142857144</ele><time>2026-05-03T09:44:47.962Z</time></trkpt><trkpt lat="41.9981178254985" lon="13.231559435577399"><ele>1356.142857142857</ele><time>2026-05-03T09:44:50.962Z</time></trkpt><trkpt lat="41.99810554082921" lon="13.23147376310021"><ele>1356.0</ele><time>2026-05-03T09:46:13.962Z</time></trkpt><trkpt lat="41.99806013666267" lon="13.231386570611686"><ele>1356.0</ele><time>2026-05-03T09:46:16.962Z</time></trkpt><trkpt lat="41.99803294236431" lon="13.231275158034345"><ele>1356.0</ele><time>2026-05-03T09:46:19.961Z</time></trkpt><trkpt lat="41.99800225786622" lon="13.231171563303404"><ele>1356.0</ele><time>2026-05-03T09:46:21.961Z</time></trkpt><trkpt lat="41.99799833925196" lon="13.231059015238763"><ele>1356.0</ele><time>2026-05-03T09:46:23.961Z</time></trkpt><trkpt lat="41.99802038886959" lon="13.230957547923133"><ele>1356.0</ele><time>2026-05-03T09:46:26.962Z</time></trkpt><trkpt lat="41.998027127414176" lon="13.230835706151945"><ele>1356.0</ele><time>2026-05-03T09:46:29.961Z</time></trkpt><trkpt lat="41.9980353235247" lon="13.230713135899382"><ele>1356.6</ele><time>2026-05-03T09:46:31.961Z</time></trkpt><trkpt lat="41.99804152253602" lon="13.230578963394777"><ele>1357.1999999999998</ele><time>2026-05-03T09:46:33.961Z</time></trkpt><trkpt lat="41.99804099401971" lon="13.230435083327515"><ele>1357.8000000000002</ele><time>2026-05-03T09:46:35.961Z</time></trkpt><trkpt lat="41.99801989591336" lon="13.230295713149868"><ele>1358.4</ele><time>2026-05-03T09:46:37.961Z</time></trkpt><trkpt lat="41.99797733740081" lon="13.23013005265363"><ele>1359.0</ele><time>2026-05-03T09:46:39.961Z</time></trkpt><trkpt lat="41.99795798354035" lon="13.23004810532163"><ele>1359.0</ele><time>2026-05-03T09:46:40.961Z</time></trkpt><trkpt lat="41.99795000883358" lon="13.22989936276286"><ele>1359.0</ele><time>2026-05-03T09:46:42.961Z</time></trkpt><trkpt lat="41.99794999966437" lon="13.229778209922506"><ele>1359.0</ele><time>2026-05-03T09:46:44.961Z</time></trkpt><trkpt lat="41.99795636411963" lon="13.229679403406445"><ele>1359.0</ele><time>2026-05-03T09:46:46.961Z</time></trkpt><trkpt lat="41.997956290061566" lon="13.229572177365894"><ele>1359.0</ele><time>2026-05-03T09:46:49.962Z</time></trkpt><trkpt lat="41.997930126055095" lon="13.229468269684583"><ele>1359.0</ele><time>2026-05-03T09:46:52.962Z</time></trkpt><trkpt lat="41.997903991954864" lon="13.22934717349899"><ele>1359.0</ele><time>2026-05-03T09:46:54.962Z</time></trkpt><trkpt lat="41.99788612125514" lon="13.229205657248563"><ele>1359.0</ele><time>2026-05-03T09:46:56.962Z</time></trkpt><trkpt lat="41.99791165120437" lon="13.229049986319806"><ele>1359.0</ele><time>2026-05-03T09:46:58.962Z</time></trkpt><trkpt lat="41.997942105368644" lon="13.228903988335839"><ele>1359.0</ele><time>2026-05-03T09:47:00.962Z</time></trkpt><trkpt lat="41.997955211594814" lon="13.228759782733901"><ele>1359.0</ele><time>2026-05-03T09:47:02.962Z</time></trkpt><trkpt lat="41.99798346534936" lon="13.228590881899965"><ele>1359.0</ele><time>2026-05-03T09:47:04.962Z</time></trkpt><trkpt lat="41.99798547875357" lon="13.228490922587756"><ele>1359.0</ele><time>2026-05-03T09:47:05.962Z</time></trkpt><trkpt lat="41.99798441862941" lon="13.228397103957649"><ele>1359.0</ele><time>2026-05-03T09:47:06.962Z</time></trkpt><trkpt lat="41.99798416106681" lon="13.228299273524911"><ele>1359.0</ele><time>2026-05-03T09:47:07.962Z</time></trkpt><trkpt lat="41.99798467734556" lon="13.228195211025977"><ele>1359.0</ele><time>2026-05-03T09:47:08.962Z</time></trkpt><trkpt lat="41.99799417444259" lon="13.228089543077063"><ele>1359.0</ele><time>2026-05-03T09:47:09.962Z</time></trkpt><trkpt lat="41.99801847930936" lon="13.227984231413538"><ele>1358.2857142857142</ele><time>2026-05-03T09:47:10.962Z</time></trkpt><trkpt lat="41.998053106509374" lon="13.227890817795894"><ele>1357.5714285714284</ele><time>2026-05-03T09:47:11.962Z</time></trkpt><trkpt lat="41.99808956413633" lon="13.227801581418527"><ele>1356.8571428571427</ele><time>2026-05-03T09:47:12.962Z</time></trkpt><trkpt lat="41.99812160011992" lon="13.227717035342906"><ele>1356.142857142857</ele><time>2026-05-03T09:47:13.962Z</time></trkpt><trkpt lat="41.99814913710379" lon="13.227629717064406"><ele>1355.4285714285713</ele><time>2026-05-03T09:47:14.962Z</time></trkpt><trkpt lat="41.99817006293639" lon="13.22754149816895"><ele>1354.7142857142856</ele><time>2026-05-03T09:47:15.962Z</time></trkpt><trkpt lat="41.998187721867325" lon="13.227448260243726"><ele>1354.0</ele><time>2026-05-03T09:47:16.962Z</time></trkpt><trkpt lat="41.99820297289572" lon="13.22735968085145"><ele>1353.8571428571427</ele><time>2026-05-03T09:47:17.962Z</time></trkpt><trkpt lat="41.998208484758706" lon="13.227263878197673"><ele>1353.7142857142858</ele><time>2026-05-03T09:47:18.962Z</time></trkpt><trkpt lat="41.998217367644685" lon="13.22717549931757"><ele>1353.5714285714284</ele><time>2026-05-03T09:47:19.962Z</time></trkpt><trkpt lat="41.99822321570431" lon="13.227074364573458"><ele>1353.4285714285713</ele><time>2026-05-03T09:47:20.962Z</time></trkpt><trkpt lat="41.99821802337632" lon="13.226979252694232"><ele>1353.2857142857142</ele><time>2026-05-03T09:47:21.962Z</time></trkpt><trkpt lat="41.99820604423328" lon="13.226877966031925"><ele>1353.142857142857</ele><time>2026-05-03T09:47:22.962Z</time></trkpt><trkpt lat="41.99817215460484" lon="13.22677622952423"><ele>1353.0</ele><time>2026-05-03T09:47:23.962Z</time></trkpt><trkpt lat="41.998123278130755" lon="13.226678604612502"><ele>1353.0</ele><time>2026-05-03T09:47:24.962Z</time></trkpt><trkpt lat="41.99806574181984" lon="13.226584241194836"><ele>1353.0</ele><time>2026-05-03T09:47:25.962Z</time></trkpt><trkpt lat="41.998002495175875" lon="13.2265079511514"><ele>1353.0</ele><time>2026-05-03T09:47:26.962Z</time></trkpt><trkpt lat="41.99794571024326" lon="13.226427529687033"><ele>1353.0</ele><time>2026-05-03T09:47:27.962Z</time></trkpt><trkpt lat="41.997906790071994" lon="13.226348933561365"><ele>1353.0</ele><time>2026-05-03T09:47:28.962Z</time></trkpt><trkpt lat="41.9978812646242" lon="13.226238835617469"><ele>1353.0</ele><time>2026-05-03T09:47:29.962Z</time></trkpt><trkpt lat="41.997870269764114" lon="13.22613583263192"><ele>1353.4</ele><time>2026-05-03T09:47:30.962Z</time></trkpt><trkpt lat="41.99786027262839" lon="13.226027856329084"><ele>1353.8000000000002</ele><time>2026-05-03T09:47:31.962Z</time></trkpt><trkpt lat="41.9978496233929" lon="13.225899632064843"><ele>1354.2</ele><time>2026-05-03T09:47:32.962Z</time></trkpt><trkpt lat="41.99782461848683" lon="13.225781107689878"><ele>1354.6</ele><time>2026-05-03T09:47:33.962Z</time></trkpt><trkpt lat="41.997773565116695" lon="13.225664631430078"><ele>1355.0</ele><time>2026-05-03T09:47:34.962Z</time></trkpt><trkpt lat="41.99771204071408" lon="13.225571345204651"><ele>1353.8333333333335</ele><time>2026-05-03T09:47:35.962Z</time></trkpt><trkpt lat="41.99764200792546" lon="13.225484366716307"><ele>1352.6666666666667</ele><time>2026-05-03T09:47:36.962Z</time></trkpt><trkpt lat="41.9975822915035" lon="13.22539535503488"><ele>1351.5</ele><time>2026-05-03T09:47:37.962Z</time></trkpt><trkpt lat="41.99751851189161" lon="13.225317232088276"><ele>1350.3333333333333</ele><time>2026-05-03T09:47:38.962Z</time></trkpt><trkpt lat="41.99745007864834" lon="13.225241091705923"><ele>1349.1666666666665</ele><time>2026-05-03T09:47:39.962Z</time></trkpt><trkpt lat="41.997389743602234" lon="13.225171244538895"><ele>1348.0</ele><time>2026-05-03T09:47:40.962Z</time></trkpt><trkpt lat="41.997346824624316" lon="13.225094462880788"><ele>1348.0</ele><time>2026-05-03T09:47:41.962Z</time></trkpt><trkpt lat="41.99731132678955" lon="13.225021873962326"><ele>1348.0</ele><time>2026-05-03T09:47:42.962Z</time></trkpt><trkpt lat="41.99727992327947" lon="13.22494776197157"><ele>1348.0</ele><time>2026-05-03T09:47:43.962Z</time></trkpt><trkpt lat="41.99722366877594" lon="13.2248018988897"><ele>1348.0</ele><time>2026-05-03T09:47:45.962Z</time></trkpt><trkpt lat="41.997175926438324" lon="13.224655189094173"><ele>1348.0</ele><time>2026-05-03T09:47:47.962Z</time></trkpt><trkpt lat="41.99714794429669" lon="13.2244908355106"><ele>1348.1666666666665</ele><time>2026-05-03T09:47:49.962Z</time></trkpt><trkpt lat="41.99711949821346" lon="13.224334023567405"><ele>1348.3333333333333</ele><time>2026-05-03T09:47:51.962Z</time></trkpt><trkpt lat="41.99707439378653" lon="13.22417487160415"><ele>1348.5</ele><time>2026-05-03T09:47:53.962Z</time></trkpt><trkpt lat="41.99704108142422" lon="13.224097113922559"><ele>1348.6666666666667</ele><time>2026-05-03T09:47:54.962Z</time></trkpt><trkpt lat="41.99700029299779" lon="13.2240272949439"><ele>1348.8333333333335</ele><time>2026-05-03T09:47:55.962Z</time></trkpt><trkpt lat="41.996956047586664" lon="13.223964622152844"><ele>1349.0</ele><time>2026-05-03T09:47:56.962Z</time></trkpt><trkpt lat="41.99690731245899" lon="13.223901561052754"><ele>1349.0</ele><time>2026-05-03T09:47:57.962Z</time></trkpt><trkpt lat="41.99685120074516" lon="13.223847502926345"><ele>1349.0</ele><time>2026-05-03T09:47:58.962Z</time></trkpt><trkpt lat="41.996793833858845" lon="13.22380298305314"><ele>1349.0</ele><time>2026-05-03T09:47:59.962Z</time></trkpt><trkpt lat="41.99667462651317" lon="13.223756881605729"><ele>1349.0</ele><time>2026-05-03T09:48:01.962Z</time></trkpt><trkpt lat="41.996558038881936" lon="13.223713876477364"><ele>1349.0</ele><time>2026-05-03T09:48:03.962Z</time></trkpt><trkpt lat="41.99649595494168" lon="13.223685860364839"><ele>1349.0</ele><time>2026-05-03T09:48:04.962Z</time></trkpt><trkpt lat="41.99637808125366" lon="13.223654041147913"><ele>1348.0</ele><time>2026-05-03T09:48:06.962Z</time></trkpt><trkpt lat="41.996316637409265" lon="13.223632813680975"><ele>1347.0</ele><time>2026-05-03T09:48:07.962Z</time></trkpt><trkpt lat="41.99619811150021" lon="13.223595964697946"><ele>1346.0</ele><time>2026-05-03T09:48:09.962Z</time></trkpt><trkpt lat="41.99609242059851" lon="13.223591840566366"><ele>1345.0</ele><time>2026-05-03T09:48:11.962Z</time></trkpt><trkpt lat="41.99598322854288" lon="13.223606454433382"><ele>1344.0</ele><time>2026-05-03T09:48:13.962Z</time></trkpt><trkpt lat="41.995883891878776" lon="13.22362639672538"><ele>1342.8000000000002</ele><time>2026-05-03T09:48:15.962Z</time></trkpt><trkpt lat="41.99578087868856" lon="13.223666334277365"><ele>1341.6000000000001</ele><time>2026-05-03T09:48:17.962Z</time></trkpt><trkpt lat="41.995690926572955" lon="13.223671467306055"><ele>1340.4</ele><time>2026-05-03T09:48:19.962Z</time></trkpt><trkpt lat="41.99559503728875" lon="13.2236869918221"><ele>1339.2</ele><time>2026-05-03T09:48:21.962Z</time></trkpt><trkpt lat="41.99551523892154" lon="13.223697294024731"><ele>1338.0</ele><time>2026-05-03T09:48:23.96Z</time></trkpt><trkpt lat="41.99541849905873" lon="13.22369839792405"><ele>1338.0</ele><time>2026-05-03T09:48:25.96Z</time></trkpt><trkpt lat="41.995313517478216" lon="13.223681475483321"><ele>1338.0</ele><time>2026-05-03T09:48:27.961Z</time></trkpt><trkpt lat="41.9952030970527" lon="13.223656539294161"><ele>1338.0</ele><time>2026-05-03T09:48:29.961Z</time></trkpt><trkpt lat="41.99513931200552" lon="13.22363426132324"><ele>1338.0</ele><time>2026-05-03T09:48:30.96Z</time></trkpt><trkpt lat="41.9950774827067" lon="13.223586956569171"><ele>1338.0</ele><time>2026-05-03T09:48:31.96Z</time></trkpt><trkpt lat="41.99501238162899" lon="13.223542901434143"><ele>1338.0</ele><time>2026-05-03T09:48:32.961Z</time></trkpt><trkpt lat="41.99495122587676" lon="13.223515432772915"><ele>1337.4</ele><time>2026-05-03T09:48:33.96Z</time></trkpt><trkpt lat="41.99484293010221" lon="13.22348585130915"><ele>1336.8000000000002</ele><time>2026-05-03T09:48:35.961Z</time></trkpt><trkpt lat="41.994740895565045" lon="13.223450959290785"><ele>1336.2</ele><time>2026-05-03T09:48:37.961Z</time></trkpt><trkpt lat="41.9946381475695" lon="13.22338595194727"><ele>1335.6</ele><time>2026-05-03T09:48:39.961Z</time></trkpt><trkpt lat="41.99453360054657" lon="13.22333119391422"><ele>1335.0</ele><time>2026-05-03T09:48:41.961Z</time></trkpt><trkpt lat="41.99443291585402" lon="13.223268433374177"><ele>1335.0</ele><time>2026-05-03T09:48:43.961Z</time></trkpt><trkpt lat="41.99438181366245" lon="13.223218210317327"><ele>1335.0</ele><time>2026-05-03T09:48:44.961Z</time></trkpt><trkpt lat="41.9943084291281" lon="13.223111962394135"><ele>1335.0</ele><time>2026-05-03T09:48:46.961Z</time></trkpt><trkpt lat="41.99422370357016" lon="13.222986693184753"><ele>1335.0</ele><time>2026-05-03T09:48:48.961Z</time></trkpt><trkpt lat="41.99413602154572" lon="13.222879958113918"><ele>1335.0</ele><time>2026-05-03T09:48:50.961Z</time></trkpt><trkpt lat="41.99409991507945" lon="13.222808311719202"><ele>1335.0</ele><time>2026-05-03T09:48:51.961Z</time></trkpt><trkpt lat="41.994056003551286" lon="13.222740158287317"><ele>1335.0</ele><time>2026-05-03T09:48:52.961Z</time></trkpt><trkpt lat="41.99400402969968" lon="13.222678710940755"><ele>1335.0</ele><time>2026-05-03T09:48:53.961Z</time></trkpt><trkpt lat="41.9939384369924" lon="13.222629809807682"><ele>1335.0</ele><time>2026-05-03T09:48:54.961Z</time></trkpt><trkpt lat="41.99383431279978" lon="13.222542645476373"><ele>1335.0</ele><time>2026-05-03T09:48:56.961Z</time></trkpt><trkpt lat="41.99377115812575" lon="13.222479948756012"><ele>1335.0</ele><time>2026-05-03T09:48:57.961Z</time></trkpt><trkpt lat="41.99370677347376" lon="13.22242520027029"><ele>1335.0</ele><time>2026-05-03T09:48:58.961Z</time></trkpt><trkpt lat="41.993643829494175" lon="13.222374379745332"><ele>1335.0</ele><time>2026-05-03T09:48:59.961Z</time></trkpt><trkpt lat="41.99355134190108" lon="13.222301181375501"><ele>1335.0</ele><time>2026-05-03T09:49:01.961Z</time></trkpt><trkpt lat="41.99345811707316" lon="13.22227489810859"><ele>1335.0</ele><time>2026-05-03T09:49:03.961Z</time></trkpt><trkpt lat="41.99339412633749" lon="13.222266481648557"><ele>1335.0</ele><time>2026-05-03T09:49:04.961Z</time></trkpt><trkpt lat="41.993298749289075" lon="13.222270433306837"><ele>1335.0</ele><time>2026-05-03T09:49:06.961Z</time></trkpt><trkpt lat="41.99317624576802" lon="13.222242590725843"><ele>1335.4</ele><time>2026-05-03T09:49:08.961Z</time></trkpt><trkpt lat="41.99310010922331" lon="13.22224535430157"><ele>1335.8</ele><time>2026-05-03T09:49:09.961Z</time></trkpt><trkpt lat="41.99303779011273" lon="13.222224760760508"><ele>1336.1999999999998</ele><time>2026-05-03T09:49:10.961Z</time></trkpt><trkpt lat="41.99294457863987" lon="13.222138815694345"><ele>1336.6</ele><time>2026-05-03T09:49:12.961Z</time></trkpt><trkpt lat="41.99286339692822" lon="13.222030516330747"><ele>1337.0</ele><time>2026-05-03T09:49:13.961Z</time></trkpt><trkpt lat="41.992800844174496" lon="13.221946659214906"><ele>1337.0</ele><time>2026-05-03T09:49:14.961Z</time></trkpt><trkpt lat="41.992745051048736" lon="13.221867886538288"><ele>1337.0</ele><time>2026-05-03T09:49:15.961Z</time></trkpt><trkpt lat="41.992662754684844" lon="13.221798889459523"><ele>1337.0</ele><time>2026-05-03T09:49:16.961Z</time></trkpt><trkpt lat="41.99260850675016" lon="13.221746044552399"><ele>1337.0</ele><time>2026-05-03T09:49:17.961Z</time></trkpt><trkpt lat="41.992540816495264" lon="13.221687850044663"><ele>1337.0</ele><time>2026-05-03T09:49:18.961Z</time></trkpt><trkpt lat="41.99247087562564" lon="13.221664436943128"><ele>1337.0</ele><time>2026-05-03T09:49:19.961Z</time></trkpt><trkpt lat="41.99240672146915" lon="13.221653849810467"><ele>1337.5</ele><time>2026-05-03T09:49:20.961Z</time></trkpt><trkpt lat="41.99232937485291" lon="13.22161257358709"><ele>1338.0</ele><time>2026-05-03T09:49:21.961Z</time></trkpt><trkpt lat="41.99226419080565" lon="13.221609438379955"><ele>1338.5</ele><time>2026-05-03T09:49:22.961Z</time></trkpt><trkpt lat="41.99220101873975" lon="13.221621956158433"><ele>1339.0</ele><time>2026-05-03T09:49:23.961Z</time></trkpt><trkpt lat="41.99213710318024" lon="13.221647421218915"><ele>1339.5</ele><time>2026-05-03T09:49:24.961Z</time></trkpt><trkpt lat="41.99203720329735" lon="13.221687013065608"><ele>1340.0</ele><time>2026-05-03T09:49:26.961Z</time></trkpt><trkpt lat="41.99192396037685" lon="13.221775292988927"><ele>1340.0</ele><time>2026-05-03T09:49:28.961Z</time></trkpt><trkpt lat="41.991868321574046" lon="13.221844463411477"><ele>1340.0</ele><time>2026-05-03T09:49:29.961Z</time></trkpt><trkpt lat="41.99180704415516" lon="13.221911918909026"><ele>1340.0</ele><time>2026-05-03T09:49:30.961Z</time></trkpt><trkpt lat="41.991716174488175" lon="13.222034641804461"><ele>1340.0</ele><time>2026-05-03T09:49:32.961Z</time></trkpt><trkpt lat="41.99166554265054" lon="13.222110086046014"><ele>1340.0</ele><time>2026-05-03T09:49:33.961Z</time></trkpt><trkpt lat="41.99162936041734" lon="13.222189472645761"><ele>1340.0</ele><time>2026-05-03T09:49:34.961Z</time></trkpt><trkpt lat="41.99156083842513" lon="13.222336428746072"><ele>1343.0</ele><time>2026-05-03T09:49:36.961Z</time></trkpt><trkpt lat="41.99153600598505" lon="13.222424238541027"><ele>1346.0</ele><time>2026-05-03T09:49:37.961Z</time></trkpt><trkpt lat="41.99152164621412" lon="13.222511588678884"><ele>1349.0</ele><time>2026-05-03T09:49:38.961Z</time></trkpt><trkpt lat="41.991498377451116" lon="13.222631806016887"><ele>1352.0</ele><time>2026-05-03T09:49:40.961Z</time></trkpt><trkpt lat="41.99142828073645" lon="13.222745627440446"><ele>1355.0</ele><time>2026-05-03T09:49:42.961Z</time></trkpt><trkpt lat="41.991365483353086" lon="13.222805145153847"><ele>1358.0</ele><time>2026-05-03T09:49:43.961Z</time></trkpt><trkpt lat="41.9912970352315" lon="13.222845849325717"><ele>1358.0</ele><time>2026-05-03T09:49:44.961Z</time></trkpt><trkpt lat="41.991223881574044" lon="13.222888212606813"><ele>1358.0</ele><time>2026-05-03T09:49:45.961Z</time></trkpt><trkpt lat="41.99115402168968" lon="13.222924129558008"><ele>1358.0</ele><time>2026-05-03T09:49:46.961Z</time></trkpt><trkpt lat="41.991093799198495" lon="13.222953362534806"><ele>1358.0</ele><time>2026-05-03T09:49:47.961Z</time></trkpt><trkpt lat="41.99099712745131" lon="13.222991164934122"><ele>1358.0</ele><time>2026-05-03T09:49:49.961Z</time></trkpt><trkpt lat="41.99090869916025" lon="13.223027912572059"><ele>1358.0</ele><time>2026-05-03T09:49:51.961Z</time></trkpt><trkpt lat="41.99082315656827" lon="13.22306651969814"><ele>1356.7142857142858</ele><time>2026-05-03T09:49:53.961Z</time></trkpt><trkpt lat="41.9907507362928" lon="13.223089887945232"><ele>1355.4285714285716</ele><time>2026-05-03T09:49:55.961Z</time></trkpt><trkpt lat="41.99067819076525" lon="13.22307341106039"><ele>1354.142857142857</ele><time>2026-05-03T09:49:57.961Z</time></trkpt><trkpt lat="41.99060943877771" lon="13.223052241352708"><ele>1352.857142857143</ele><time>2026-05-03T09:50:25.961Z</time></trkpt><trkpt lat="41.99055115433099" lon="13.223007027192871"><ele>1351.5714285714287</ele><time>2026-05-03T09:53:45.959Z</time></trkpt><trkpt lat="41.99047709550556" lon="13.222976766738606"><ele>1350.2857142857142</ele><time>2026-05-03T09:53:47.959Z</time></trkpt><trkpt lat="41.99039854393727" lon="13.22296278758067"><ele>1349.0</ele><time>2026-05-03T09:53:50.959Z</time></trkpt><trkpt lat="41.99031525144234" lon="13.22296421815356"><ele>1349.0</ele><time>2026-05-03T09:53:53.959Z</time></trkpt><trkpt lat="41.990236571458404" lon="13.222968047195524"><ele>1349.0</ele><time>2026-05-03T09:53:55.959Z</time></trkpt><trkpt lat="41.99013680405316" lon="13.222947311442955"><ele>1349.0</ele><time>2026-05-03T09:53:58.959Z</time></trkpt><trkpt lat="41.990077674971005" lon="13.222907370323739"><ele>1349.0</ele><time>2026-05-03T09:54:00.959Z</time></trkpt><trkpt lat="41.99001340537543" lon="13.22286280068516"><ele>1349.0</ele><time>2026-05-03T09:54:02.959Z</time></trkpt><trkpt lat="41.989919566318314" lon="13.22281475391017"><ele>1349.0</ele><time>2026-05-03T09:54:05.959Z</time></trkpt><trkpt lat="41.98984494087569" lon="13.22277950770553"><ele>1347.4</ele><time>2026-05-03T09:54:07.959Z</time></trkpt><trkpt lat="41.98975760176732" lon="13.222743863709184"><ele>1345.8000000000002</ele><time>2026-05-03T09:54:09.959Z</time></trkpt><trkpt lat="41.98967263230118" lon="13.22271598511016"><ele>1344.1999999999998</ele><time>2026-05-03T09:54:11.959Z</time></trkpt><trkpt lat="41.98958243390396" lon="13.222681346959888"><ele>1342.6</ele><time>2026-05-03T09:54:13.959Z</time></trkpt><trkpt lat="41.989486507114364" lon="13.222637274994401"><ele>1341.0</ele><time>2026-05-03T09:54:15.959Z</time></trkpt><trkpt lat="41.98939115466917" lon="13.222607432080638"><ele>1341.0</ele><time>2026-05-03T09:54:17.959Z</time></trkpt><trkpt lat="41.9892941218146" lon="13.222629867342489"><ele>1341.0</ele><time>2026-05-03T09:54:19.959Z</time></trkpt><trkpt lat="41.98918720711066" lon="13.222705169663637"><ele>1341.0</ele><time>2026-05-03T09:54:21.959Z</time></trkpt><trkpt lat="41.98912679762601" lon="13.22277889367316"><ele>1341.0</ele><time>2026-05-03T09:54:22.959Z</time></trkpt><trkpt lat="41.989062250194145" lon="13.222836701030442"><ele>1341.0</ele><time>2026-05-03T09:54:23.959Z</time></trkpt><trkpt lat="41.98899741047414" lon="13.22288573109018"><ele>1339.857142857143</ele><time>2026-05-03T09:54:24.959Z</time></trkpt><trkpt lat="41.98893147471284" lon="13.22293659806979"><ele>1338.7142857142858</ele><time>2026-05-03T09:54:25.959Z</time></trkpt><trkpt lat="41.98887171528141" lon="13.222998315902698"><ele>1337.5714285714284</ele><time>2026-05-03T09:54:26.959Z</time></trkpt><trkpt lat="41.9888252753594" lon="13.223070882522492"><ele>1336.4285714285716</ele><time>2026-05-03T09:54:27.959Z</time></trkpt><trkpt lat="41.98878529745658" lon="13.223150399732814"><ele>1335.2857142857142</ele><time>2026-05-03T09:54:28.959Z</time></trkpt><trkpt lat="41.98874846114343" lon="13.223242548985954"><ele>1334.142857142857</ele><time>2026-05-03T09:54:29.959Z</time></trkpt><trkpt lat="41.98871499389633" lon="13.223334466653569"><ele>1333.0</ele><time>2026-05-03T09:54:30.959Z</time></trkpt><trkpt lat="41.98868192528159" lon="13.223414194317497"><ele>1333.0</ele><time>2026-05-03T09:54:31.959Z</time></trkpt><trkpt lat="41.988598787696226" lon="13.223537049443268"><ele>1333.0</ele><time>2026-05-03T09:54:33.959Z</time></trkpt><trkpt lat="41.9885027214862" lon="13.22361319840765"><ele>1333.0</ele><time>2026-05-03T09:54:35.959Z</time></trkpt><trkpt lat="41.98839449915372" lon="13.223682585931382"><ele>1333.0</ele><time>2026-05-03T09:54:37.959Z</time></trkpt><trkpt lat="41.98827489827924" lon="13.22372880736422"><ele>1332.0</ele><time>2026-05-03T09:54:39.959Z</time></trkpt><trkpt lat="41.98816671063618" lon="13.223775682718811"><ele>1331.0</ele><time>2026-05-03T09:54:41.959Z</time></trkpt><trkpt lat="41.98806891760582" lon="13.223822591063996"><ele>1330.0</ele><time>2026-05-03T09:54:43.959Z</time></trkpt><trkpt lat="41.98800677454525" lon="13.223856006168335"><ele>1329.0</ele><time>2026-05-03T09:54:45.958Z</time></trkpt><trkpt lat="41.987941010756735" lon="13.223880434144535"><ele>1328.0</ele><time>2026-05-03T09:54:47.958Z</time></trkpt><trkpt lat="41.987855152082716" lon="13.223939589796297"><ele>1327.0</ele><time>2026-05-03T09:54:49.959Z</time></trkpt><trkpt lat="41.98778572432467" lon="13.2240359806379"><ele>1325.6</ele><time>2026-05-03T09:54:51.959Z</time></trkpt><trkpt lat="41.98771043450975" lon="13.224127387451247"><ele>1324.1999999999998</ele><time>2026-05-03T09:54:53.959Z</time></trkpt><trkpt lat="41.98764462920475" lon="13.224222985836079"><ele>1322.8</ele><time>2026-05-03T09:54:55.959Z</time></trkpt><trkpt lat="41.987575157006304" lon="13.22432752016568"><ele>1321.4</ele><time>2026-05-03T09:54:57.959Z</time></trkpt><trkpt lat="41.987508276930186" lon="13.224408577812854"><ele>1320.0</ele><time>2026-05-03T09:54:59.96Z</time></trkpt><trkpt lat="41.987441593615685" lon="13.224482496184438"><ele>1319.2</ele><time>2026-05-03T09:55:01.96Z</time></trkpt><trkpt lat="41.98734442002219" lon="13.224556087121089"><ele>1318.4</ele><time>2026-05-03T09:55:03.96Z</time></trkpt><trkpt lat="41.987238999395636" lon="13.224648368813831"><ele>1317.6</ele><time>2026-05-03T09:55:05.96Z</time></trkpt><trkpt lat="41.987137932832894" lon="13.224751578401987"><ele>1316.8</ele><time>2026-05-03T09:55:07.96Z</time></trkpt><trkpt lat="41.987082537418345" lon="13.224801433864627"><ele>1316.0</ele><time>2026-05-03T09:55:08.96Z</time></trkpt><trkpt lat="41.98703021573494" lon="13.22486273416634"><ele>1316.0</ele><time>2026-05-03T09:55:09.96Z</time></trkpt><trkpt lat="41.98695670135131" lon="13.224990098182557"><ele>1316.0</ele><time>2026-05-03T09:55:11.96Z</time></trkpt><trkpt lat="41.98687236406731" lon="13.22510306932655"><ele>1316.0</ele><time>2026-05-03T09:55:13.96Z</time></trkpt><trkpt lat="41.98682590986771" lon="13.225162152496605"><ele>1316.0</ele><time>2026-05-03T09:55:14.96Z</time></trkpt><trkpt lat="41.98677578676024" lon="13.225217942342107"><ele>1316.0</ele><time>2026-05-03T09:55:15.96Z</time></trkpt><trkpt lat="41.98673218186788" lon="13.225285006563322"><ele>1316.0</ele><time>2026-05-03T09:55:16.96Z</time></trkpt><trkpt lat="41.986683603989135" lon="13.225340661193"><ele>1314.0</ele><time>2026-05-03T09:55:17.96Z</time></trkpt><trkpt lat="41.98661684505951" lon="13.225364923213027"><ele>1312.0</ele><time>2026-05-03T09:55:18.96Z</time></trkpt><trkpt lat="41.986486247217165" lon="13.225401936155555"><ele>1310.0</ele><time>2026-05-03T09:55:20.96Z</time></trkpt><trkpt lat="41.98638634010894" lon="13.225476224941696"><ele>1308.0</ele><time>2026-05-03T09:55:22.96Z</time></trkpt><trkpt lat="41.98628021085322" lon="13.225566016298238"><ele>1306.0</ele><time>2026-05-03T09:55:24.96Z</time></trkpt><trkpt lat="41.98617164670928" lon="13.225631096948"><ele>1306.1999999999998</ele><time>2026-05-03T09:55:26.96Z</time></trkpt><trkpt lat="41.98607532705204" lon="13.225729839514587"><ele>1306.3999999999999</ele><time>2026-05-03T09:55:28.96Z</time></trkpt><trkpt lat="41.98599840447921" lon="13.225813905286863"><ele>1306.6</ele><time>2026-05-03T09:55:30.96Z</time></trkpt><trkpt lat="41.985913270065645" lon="13.22585010491412"><ele>1306.8</ele><time>2026-05-03T09:55:32.96Z</time></trkpt><trkpt lat="41.98584465496499" lon="13.225842489638818"><ele>1307.0</ele><time>2026-05-03T09:55:34.96Z</time></trkpt><trkpt lat="41.98578248598419" lon="13.225756809885041"><ele>1306.2857142857142</ele><time>2026-05-03T09:55:36.96Z</time></trkpt><trkpt lat="41.98575426225001" lon="13.22567093182617"><ele>1305.5714285714287</ele><time>2026-05-03T09:55:37.96Z</time></trkpt><trkpt lat="41.98572875422181" lon="13.225581557944627"><ele>1304.857142857143</ele><time>2026-05-03T09:55:38.96Z</time></trkpt><trkpt lat="41.985686516584515" lon="13.225475954607834"><ele>1304.142857142857</ele><time>2026-05-03T09:55:39.96Z</time></trkpt><trkpt lat="41.985663032556296" lon="13.225383319205278"><ele>1303.4285714285716</ele><time>2026-05-03T09:55:40.96Z</time></trkpt><trkpt lat="41.98564660197518" lon="13.225292225845791"><ele>1302.7142857142858</ele><time>2026-05-03T09:55:41.96Z</time></trkpt><trkpt lat="41.985628304275004" lon="13.225205709421553"><ele>1302.0</ele><time>2026-05-03T09:55:42.96Z</time></trkpt><trkpt lat="41.985621799210094" lon="13.225118475523496"><ele>1301.3333333333333</ele><time>2026-05-03T09:55:43.96Z</time></trkpt><trkpt lat="41.98560821878175" lon="13.225027516746563"><ele>1300.6666666666667</ele><time>2026-05-03T09:55:44.96Z</time></trkpt><trkpt lat="41.98560171593224" lon="13.22494115990729"><ele>1300.0</ele><time>2026-05-03T09:55:45.96Z</time></trkpt><trkpt lat="41.98558456761847" lon="13.224811158780517"><ele>1299.3333333333335</ele><time>2026-05-03T09:55:47.96Z</time></trkpt><trkpt lat="41.98558667911068" lon="13.22468400721958"><ele>1298.6666666666667</ele><time>2026-05-03T09:55:49.96Z</time></trkpt><trkpt lat="41.98561366257704" lon="13.224549146996274"><ele>1298.0</ele><time>2026-05-03T09:55:51.96Z</time></trkpt><trkpt lat="41.98556367301319" lon="13.224497401681692"><ele>1298.0</ele><time>2026-05-03T09:55:53.96Z</time></trkpt><trkpt lat="41.9855028288355" lon="13.224430536264391"><ele>1298.0</ele><time>2026-05-03T09:55:55.96Z</time></trkpt><trkpt lat="41.985451673687734" lon="13.224357377769222"><ele>1298.0</ele><time>2026-05-03T09:55:57.96Z</time></trkpt><trkpt lat="41.98541518261444" lon="13.224247939769034"><ele>1298.0</ele><time>2026-05-03T09:55:59.96Z</time></trkpt><trkpt lat="41.985366923706756" lon="13.224158839220436"><ele>1298.0</ele><time>2026-05-03T09:56:01.96Z</time></trkpt><trkpt lat="41.98531802669966" lon="13.224073282315661"><ele>1298.0</ele><time>2026-05-03T09:56:04.96Z</time></trkpt><trkpt lat="41.98524525179417" lon="13.22401431247491"><ele>1298.0</ele><time>2026-05-03T09:56:07.96Z</time></trkpt><trkpt lat="41.9851299085653" lon="13.224003712906399"><ele>1298.0</ele><time>2026-05-03T09:56:10.96Z</time></trkpt><trkpt lat="41.98504254268167" lon="13.224046220912303"><ele>1298.0</ele><time>2026-05-03T09:56:12.96Z</time></trkpt><trkpt lat="41.9849732796864" lon="13.22405512595449"><ele>1298.0</ele><time>2026-05-03T09:56:13.96Z</time></trkpt><trkpt lat="41.98487977525191" lon="13.224042712966606"><ele>1298.0</ele><time>2026-05-03T09:56:15.96Z</time></trkpt><trkpt lat="41.98478823651718" lon="13.224020193217198"><ele>1295.4</ele><time>2026-05-03T09:56:17.96Z</time></trkpt><trkpt lat="41.98469926311296" lon="13.224014476632359"><ele>1292.8000000000002</ele><time>2026-05-03T09:56:19.96Z</time></trkpt><trkpt lat="41.984591664960526" lon="13.223955072032462"><ele>1290.2</ele><time>2026-05-03T09:56:21.96Z</time></trkpt><trkpt lat="41.984505521259116" lon="13.22384866192972"><ele>1287.6</ele><time>2026-05-03T09:56:23.96Z</time></trkpt><trkpt lat="41.984474779387995" lon="13.223772995609867"><ele>1285.0</ele><time>2026-05-03T09:56:24.96Z</time></trkpt><trkpt lat="41.98444900844316" lon="13.223695086100705"><ele>1285.0</ele><time>2026-05-03T09:56:25.96Z</time></trkpt><trkpt lat="41.984421176453296" lon="13.223597578808002"><ele>1285.0</ele><time>2026-05-03T09:56:26.96Z</time></trkpt><trkpt lat="41.98439364303809" lon="13.223514367602764"><ele>1285.0</ele><time>2026-05-03T09:56:27.96Z</time></trkpt><trkpt lat="41.984360185590006" lon="13.22343495708361"><ele>1285.0</ele><time>2026-05-03T09:56:28.96Z</time></trkpt><trkpt lat="41.98431617180799" lon="13.223374293102244"><ele>1285.0</ele><time>2026-05-03T09:56:29.96Z</time></trkpt><trkpt lat="41.984218951137265" lon="13.223288991615808"><ele>1285.0</ele><time>2026-05-03T09:56:31.96Z</time></trkpt><trkpt lat="41.98412072081145" lon="13.223241061969924"><ele>1262.0</ele><time>2026-05-03T09:56:33.96Z</time></trkpt><trkpt lat="41.984042272649816" lon="13.223197452051263"><ele>1262.0</ele><time>2026-05-03T09:56:35.96Z</time></trkpt><trkpt lat="41.983950987129425" lon="13.223160523418425"><ele>1262.0</ele><time>2026-05-03T09:56:38.96Z</time></trkpt><trkpt lat="41.98388060358261" lon="13.223141285120388"><ele>1258.0</ele><time>2026-05-03T09:56:41.96Z</time></trkpt></trkseg><trkseg><trkpt lat="41.98382639206907" lon="13.223225436710125"><ele>1262.0</ele><time>2026-05-03T10:14:03.955Z</time></trkpt><trkpt lat="41.98388244159272" lon="13.223273832813817"><ele>1262.0</ele><time>2026-05-03T10:14:06.955Z</time></trkpt><trkpt lat="41.983939860648476" lon="13.22331855458637"><ele>1262.0</ele><time>2026-05-03T10:14:08.955Z</time></trkpt><trkpt lat="41.98390669967792" lon="13.223430294834854"><ele>1262.0</ele><time>2026-05-03T10:14:19.955Z</time></trkpt><trkpt lat="41.98385373516099" lon="13.223528548976525"><ele>1262.0</ele><time>2026-05-03T10:14:21.955Z</time></trkpt><trkpt lat="41.98380961861453" lon="13.223612294135156"><ele>1262.0</ele><time>2026-05-03T10:14:23.955Z</time></trkpt><trkpt lat="41.98377200786495" lon="13.223700647913544"><ele>1262.0</ele><time>2026-05-03T10:14:26.955Z</time></trkpt><trkpt lat="41.983736886692114" lon="13.223814220612137"><ele>1262.0</ele><time>2026-05-03T10:14:29.955Z</time></trkpt><trkpt lat="41.98371769415348" lon="13.223904964108144"><ele>1262.0</ele><time>2026-05-03T10:14:31.955Z</time></trkpt><trkpt lat="41.98371292286477" lon="13.224006832212982"><ele>1262.0</ele><time>2026-05-03T10:14:33.955Z</time></trkpt><trkpt lat="41.98372976548365" lon="13.224116816491641"><ele>1262.0</ele><time>2026-05-03T10:14:35.955Z</time></trkpt><trkpt lat="41.983756415416806" lon="13.224239303789968"><ele>1262.0</ele><time>2026-05-03T10:14:37.955Z</time></trkpt><trkpt lat="41.983804116047686" lon="13.224343023070377"><ele>1262.8</ele><time>2026-05-03T10:14:39.955Z</time></trkpt><trkpt lat="41.98385369443255" lon="13.224468598691091"><ele>1263.6</ele><time>2026-05-03T10:14:41.955Z</time></trkpt><trkpt lat="41.98388184594423" lon="13.224613596440163"><ele>1264.3999999999999</ele><time>2026-05-03T10:14:43.955Z</time></trkpt><trkpt lat="41.98389853057998" lon="13.224763090458246"><ele>1265.2</ele><time>2026-05-03T10:14:45.955Z</time></trkpt><trkpt lat="41.98387437649182" lon="13.224914182158349"><ele>1266.0</ele><time>2026-05-03T10:14:47.955Z</time></trkpt><trkpt lat="41.9838912872945" lon="13.22500879209919"><ele>1267.3333333333333</ele><time>2026-05-03T10:14:48.955Z</time></trkpt><trkpt lat="41.98390144827205" lon="13.225169768368348"><ele>1268.6666666666667</ele><time>2026-05-03T10:14:50.955Z</time></trkpt><trkpt lat="41.98391095616389" lon="13.225333472656626"><ele>1270.0</ele><time>2026-05-03T10:14:52.955Z</time></trkpt><trkpt lat="41.983908467007026" lon="13.225429040022068"><ele>1271.3333333333335</ele><time>2026-05-03T10:14:53.955Z</time></trkpt><trkpt lat="41.983909396486176" lon="13.22551953386436"><ele>1272.6666666666667</ele><time>2026-05-03T10:14:54.955Z</time></trkpt><trkpt lat="41.98391369812023" lon="13.225610058318548"><ele>1274.0</ele><time>2026-05-03T10:14:55.955Z</time></trkpt><trkpt lat="41.983908293812036" lon="13.225710918104719"><ele>1274.142857142857</ele><time>2026-05-03T10:14:56.955Z</time></trkpt><trkpt lat="41.98389888533075" lon="13.225800321272628"><ele>1274.2857142857142</ele><time>2026-05-03T10:14:57.955Z</time></trkpt><trkpt lat="41.98387648298415" lon="13.225892754483814"><ele>1274.4285714285716</ele><time>2026-05-03T10:14:58.955Z</time></trkpt><trkpt lat="41.98383537411108" lon="13.22596641915133"><ele>1274.5714285714284</ele><time>2026-05-03T10:14:59.955Z</time></trkpt><trkpt lat="41.983792009920805" lon="13.226033758000712"><ele>1274.7142857142858</ele><time>2026-05-03T10:15:00.955Z</time></trkpt><trkpt lat="41.983743911841046" lon="13.22610489883801"><ele>1274.857142857143</ele><time>2026-05-03T10:15:01.955Z</time></trkpt><trkpt lat="41.98368842055694" lon="13.226158829743527"><ele>1275.0</ele><time>2026-05-03T10:15:02.955Z</time></trkpt><trkpt lat="41.98362256339722" lon="13.226201959889153"><ele>1275.0</ele><time>2026-05-03T10:15:03.955Z</time></trkpt><trkpt lat="41.98356114194154" lon="13.226252341832966"><ele>1275.0</ele><time>2026-05-03T10:15:04.955Z</time></trkpt><trkpt lat="41.983500852599306" lon="13.226304779031976"><ele>1275.0</ele><time>2026-05-03T10:15:05.955Z</time></trkpt><trkpt lat="41.98344009018799" lon="13.22635896369286"><ele>1275.0</ele><time>2026-05-03T10:15:06.954Z</time></trkpt><trkpt lat="41.98338446503269" lon="13.226420717451132"><ele>1275.0</ele><time>2026-05-03T10:15:07.954Z</time></trkpt><trkpt lat="41.98332915902507" lon="13.22647736227611"><ele>1275.0</ele><time>2026-05-03T10:15:08.954Z</time></trkpt><trkpt lat="41.98326395151938" lon="13.226531143155723"><ele>1275.0</ele><time>2026-05-03T10:15:09.955Z</time></trkpt><trkpt lat="41.98319639184418" lon="13.22657671994805"><ele>1273.0</ele><time>2026-05-03T10:15:10.954Z</time></trkpt><trkpt lat="41.9831274493617" lon="13.226635942791889"><ele>1271.0</ele><time>2026-05-03T10:15:11.954Z</time></trkpt><trkpt lat="41.98306578117313" lon="13.22670449840679"><ele>1269.0</ele><time>2026-05-03T10:15:12.954Z</time></trkpt><trkpt lat="41.98301389001585" lon="13.226779647816949"><ele>1267.0</ele><time>2026-05-03T10:15:13.955Z</time></trkpt><trkpt lat="41.982956518419655" lon="13.22685142072658"><ele>1265.0</ele><time>2026-05-03T10:15:14.955Z</time></trkpt><trkpt lat="41.98289077516473" lon="13.226919757434853"><ele>1263.0</ele><time>2026-05-03T10:15:15.954Z</time></trkpt><trkpt lat="41.98283274453204" lon="13.226977875294127"><ele>1263.0</ele><time>2026-05-03T10:15:16.954Z</time></trkpt><trkpt lat="41.98277068765631" lon="13.22704951709868"><ele>1263.0</ele><time>2026-05-03T10:15:17.954Z</time></trkpt><trkpt lat="41.98271075469138" lon="13.227118508063187"><ele>1263.0</ele><time>2026-05-03T10:15:18.954Z</time></trkpt><trkpt lat="41.98265783015399" lon="13.227197765903297"><ele>1263.0</ele><time>2026-05-03T10:15:19.954Z</time></trkpt><trkpt lat="41.98261432126106" lon="13.22728223942256"><ele>1263.0</ele><time>2026-05-03T10:15:20.954Z</time></trkpt><trkpt lat="41.98257740563231" lon="13.227376515394365"><ele>1263.0</ele><time>2026-05-03T10:15:21.954Z</time></trkpt><trkpt lat="41.98254767515165" lon="13.22747539839611"><ele>1262.6666666666667</ele><time>2026-05-03T10:15:22.954Z</time></trkpt><trkpt lat="41.98251408131628" lon="13.227580485773682"><ele>1262.3333333333333</ele><time>2026-05-03T10:15:23.954Z</time></trkpt><trkpt lat="41.98248607350259" lon="13.227683997025864"><ele>1262.0</ele><time>2026-05-03T10:15:24.954Z</time></trkpt><trkpt lat="41.98245667751976" lon="13.227790435383914"><ele>1261.6666666666665</ele><time>2026-05-03T10:15:25.954Z</time></trkpt><trkpt lat="41.98243431680715" lon="13.227897780970949"><ele>1261.3333333333333</ele><time>2026-05-03T10:15:26.954Z</time></trkpt><trkpt lat="41.9824263074287" lon="13.22800313342528"><ele>1261.0</ele><time>2026-05-03T10:15:27.954Z</time></trkpt><trkpt lat="41.98242593822664" lon="13.228097272183327"><ele>1262.6666666666665</ele><time>2026-05-03T10:15:28.954Z</time></trkpt><trkpt lat="41.98242924657795" lon="13.228207777607697"><ele>1264.3333333333333</ele><time>2026-05-03T10:15:29.954Z</time></trkpt><trkpt lat="41.9824297514396" lon="13.228321644032157"><ele>1266.0</ele><time>2026-05-03T10:15:30.954Z</time></trkpt><trkpt lat="41.982426779253316" lon="13.228442382476317"><ele>1267.6666666666667</ele><time>2026-05-03T10:15:31.954Z</time></trkpt><trkpt lat="41.9824220812885" lon="13.228564736798857"><ele>1269.3333333333335</ele><time>2026-05-03T10:15:32.954Z</time></trkpt><trkpt lat="41.98242073673554" lon="13.228686954955176"><ele>1271.0</ele><time>2026-05-03T10:15:33.954Z</time></trkpt><trkpt lat="41.98241382983622" lon="13.228788430009093"><ele>1271.0</ele><time>2026-05-03T10:15:34.954Z</time></trkpt><trkpt lat="41.982403752721964" lon="13.228879618244887"><ele>1271.0</ele><time>2026-05-03T10:15:35.954Z</time></trkpt><trkpt lat="41.98241192617014" lon="13.229045626880684"><ele>1271.0</ele><time>2026-05-03T10:15:37.954Z</time></trkpt><trkpt lat="41.98243178469884" lon="13.229132626550092"><ele>1271.0</ele><time>2026-05-03T10:15:38.954Z</time></trkpt><trkpt lat="41.98243576786276" lon="13.229235496808995"><ele>1271.0</ele><time>2026-05-03T10:15:39.954Z</time></trkpt><trkpt lat="41.98242597968207" lon="13.229340431196023"><ele>1271.0</ele><time>2026-05-03T10:15:40.954Z</time></trkpt><trkpt lat="41.982398239218476" lon="13.229446766029447"><ele>1271.1666666666667</ele><time>2026-05-03T10:15:41.954Z</time></trkpt><trkpt lat="41.98237458889268" lon="13.22956209470637"><ele>1271.3333333333335</ele><time>2026-05-03T10:15:42.954Z</time></trkpt><trkpt lat="41.982352136238816" lon="13.229681394453857"><ele>1271.5</ele><time>2026-05-03T10:15:43.954Z</time></trkpt><trkpt lat="41.98232413294365" lon="13.229794595891333"><ele>1271.6666666666667</ele><time>2026-05-03T10:15:44.954Z</time></trkpt><trkpt lat="41.98230204128314" lon="13.229905393934116"><ele>1271.8333333333333</ele><time>2026-05-03T10:15:45.954Z</time></trkpt><trkpt lat="41.982278179115006" lon="13.23002001332414"><ele>1272.0</ele><time>2026-05-03T10:15:46.954Z</time></trkpt><trkpt lat="41.98225426455165" lon="13.23014500921034"><ele>1272.6</ele><time>2026-05-03T10:15:47.954Z</time></trkpt><trkpt lat="41.98222886487086" lon="13.230272576303582"><ele>1273.2</ele><time>2026-05-03T10:15:48.954Z</time></trkpt><trkpt lat="41.982204412138636" lon="13.230401282978924"><ele>1273.8</ele><time>2026-05-03T10:15:49.954Z</time></trkpt><trkpt lat="41.982175225844266" lon="13.23053050569951"><ele>1274.4</ele><time>2026-05-03T10:15:50.954Z</time></trkpt><trkpt lat="41.98214681753263" lon="13.230659476219524"><ele>1275.0</ele><time>2026-05-03T10:15:51.954Z</time></trkpt><trkpt lat="41.98211646111276" lon="13.230786005741445"><ele>1275.0</ele><time>2026-05-03T10:15:52.954Z</time></trkpt><trkpt lat="41.982085021381266" lon="13.230908479794346"><ele>1275.0</ele><time>2026-05-03T10:15:53.954Z</time></trkpt><trkpt lat="41.98205262132636" lon="13.23103201844305"><ele>1275.0</ele><time>2026-05-03T10:15:54.954Z</time></trkpt><trkpt lat="41.982021797998456" lon="13.231152740984971"><ele>1275.0</ele><time>2026-05-03T10:15:55.954Z</time></trkpt><trkpt lat="41.981992767944924" lon="13.231270014043119"><ele>1275.0</ele><time>2026-05-03T10:15:56.954Z</time></trkpt><trkpt lat="41.98196839648393" lon="13.231375247906067"><ele>1275.0</ele><time>2026-05-03T10:15:57.954Z</time></trkpt><trkpt lat="41.981947580412516" lon="13.23147298605323"><ele>1275.0</ele><time>2026-05-03T10:15:58.954Z</time></trkpt><trkpt lat="41.981936042066636" lon="13.231559239525325"><ele>1275.0</ele><time>2026-05-03T10:15:59.954Z</time></trkpt><trkpt lat="41.98190694439858" lon="13.231698361053793"><ele>1275.0</ele><time>2026-05-03T10:16:01.954Z</time></trkpt><trkpt lat="41.98186919770631" lon="13.231777712397312"><ele>1275.0</ele><time>2026-05-03T10:16:03.954Z</time></trkpt><trkpt lat="41.981814338003346" lon="13.23183948960015"><ele>1275.0</ele><time>2026-05-03T10:16:06.954Z</time></trkpt><trkpt lat="41.98173993636838" lon="13.231894694575473"><ele>1272.4</ele><time>2026-05-03T10:17:23.953Z</time></trkpt><trkpt lat="41.981667585216925" lon="13.231944382978268"><ele>1269.8</ele><time>2026-05-03T10:17:25.954Z</time></trkpt><trkpt lat="41.98157130803172" lon="13.231952106134342"><ele>1267.2</ele><time>2026-05-03T10:17:27.954Z</time></trkpt><trkpt lat="41.981459995514555" lon="13.23193756316167"><ele>1264.6</ele><time>2026-05-03T10:17:29.954Z</time></trkpt><trkpt lat="41.981386433267026" lon="13.231896658036346"><ele>1262.0</ele><time>2026-05-03T10:17:31.954Z</time></trkpt><trkpt lat="41.98129119021336" lon="13.231891919272718"><ele>1262.0</ele><time>2026-05-03T10:17:33.954Z</time></trkpt><trkpt lat="41.981198365092" lon="13.23191525745087"><ele>1262.0</ele><time>2026-05-03T10:17:35.954Z</time></trkpt><trkpt lat="41.98110503996319" lon="13.23197211018463"><ele>1262.0</ele><time>2026-05-03T10:17:37.954Z</time></trkpt><trkpt lat="41.981003385056304" lon="13.23204882905254"><ele>1262.0</ele><time>2026-05-03T10:17:39.954Z</time></trkpt><trkpt lat="41.9809378836438" lon="13.232069426220939"><ele>1262.0</ele><time>2026-05-03T10:17:40.954Z</time></trkpt><trkpt lat="41.98086900757421" lon="13.232071298059033"><ele>1263.4</ele><time>2026-05-03T10:17:41.954Z</time></trkpt><trkpt lat="41.980798971734984" lon="13.232065738312231"><ele>1264.8000000000002</ele><time>2026-05-03T10:17:42.954Z</time></trkpt><trkpt lat="41.98067917582981" lon="13.232073155793366"><ele>1266.2</ele><time>2026-05-03T10:17:44.954Z</time></trkpt><trkpt lat="41.980576276679066" lon="13.23211659071639"><ele>1267.6000000000001</ele><time>2026-05-03T10:17:46.954Z</time></trkpt><trkpt lat="41.9804686333208" lon="13.232195954820831"><ele>1269.0</ele><time>2026-05-03T10:17:48.954Z</time></trkpt><trkpt lat="41.98037282079533" lon="13.23230350093423"><ele>1268.5</ele><time>2026-05-03T10:17:50.954Z</time></trkpt><trkpt lat="41.980310233980866" lon="13.232349258284216"><ele>1268.0</ele><time>2026-05-03T10:17:51.954Z</time></trkpt><trkpt lat="41.98024394202199" lon="13.2323870791222"><ele>1267.5</ele><time>2026-05-03T10:17:52.954Z</time></trkpt><trkpt lat="41.98012690485561" lon="13.232433637593783"><ele>1267.0</ele><time>2026-05-03T10:17:54.954Z</time></trkpt><trkpt lat="41.98002480752164" lon="13.232514319852926"><ele>1266.5</ele><time>2026-05-03T10:17:56.954Z</time></trkpt><trkpt lat="41.979983902031115" lon="13.232579425947677"><ele>1266.0</ele><time>2026-05-03T10:17:57.954Z</time></trkpt><trkpt lat="41.979932497261224" lon="13.23264372262091"><ele>1266.0</ele><time>2026-05-03T10:17:58.954Z</time></trkpt><trkpt lat="41.97986017074597" lon="13.23271472576219"><ele>1266.0</ele><time>2026-05-03T10:17:59.954Z</time></trkpt><trkpt lat="41.97979787511622" lon="13.232778147448428"><ele>1266.0</ele><time>2026-05-03T10:18:00.954Z</time></trkpt><trkpt lat="41.979723917113404" lon="13.232839015281765"><ele>1266.0</ele><time>2026-05-03T10:18:01.954Z</time></trkpt><trkpt lat="41.97964380879759" lon="13.23289595285002"><ele>1266.0</ele><time>2026-05-03T10:18:02.954Z</time></trkpt><trkpt lat="41.979565668110716" lon="13.232940955124434"><ele>1266.0</ele><time>2026-05-03T10:18:03.954Z</time></trkpt><trkpt lat="41.97947151148883" lon="13.232982569451556"><ele>1266.0</ele><time>2026-05-03T10:18:04.954Z</time></trkpt><trkpt lat="41.97938238155857" lon="13.23299997049926"><ele>1266.0</ele><time>2026-05-03T10:18:05.954Z</time></trkpt><trkpt lat="41.97929663107509" lon="13.233011264556696"><ele>1266.0</ele><time>2026-05-03T10:18:06.954Z</time></trkpt><trkpt lat="41.97920605902814" lon="13.233018587326077"><ele>1266.0</ele><time>2026-05-03T10:18:07.954Z</time></trkpt><trkpt lat="41.979115847871064" lon="13.233022650446237"><ele>1266.0</ele><time>2026-05-03T10:18:08.954Z</time></trkpt><trkpt lat="41.979025682679804" lon="13.233036370411414"><ele>1266.0</ele><time>2026-05-03T10:18:09.954Z</time></trkpt><trkpt lat="41.978927716255605" lon="13.23305043195728"><ele>1267.2</ele><time>2026-05-03T10:18:10.954Z</time></trkpt><trkpt lat="41.978830456049124" lon="13.233056229679317"><ele>1268.3999999999999</ele><time>2026-05-03T10:18:11.954Z</time></trkpt><trkpt lat="41.9787302146793" lon="13.233055278037732"><ele>1269.6</ele><time>2026-05-03T10:18:12.954Z</time></trkpt><trkpt lat="41.97863199482786" lon="13.233048822526037"><ele>1270.8</ele><time>2026-05-03T10:18:13.954Z</time></trkpt><trkpt lat="41.97853644349606" lon="13.233031942872065"><ele>1272.0</ele><time>2026-05-03T10:18:14.954Z</time></trkpt><trkpt lat="41.978451985125126" lon="13.233012943471234"><ele>1272.0</ele><time>2026-05-03T10:18:15.954Z</time></trkpt><trkpt lat="41.97837787790637" lon="13.232990013308862"><ele>1272.0</ele><time>2026-05-03T10:18:16.954Z</time></trkpt><trkpt lat="41.978314150061784" lon="13.232964703762347"><ele>1272.0</ele><time>2026-05-03T10:18:17.954Z</time></trkpt><trkpt lat="41.978200835104566" lon="13.232971107940052"><ele>1272.0</ele><time>2026-05-03T10:18:19.954Z</time></trkpt><trkpt lat="41.97813378630642" lon="13.233007408346468"><ele>1272.0</ele><time>2026-05-03T10:18:20.954Z</time></trkpt><trkpt lat="41.978060719780174" lon="13.23303462314387"><ele>1272.0</ele><time>2026-05-03T10:18:21.954Z</time></trkpt><trkpt lat="41.97799561103603" lon="13.233040877396686"><ele>1272.4285714285713</ele><time>2026-05-03T10:18:22.954Z</time></trkpt><trkpt lat="41.97792746873472" lon="13.233009738659012"><ele>1272.857142857143</ele><time>2026-05-03T10:18:23.954Z</time></trkpt><trkpt lat="41.97785467248075" lon="13.233007716601847"><ele>1273.2857142857142</ele><time>2026-05-03T10:18:24.954Z</time></trkpt><trkpt lat="41.97778373500947" lon="13.23302885765901"><ele>1273.7142857142858</ele><time>2026-05-03T10:18:25.954Z</time></trkpt><trkpt lat="41.9777178560266" lon="13.233053912764804"><ele>1274.142857142857</ele><time>2026-05-03T10:18:26.954Z</time></trkpt><trkpt lat="41.97765171370644" lon="13.233089728804266"><ele>1274.5714285714287</ele><time>2026-05-03T10:18:27.954Z</time></trkpt><trkpt lat="41.97758683369777" lon="13.233124627208076"><ele>1275.0</ele><time>2026-05-03T10:18:28.954Z</time></trkpt><trkpt lat="41.97752672721882" lon="13.233168591954637"><ele>1276.0</ele><time>2026-05-03T10:18:29.954Z</time></trkpt><trkpt lat="41.97747728785481" lon="13.233232221068869"><ele>1277.0</ele><time>2026-05-03T10:18:30.954Z</time></trkpt><trkpt lat="41.97742128355391" lon="13.233311006301202"><ele>1278.0</ele><time>2026-05-03T10:18:31.954Z</time></trkpt><trkpt lat="41.97737454960527" lon="13.233385552935696"><ele>1279.0</ele><time>2026-05-03T10:18:32.954Z</time></trkpt><trkpt lat="41.977324391780336" lon="13.23347404978874"><ele>1280.0</ele><time>2026-05-03T10:18:33.954Z</time></trkpt><trkpt lat="41.97727984874509" lon="13.233566322715914"><ele>1281.0</ele><time>2026-05-03T10:18:34.954Z</time></trkpt><trkpt lat="41.977237850766464" lon="13.233651508052306"><ele>1281.0</ele><time>2026-05-03T10:18:35.954Z</time></trkpt><trkpt lat="41.97719221092093" lon="13.233740196847766"><ele>1281.0</ele><time>2026-05-03T10:18:36.954Z</time></trkpt><trkpt lat="41.977144214974636" lon="13.233834097556004"><ele>1281.0</ele><time>2026-05-03T10:18:37.954Z</time></trkpt><trkpt lat="41.97708634164482" lon="13.233926447546635"><ele>1281.0</ele><time>2026-05-03T10:18:38.954Z</time></trkpt><trkpt lat="41.97701839770426" lon="13.233992663343228"><ele>1281.0</ele><time>2026-05-03T10:18:39.954Z</time></trkpt><trkpt lat="41.97694934196768" lon="13.234035209884006"><ele>1281.0</ele><time>2026-05-03T10:18:40.954Z</time></trkpt><trkpt lat="41.976880610262164" lon="13.234060712406405"><ele>1283.1666666666667</ele><time>2026-05-03T10:18:41.954Z</time></trkpt><trkpt lat="41.976823084935404" lon="13.234119139354881"><ele>1285.3333333333333</ele><time>2026-05-03T10:18:42.954Z</time></trkpt><trkpt lat="41.97679074045229" lon="13.23420603221627"><ele>1287.5</ele><time>2026-05-03T10:18:43.954Z</time></trkpt><trkpt lat="41.976760313747555" lon="13.234290448030272"><ele>1289.6666666666665</ele><time>2026-05-03T10:18:44.954Z</time></trkpt><trkpt lat="41.97671389251885" lon="13.23438857869527"><ele>1291.8333333333333</ele><time>2026-05-03T10:18:45.954Z</time></trkpt><trkpt lat="41.976674065312245" lon="13.234487527988392"><ele>1294.0</ele><time>2026-05-03T10:18:46.954Z</time></trkpt><trkpt lat="41.97662005887346" lon="13.234585168699523"><ele>1294.0</ele><time>2026-05-03T10:18:47.954Z</time></trkpt><trkpt lat="41.97656218027828" lon="13.234689976833629"><ele>1294.0</ele><time>2026-05-03T10:18:48.954Z</time></trkpt><trkpt lat="41.9765019455463" lon="13.234785838886808"><ele>1294.0</ele><time>2026-05-03T10:18:49.954Z</time></trkpt><trkpt lat="41.976429202226825" lon="13.23485201597185"><ele>1294.0</ele><time>2026-05-03T10:18:50.954Z</time></trkpt><trkpt lat="41.97636229578257" lon="13.234910029862627"><ele>1294.0</ele><time>2026-05-03T10:18:51.954Z</time></trkpt><trkpt lat="41.976296701226715" lon="13.234959109252829"><ele>1294.0</ele><time>2026-05-03T10:18:52.954Z</time></trkpt><trkpt lat="41.97622712312623" lon="13.234992293398648"><ele>1293.6666666666665</ele><time>2026-05-03T10:18:53.954Z</time></trkpt><trkpt lat="41.976144994276446" lon="13.235024975340194"><ele>1293.3333333333333</ele><time>2026-05-03T10:18:54.954Z</time></trkpt><trkpt lat="41.97605773203698" lon="13.235073593943591"><ele>1293.0</ele><time>2026-05-03T10:18:55.954Z</time></trkpt><trkpt lat="41.97598984608538" lon="13.235129025695207"><ele>1292.6666666666667</ele><time>2026-05-03T10:18:56.954Z</time></trkpt><trkpt lat="41.97591343343186" lon="13.235184911056606"><ele>1292.3333333333335</ele><time>2026-05-03T10:18:57.954Z</time></trkpt><trkpt lat="41.9758249757525" lon="13.23524871056417"><ele>1292.0</ele><time>2026-05-03T10:18:58.954Z</time></trkpt><trkpt lat="41.97575398890215" lon="13.235327216441833"><ele>1291.8333333333335</ele><time>2026-05-03T10:18:59.954Z</time></trkpt><trkpt lat="41.97569803535245" lon="13.235387516518685"><ele>1291.6666666666667</ele><time>2026-05-03T10:19:00.954Z</time></trkpt><trkpt lat="41.97565010016233" lon="13.23549177022241"><ele>1291.5</ele><time>2026-05-03T10:19:01.954Z</time></trkpt><trkpt lat="41.97561215563289" lon="13.235607416844076"><ele>1291.3333333333333</ele><time>2026-05-03T10:19:02.954Z</time></trkpt><trkpt lat="41.97559147503957" lon="13.235726302611372"><ele>1291.1666666666665</ele><time>2026-05-03T10:19:03.954Z</time></trkpt><trkpt lat="41.97558579418039" lon="13.235837853600382"><ele>1291.0</ele><time>2026-05-03T10:19:04.954Z</time></trkpt><trkpt lat="41.975593803309465" lon="13.235953911430427"><ele>1291.0</ele><time>2026-05-03T10:19:05.954Z</time></trkpt><trkpt lat="41.975611689974" lon="13.23608185811314"><ele>1291.0</ele><time>2026-05-03T10:19:06.954Z</time></trkpt><trkpt lat="41.97562922852574" lon="13.236191997219077"><ele>1291.0</ele><time>2026-05-03T10:19:07.954Z</time></trkpt><trkpt lat="41.975629579736854" lon="13.236305402597823"><ele>1291.0</ele><time>2026-05-03T10:19:08.954Z</time></trkpt><trkpt lat="41.97562614168125" lon="13.23641391727993"><ele>1291.0</ele><time>2026-05-03T10:19:09.954Z</time></trkpt><trkpt lat="41.97559383251007" lon="13.236500062979614"><ele>1291.0</ele><time>2026-05-03T10:19:10.954Z</time></trkpt><trkpt lat="41.975526212338394" lon="13.236578671674316"><ele>1293.1999999999998</ele><time>2026-05-03T10:19:11.954Z</time></trkpt><trkpt lat="41.97545602491166" lon="13.236636762389287"><ele>1295.3999999999999</ele><time>2026-05-03T10:19:12.954Z</time></trkpt><trkpt lat="41.97536957269889" lon="13.236685833287394"><ele>1297.6</ele><time>2026-05-03T10:19:13.954Z</time></trkpt><trkpt lat="41.97526893642551" lon="13.236728976151968"><ele>1299.8</ele><time>2026-05-03T10:19:14.954Z</time></trkpt><trkpt lat="41.9751726231418" lon="13.236763567307667"><ele>1302.0</ele><time>2026-05-03T10:19:15.954Z</time></trkpt><trkpt lat="41.97508525230991" lon="13.236767630783577"><ele>1301.3333333333333</ele><time>2026-05-03T10:19:16.954Z</time></trkpt><trkpt lat="41.975002328106925" lon="13.236800848285693"><ele>1300.6666666666667</ele><time>2026-05-03T10:19:17.954Z</time></trkpt><trkpt lat="41.97491574253492" lon="13.236868618940093"><ele>1300.0</ele><time>2026-05-03T10:19:18.953Z</time></trkpt><trkpt lat="41.974839666044964" lon="13.236909896006603"><ele>1299.3333333333335</ele><time>2026-05-03T10:19:19.953Z</time></trkpt><trkpt lat="41.97476104897227" lon="13.236946218685645"><ele>1298.6666666666667</ele><time>2026-05-03T10:19:20.953Z</time></trkpt><trkpt lat="41.974677633811716" lon="13.237004216765976"><ele>1298.0</ele><time>2026-05-03T10:19:21.953Z</time></trkpt><trkpt lat="41.97459907912092" lon="13.237043633303282"><ele>1298.0</ele><time>2026-05-03T10:19:22.952Z</time></trkpt><trkpt lat="41.974540020337386" lon="13.237108142493959"><ele>1298.0</ele><time>2026-05-03T10:19:23.952Z</time></trkpt><trkpt lat="41.97446816710737" lon="13.237160946305519"><ele>1298.0</ele><time>2026-05-03T10:19:24.953Z</time></trkpt><trkpt lat="41.97438727044083" lon="13.237259805461866"><ele>1298.0</ele><time>2026-05-03T10:19:25.953Z</time></trkpt><trkpt lat="41.97431155868024" lon="13.23734411664765"><ele>1298.0</ele><time>2026-05-03T10:19:26.953Z</time></trkpt><trkpt lat="41.97423757442209" lon="13.237408370902205"><ele>1296.8000000000002</ele><time>2026-05-03T10:19:27.954Z</time></trkpt><trkpt lat="41.974164996610625" lon="13.237468490106004"><ele>1295.6</ele><time>2026-05-03T10:19:28.953Z</time></trkpt><trkpt lat="41.97408213144176" lon="13.237532198654574"><ele>1294.4</ele><time>2026-05-03T10:19:29.953Z</time></trkpt><trkpt lat="41.973993047444466" lon="13.237590354932912"><ele>1293.1999999999998</ele><time>2026-05-03T10:19:30.953Z</time></trkpt><trkpt lat="41.97391776032397" lon="13.237648033872176"><ele>1292.0</ele><time>2026-05-03T10:19:31.953Z</time></trkpt><trkpt lat="41.97385358490112" lon="13.237721304259876"><ele>1292.0</ele><time>2026-05-03T10:19:32.953Z</time></trkpt><trkpt lat="41.97380157337695" lon="13.237799311344698"><ele>1292.0</ele><time>2026-05-03T10:19:33.953Z</time></trkpt><trkpt lat="41.97376357270214" lon="13.237904902142226"><ele>1292.0</ele><time>2026-05-03T10:19:34.953Z</time></trkpt><trkpt lat="41.97373226537861" lon="13.238003943988936"><ele>1292.0</ele><time>2026-05-03T10:19:35.953Z</time></trkpt><trkpt lat="41.97370953778174" lon="13.238112032923178"><ele>1292.0</ele><time>2026-05-03T10:19:36.953Z</time></trkpt><trkpt lat="41.97367844920657" lon="13.238219529775906"><ele>1292.0</ele><time>2026-05-03T10:19:37.953Z</time></trkpt><trkpt lat="41.97363803058237" lon="13.238325743988499"><ele>1292.3333333333335</ele><time>2026-05-03T10:19:38.953Z</time></trkpt><trkpt lat="41.97359082791029" lon="13.238429429429218"><ele>1292.6666666666667</ele><time>2026-05-03T10:19:39.953Z</time></trkpt><trkpt lat="41.973544936641034" lon="13.23852843130744"><ele>1293.0</ele><time>2026-05-03T10:19:40.953Z</time></trkpt><trkpt lat="41.9734942160671" lon="13.238620542654807"><ele>1293.3333333333333</ele><time>2026-05-03T10:19:41.953Z</time></trkpt><trkpt lat="41.97344213438044" lon="13.238713056339481"><ele>1293.6666666666665</ele><time>2026-05-03T10:19:42.953Z</time></trkpt><trkpt lat="41.973400427928745" lon="13.238821293379129"><ele>1294.0</ele><time>2026-05-03T10:19:43.953Z</time></trkpt><trkpt lat="41.97333916425163" lon="13.238911118141393"><ele>1293.0</ele><time>2026-05-03T10:19:44.953Z</time></trkpt><trkpt lat="41.97328089621692" lon="13.238994837406715"><ele>1292.0</ele><time>2026-05-03T10:19:45.953Z</time></trkpt><trkpt lat="41.97320723124627" lon="13.239070215116218"><ele>1291.0</ele><time>2026-05-03T10:19:46.953Z</time></trkpt><trkpt lat="41.9731280202124" lon="13.239126764134857"><ele>1290.0</ele><time>2026-05-03T10:19:47.953Z</time></trkpt><trkpt lat="41.97305119676756" lon="13.239171487739625"><ele>1289.0</ele><time>2026-05-03T10:19:48.953Z</time></trkpt><trkpt lat="41.972966600336434" lon="13.239213385776726"><ele>1288.0</ele><time>2026-05-03T10:19:49.953Z</time></trkpt><trkpt lat="41.972895929300535" lon="13.23925223876299"><ele>1288.0</ele><time>2026-05-03T10:19:50.953Z</time></trkpt><trkpt lat="41.9728348577846" lon="13.239290460852638"><ele>1288.0</ele><time>2026-05-03T10:19:51.953Z</time></trkpt><trkpt lat="41.97277052483733" lon="13.23935383476328"><ele>1288.0</ele><time>2026-05-03T10:19:53.953Z</time></trkpt><trkpt lat="41.972720996380055" lon="13.239418542331077"><ele>1288.0</ele><time>2026-05-03T10:19:55.953Z</time></trkpt><trkpt lat="41.97262858968425" lon="13.239485701268409"><ele>1288.0</ele><time>2026-05-03T10:19:57.953Z</time></trkpt><trkpt lat="41.97252345005774" lon="13.239542229740206"><ele>1288.0</ele><time>2026-05-03T10:19:59.953Z</time></trkpt><trkpt lat="41.972448992202914" lon="13.239636036337725"><ele>1288.1666666666665</ele><time>2026-05-03T10:20:01.953Z</time></trkpt><trkpt lat="41.972365610828426" lon="13.239737670528836"><ele>1288.3333333333333</ele><time>2026-05-03T10:20:03.953Z</time></trkpt><trkpt lat="41.9723298839734" lon="13.239831228276238"><ele>1288.5</ele><time>2026-05-03T10:20:05.953Z</time></trkpt><trkpt lat="41.97227437818147" lon="13.239873681611384"><ele>1288.6666666666667</ele><time>2026-05-03T10:21:50.952Z</time></trkpt><trkpt lat="41.97224041077849" lon="13.239981430188388"><ele>1288.8333333333335</ele><time>2026-05-03T10:21:53.952Z</time></trkpt><trkpt lat="41.97219859779438" lon="13.240109026988991"><ele>1289.0</ele><time>2026-05-03T10:21:55.952Z</time></trkpt><trkpt lat="41.97217590498244" lon="13.240234963668387"><ele>1289.0</ele><time>2026-05-03T10:21:57.952Z</time></trkpt><trkpt lat="41.97211595919065" lon="13.240361325150587"><ele>1289.0</ele><time>2026-05-03T10:21:59.952Z</time></trkpt><trkpt lat="41.97207091610854" lon="13.240484059397497"><ele>1289.0</ele><time>2026-05-03T10:22:01.952Z</time></trkpt><trkpt lat="41.97205388290183" lon="13.240618598838669"><ele>1289.0</ele><time>2026-05-03T10:22:03.952Z</time></trkpt><trkpt lat="41.97206530295217" lon="13.240758530641022"><ele>1289.0</ele><time>2026-05-03T10:22:05.952Z</time></trkpt><trkpt lat="41.97208352482494" lon="13.240895441975633"><ele>1290.6</ele><time>2026-05-03T10:22:07.952Z</time></trkpt><trkpt lat="41.97207049370373" lon="13.241025146375042"><ele>1292.2</ele><time>2026-05-03T10:22:09.952Z</time></trkpt><trkpt lat="41.97203619289089" lon="13.241171307039695"><ele>1293.8</ele><time>2026-05-03T10:22:11.952Z</time></trkpt><trkpt lat="41.97202458019102" lon="13.241327728982887"><ele>1295.3999999999999</ele><time>2026-05-03T10:22:13.952Z</time></trkpt><trkpt lat="41.97199593579797" lon="13.241466649331448"><ele>1297.0</ele><time>2026-05-03T10:22:15.952Z</time></trkpt><trkpt lat="41.97193394468646" lon="13.24161056976809"><ele>1299.0</ele><time>2026-05-03T10:22:17.952Z</time></trkpt><trkpt lat="41.971909644397" lon="13.2417589964365"><ele>1301.0</ele><time>2026-05-03T10:22:19.952Z</time></trkpt><trkpt lat="41.97193491142684" lon="13.241896957744151"><ele>1303.0</ele><time>2026-05-03T10:22:21.952Z</time></trkpt><trkpt lat="41.97195031233363" lon="13.242057747195705"><ele>1305.0</ele><time>2026-05-03T10:22:23.952Z</time></trkpt><trkpt lat="41.97193609973531" lon="13.242205099750482"><ele>1306.25</ele><time>2026-05-03T10:22:25.952Z</time></trkpt><trkpt lat="41.97186583275959" lon="13.242322905962189"><ele>1307.5</ele><time>2026-05-03T10:22:27.952Z</time></trkpt><trkpt lat="41.97177086377285" lon="13.24241251194543"><ele>1308.75</ele><time>2026-05-03T10:22:29.952Z</time></trkpt><trkpt lat="41.971679934769845" lon="13.242530676442902"><ele>1310.0</ele><time>2026-05-03T10:22:31.952Z</time></trkpt><trkpt lat="41.97162361683337" lon="13.242657170858072"><ele>1306.3333333333335</ele><time>2026-05-03T10:22:33.952Z</time></trkpt><trkpt lat="41.971573327844595" lon="13.242790777861973"><ele>1302.6666666666667</ele><time>2026-05-03T10:22:35.952Z</time></trkpt><trkpt lat="41.97154452737361" lon="13.242868507811066"><ele>1299.0</ele><time>2026-05-03T10:22:36.952Z</time></trkpt><trkpt lat="41.97151433766747" lon="13.242953544882777"><ele>1295.3333333333333</ele><time>2026-05-03T10:22:37.952Z</time></trkpt><trkpt lat="41.97148429460605" lon="13.243037589096465"><ele>1291.6666666666665</ele><time>2026-05-03T10:22:38.952Z</time></trkpt><trkpt lat="41.97146077190543" lon="13.24312544771361"><ele>1288.0</ele><time>2026-05-03T10:22:39.952Z</time></trkpt><trkpt lat="41.971439295431296" lon="13.243213833876084"><ele>1288.0</ele><time>2026-05-03T10:22:40.952Z</time></trkpt><trkpt lat="41.971415269044215" lon="13.243381294717514"><ele>1288.0</ele><time>2026-05-03T10:22:42.952Z</time></trkpt><trkpt lat="41.971396700288594" lon="13.24347679284954"><ele>1288.0</ele><time>2026-05-03T10:22:43.952Z</time></trkpt><trkpt lat="41.97139141042053" lon="13.243564372572033"><ele>1288.0</ele><time>2026-05-03T10:22:44.952Z</time></trkpt><trkpt lat="41.97138029030906" lon="13.24364819668259"><ele>1288.0</ele><time>2026-05-03T10:22:45.952Z</time></trkpt><trkpt lat="41.9713282781946" lon="13.243784446626966"><ele>1288.0</ele><time>2026-05-03T10:22:47.952Z</time></trkpt><trkpt lat="41.97124060162817" lon="13.243881250948245"><ele>1288.0</ele><time>2026-05-03T10:22:49.952Z</time></trkpt><trkpt lat="41.97118623494463" lon="13.243924494629232"><ele>1288.0</ele><time>2026-05-03T10:22:50.952Z</time></trkpt><trkpt lat="41.97112324588158" lon="13.244062247383294"><ele>1288.0</ele><time>2026-05-03T10:22:52.952Z</time></trkpt><trkpt lat="41.971074898543556" lon="13.244197270575022"><ele>1288.0</ele><time>2026-05-03T10:22:54.952Z</time></trkpt><trkpt lat="41.97103878453435" lon="13.244343849715507"><ele>1288.0</ele><time>2026-05-03T10:22:56.952Z</time></trkpt><trkpt lat="41.97102388887705" lon="13.244510630086543"><ele>1289.5</ele><time>2026-05-03T10:22:58.952Z</time></trkpt><trkpt lat="41.97100766914065" lon="13.244599423724312"><ele>1291.0</ele><time>2026-05-03T10:22:59.952Z</time></trkpt><trkpt lat="41.9709742232912" lon="13.244680441326123"><ele>1292.5</ele><time>2026-05-03T10:23:00.952Z</time></trkpt><trkpt lat="41.970936006536405" lon="13.244760455227809"><ele>1294.0</ele><time>2026-05-03T10:23:01.952Z</time></trkpt><trkpt lat="41.97090688034349" lon="13.244836722857022"><ele>1295.5</ele><time>2026-05-03T10:23:02.952Z</time></trkpt><trkpt lat="41.97086730290717" lon="13.244986987109277"><ele>1297.0</ele><time>2026-05-03T10:23:04.952Z</time></trkpt><trkpt lat="41.97078961550192" lon="13.245085449464355"><ele>1297.3333333333333</ele><time>2026-05-03T10:23:06.952Z</time></trkpt><trkpt lat="41.970703571410134" lon="13.245127393056586"><ele>1297.6666666666665</ele><time>2026-05-03T10:23:08.952Z</time></trkpt><trkpt lat="41.97060911564067" lon="13.245168249983099"><ele>1298.0</ele><time>2026-05-03T10:23:10.952Z</time></trkpt><trkpt lat="41.9705162056816" lon="13.245229116624396"><ele>1298.3333333333333</ele><time>2026-05-03T10:23:12.952Z</time></trkpt><trkpt lat="41.970451509229235" lon="13.245309393451178"><ele>1298.6666666666667</ele><time>2026-05-03T10:23:15.952Z</time></trkpt><trkpt lat="41.9704186409678" lon="13.245386585375366"><ele>1299.0</ele><time>2026-05-03T10:23:17.952Z</time></trkpt><trkpt lat="41.97038092749463" lon="13.245491338558358"><ele>1299.0</ele><time>2026-05-03T10:23:19.952Z</time></trkpt><trkpt lat="41.97033035804724" lon="13.245609346605038"><ele>1299.0</ele><time>2026-05-03T10:23:21.952Z</time></trkpt><trkpt lat="41.97029869756865" lon="13.245715175619239"><ele>1299.0</ele><time>2026-05-03T10:23:23.952Z</time></trkpt><trkpt lat="41.97027805686743" lon="13.245822275190212"><ele>1299.0</ele><time>2026-05-03T10:23:25.952Z</time></trkpt><trkpt lat="41.970243997881035" lon="13.245923237958538"><ele>1299.0</ele><time>2026-05-03T10:23:27.952Z</time></trkpt><trkpt lat="41.97021574371945" lon="13.246001978302488"><ele>1299.0</ele><time>2026-05-03T10:25:07.952Z</time></trkpt><trkpt lat="41.970209511606384" lon="13.246096117776926"><ele>1300.1666666666667</ele><time>2026-05-03T10:25:12.952Z</time></trkpt><trkpt lat="41.97020882584088" lon="13.246197816847468"><ele>1301.3333333333333</ele><time>2026-05-03T10:25:15.952Z</time></trkpt><trkpt lat="41.97024468478931" lon="13.246272354578847"><ele>1302.5</ele><time>2026-05-03T10:26:06.951Z</time></trkpt><trkpt lat="41.970230019019304" lon="13.246356984338593"><ele>1303.6666666666665</ele><time>2026-05-03T10:26:38.951Z</time></trkpt><trkpt lat="41.970273637640126" lon="13.246424142541933"><ele>1304.8333333333333</ele><time>2026-05-03T10:26:47.951Z</time></trkpt><trkpt lat="41.97031195979474" lon="13.246528577204007"><ele>1306.0</ele><time>2026-05-03T10:26:51.951Z</time></trkpt><trkpt lat="41.970340383685496" lon="13.246651389187262"><ele>1306.0</ele><time>2026-05-03T10:26:53.951Z</time></trkpt><trkpt lat="41.97037707030153" lon="13.246744381753759"><ele>1306.0</ele><time>2026-05-03T10:26:56.951Z</time></trkpt><trkpt lat="41.970401964031396" lon="13.246840575899757"><ele>1306.0</ele><time>2026-05-03T10:30:52.949Z</time></trkpt><trkpt lat="41.970430417534345" lon="13.246937685955048"><ele>1306.0</ele><time>2026-05-03T10:30:54.949Z</time></trkpt><trkpt lat="41.97045886095718" lon="13.247019557442652"><ele>1306.0</ele><time>2026-05-03T10:30:56.949Z</time></trkpt><trkpt lat="41.9704896705857" lon="13.247115398214314"><ele>1306.0</ele><time>2026-05-03T10:30:59.949Z</time></trkpt><trkpt lat="41.9705032879624" lon="13.247217373667791"><ele>1304.0</ele><time>2026-05-03T10:31:01.949Z</time></trkpt><trkpt lat="41.97050532912278" lon="13.247335425768844"><ele>1302.0</ele><time>2026-05-03T10:31:03.949Z</time></trkpt><trkpt lat="41.97051050034498" lon="13.247456428602556"><ele>1300.0</ele><time>2026-05-03T10:31:05.949Z</time></trkpt><trkpt lat="41.97051382552845" lon="13.247578575798803"><ele>1298.0</ele><time>2026-05-03T10:31:07.949Z</time></trkpt><trkpt lat="41.97050265311713" lon="13.247706870566816"><ele>1296.0</ele><time>2026-05-03T10:31:09.949Z</time></trkpt><trkpt lat="41.97047863038995" lon="13.247826358731638"><ele>1296.0</ele><time>2026-05-03T10:31:11.949Z</time></trkpt><trkpt lat="41.97044983791241" lon="13.247956601990902"><ele>1296.0</ele><time>2026-05-03T10:31:13.949Z</time></trkpt><trkpt lat="41.97043137926914" lon="13.248077489663142"><ele>1296.0</ele><time>2026-05-03T10:31:15.949Z</time></trkpt><trkpt lat="41.97040973195237" lon="13.24819224362804"><ele>1296.0</ele><time>2026-05-03T10:31:17.949Z</time></trkpt><trkpt lat="41.97037426937848" lon="13.248310495186349"><ele>1296.0</ele><time>2026-05-03T10:31:19.949Z</time></trkpt><trkpt lat="41.97032060482597" lon="13.24841174520486"><ele>1296.4</ele><time>2026-05-03T10:31:21.949Z</time></trkpt><trkpt lat="41.970250690606406" lon="13.248494333384762"><ele>1296.8</ele><time>2026-05-03T10:31:23.949Z</time></trkpt><trkpt lat="41.97018116702571" lon="13.248573848797704"><ele>1297.2</ele><time>2026-05-03T10:31:25.949Z</time></trkpt><trkpt lat="41.97013566681328" lon="13.248649271005634"><ele>1297.6000000000001</ele><time>2026-05-03T10:31:27.949Z</time></trkpt><trkpt lat="41.97007913219109" lon="13.248753990795569"><ele>1298.0</ele><time>2026-05-03T10:31:29.949Z</time></trkpt><trkpt lat="41.97001516070328" lon="13.248870001971575"><ele>1298.4</ele><time>2026-05-03T10:31:31.949Z</time></trkpt><trkpt lat="41.969954251161816" lon="13.24898932965613"><ele>1298.8000000000002</ele><time>2026-05-03T10:31:33.949Z</time></trkpt><trkpt lat="41.96991336732484" lon="13.249127734377714"><ele>1299.2</ele><time>2026-05-03T10:31:35.949Z</time></trkpt><trkpt lat="41.96989219982204" lon="13.249271554772797"><ele>1299.6</ele><time>2026-05-03T10:31:37.949Z</time></trkpt><trkpt lat="41.9698826338414" lon="13.24936430158398"><ele>1300.0</ele><time>2026-05-03T10:31:38.949Z</time></trkpt><trkpt lat="41.96988802012045" lon="13.249527166728422"><ele>1300.0</ele><time>2026-05-03T10:31:40.949Z</time></trkpt><trkpt lat="41.96990604682668" lon="13.249674885222738"><ele>1300.0</ele><time>2026-05-03T10:31:42.949Z</time></trkpt><trkpt lat="41.969905342403024" lon="13.249832414639627"><ele>1300.0</ele><time>2026-05-03T10:31:44.949Z</time></trkpt><trkpt lat="41.96988541111972" lon="13.249912738189835"><ele>1300.0</ele><time>2026-05-03T10:31:45.949Z</time></trkpt><trkpt lat="41.969859705793525" lon="13.250064659038586"><ele>1300.0</ele><time>2026-05-03T10:31:47.949Z</time></trkpt><trkpt lat="41.9698466639245" lon="13.250204690121171"><ele>1300.0</ele><time>2026-05-03T10:31:49.949Z</time></trkpt><trkpt lat="41.96983694977828" lon="13.250343066536937"><ele>1300.0</ele><time>2026-05-03T10:31:51.949Z</time></trkpt><trkpt lat="41.96982001592802" lon="13.250493120677458"><ele>1300.0</ele><time>2026-05-03T10:31:53.949Z</time></trkpt><trkpt lat="41.96980513482429" lon="13.250632770305048"><ele>1300.0</ele><time>2026-05-03T10:31:55.948Z</time></trkpt><trkpt lat="41.96977888200405" lon="13.250773000773089"><ele>1300.0</ele><time>2026-05-03T10:31:57.949Z</time></trkpt><trkpt lat="41.96974734055642" lon="13.250906515992126"><ele>1300.8</ele><time>2026-05-03T10:31:59.949Z</time></trkpt><trkpt lat="41.96969833756627" lon="13.251053527245375"><ele>1301.6</ele><time>2026-05-03T10:32:01.948Z</time></trkpt><trkpt lat="41.96966738082748" lon="13.25118348776769"><ele>1302.4</ele><time>2026-05-03T10:32:03.949Z</time></trkpt><trkpt lat="41.969625145288205" lon="13.251314082760802"><ele>1303.2</ele><time>2026-05-03T10:32:05.949Z</time></trkpt><trkpt lat="41.96957602530244" lon="13.251435758187467"><ele>1304.0</ele><time>2026-05-03T10:32:07.949Z</time></trkpt><trkpt lat="41.969509311928206" lon="13.251532953422755"><ele>1305.5</ele><time>2026-05-03T10:32:09.949Z</time></trkpt><trkpt lat="41.969429540759975" lon="13.251638775985949"><ele>1307.0</ele><time>2026-05-03T10:32:11.949Z</time></trkpt><trkpt lat="41.96936514674149" lon="13.251762274538496"><ele>1308.5</ele><time>2026-05-03T10:32:13.949Z</time></trkpt><trkpt lat="41.969316115415396" lon="13.25189453863602"><ele>1310.0</ele><time>2026-05-03T10:32:15.949Z</time></trkpt><trkpt lat="41.969214365310755" lon="13.25199332175126"><ele>1309.1666666666667</ele><time>2026-05-03T10:32:17.949Z</time></trkpt><trkpt lat="41.969158443365714" lon="13.25203785865808"><ele>1308.3333333333335</ele><time>2026-05-03T10:32:18.949Z</time></trkpt><trkpt lat="41.96910317469874" lon="13.252091357907917"><ele>1307.5</ele><time>2026-05-03T10:32:19.949Z</time></trkpt><trkpt lat="41.968995137101636" lon="13.252168368125647"><ele>1306.6666666666667</ele><time>2026-05-03T10:32:21.949Z</time></trkpt><trkpt lat="41.968899009516626" lon="13.25225143448224"><ele>1305.8333333333333</ele><time>2026-05-03T10:32:23.949Z</time></trkpt><trkpt lat="41.96885042004206" lon="13.252306026344684"><ele>1305.0</ele><time>2026-05-03T10:32:24.949Z</time></trkpt><trkpt lat="41.96875478900217" lon="13.252388927814035"><ele>1305.0</ele><time>2026-05-03T10:32:26.949Z</time></trkpt><trkpt lat="41.968654726866774" lon="13.252469536871747"><ele>1305.0</ele><time>2026-05-03T10:32:28.949Z</time></trkpt><trkpt lat="41.96860202064214" lon="13.252527189427576"><ele>1305.0</ele><time>2026-05-03T10:32:29.949Z</time></trkpt><trkpt lat="41.96855422060831" lon="13.25258884667379"><ele>1305.0</ele><time>2026-05-03T10:32:30.949Z</time></trkpt><trkpt lat="41.96848904926029" lon="13.252725788682946"><ele>1305.0</ele><time>2026-05-03T10:32:32.949Z</time></trkpt><trkpt lat="41.96844776551378" lon="13.2528612652293"><ele>1305.0</ele><time>2026-05-03T10:32:34.949Z</time></trkpt><trkpt lat="41.96838394511847" lon="13.253008662285522"><ele>1305.0</ele><time>2026-05-03T10:32:36.949Z</time></trkpt><trkpt lat="41.968345324984014" lon="13.253084486073448"><ele>1305.0</ele><time>2026-05-03T10:32:37.949Z</time></trkpt><trkpt lat="41.968308853441755" lon="13.253164221202155"><ele>1305.0</ele><time>2026-05-03T10:32:38.949Z</time></trkpt><trkpt lat="41.968250869664104" lon="13.25329436507354"><ele>1305.0</ele><time>2026-05-03T10:32:40.949Z</time></trkpt><trkpt lat="41.96818221080154" lon="13.253398774189538"><ele>1304.4</ele><time>2026-05-03T10:32:42.949Z</time></trkpt><trkpt lat="41.96808732056168" lon="13.253495833907035"><ele>1303.8</ele><time>2026-05-03T10:32:44.949Z</time></trkpt><trkpt lat="41.96803145311138" lon="13.25360804548393"><ele>1303.1999999999998</ele><time>2026-05-03T10:32:46.949Z</time></trkpt><trkpt lat="41.967995119537505" lon="13.25373414593819"><ele>1302.6</ele><time>2026-05-03T10:32:48.949Z</time></trkpt><trkpt lat="41.96798131612409" lon="13.253858786530984"><ele>1302.0</ele><time>2026-05-03T10:32:50.949Z</time></trkpt><trkpt lat="41.96796165891067" lon="13.25398980608276"><ele>1303.6</ele><time>2026-05-03T10:32:52.949Z</time></trkpt><trkpt lat="41.967915706037736" lon="13.2541237173445"><ele>1305.1999999999998</ele><time>2026-05-03T10:32:54.949Z</time></trkpt><trkpt lat="41.96786897448266" lon="13.254250654355392"><ele>1306.8</ele><time>2026-05-03T10:32:56.949Z</time></trkpt><trkpt lat="41.967817105014525" lon="13.254389791450546"><ele>1308.4</ele><time>2026-05-03T10:32:58.949Z</time></trkpt><trkpt lat="41.967787403259386" lon="13.254490017990822"><ele>1310.0</ele><time>2026-05-03T10:33:00.949Z</time></trkpt><trkpt lat="41.96775251106751" lon="13.254581021095987"><ele>1310.0</ele><time>2026-05-03T10:33:47.949Z</time></trkpt><trkpt lat="41.96774130268481" lon="13.254699389419423"><ele>1310.0</ele><time>2026-05-03T10:33:50.949Z</time></trkpt><trkpt lat="41.96773977113688" lon="13.254806885409867"><ele>1310.0</ele><time>2026-05-03T10:33:53.949Z</time></trkpt><trkpt lat="41.96781851969293" lon="13.25487704026692"><ele>1310.0</ele><time>2026-05-03T10:33:57.949Z</time></trkpt><trkpt lat="41.967892183497455" lon="13.254944711138792"><ele>1310.0</ele><time>2026-05-03T10:33:59.949Z</time></trkpt><trkpt lat="41.96795502058061" lon="13.2550296006816"><ele>1310.0</ele><time>2026-05-03T10:34:01.947Z</time></trkpt><trkpt lat="41.96803276141758" lon="13.25512670048521"><ele>1310.0</ele><time>2026-05-03T10:34:03.947Z</time></trkpt><trkpt lat="41.96811134463362" lon="13.255222948927335"><ele>1310.0</ele><time>2026-05-03T10:34:05.947Z</time></trkpt><trkpt lat="41.96814530256984" lon="13.255348222292985"><ele>1310.0</ele><time>2026-05-03T10:34:07.948Z</time></trkpt><trkpt lat="41.968142995628654" lon="13.255509345216755"><ele>1310.0</ele><time>2026-05-03T10:34:09.948Z</time></trkpt><trkpt lat="41.9681432326232" lon="13.255596879120404"><ele>1310.0</ele><time>2026-05-03T10:34:10.948Z</time></trkpt><trkpt lat="41.96815197661179" lon="13.255695043437191"><ele>1310.0</ele><time>2026-05-03T10:34:11.948Z</time></trkpt><trkpt lat="41.96817015076295" lon="13.255792567256995"><ele>1310.0</ele><time>2026-05-03T10:34:12.947Z</time></trkpt><trkpt lat="41.968191600901044" lon="13.255883932991098"><ele>1310.0</ele><time>2026-05-03T10:34:13.947Z</time></trkpt><trkpt lat="41.96821157447123" lon="13.25597186530188"><ele>1310.0</ele><time>2026-05-03T10:34:14.947Z</time></trkpt><trkpt lat="41.96823059066762" lon="13.256063125891854"><ele>1310.0</ele><time>2026-05-03T10:34:15.947Z</time></trkpt><trkpt lat="41.96824378460026" lon="13.256158644680012"><ele>1310.0</ele><time>2026-05-03T10:34:16.947Z</time></trkpt><trkpt lat="41.96824638033353" lon="13.256259046516888"><ele>1310.0</ele><time>2026-05-03T10:34:17.947Z</time></trkpt><trkpt lat="41.96824743083009" lon="13.256355427946284"><ele>1310.0</ele><time>2026-05-03T10:34:18.947Z</time></trkpt><trkpt lat="41.9682601713378" lon="13.256447252520855"><ele>1310.0</ele><time>2026-05-03T10:34:19.947Z</time></trkpt><trkpt lat="41.96829070382134" lon="13.25652949372581"><ele>1310.0</ele><time>2026-05-03T10:34:20.947Z</time></trkpt><trkpt lat="41.9683255587335" lon="13.25660787921287"><ele>1310.0</ele><time>2026-05-03T10:34:21.947Z</time></trkpt><trkpt lat="41.968347524963924" lon="13.256690013913236"><ele>1310.0</ele><time>2026-05-03T10:34:22.947Z</time></trkpt><trkpt lat="41.96834911534342" lon="13.256782151409642"><ele>1310.0</ele><time>2026-05-03T10:34:23.947Z</time></trkpt><trkpt lat="41.9683400915435" lon="13.256873884568439"><ele>1310.0</ele><time>2026-05-03T10:34:24.947Z</time></trkpt><trkpt lat="41.96833276427359" lon="13.256960697300197"><ele>1310.1666666666667</ele><time>2026-05-03T10:34:25.947Z</time></trkpt><trkpt lat="41.968327031397294" lon="13.257046801466903"><ele>1310.3333333333335</ele><time>2026-05-03T10:34:26.947Z</time></trkpt><trkpt lat="41.968320289394214" lon="13.257135284676997"><ele>1310.5</ele><time>2026-05-03T10:34:27.947Z</time></trkpt><trkpt lat="41.968310709809074" lon="13.257302700636359"><ele>1310.6666666666667</ele><time>2026-05-03T10:34:29.947Z</time></trkpt><trkpt lat="41.96829251886276" lon="13.257384965772859"><ele>1310.8333333333333</ele><time>2026-05-03T10:34:30.947Z</time></trkpt><trkpt lat="41.96826226738729" lon="13.257536472731529"><ele>1311.0</ele><time>2026-05-03T10:34:32.947Z</time></trkpt><trkpt lat="41.96823603103097" lon="13.25770340678361"><ele>1311.5</ele><time>2026-05-03T10:34:34.947Z</time></trkpt><trkpt lat="41.96821427585572" lon="13.257794980538172"><ele>1312.0</ele><time>2026-05-03T10:34:35.947Z</time></trkpt><trkpt lat="41.96818667387119" lon="13.257898244447148"><ele>1312.5</ele><time>2026-05-03T10:34:36.947Z</time></trkpt><trkpt lat="41.96816030246667" lon="13.258002368814664"><ele>1313.0</ele><time>2026-05-03T10:34:37.947Z</time></trkpt><trkpt lat="41.96814110821568" lon="13.258110739440054"><ele>1313.5</ele><time>2026-05-03T10:34:38.947Z</time></trkpt><trkpt lat="41.96813820510421" lon="13.25822211898914"><ele>1314.0</ele><time>2026-05-03T10:34:39.947Z</time></trkpt><trkpt lat="41.96814435860852" lon="13.258331138971585"><ele>1315.0</ele><time>2026-05-03T10:34:40.947Z</time></trkpt><trkpt lat="41.9681575485963" lon="13.258429534531686"><ele>1316.0</ele><time>2026-05-03T10:34:41.947Z</time></trkpt><trkpt lat="41.96817457478769" lon="13.25854240591116"><ele>1317.0</ele><time>2026-05-03T10:34:42.947Z</time></trkpt><trkpt lat="41.96819679176874" lon="13.25864090143603"><ele>1318.0</ele><time>2026-05-03T10:34:43.947Z</time></trkpt><trkpt lat="41.9682220006233" lon="13.258746643596165"><ele>1319.0</ele><time>2026-05-03T10:34:44.947Z</time></trkpt><trkpt lat="41.96825600099052" lon="13.258840696621377"><ele>1320.0</ele><time>2026-05-03T10:34:45.947Z</time></trkpt><trkpt lat="41.96828689764594" lon="13.258936268235857"><ele>1320.1666666666667</ele><time>2026-05-03T10:34:46.947Z</time></trkpt><trkpt lat="41.96832055212818" lon="13.259031406612241"><ele>1320.3333333333333</ele><time>2026-05-03T10:34:47.947Z</time></trkpt><trkpt lat="41.96836030213015" lon="13.259120464106715"><ele>1320.5</ele><time>2026-05-03T10:34:48.947Z</time></trkpt><trkpt lat="41.96840801939577" lon="13.259202087763555"><ele>1320.6666666666665</ele><time>2026-05-03T10:34:49.947Z</time></trkpt><trkpt lat="41.968459027544185" lon="13.259280089949433"><ele>1320.8333333333333</ele><time>2026-05-03T10:34:50.947Z</time></trkpt><trkpt lat="41.968508244138356" lon="13.259354802012467"><ele>1321.0</ele><time>2026-05-03T10:34:51.947Z</time></trkpt><trkpt lat="41.968547949560936" lon="13.259437391251419"><ele>1323.142857142857</ele><time>2026-05-03T10:34:52.947Z</time></trkpt><trkpt lat="41.968601411297854" lon="13.259517228399575"><ele>1325.2857142857144</ele><time>2026-05-03T10:34:53.947Z</time></trkpt><trkpt lat="41.96864978409019" lon="13.25960254456809"><ele>1327.4285714285716</ele><time>2026-05-03T10:34:54.947Z</time></trkpt><trkpt lat="41.96868556010886" lon="13.259685350070885"><ele>1329.5714285714284</ele><time>2026-05-03T10:34:55.947Z</time></trkpt><trkpt lat="41.96871270154747" lon="13.25977539230827"><ele>1331.7142857142858</ele><time>2026-05-03T10:34:56.947Z</time></trkpt><trkpt lat="41.96872754761247" lon="13.259864350463928"><ele>1333.857142857143</ele><time>2026-05-03T10:34:57.947Z</time></trkpt><trkpt lat="41.968743060080875" lon="13.259959455215123"><ele>1336.0</ele><time>2026-05-03T10:34:58.947Z</time></trkpt><trkpt lat="41.968752272634546" lon="13.260052055106168"><ele>1336.0</ele><time>2026-05-03T10:34:59.947Z</time></trkpt><trkpt lat="41.968749266960664" lon="13.260138010000851"><ele>1336.0</ele><time>2026-05-03T10:35:00.947Z</time></trkpt><trkpt lat="41.96871580682866" lon="13.260292275773896"><ele>1336.0</ele><time>2026-05-03T10:35:02.947Z</time></trkpt><trkpt lat="41.96868121774624" lon="13.26036368771975"><ele>1336.0</ele><time>2026-05-03T10:35:03.947Z</time></trkpt><trkpt lat="41.96864132250779" lon="13.26043324906914"><ele>1336.0</ele><time>2026-05-03T10:35:04.947Z</time></trkpt><trkpt lat="41.968584702944966" lon="13.260498383387011"><ele>1336.0</ele><time>2026-05-03T10:35:05.947Z</time></trkpt><trkpt lat="41.968530848589594" lon="13.260558008149848"><ele>1336.0</ele><time>2026-05-03T10:35:06.947Z</time></trkpt><trkpt lat="41.96847151679756" lon="13.260613474995518"><ele>1336.0</ele><time>2026-05-03T10:35:07.947Z</time></trkpt><trkpt lat="41.96840916667915" lon="13.26066712328911"><ele>1336.0</ele><time>2026-05-03T10:35:08.947Z</time></trkpt><trkpt lat="41.968356686734516" lon="13.260724740679173"><ele>1336.0</ele><time>2026-05-03T10:35:09.947Z</time></trkpt><trkpt lat="41.96830470721657" lon="13.260788779070227"><ele>1336.0</ele><time>2026-05-03T10:35:10.947Z</time></trkpt><trkpt lat="41.968251668205134" lon="13.260862387559467"><ele>1336.0</ele><time>2026-05-03T10:35:11.947Z</time></trkpt><trkpt lat="41.96819945505667" lon="13.260941998324718"><ele>1336.0</ele><time>2026-05-03T10:35:12.947Z</time></trkpt><trkpt lat="41.96814416741846" lon="13.261031424181958"><ele>1335.6</ele><time>2026-05-03T10:35:13.947Z</time></trkpt><trkpt lat="41.96809476805528" lon="13.26113596997807"><ele>1335.1999999999998</ele><time>2026-05-03T10:35:14.947Z</time></trkpt><trkpt lat="41.96804430549103" lon="13.261243618454417"><ele>1334.8000000000002</ele><time>2026-05-03T10:35:15.947Z</time></trkpt><trkpt lat="41.96799750372151" lon="13.261343804606492"><ele>1334.4</ele><time>2026-05-03T10:35:16.947Z</time></trkpt><trkpt lat="41.967943519482525" lon="13.26145432377589"><ele>1334.0</ele><time>2026-05-03T10:35:17.947Z</time></trkpt><trkpt lat="41.967896609642914" lon="13.261565251898633"><ele>1334.0</ele><time>2026-05-03T10:35:18.947Z</time></trkpt><trkpt lat="41.96786040675823" lon="13.261675015910912"><ele>1334.0</ele><time>2026-05-03T10:35:19.947Z</time></trkpt><trkpt lat="41.96784130125553" lon="13.261776965988286"><ele>1334.0</ele><time>2026-05-03T10:35:20.947Z</time></trkpt><trkpt lat="41.96783287166286" lon="13.261863117547891"><ele>1334.0</ele><time>2026-05-03T10:35:21.947Z</time></trkpt><trkpt lat="41.967851005478344" lon="13.261945152612855"><ele>1334.0</ele><time>2026-05-03T10:35:22.947Z</time></trkpt><trkpt lat="41.967881471724226" lon="13.262035389251999"><ele>1334.0</ele><time>2026-05-03T10:35:23.947Z</time></trkpt><trkpt lat="41.96791138178553" lon="13.262166781499495"><ele>1334.6666666666667</ele><time>2026-05-03T10:35:24.947Z</time></trkpt><trkpt lat="41.967928648385524" lon="13.262302702737355"><ele>1335.3333333333335</ele><time>2026-05-03T10:35:25.947Z</time></trkpt><trkpt lat="41.96793881875911" lon="13.262425763940916"><ele>1336.0</ele><time>2026-05-03T10:35:26.947Z</time></trkpt><trkpt lat="41.96794755425841" lon="13.26253667640287"><ele>1336.6666666666667</ele><time>2026-05-03T10:35:27.947Z</time></trkpt><trkpt lat="41.967936018417895" lon="13.262655803781495"><ele>1337.3333333333333</ele><time>2026-05-03T10:35:28.947Z</time></trkpt><trkpt lat="41.96791261677969" lon="13.26275764564058"><ele>1338.0</ele><time>2026-05-03T10:35:29.947Z</time></trkpt><trkpt lat="41.96787676265877" lon="13.262841189870231"><ele>1338.0</ele><time>2026-05-03T10:35:30.947Z</time></trkpt><trkpt lat="41.96782934430033" lon="13.262928131227541"><ele>1338.0</ele><time>2026-05-03T10:35:31.947Z</time></trkpt><trkpt lat="41.9677686642415" lon="13.263001940615093"><ele>1338.0</ele><time>2026-05-03T10:35:32.947Z</time></trkpt><trkpt lat="41.96770477113692" lon="13.263079375176083"><ele>1338.0</ele><time>2026-05-03T10:35:33.947Z</time></trkpt><trkpt lat="41.96764278647098" lon="13.263157847918686"><ele>1338.0</ele><time>2026-05-03T10:35:34.947Z</time></trkpt><trkpt lat="41.96758163048713" lon="13.263241093701147"><ele>1338.0</ele><time>2026-05-03T10:35:35.947Z</time></trkpt><trkpt lat="41.96752260686143" lon="13.26333020313796"><ele>1337.0</ele><time>2026-05-03T10:35:36.947Z</time></trkpt><trkpt lat="41.9674641785091" lon="13.263412226367038"><ele>1336.0</ele><time>2026-05-03T10:35:37.947Z</time></trkpt><trkpt lat="41.967361908408435" lon="13.263499787567497"><ele>1335.0</ele><time>2026-05-03T10:35:38.947Z</time></trkpt><trkpt lat="41.96727640417529" lon="13.263586413233917"><ele>1334.0</ele><time>2026-05-03T10:35:39.947Z</time></trkpt><trkpt lat="41.96719276854898" lon="13.263673949675034"><ele>1333.0</ele><time>2026-05-03T10:35:40.947Z</time></trkpt><trkpt lat="41.967130936528676" lon="13.26378834086858"><ele>1333.0</ele><time>2026-05-03T10:35:41.947Z</time></trkpt><trkpt lat="41.96704537622802" lon="13.263878164346853"><ele>1333.0</ele><time>2026-05-03T10:35:42.947Z</time></trkpt><trkpt lat="41.96697293069791" lon="13.263991767497764"><ele>1333.0</ele><time>2026-05-03T10:35:43.947Z</time></trkpt><trkpt lat="41.96692241631279" lon="13.264113976678667"><ele>1333.0</ele><time>2026-05-03T10:35:44.947Z</time></trkpt><trkpt lat="41.96687500489628" lon="13.264235421324214"><ele>1333.0</ele><time>2026-05-03T10:35:45.947Z</time></trkpt><trkpt lat="41.96683071544426" lon="13.264334451696884"><ele>1333.4</ele><time>2026-05-03T10:35:46.947Z</time></trkpt><trkpt lat="41.96679132727559" lon="13.26443355864059"><ele>1333.8000000000002</ele><time>2026-05-03T10:35:47.947Z</time></trkpt><trkpt lat="41.966744223750204" lon="13.264582419071571"><ele>1334.2</ele><time>2026-05-03T10:35:48.947Z</time></trkpt><trkpt lat="41.966698574603974" lon="13.264728568660761"><ele>1334.6</ele><time>2026-05-03T10:35:49.947Z</time></trkpt><trkpt lat="41.96664585021739" lon="13.264853548493278"><ele>1335.0</ele><time>2026-05-03T10:35:50.947Z</time></trkpt><trkpt lat="41.96659314400228" lon="13.264974184957532"><ele>1335.0</ele><time>2026-05-03T10:35:51.947Z</time></trkpt><trkpt lat="41.96654935626066" lon="13.26511016914312"><ele>1335.0</ele><time>2026-05-03T10:35:52.947Z</time></trkpt><trkpt lat="41.9665124376014" lon="13.265245437493235"><ele>1335.0</ele><time>2026-05-03T10:35:53.947Z</time></trkpt><trkpt lat="41.96648826164464" lon="13.265382549502004"><ele>1335.0</ele><time>2026-05-03T10:35:54.947Z</time></trkpt><trkpt lat="41.96646306419456" lon="13.265517948874939"><ele>1335.0</ele><time>2026-05-03T10:35:55.947Z</time></trkpt><trkpt lat="41.96643299162433" lon="13.265651674551451"><ele>1335.1666666666667</ele><time>2026-05-03T10:35:56.947Z</time></trkpt><trkpt lat="41.966399470836585" lon="13.26576822425332"><ele>1335.3333333333333</ele><time>2026-05-03T10:35:57.947Z</time></trkpt><trkpt lat="41.96638259258467" lon="13.26586018029807"><ele>1335.5</ele><time>2026-05-03T10:35:58.947Z</time></trkpt><trkpt lat="41.96636309074875" lon="13.265963127211082"><ele>1335.6666666666665</ele><time>2026-05-03T10:35:59.947Z</time></trkpt><trkpt lat="41.966358674237036" lon="13.266060480538407"><ele>1335.8333333333333</ele><time>2026-05-03T10:36:00.947Z</time></trkpt><trkpt lat="41.96637377132728" lon="13.266160640796198"><ele>1336.0</ele><time>2026-05-03T10:36:01.947Z</time></trkpt><trkpt lat="41.96640528047504" lon="13.266259624150866"><ele>1336.0</ele><time>2026-05-03T10:36:02.947Z</time></trkpt><trkpt lat="41.96644182082248" lon="13.266359563965853"><ele>1336.0</ele><time>2026-05-03T10:36:03.947Z</time></trkpt><trkpt lat="41.966476356668366" lon="13.266461183163479"><ele>1336.0</ele><time>2026-05-03T10:36:04.947Z</time></trkpt><trkpt lat="41.96650568894748" lon="13.266570572675585"><ele>1336.0</ele><time>2026-05-03T10:36:05.947Z</time></trkpt><trkpt lat="41.96652192166182" lon="13.266688520800974"><ele>1336.0</ele><time>2026-05-03T10:36:06.946Z</time></trkpt><trkpt lat="41.966547541288335" lon="13.266801658774398"><ele>1336.0</ele><time>2026-05-03T10:36:07.946Z</time></trkpt><trkpt lat="41.966572578827" lon="13.266920922754379"><ele>1336.8333333333333</ele><time>2026-05-03T10:36:08.946Z</time></trkpt><trkpt lat="41.966613640926546" lon="13.267029159571756"><ele>1337.6666666666665</ele><time>2026-05-03T10:36:09.947Z</time></trkpt><trkpt lat="41.96666563435221" lon="13.267120976721658"><ele>1338.5</ele><time>2026-05-03T10:36:10.947Z</time></trkpt><trkpt lat="41.96670416350135" lon="13.26721306164015"><ele>1339.3333333333333</ele><time>2026-05-03T10:36:11.947Z</time></trkpt><trkpt lat="41.96674019256195" lon="13.267305959314319"><ele>1340.1666666666667</ele><time>2026-05-03T10:36:12.947Z</time></trkpt><trkpt lat="41.96678933850511" lon="13.26739193564123"><ele>1341.0</ele><time>2026-05-03T10:36:13.947Z</time></trkpt><trkpt lat="41.96684875177894" lon="13.267465353821935"><ele>1343.1999999999998</ele><time>2026-05-03T10:36:14.947Z</time></trkpt><trkpt lat="41.966910849544476" lon="13.267554924691549"><ele>1345.3999999999999</ele><time>2026-05-03T10:36:15.947Z</time></trkpt><trkpt lat="41.96696446431593" lon="13.26763767965927"><ele>1347.6</ele><time>2026-05-03T10:36:16.946Z</time></trkpt><trkpt lat="41.96707177539214" lon="13.267767069762009"><ele>1349.8</ele><time>2026-05-03T10:36:18.947Z</time></trkpt><trkpt lat="41.967137721485685" lon="13.267823740902598"><ele>1352.0</ele><time>2026-05-03T10:36:19.947Z</time></trkpt><trkpt lat="41.967210131746974" lon="13.26788382467855"><ele>1352.0</ele><time>2026-05-03T10:36:20.947Z</time></trkpt><trkpt lat="41.96727964208068" lon="13.267944693269403"><ele>1352.0</ele><time>2026-05-03T10:36:21.947Z</time></trkpt><trkpt lat="41.96734536312662" lon="13.2680126214407"><ele>1352.0</ele><time>2026-05-03T10:36:22.947Z</time></trkpt><trkpt lat="41.96743637910054" lon="13.268119806860193"><ele>1352.0</ele><time>2026-05-03T10:36:23.947Z</time></trkpt><trkpt lat="41.96752471587123" lon="13.268194116736565"><ele>1352.0</ele><time>2026-05-03T10:36:24.947Z</time></trkpt><trkpt lat="41.967601585094144" lon="13.268258149773008"><ele>1353.3333333333335</ele><time>2026-05-03T10:36:25.947Z</time></trkpt><trkpt lat="41.967671684132775" lon="13.268340086790483"><ele>1354.6666666666667</ele><time>2026-05-03T10:36:26.947Z</time></trkpt><trkpt lat="41.96772966502939" lon="13.268433811602089"><ele>1356.0</ele><time>2026-05-03T10:36:27.947Z</time></trkpt><trkpt lat="41.96779601504781" lon="13.268519422071943"><ele>1357.3333333333333</ele><time>2026-05-03T10:36:28.947Z</time></trkpt><trkpt lat="41.96785569994864" lon="13.268600210159956"><ele>1358.6666666666665</ele><time>2026-05-03T10:36:29.947Z</time></trkpt><trkpt lat="41.96789507833123" lon="13.268689251111953"><ele>1360.0</ele><time>2026-05-03T10:36:30.947Z</time></trkpt><trkpt lat="41.96792168926958" lon="13.268772669092316"><ele>1360.0</ele><time>2026-05-03T10:36:31.947Z</time></trkpt><trkpt lat="41.96797557167574" lon="13.268862943466177"><ele>1360.0</ele><time>2026-05-03T10:36:32.947Z</time></trkpt><trkpt lat="41.96803314572044" lon="13.268948842586502"><ele>1360.0</ele><time>2026-05-03T10:36:33.947Z</time></trkpt><trkpt lat="41.968102683576674" lon="13.269028523649919"><ele>1360.0</ele><time>2026-05-03T10:36:34.947Z</time></trkpt><trkpt lat="41.96815590265934" lon="13.269097883414352"><ele>1360.0</ele><time>2026-05-03T10:36:35.947Z</time></trkpt><trkpt lat="41.9682440498032" lon="13.269170704136005"><ele>1360.0</ele><time>2026-05-03T10:36:37.947Z</time></trkpt><trkpt lat="41.968338554432094" lon="13.269152850547838"><ele>1362.0</ele><time>2026-05-03T10:36:39.947Z</time></trkpt><trkpt lat="41.96839482679404" lon="13.269106995364329"><ele>1364.0</ele><time>2026-05-03T10:36:40.947Z</time></trkpt><trkpt lat="41.96844057756419" lon="13.26904340441046"><ele>1366.0</ele><time>2026-05-03T10:36:41.947Z</time></trkpt><trkpt lat="41.968494124884984" lon="13.26895197902107"><ele>1368.0</ele><time>2026-05-03T10:36:42.947Z</time></trkpt><trkpt lat="41.96853630507954" lon="13.268867123606412"><ele>1370.0</ele><time>2026-05-03T10:36:43.947Z</time></trkpt><trkpt lat="41.968589016527744" lon="13.268799836343092"><ele>1372.0</ele><time>2026-05-03T10:36:44.947Z</time></trkpt><trkpt lat="41.96864684319618" lon="13.268729001995183"><ele>1374.0</ele><time>2026-05-03T10:36:45.947Z</time></trkpt><trkpt lat="41.968699303349794" lon="13.268651200429614"><ele>1374.0</ele><time>2026-05-03T10:36:46.947Z</time></trkpt><trkpt lat="41.96875914401153" lon="13.26858278839831"><ele>1374.0</ele><time>2026-05-03T10:36:47.947Z</time></trkpt><trkpt lat="41.96883678271925" lon="13.268507669912463"><ele>1374.0</ele><time>2026-05-03T10:36:48.947Z</time></trkpt><trkpt lat="41.96892007483644" lon="13.268419399536901"><ele>1374.0</ele><time>2026-05-03T10:36:49.947Z</time></trkpt><trkpt lat="41.96899278734278" lon="13.268354542562307"><ele>1374.0</ele><time>2026-05-03T10:36:50.947Z</time></trkpt><trkpt lat="41.96906557921411" lon="13.268281616130558"><ele>1374.0</ele><time>2026-05-03T10:36:51.947Z</time></trkpt><trkpt lat="41.96914761688489" lon="13.268191857558232"><ele>1374.0</ele><time>2026-05-03T10:36:52.947Z</time></trkpt><trkpt lat="41.96923776330332" lon="13.268103591415436"><ele>1374.0</ele><time>2026-05-03T10:36:53.947Z</time></trkpt><trkpt lat="41.96933253968528" lon="13.268009548572376"><ele>1374.0</ele><time>2026-05-03T10:36:54.947Z</time></trkpt><trkpt lat="41.96942078314356" lon="13.267905455176397"><ele>1372.0</ele><time>2026-05-03T10:36:55.947Z</time></trkpt><trkpt lat="41.96951060061278" lon="13.267811496839707"><ele>1370.0</ele><time>2026-05-03T10:36:56.947Z</time></trkpt><trkpt lat="41.96960410978928" lon="13.267708158422248"><ele>1368.0</ele><time>2026-05-03T10:36:57.947Z</time></trkpt><trkpt lat="41.96969573010305" lon="13.267600315283524"><ele>1366.0</ele><time>2026-05-03T10:36:58.947Z</time></trkpt><trkpt lat="41.969787383641595" lon="13.267490807095957"><ele>1366.0</ele><time>2026-05-03T10:36:59.947Z</time></trkpt><trkpt lat="41.969878571593526" lon="13.26738241652023"><ele>1366.0</ele><time>2026-05-03T10:37:00.947Z</time></trkpt><trkpt lat="41.96996598904593" lon="13.267271416901602"><ele>1366.0</ele><time>2026-05-03T10:37:01.947Z</time></trkpt><trkpt lat="41.97004778474468" lon="13.267173899086863"><ele>1366.0</ele><time>2026-05-03T10:37:02.947Z</time></trkpt><trkpt lat="41.97012009145098" lon="13.26708437815235"><ele>1366.0</ele><time>2026-05-03T10:37:03.947Z</time></trkpt><trkpt lat="41.97018396823251" lon="13.267016765419768"><ele>1365.8333333333333</ele><time>2026-05-03T10:37:04.947Z</time></trkpt><trkpt lat="41.97024814943416" lon="13.266973541320565"><ele>1365.6666666666665</ele><time>2026-05-03T10:37:05.947Z</time></trkpt><trkpt lat="41.9703131423292" lon="13.26695535837183"><ele>1365.5</ele><time>2026-05-03T10:37:06.947Z</time></trkpt><trkpt lat="41.97038209429783" lon="13.26695437670524"><ele>1365.3333333333333</ele><time>2026-05-03T10:37:07.947Z</time></trkpt><trkpt lat="41.97045386191001" lon="13.26697645341083"><ele>1365.1666666666667</ele><time>2026-05-03T10:37:08.947Z</time></trkpt><trkpt lat="41.97053391758451" lon="13.267011884530566"><ele>1365.0</ele><time>2026-05-03T10:37:09.947Z</time></trkpt><trkpt lat="41.97061437580624" lon="13.267056905583186"><ele>1365.0</ele><time>2026-05-03T10:37:10.947Z</time></trkpt><trkpt lat="41.97069635862575" lon="13.267102556473358"><ele>1365.0</ele><time>2026-05-03T10:37:11.947Z</time></trkpt><trkpt lat="41.970781058486764" lon="13.267157583194061"><ele>1365.0</ele><time>2026-05-03T10:37:12.947Z</time></trkpt><trkpt lat="41.97085589292614" lon="13.267227756072725"><ele>1365.0</ele><time>2026-05-03T10:37:13.947Z</time></trkpt><trkpt lat="41.97092288480503" lon="13.2673030191214"><ele>1365.0</ele><time>2026-05-03T10:37:14.947Z</time></trkpt><trkpt lat="41.97099532665822" lon="13.267377803536696"><ele>1367.8333333333333</ele><time>2026-05-03T10:37:15.947Z</time></trkpt><trkpt lat="41.97106627525844" lon="13.267450160265872"><ele>1370.6666666666667</ele><time>2026-05-03T10:37:16.947Z</time></trkpt><trkpt lat="41.9711330901077" lon="13.267518956843249"><ele>1373.5</ele><time>2026-05-03T10:37:17.947Z</time></trkpt><trkpt lat="41.97119764005895" lon="13.26758935953302"><ele>1376.3333333333335</ele><time>2026-05-03T10:37:18.947Z</time></trkpt><trkpt lat="41.971260836483864" lon="13.267661919130083"><ele>1379.1666666666667</ele><time>2026-05-03T10:37:19.947Z</time></trkpt><trkpt lat="41.97132796410128" lon="13.267732980690045"><ele>1382.0</ele><time>2026-05-03T10:37:20.947Z</time></trkpt><trkpt lat="41.971393317515044" lon="13.2678037869838"><ele>1382.0</ele><time>2026-05-03T10:37:21.947Z</time></trkpt><trkpt lat="41.97145966120533" lon="13.267863074634812"><ele>1382.0</ele><time>2026-05-03T10:37:22.947Z</time></trkpt><trkpt lat="41.97153126551595" lon="13.26790894176257"><ele>1382.0</ele><time>2026-05-03T10:37:23.947Z</time></trkpt><trkpt lat="41.97160524053767" lon="13.267917203210692"><ele>1382.0</ele><time>2026-05-03T10:37:24.947Z</time></trkpt><trkpt lat="41.97168555782304" lon="13.267907322717022"><ele>1382.0</ele><time>2026-05-03T10:37:25.947Z</time></trkpt><trkpt lat="41.97176823225546" lon="13.267899887194957"><ele>1382.0</ele><time>2026-05-03T10:37:26.947Z</time></trkpt><trkpt lat="41.971844064410945" lon="13.2678670594651"><ele>1384.9999999999998</ele><time>2026-05-03T10:37:27.947Z</time></trkpt><trkpt lat="41.97191252988157" lon="13.267818273736726"><ele>1388.0</ele><time>2026-05-03T10:37:28.947Z</time></trkpt><trkpt lat="41.971968544132174" lon="13.2677674470875"><ele>1391.0</ele><time>2026-05-03T10:37:29.947Z</time></trkpt><trkpt lat="41.972027493800205" lon="13.267737552178088"><ele>1394.0</ele><time>2026-05-03T10:37:30.947Z</time></trkpt><trkpt lat="41.97209547764517" lon="13.26768857723777"><ele>1397.0</ele><time>2026-05-03T10:37:31.947Z</time></trkpt><trkpt lat="41.972161249305124" lon="13.267645780188289"><ele>1399.9999999999998</ele><time>2026-05-03T10:37:32.947Z</time></trkpt><trkpt lat="41.97222948824222" lon="13.267599535024402"><ele>1403.0</ele><time>2026-05-03T10:37:33.947Z</time></trkpt><trkpt lat="41.97233573929673" lon="13.267521361678849"><ele>1402.9999999999998</ele><time>2026-05-03T10:37:35.947Z</time></trkpt><trkpt lat="41.97240441867833" lon="13.26748166102418"><ele>1403.0</ele><time>2026-05-03T10:37:37.947Z</time></trkpt><trkpt lat="41.97246200013843" lon="13.267536525263766"><ele>1403.0</ele><time>2026-05-03T10:37:41.947Z</time></trkpt><trkpt lat="41.972427987036994" lon="13.267644585548457"><ele>1403.0</ele><time>2026-05-03T10:37:43.947Z</time></trkpt><trkpt lat="41.972387146124866" lon="13.267717978672394"><ele>1403.0</ele><time>2026-05-03T10:37:44.947Z</time></trkpt><trkpt lat="41.97232542295373" lon="13.26778010281291"><ele>1402.9999999999998</ele><time>2026-05-03T10:37:45.947Z</time></trkpt><trkpt lat="41.97228037648361" lon="13.267851995779504"><ele>1403.0</ele><time>2026-05-03T10:37:46.947Z</time></trkpt><trkpt lat="41.97221747827789" lon="13.267905805886882"><ele>1403.0</ele><time>2026-05-03T10:37:47.947Z</time></trkpt><trkpt lat="41.972163523368344" lon="13.267978062128064"><ele>1403.0</ele><time>2026-05-03T10:37:48.947Z</time></trkpt><trkpt lat="41.97207908482474" lon="13.268071674744412"><ele>1403.0</ele><time>2026-05-03T10:37:50.947Z</time></trkpt><trkpt lat="41.972040318166194" lon="13.268182151035079"><ele>1403.0</ele><time>2026-05-03T10:37:52.947Z</time></trkpt><trkpt lat="41.97198715578418" lon="13.268325914234927"><ele>1403.0</ele><time>2026-05-03T10:37:54.947Z</time></trkpt><trkpt lat="41.97194119424832" lon="13.268435883487424"><ele>1406.6666666666667</ele><time>2026-05-03T10:37:56.947Z</time></trkpt><trkpt lat="41.97192821733316" lon="13.268521924323592"><ele>1410.3333333333335</ele><time>2026-05-03T10:37:58.947Z</time></trkpt><trkpt lat="41.971890620555406" lon="13.268604606765763"><ele>1414.0</ele><time>2026-05-03T10:38:03.947Z</time></trkpt><trkpt lat="41.97184974964764" lon="13.268700907328824"><ele>1417.6666666666667</ele><time>2026-05-03T10:38:11.947Z</time></trkpt><trkpt lat="41.97177990469314" lon="13.268798012361218"><ele>1421.3333333333333</ele><time>2026-05-03T10:40:06.945Z</time></trkpt><trkpt lat="41.97178526268325" lon="13.268891424778447"><ele>1425.0</ele><time>2026-05-03T10:40:10.945Z</time></trkpt><trkpt lat="41.97178468553599" lon="13.268998031662266"><ele>1423.1666666666667</ele><time>2026-05-03T10:40:12.945Z</time></trkpt><trkpt lat="41.97176112095339" lon="13.269114631587506"><ele>1421.3333333333333</ele><time>2026-05-03T10:40:14.945Z</time></trkpt><trkpt lat="41.97173169395565" lon="13.269204210038058"><ele>1419.5</ele><time>2026-05-03T10:40:15.945Z</time></trkpt><trkpt lat="41.971696366654385" lon="13.269301750338126"><ele>1417.6666666666665</ele><time>2026-05-03T10:40:16.945Z</time></trkpt><trkpt lat="41.971661657568454" lon="13.269379870806594"><ele>1415.8333333333333</ele><time>2026-05-03T10:40:17.945Z</time></trkpt><trkpt lat="41.97158503619668" lon="13.269511459657787"><ele>1414.0</ele><time>2026-05-03T10:40:19.944Z</time></trkpt><trkpt lat="41.97153412660834" lon="13.269583348877333"><ele>1414.0</ele><time>2026-05-03T10:40:20.944Z</time></trkpt><trkpt lat="41.97148388232636" lon="13.269671760576953"><ele>1414.0</ele><time>2026-05-03T10:40:21.945Z</time></trkpt><trkpt lat="41.97144291414736" lon="13.269769241842855"><ele>1414.0</ele><time>2026-05-03T10:40:22.944Z</time></trkpt><trkpt lat="41.97139922604213" lon="13.269860042983339"><ele>1414.0</ele><time>2026-05-03T10:40:23.944Z</time></trkpt><trkpt lat="41.97135513187828" lon="13.269931342878412"><ele>1414.0</ele><time>2026-05-03T10:40:24.945Z</time></trkpt><trkpt lat="41.971275546040346" lon="13.27009543438151"><ele>1416.5</ele><time>2026-05-03T10:40:26.945Z</time></trkpt><trkpt lat="41.971231212933986" lon="13.27018057641641"><ele>1419.0</ele><time>2026-05-03T10:40:27.945Z</time></trkpt><trkpt lat="41.97119351785067" lon="13.270270420540546"><ele>1421.5</ele><time>2026-05-03T10:40:28.944Z</time></trkpt><trkpt lat="41.97115702915585" lon="13.270372980921298"><ele>1424.0</ele><time>2026-05-03T10:40:29.944Z</time></trkpt><trkpt lat="41.9711125694244" lon="13.270471376653008"><ele>1426.5</ele><time>2026-05-03T10:40:30.945Z</time></trkpt><trkpt lat="41.97106026371454" lon="13.270550129954458"><ele>1429.0</ele><time>2026-05-03T10:40:31.944Z</time></trkpt><trkpt lat="41.971022343659996" lon="13.270634280882472"><ele>1432.6</ele><time>2026-05-03T10:40:32.944Z</time></trkpt><trkpt lat="41.97096069743938" lon="13.27076400669209"><ele>1436.2</ele><time>2026-05-03T10:40:34.944Z</time></trkpt><trkpt lat="41.970939293855054" lon="13.270904088698133"><ele>1439.8</ele><time>2026-05-03T10:40:36.944Z</time></trkpt><trkpt lat="41.970935703213065" lon="13.271039159616858"><ele>1443.3999999999999</ele><time>2026-05-03T10:40:38.944Z</time></trkpt><trkpt lat="41.97095863351127" lon="13.271179642549075"><ele>1447.0</ele><time>2026-05-03T10:40:40.944Z</time></trkpt><trkpt lat="41.97098206566234" lon="13.271278786297932"><ele>1447.0</ele><time>2026-05-03T10:40:41.944Z</time></trkpt><trkpt lat="41.97101094741112" lon="13.271386941270958"><ele>1447.0</ele><time>2026-05-03T10:40:42.944Z</time></trkpt><trkpt lat="41.971047483388" lon="13.271500330979173"><ele>1447.0</ele><time>2026-05-03T10:40:43.944Z</time></trkpt><trkpt lat="41.97107322916291" lon="13.271585973967557"><ele>1447.0</ele><time>2026-05-03T10:40:44.944Z</time></trkpt><trkpt lat="41.97109683500494" lon="13.271682301080206"><ele>1447.0</ele><time>2026-05-03T10:40:45.944Z</time></trkpt><trkpt lat="41.97112106346996" lon="13.271790374293497"><ele>1447.0</ele><time>2026-05-03T10:40:46.944Z</time></trkpt><trkpt lat="41.971154041974806" lon="13.271869132713078"><ele>1448.0</ele><time>2026-05-03T10:40:47.944Z</time></trkpt><trkpt lat="41.971193242442936" lon="13.27196787495751"><ele>1449.0</ele><time>2026-05-03T10:40:48.944Z</time></trkpt><trkpt lat="41.9712247341027" lon="13.27207113680332"><ele>1450.0</ele><time>2026-05-03T10:40:49.944Z</time></trkpt><trkpt lat="41.97126987211868" lon="13.27213855175651"><ele>1451.0</ele><time>2026-05-03T10:40:50.944Z</time></trkpt><trkpt lat="41.97130771774145" lon="13.272226698329254"><ele>1452.0</ele><time>2026-05-03T10:40:51.944Z</time></trkpt><trkpt lat="41.97134992580088" lon="13.272314283546821"><ele>1453.0</ele><time>2026-05-03T10:40:52.944Z</time></trkpt><trkpt lat="41.9713879239486" lon="13.272399997253189"><ele>1453.0</ele><time>2026-05-03T10:40:53.944Z</time></trkpt><trkpt lat="41.971439491173754" lon="13.272492174404915"><ele>1453.0</ele><time>2026-05-03T10:40:54.944Z</time></trkpt><trkpt lat="41.9714835466607" lon="13.272578106217171"><ele>1453.0</ele><time>2026-05-03T10:40:55.944Z</time></trkpt><trkpt lat="41.97153387511357" lon="13.272661926667373"><ele>1453.0</ele><time>2026-05-03T10:40:56.944Z</time></trkpt><trkpt lat="41.97157804722725" lon="13.272791663078305"><ele>1453.0</ele><time>2026-05-03T10:40:58.944Z</time></trkpt><trkpt lat="41.97157928252236" lon="13.272962508708385"><ele>1453.8000000000002</ele><time>2026-05-03T10:41:00.944Z</time></trkpt><trkpt lat="41.97154696386484" lon="13.273114458946088"><ele>1454.6</ele><time>2026-05-03T10:41:02.944Z</time></trkpt><trkpt lat="41.97147792921621" lon="13.273216635895782"><ele>1455.4</ele><time>2026-05-03T10:41:04.944Z</time></trkpt><trkpt lat="41.971379410972716" lon="13.273277606045653"><ele>1456.1999999999998</ele><time>2026-05-03T10:41:06.944Z</time></trkpt><trkpt lat="41.971287664701435" lon="13.273282931840045"><ele>1457.0</ele><time>2026-05-03T10:41:08.944Z</time></trkpt><trkpt lat="41.97121772937225" lon="13.27326005261559"><ele>1457.0</ele><time>2026-05-03T10:41:10.944Z</time></trkpt><trkpt lat="41.97115193017363" lon="13.27324272131898"><ele>1457.0</ele><time>2026-05-03T10:41:11.944Z</time></trkpt><trkpt lat="41.971082701551076" lon="13.273248122266951"><ele>1457.0</ele><time>2026-05-03T10:41:12.944Z</time></trkpt><trkpt lat="41.97101962794702" lon="13.273269657396327"><ele>1457.0</ele><time>2026-05-03T10:41:13.944Z</time></trkpt><trkpt lat="41.97092397935188" lon="13.27329697101587"><ele>1457.0</ele><time>2026-05-03T10:41:15.944Z</time></trkpt><trkpt lat="41.970891071976034" lon="13.273381006783081"><ele>1457.0</ele><time>2026-05-03T10:41:18.944Z</time></trkpt><trkpt lat="41.97096932565386" lon="13.273419649333619"><ele>1457.0</ele><time>2026-05-03T10:41:22.944Z</time></trkpt><trkpt lat="41.971036037601024" lon="13.273403345536956"><ele>1457.0</ele><time>2026-05-03T10:41:23.944Z</time></trkpt><trkpt lat="41.97112400406045" lon="13.273441165493265"><ele>1457.0</ele><time>2026-05-03T10:41:25.944Z</time></trkpt><trkpt lat="41.97121495383054" lon="13.273565325108386"><ele>1457.0</ele><time>2026-05-03T10:41:27.944Z</time></trkpt><trkpt lat="41.97125723272586" lon="13.273628635696399"><ele>1457.0</ele><time>2026-05-03T10:41:28.944Z</time></trkpt><trkpt lat="41.97132254911916" lon="13.27372280408782"><ele>1457.0</ele><time>2026-05-03T10:41:30.944Z</time></trkpt><trkpt lat="41.97141022271115" lon="13.273776169869732"><ele>1457.0</ele><time>2026-05-03T10:41:32.944Z</time></trkpt><trkpt lat="41.97153515794137" lon="13.273761041867475"><ele>1457.0</ele><time>2026-05-03T10:41:34.944Z</time></trkpt><trkpt lat="41.97163313164686" lon="13.27366828976938"><ele>1457.0</ele><time>2026-05-03T10:41:36.944Z</time></trkpt><trkpt lat="41.97168671141516" lon="13.273577859345924"><ele>1457.0</ele><time>2026-05-03T10:41:37.944Z</time></trkpt><trkpt lat="41.971733992929224" lon="13.273498799267418"><ele>1457.0</ele><time>2026-05-03T10:41:38.944Z</time></trkpt><trkpt lat="41.971784879457054" lon="13.273408024375978"><ele>1460.6666666666667</ele><time>2026-05-03T10:41:39.944Z</time></trkpt><trkpt lat="41.97183833779535" lon="13.273335237573484"><ele>1464.3333333333335</ele><time>2026-05-03T10:41:40.944Z</time></trkpt><trkpt lat="41.97189430493205" lon="13.27327797521634"><ele>1468.0</ele><time>2026-05-03T10:41:41.944Z</time></trkpt><trkpt lat="41.97195701343161" lon="13.273220979760957"><ele>1471.6666666666667</ele><time>2026-05-03T10:41:42.944Z</time></trkpt><trkpt lat="41.97203529392592" lon="13.273142719449213"><ele>1475.3333333333333</ele><time>2026-05-03T10:41:43.944Z</time></trkpt><trkpt lat="41.972117964180036" lon="13.27308490011923"><ele>1479.0</ele><time>2026-05-03T10:41:44.944Z</time></trkpt><trkpt lat="41.97219777748047" lon="13.273043809178487"><ele>1479.0</ele><time>2026-05-03T10:41:45.944Z</time></trkpt><trkpt lat="41.972271861531574" lon="13.272997562177121"><ele>1479.0</ele><time>2026-05-03T10:41:46.944Z</time></trkpt><trkpt lat="41.97235199051199" lon="13.272946430421692"><ele>1479.0</ele><time>2026-05-03T10:41:47.944Z</time></trkpt><trkpt lat="41.9724230756967" lon="13.272907313112679"><ele>1479.0</ele><time>2026-05-03T10:41:48.944Z</time></trkpt><trkpt lat="41.97248069366109" lon="13.272868876078428"><ele>1479.0</ele><time>2026-05-03T10:41:49.944Z</time></trkpt><trkpt lat="41.97254809112073" lon="13.272794110504755"><ele>1479.0</ele><time>2026-05-03T10:41:50.944Z</time></trkpt><trkpt lat="41.97262514882473" lon="13.272747645673487"><ele>1481.0</ele><time>2026-05-03T10:41:51.944Z</time></trkpt><trkpt lat="41.97270581248953" lon="13.27272343275466"><ele>1483.0</ele><time>2026-05-03T10:41:52.944Z</time></trkpt><trkpt lat="41.9727779579054" lon="13.272724646061972"><ele>1485.0</ele><time>2026-05-03T10:41:53.944Z</time></trkpt><trkpt lat="41.97285749120438" lon="13.272740286725567"><ele>1487.0</ele><time>2026-05-03T10:41:54.944Z</time></trkpt><trkpt lat="41.97293441044066" lon="13.27274838802836"><ele>1489.0</ele><time>2026-05-03T10:41:55.944Z</time></trkpt><trkpt lat="41.97300487602629" lon="13.272750907674489"><ele>1491.0</ele><time>2026-05-03T10:41:56.944Z</time></trkpt><trkpt lat="41.97315938770398" lon="13.27275991525444"><ele>1491.0</ele><time>2026-05-03T10:41:58.944Z</time></trkpt><trkpt lat="41.97323384118641" lon="13.272752256349365"><ele>1491.0</ele><time>2026-05-03T10:41:59.944Z</time></trkpt><trkpt lat="41.97330559973946" lon="13.272748998716786"><ele>1491.0</ele><time>2026-05-03T10:42:00.944Z</time></trkpt><trkpt lat="41.97337282289853" lon="13.272743208758383"><ele>1491.0</ele><time>2026-05-03T10:42:01.944Z</time></trkpt><trkpt lat="41.9734500749203" lon="13.272746337765927"><ele>1491.0</ele><time>2026-05-03T10:42:02.944Z</time></trkpt><trkpt lat="41.97361429390044" lon="13.272757587284191"><ele>1490.6666666666667</ele><time>2026-05-03T10:42:04.944Z</time></trkpt><trkpt lat="41.97371187285948" lon="13.272754076556875"><ele>1490.3333333333333</ele><time>2026-05-03T10:42:05.944Z</time></trkpt><trkpt lat="41.973785744735345" lon="13.272744813029325"><ele>1490.0</ele><time>2026-05-03T10:42:06.944Z</time></trkpt><trkpt lat="41.97387080342144" lon="13.272750024246236"><ele>1489.6666666666665</ele><time>2026-05-03T10:42:07.944Z</time></trkpt><trkpt lat="41.973964621389875" lon="13.27274919129606"><ele>1489.3333333333333</ele><time>2026-05-03T10:42:08.944Z</time></trkpt><trkpt lat="41.97404692325917" lon="13.272753451951258"><ele>1489.0</ele><time>2026-05-03T10:42:09.944Z</time></trkpt><trkpt lat="41.97412622924078" lon="13.272770260059596"><ele>1486.8333333333333</ele><time>2026-05-03T10:42:10.944Z</time></trkpt><trkpt lat="41.97419933836659" lon="13.272775471664367"><ele>1484.6666666666665</ele><time>2026-05-03T10:42:11.944Z</time></trkpt><trkpt lat="41.97428279932525" lon="13.272805683053313"><ele>1482.5</ele><time>2026-05-03T10:42:12.946Z</time></trkpt><trkpt lat="41.974357272633235" lon="13.272805732365773"><ele>1480.3333333333333</ele><time>2026-05-03T10:42:13.948Z</time></trkpt><trkpt lat="41.97445888839487" lon="13.272787127248101"><ele>1478.1666666666667</ele><time>2026-05-03T10:42:14.949Z</time></trkpt><trkpt lat="41.97454047018172" lon="13.27275091526247"><ele>1476.0</ele><time>2026-05-03T10:42:15.951Z</time></trkpt><trkpt lat="41.974610109920256" lon="13.272720779326718"><ele>1476.0</ele><time>2026-05-03T10:42:16.952Z</time></trkpt><trkpt lat="41.97472847514578" lon="13.272627496118746"><ele>1476.0</ele><time>2026-05-03T10:42:18.954Z</time></trkpt><trkpt lat="41.97477974917815" lon="13.272542954650921"><ele>1476.0</ele><time>2026-05-03T10:42:19.955Z</time></trkpt><trkpt lat="41.974837301616944" lon="13.272462817199493"><ele>1476.0</ele><time>2026-05-03T10:42:20.957Z</time></trkpt><trkpt lat="41.97489901093039" lon="13.272385572389652"><ele>1476.0</ele><time>2026-05-03T10:42:21.958Z</time></trkpt><trkpt lat="41.974965127190394" lon="13.272345331310472"><ele>1474.8333333333333</ele><time>2026-05-03T10:42:22.958Z</time></trkpt><trkpt lat="41.97503199101976" lon="13.272325193649287"><ele>1473.6666666666667</ele><time>2026-05-03T10:42:23.959Z</time></trkpt><trkpt lat="41.9751060040753" lon="13.272326601616108"><ele>1472.5</ele><time>2026-05-03T10:42:24.959Z</time></trkpt><trkpt lat="41.97517291815172" lon="13.272372198689961"><ele>1471.3333333333335</ele><time>2026-05-03T10:42:25.961Z</time></trkpt><trkpt lat="41.97526088475945" lon="13.272413323339576"><ele>1470.1666666666667</ele><time>2026-05-03T10:42:26.961Z</time></trkpt><trkpt lat="41.97537214047973" lon="13.272451128602153"><ele>1469.0</ele><time>2026-05-03T10:42:27.961Z</time></trkpt><trkpt lat="41.97547440513314" lon="13.272503799641001"><ele>1469.0</ele><time>2026-05-03T10:42:28.962Z</time></trkpt><trkpt lat="41.97556861143555" lon="13.272544951599924"><ele>1469.0</ele><time>2026-05-03T10:42:29.963Z</time></trkpt><trkpt lat="41.97565572474536" lon="13.272580420754457"><ele>1469.0</ele><time>2026-05-03T10:42:30.964Z</time></trkpt><trkpt lat="41.97574364338573" lon="13.27261548261155"><ele>1469.0</ele><time>2026-05-03T10:42:31.964Z</time></trkpt><trkpt lat="41.97583748886599" lon="13.272659655256202"><ele>1469.0</ele><time>2026-05-03T10:42:32.965Z</time></trkpt><trkpt lat="41.9759327008688" lon="13.272692271213991"><ele>1469.8000000000002</ele><time>2026-05-03T10:42:33.965Z</time></trkpt><trkpt lat="41.97602988842037" lon="13.272724459477935"><ele>1470.6000000000001</ele><time>2026-05-03T10:42:34.965Z</time></trkpt><trkpt lat="41.976127351368284" lon="13.272757177154102"><ele>1471.4</ele><time>2026-05-03T10:42:35.965Z</time></trkpt><trkpt lat="41.97622750961711" lon="13.272785158828118"><ele>1472.2</ele><time>2026-05-03T10:42:36.966Z</time></trkpt><trkpt lat="41.97631410647116" lon="13.272814433008872"><ele>1473.0</ele><time>2026-05-03T10:42:37.966Z</time></trkpt><trkpt lat="41.97639761249509" lon="13.272847570083059"><ele>1473.0</ele><time>2026-05-03T10:42:38.967Z</time></trkpt><trkpt lat="41.976482640159695" lon="13.272878258558515"><ele>1473.0</ele><time>2026-05-03T10:42:39.967Z</time></trkpt><trkpt lat="41.97655131472686" lon="13.272901928406196"><ele>1473.0</ele><time>2026-05-03T10:42:40.967Z</time></trkpt><trkpt lat="41.9766253252299" lon="13.2729160347152"><ele>1473.0</ele><time>2026-05-03T10:42:41.967Z</time></trkpt><trkpt lat="41.97673410887029" lon="13.272902674834189"><ele>1473.0</ele><time>2026-05-03T10:42:43.968Z</time></trkpt><trkpt lat="41.976818386901805" lon="13.272904599320587"><ele>1473.0</ele><time>2026-05-03T10:42:44.968Z</time></trkpt><trkpt lat="41.976881267945494" lon="13.272899022997509"><ele>1472.8000000000002</ele><time>2026-05-03T10:42:45.968Z</time></trkpt><trkpt lat="41.97699597855326" lon="13.272899948013132"><ele>1472.6</ele><time>2026-05-03T10:42:47.969Z</time></trkpt><trkpt lat="41.977080870969296" lon="13.272892669047813"><ele>1472.4</ele><time>2026-05-03T10:42:48.969Z</time></trkpt><trkpt lat="41.977181846279585" lon="13.272869911744799"><ele>1472.1999999999998</ele><time>2026-05-03T10:42:49.969Z</time></trkpt><trkpt lat="41.97726843541661" lon="13.272842996204487"><ele>1472.0</ele><time>2026-05-03T10:42:50.969Z</time></trkpt><trkpt lat="41.977354033108504" lon="13.272817369410737"><ele>1472.0</ele><time>2026-05-03T10:42:51.969Z</time></trkpt><trkpt lat="41.977437139026904" lon="13.272780868415015"><ele>1472.0</ele><time>2026-05-03T10:42:52.97Z</time></trkpt><trkpt lat="41.97752261636446" lon="13.272741948827841"><ele>1472.0</ele><time>2026-05-03T10:42:53.97Z</time></trkpt><trkpt lat="41.977605841035825" lon="13.272711585175712"><ele>1472.0</ele><time>2026-05-03T10:42:54.97Z</time></trkpt><trkpt lat="41.97767654728097" lon="13.272689052670016"><ele>1472.0</ele><time>2026-05-03T10:42:55.97Z</time></trkpt><trkpt lat="41.977824624899206" lon="13.272678734583186"><ele>1471.5</ele><time>2026-05-03T10:42:57.97Z</time></trkpt><trkpt lat="41.97789172187514" lon="13.272690268897279"><ele>1471.0</ele><time>2026-05-03T10:42:58.97Z</time></trkpt><trkpt lat="41.978003340530364" lon="13.272750944268022"><ele>1470.5</ele><time>2026-05-03T10:43:00.97Z</time></trkpt><trkpt lat="41.97807044897183" lon="13.272812116474416"><ele>1470.0</ele><time>2026-05-03T10:43:01.97Z</time></trkpt><trkpt lat="41.97811439342315" lon="13.2728802247866"><ele>1469.5</ele><time>2026-05-03T10:43:02.971Z</time></trkpt><trkpt lat="41.97817831959785" lon="13.272987264402433"><ele>1469.0</ele><time>2026-05-03T10:43:04.971Z</time></trkpt><trkpt lat="41.978258872974884" lon="13.273098342148156"><ele>1466.6666666666667</ele><time>2026-05-03T10:43:06.971Z</time></trkpt><trkpt lat="41.97832527518594" lon="13.273147953225138"><ele>1464.3333333333335</ele><time>2026-05-03T10:43:08.971Z</time></trkpt><trkpt lat="41.97840672990696" lon="13.273155855670236"><ele>1462.0</ele><time>2026-05-03T10:43:10.971Z</time></trkpt><trkpt lat="41.97849173218253" lon="13.273093580130334"><ele>1459.6666666666667</ele><time>2026-05-03T10:43:12.971Z</time></trkpt><trkpt lat="41.97856796142477" lon="13.273028874541385"><ele>1457.3333333333333</ele><time>2026-05-03T10:43:14.971Z</time></trkpt><trkpt lat="41.978639174168855" lon="13.272941490679324"><ele>1455.0</ele><time>2026-05-03T10:43:16.971Z</time></trkpt><trkpt lat="41.97871709252625" lon="13.272852731706962"><ele>1455.0</ele><time>2026-05-03T10:43:18.971Z</time></trkpt><trkpt lat="41.97880253161143" lon="13.27272682906447"><ele>1455.0</ele><time>2026-05-03T10:43:20.971Z</time></trkpt><trkpt lat="41.97885900756164" lon="13.272673049511374"><ele>1455.0</ele><time>2026-05-03T10:43:21.971Z</time></trkpt><trkpt lat="41.97895679056042" lon="13.272597937534888"><ele>1455.0</ele><time>2026-05-03T10:43:23.971Z</time></trkpt><trkpt lat="41.979043890051386" lon="13.272530910406475"><ele>1455.0</ele><time>2026-05-03T10:43:25.971Z</time></trkpt><trkpt lat="41.97911541771777" lon="13.272440256199989"><ele>1454.1666666666667</ele><time>2026-05-03T10:43:27.972Z</time></trkpt><trkpt lat="41.97918571825393" lon="13.272355329483846"><ele>1453.3333333333333</ele><time>2026-05-03T10:43:29.972Z</time></trkpt><trkpt lat="41.97927433032399" lon="13.272288122810902"><ele>1452.5</ele><time>2026-05-03T10:43:31.972Z</time></trkpt><trkpt lat="41.979346426367705" lon="13.272200640690926"><ele>1451.6666666666665</ele><time>2026-05-03T10:43:33.972Z</time></trkpt><trkpt lat="41.97940452791584" lon="13.272136582662311"><ele>1450.8333333333333</ele><time>2026-05-03T10:43:35.972Z</time></trkpt><trkpt lat="41.979469209456525" lon="13.272091333604953"><ele>1450.0</ele><time>2026-05-03T10:43:36.972Z</time></trkpt><trkpt lat="41.97955549744474" lon="13.272043522175037"><ele>1450.0</ele><time>2026-05-03T10:43:37.972Z</time></trkpt><trkpt lat="41.97965191414573" lon="13.271987995674714"><ele>1450.0</ele><time>2026-05-03T10:43:39.972Z</time></trkpt><trkpt lat="41.97977638985233" lon="13.271911380025848"><ele>1450.0</ele><time>2026-05-03T10:43:41.972Z</time></trkpt><trkpt lat="41.97984343516715" lon="13.271876467242137"><ele>1450.0</ele><time>2026-05-03T10:43:42.972Z</time></trkpt><trkpt lat="41.97990955138694" lon="13.27183918754108"><ele>1450.0</ele><time>2026-05-03T10:43:43.972Z</time></trkpt><trkpt lat="41.980018234653684" lon="13.27177576538795"><ele>1447.6</ele><time>2026-05-03T10:43:45.972Z</time></trkpt><trkpt lat="41.9801638624234" lon="13.27174129514413"><ele>1445.2</ele><time>2026-05-03T10:43:47.972Z</time></trkpt><trkpt lat="41.9802355145177" lon="13.27173624220524"><ele>1442.8000000000002</ele><time>2026-05-03T10:43:48.972Z</time></trkpt><trkpt lat="41.98034836217066" lon="13.271725159255784"><ele>1440.4</ele><time>2026-05-03T10:43:49.972Z</time></trkpt><trkpt lat="41.98043811991745" lon="13.271716297934569"><ele>1438.0</ele><time>2026-05-03T10:43:50.972Z</time></trkpt><trkpt lat="41.98051923313036" lon="13.271705695580618"><ele>1437.9999999999998</ele><time>2026-05-03T10:43:51.972Z</time></trkpt><trkpt lat="41.980602984764104" lon="13.271724054560986"><ele>1438.0</ele><time>2026-05-03T10:43:52.972Z</time></trkpt><trkpt lat="41.98067392590483" lon="13.271743067452478"><ele>1438.0</ele><time>2026-05-03T10:43:53.972Z</time></trkpt><trkpt lat="41.98072597650793" lon="13.271813610920946"><ele>1438.0</ele><time>2026-05-03T10:43:54.972Z</time></trkpt><trkpt lat="41.98077036173965" lon="13.271901210501154"><ele>1438.0</ele><time>2026-05-03T10:43:55.972Z</time></trkpt><trkpt lat="41.980804398871754" lon="13.27199158638907"><ele>1437.9999999999998</ele><time>2026-05-03T10:43:56.972Z</time></trkpt><trkpt lat="41.98083970558386" lon="13.272062472899226"><ele>1438.0</ele><time>2026-05-03T10:43:57.972Z</time></trkpt><trkpt lat="41.98087583686202" lon="13.27214981837371"><ele>1438.8000000000002</ele><time>2026-05-03T10:43:58.972Z</time></trkpt><trkpt lat="41.98093484760064" lon="13.272232784013328"><ele>1439.6</ele><time>2026-05-03T10:43:59.972Z</time></trkpt><trkpt lat="41.98103375511315" lon="13.272284671095033"><ele>1440.4</ele><time>2026-05-03T10:44:00.972Z</time></trkpt><trkpt lat="41.98111275428976" lon="13.27233013588765"><ele>1441.1999999999998</ele><time>2026-05-03T10:44:01.972Z</time></trkpt><trkpt lat="41.981213386893266" lon="13.272324649626766"><ele>1442.0</ele><time>2026-05-03T10:44:02.972Z</time></trkpt><trkpt lat="41.98132306727591" lon="13.272313941906239"><ele>1439.0</ele><time>2026-05-03T10:44:03.972Z</time></trkpt><trkpt lat="41.981423746310256" lon="13.272309306378427"><ele>1436.0</ele><time>2026-05-03T10:44:04.972Z</time></trkpt><trkpt lat="41.98152811912613" lon="13.272315052268228"><ele>1433.0</ele><time>2026-05-03T10:44:05.972Z</time></trkpt><trkpt lat="41.9816060919054" lon="13.272333947715513"><ele>1430.0</ele><time>2026-05-03T10:44:06.972Z</time></trkpt><trkpt lat="41.98169017294218" lon="13.272364147508068"><ele>1427.0</ele><time>2026-05-03T10:44:07.972Z</time></trkpt><trkpt lat="41.98177076294758" lon="13.272384056974888"><ele>1427.0</ele><time>2026-05-03T10:44:08.972Z</time></trkpt><trkpt lat="41.9818567219561" lon="13.272435975586252"><ele>1427.0</ele><time>2026-05-03T10:44:10.972Z</time></trkpt><trkpt lat="41.98191301509506" lon="13.272490930940767"><ele>1427.0</ele><time>2026-05-03T10:44:12.972Z</time></trkpt><trkpt lat="41.98194938309382" lon="13.272564483532538"><ele>1427.0</ele><time>2026-05-03T10:44:14.972Z</time></trkpt><trkpt lat="41.981960098183045" lon="13.27265478495071"><ele>1427.0</ele><time>2026-05-03T10:44:16.972Z</time></trkpt><trkpt lat="41.982020288844936" lon="13.27273661330327"><ele>1427.0</ele><time>2026-05-03T10:44:19.972Z</time></trkpt><trkpt lat="41.98196079233271" lon="13.272781968685319"><ele>1427.0</ele><time>2026-05-03T10:46:00.971Z</time></trkpt><trkpt lat="41.98186512859029" lon="13.272766798464705"><ele>1427.0</ele><time>2026-05-03T10:46:15.971Z</time></trkpt><trkpt lat="41.98178717301787" lon="13.27281436835719"><ele>1427.0</ele><time>2026-05-03T10:46:17.971Z</time></trkpt><trkpt lat="41.98173959926913" lon="13.272937531150339"><ele>1427.0</ele><time>2026-05-03T10:46:19.972Z</time></trkpt><trkpt lat="41.981723554936885" lon="13.273076340397374"><ele>1427.0</ele><time>2026-05-03T10:46:21.972Z</time></trkpt><trkpt lat="41.98171005281517" lon="13.273255474109648"><ele>1424.8</ele><time>2026-05-03T10:46:23.972Z</time></trkpt><trkpt lat="41.98170253734422" lon="13.273395581939175"><ele>1422.6</ele><time>2026-05-03T10:46:25.972Z</time></trkpt><trkpt lat="41.981683715607275" lon="13.273520400988653"><ele>1420.3999999999999</ele><time>2026-05-03T10:46:27.972Z</time></trkpt><trkpt lat="41.981633070158374" lon="13.273638994796194"><ele>1418.1999999999998</ele><time>2026-05-03T10:46:29.972Z</time></trkpt><trkpt lat="41.981524535084" lon="13.273721598535015"><ele>1416.0</ele><time>2026-05-03T10:46:31.972Z</time></trkpt><trkpt lat="41.98145643713697" lon="13.273741346611208"><ele>1415.6666666666667</ele><time>2026-05-03T10:46:32.972Z</time></trkpt><trkpt lat="41.98137834330629" lon="13.273765634076087"><ele>1415.3333333333333</ele><time>2026-05-03T10:46:33.972Z</time></trkpt><trkpt lat="41.981296291744165" lon="13.273805401942598"><ele>1415.0</ele><time>2026-05-03T10:46:34.972Z</time></trkpt><trkpt lat="41.98121412519577" lon="13.273843933968735"><ele>1414.6666666666665</ele><time>2026-05-03T10:46:35.972Z</time></trkpt><trkpt lat="41.981133120383085" lon="13.273882595838012"><ele>1414.3333333333333</ele><time>2026-05-03T10:46:36.97Z</time></trkpt><trkpt lat="41.98104920564488" lon="13.273908847685577"><ele>1414.0</ele><time>2026-05-03T10:46:37.97Z</time></trkpt><trkpt lat="41.980971548023085" lon="13.273940952848955"><ele>1413.3333333333333</ele><time>2026-05-03T10:46:38.97Z</time></trkpt><trkpt lat="41.98089837678745" lon="13.273988710317896"><ele>1412.6666666666665</ele><time>2026-05-03T10:46:39.97Z</time></trkpt><trkpt lat="41.980846843131786" lon="13.274053237172842"><ele>1412.0</ele><time>2026-05-03T10:46:40.97Z</time></trkpt><trkpt lat="41.98080784263321" lon="13.274126386123006"><ele>1411.3333333333333</ele><time>2026-05-03T10:46:41.97Z</time></trkpt><trkpt lat="41.98077878654969" lon="13.274273269552632"><ele>1410.6666666666667</ele><time>2026-05-03T10:46:43.97Z</time></trkpt><trkpt lat="41.980785084374155" lon="13.274372337190147"><ele>1410.0</ele><time>2026-05-03T10:46:45.97Z</time></trkpt><trkpt lat="41.98077202739721" lon="13.27446597771387"><ele>1406.0</ele><time>2026-05-03T10:46:49.97Z</time></trkpt><trkpt lat="41.98070531407579" lon="13.274483269021255"><ele>1406.0</ele><time>2026-05-03T10:46:55.97Z</time></trkpt><trkpt lat="41.98063570812868" lon="13.274450890589948"><ele>1406.0</ele><time>2026-05-03T10:47:00.97Z</time></trkpt></trkseg></trk></gpx>